<?xml version="1.0" encoding="utf-8"?>
<gpx xmlns:xsi="http://www.w3.org/2001/XMLSchema-instance" xmlns:xsd="http://www.w3.org/2001/XMLSchema" version="1.1" creator="Shapelink.com" xmlns="http://www.topografix.com/GPX/1/1" xmlns:gpxtpx="http://www.garmin.com/xmlschemas/TrackPointExtension/v1">
  <metadata>
    <name>Löpning 10.33 km, 2018-01-22</name>
    <desc></desc>
    <author><name>Bengt-Åke Forslund</name></author> 
    <time>2018-01-22T18:05:14Z</time>
  </metadata>
  <trk>
    <name>Löpning 10.33 km, 2018-01-22</name>
    <trkseg>
      <trkpt lat="62.637283738334" lon="17.966087414607">
        <ele>58.4</ele>
        <time>2018-01-22T18:05:14Z</time>
      </trkpt>
      <trkpt lat="62.637272674226" lon="17.966219178075">
        <ele>58.4</ele>
        <time>2018-01-22T18:05:15Z</time>
      </trkpt>
      <trkpt lat="62.637276110805" lon="17.96633945834">
        <ele>57.8</ele>
        <time>2018-01-22T18:05:16Z</time>
      </trkpt>
      <trkpt lat="62.637271165484" lon="17.966405172436">
        <ele>58</ele>
        <time>2018-01-22T18:05:17Z</time>
      </trkpt>
      <trkpt lat="62.637282900144" lon="17.966438113303">
        <ele>58.2</ele>
        <time>2018-01-22T18:05:18Z</time>
      </trkpt>
      <trkpt lat="62.637285666171" lon="17.966444651185">
        <ele>58.2</ele>
        <time>2018-01-22T18:05:19Z</time>
      </trkpt>
      <trkpt lat="62.637285163257" lon="17.966402154952">
        <ele>58.2</ele>
        <time>2018-01-22T18:05:20Z</time>
      </trkpt>
      <trkpt lat="62.637282732506" lon="17.966375751967">
        <ele>58.4</ele>
        <time>2018-01-22T18:05:21Z</time>
      </trkpt>
      <trkpt lat="62.637287761646" lon="17.966350103353">
        <ele>58.2</ele>
        <time>2018-01-22T18:05:22Z</time>
      </trkpt>
      <trkpt lat="62.63728742637" lon="17.966306266016">
        <ele>58.2</ele>
        <time>2018-01-22T18:05:23Z</time>
      </trkpt>
      <trkpt lat="62.637288851293" lon="17.966252118942">
        <ele>58.2</ele>
        <time>2018-01-22T18:05:24Z</time>
      </trkpt>
      <trkpt lat="62.637288851293" lon="17.966199983524">
        <ele>58.2</ele>
        <time>2018-01-22T18:05:25Z</time>
      </trkpt>
      <trkpt lat="62.637292371691" lon="17.966150278857">
        <ele>58.2</ele>
        <time>2018-01-22T18:05:26Z</time>
      </trkpt>
      <trkpt lat="62.63730083741" lon="17.966113314678">
        <ele>58.2</ele>
        <time>2018-01-22T18:05:27Z</time>
      </trkpt>
      <trkpt lat="62.637298909573" lon="17.966083307476">
        <ele>58.2</ele>
        <time>2018-01-22T18:05:28Z</time>
      </trkpt>
      <trkpt lat="62.637303603437" lon="17.966060843984">
        <ele>58.2</ele>
        <time>2018-01-22T18:05:29Z</time>
      </trkpt>
      <trkpt lat="62.637306788559" lon="17.966055228111">
        <ele>58</ele>
        <time>2018-01-22T18:05:30Z</time>
      </trkpt>
      <trkpt lat="62.637306620921" lon="17.96606537021">
        <ele>58</ele>
        <time>2018-01-22T18:05:31Z</time>
      </trkpt>
      <trkpt lat="62.637306620921" lon="17.96606537021">
        <ele>58.2</ele>
        <time>2018-01-22T18:05:32Z</time>
      </trkpt>
      <trkpt lat="62.637311314785" lon="17.966116667438">
        <ele>58</ele>
        <time>2018-01-22T18:05:34Z</time>
      </trkpt>
      <trkpt lat="62.637324893463" lon="17.96615338016">
        <ele>58</ele>
        <time>2018-01-22T18:05:35Z</time>
      </trkpt>
      <trkpt lat="62.637339813245" lon="17.966157822567">
        <ele>58</ele>
        <time>2018-01-22T18:05:36Z</time>
      </trkpt>
      <trkpt lat="62.637352637552" lon="17.966181543344">
        <ele>58</ele>
        <time>2018-01-22T18:05:37Z</time>
      </trkpt>
      <trkpt lat="62.637361522366" lon="17.966223871939">
        <ele>58</ele>
        <time>2018-01-22T18:05:38Z</time>
      </trkpt>
      <trkpt lat="62.637380046365" lon="17.966272654597">
        <ele>58</ele>
        <time>2018-01-22T18:05:39Z</time>
      </trkpt>
      <trkpt lat="62.637387925351" lon="17.966306098378">
        <ele>58.2</ele>
        <time>2018-01-22T18:05:40Z</time>
      </trkpt>
      <trkpt lat="62.637396642527" lon="17.966336357037">
        <ele>58.4</ele>
        <time>2018-01-22T18:05:41Z</time>
      </trkpt>
      <trkpt lat="62.637398570364" lon="17.966369465542">
        <ele>58.4</ele>
        <time>2018-01-22T18:05:42Z</time>
      </trkpt>
      <trkpt lat="62.637393289767" lon="17.966414392526">
        <ele>58.4</ele>
        <time>2018-01-22T18:05:43Z</time>
      </trkpt>
      <trkpt lat="62.637399157097" lon="17.966450267058">
        <ele>58.4</ele>
        <time>2018-01-22T18:05:44Z</time>
      </trkpt>
      <trkpt lat="62.637398821821" lon="17.96648446521">
        <ele>58.2</ele>
        <time>2018-01-22T18:05:45Z</time>
      </trkpt>
      <trkpt lat="62.637406365531" lon="17.9665020672">
        <ele>58.2</ele>
        <time>2018-01-22T18:05:46Z</time>
      </trkpt>
      <trkpt lat="62.63740644935" lon="17.966499720268">
        <ele>58.2</ele>
        <time>2018-01-22T18:05:47Z</time>
      </trkpt>
      <trkpt lat="62.63740142021" lon="17.966487398875">
        <ele>58.2</ele>
        <time>2018-01-22T18:05:48Z</time>
      </trkpt>
      <trkpt lat="62.637372670293" lon="17.966527464357">
        <ele>58.2</ele>
        <time>2018-01-22T18:05:50Z</time>
      </trkpt>
      <trkpt lat="62.637355068303" lon="17.966533415506">
        <ele>58.2</ele>
        <time>2018-01-22T18:05:51Z</time>
      </trkpt>
      <trkpt lat="62.637335035562" lon="17.966503911218">
        <ele>58.4</ele>
        <time>2018-01-22T18:05:52Z</time>
      </trkpt>
      <trkpt lat="62.637345932032" lon="17.966509275634">
        <ele>58.4</ele>
        <time>2018-01-22T18:05:53Z</time>
      </trkpt>
      <trkpt lat="62.637350374439" lon="17.966525201244">
        <ele>58.4</ele>
        <time>2018-01-22T18:05:54Z</time>
      </trkpt>
      <trkpt lat="62.637337214856" lon="17.966522351398">
        <ele>58.4</ele>
        <time>2018-01-22T18:05:55Z</time>
      </trkpt>
      <trkpt lat="62.637331431345" lon="17.96641070449">
        <ele>58.2</ele>
        <time>2018-01-22T18:05:56Z</time>
      </trkpt>
      <trkpt lat="62.63732849768" lon="17.966390755568">
        <ele>58</ele>
        <time>2018-01-22T18:05:57Z</time>
      </trkpt>
      <trkpt lat="62.637324222911" lon="17.966377093071">
        <ele>58</ele>
        <time>2018-01-22T18:05:58Z</time>
      </trkpt>
      <trkpt lat="62.637317433572" lon="17.966349265163">
        <ele>57.8</ele>
        <time>2018-01-22T18:05:59Z</time>
      </trkpt>
      <trkpt lat="62.63731927759" lon="17.966349684258">
        <ele>57.8</ele>
        <time>2018-01-22T18:06:00Z</time>
      </trkpt>
      <trkpt lat="62.637313829355" lon="17.966308361491">
        <ele>57.6</ele>
        <time>2018-01-22T18:06:01Z</time>
      </trkpt>
      <trkpt lat="62.637305531274" lon="17.966278857203">
        <ele>57.6</ele>
        <time>2018-01-22T18:06:02Z</time>
      </trkpt>
      <trkpt lat="62.637300669772" lon="17.966261925765">
        <ele>57.6</ele>
        <time>2018-01-22T18:06:03Z</time>
      </trkpt>
      <trkpt lat="62.637291198225" lon="17.966237534436">
        <ele>57.4</ele>
        <time>2018-01-22T18:06:04Z</time>
      </trkpt>
      <trkpt lat="62.637282648687" lon="17.966207191958">
        <ele>57.2</ele>
        <time>2018-01-22T18:06:05Z</time>
      </trkpt>
      <trkpt lat="62.637282229592" lon="17.966174837824">
        <ele>57.2</ele>
        <time>2018-01-22T18:06:06Z</time>
      </trkpt>
      <trkpt lat="62.637281726678" lon="17.966160840051">
        <ele>57</ele>
        <time>2018-01-22T18:06:07Z</time>
      </trkpt>
      <trkpt lat="62.637278625375" lon="17.966131000487">
        <ele>57</ele>
        <time>2018-01-22T18:06:08Z</time>
      </trkpt>
      <trkpt lat="62.637276781357" lon="17.966099400724">
        <ele>57</ele>
        <time>2018-01-22T18:06:09Z</time>
      </trkpt>
      <trkpt lat="62.637275524072" lon="17.966072411006">
        <ele>57</ele>
        <time>2018-01-22T18:06:10Z</time>
      </trkpt>
      <trkpt lat="62.637277284271" lon="17.966044666917">
        <ele>57</ele>
        <time>2018-01-22T18:06:11Z</time>
      </trkpt>
      <trkpt lat="62.637275524072" lon="17.96601759338">
        <ele>57</ele>
        <time>2018-01-22T18:06:12Z</time>
      </trkpt>
      <trkpt lat="62.637274266787" lon="17.965995465164">
        <ele>57.2</ele>
        <time>2018-01-22T18:06:13Z</time>
      </trkpt>
      <trkpt lat="62.637270578751" lon="17.965958668623">
        <ele>57</ele>
        <time>2018-01-22T18:06:14Z</time>
      </trkpt>
      <trkpt lat="62.637267142172" lon="17.965932433276">
        <ele>57</ele>
        <time>2018-01-22T18:06:15Z</time>
      </trkpt>
      <trkpt lat="62.637264292326" lon="17.965912987268">
        <ele>57</ele>
        <time>2018-01-22T18:06:16Z</time>
      </trkpt>
      <trkpt lat="62.637261023385" lon="17.965886081369">
        <ele>56.8</ele>
        <time>2018-01-22T18:06:17Z</time>
      </trkpt>
      <trkpt lat="62.637262113032" lon="17.965870826311">
        <ele>56.8</ele>
        <time>2018-01-22T18:06:18Z</time>
      </trkpt>
      <trkpt lat="62.637260436652" lon="17.965854481606">
        <ele>57</ele>
        <time>2018-01-22T18:06:19Z</time>
      </trkpt>
      <trkpt lat="62.637250713648" lon="17.965830760829">
        <ele>56.8</ele>
        <time>2018-01-22T18:06:20Z</time>
      </trkpt>
      <trkpt lat="62.637248534354" lon="17.965797400867">
        <ele>56.8</ele>
        <time>2018-01-22T18:06:21Z</time>
      </trkpt>
      <trkpt lat="62.637246271241" lon="17.965777535764">
        <ele>56.8</ele>
        <time>2018-01-22T18:06:22Z</time>
      </trkpt>
      <trkpt lat="62.637243253757" lon="17.965755072272">
        <ele>56.8</ele>
        <time>2018-01-22T18:06:23Z</time>
      </trkpt>
      <trkpt lat="62.637241493558" lon="17.96573009421">
        <ele>56.8</ele>
        <time>2018-01-22T18:06:24Z</time>
      </trkpt>
      <trkpt lat="62.637239565721" lon="17.965714252419">
        <ele>56.8</ele>
        <time>2018-01-22T18:06:25Z</time>
      </trkpt>
      <trkpt lat="62.63723378221" lon="17.965689525814">
        <ele>56.8</ele>
        <time>2018-01-22T18:06:26Z</time>
      </trkpt>
      <trkpt lat="62.637228166337" lon="17.965664799209">
        <ele>56.8</ele>
        <time>2018-01-22T18:06:27Z</time>
      </trkpt>
      <trkpt lat="62.637223975387" lon="17.965644850287">
        <ele>56.8</ele>
        <time>2018-01-22T18:06:28Z</time>
      </trkpt>
      <trkpt lat="62.63721701841" lon="17.965623727899">
        <ele>56.8</ele>
        <time>2018-01-22T18:06:29Z</time>
      </trkpt>
      <trkpt lat="62.637210145252" lon="17.965600845312">
        <ele>56.8</ele>
        <time>2018-01-22T18:06:30Z</time>
      </trkpt>
      <trkpt lat="62.637205619026" lon="17.965578549458">
        <ele>56.8</ele>
        <time>2018-01-22T18:06:31Z</time>
      </trkpt>
      <trkpt lat="62.637197991497" lon="17.965550470093">
        <ele>56.8</ele>
        <time>2018-01-22T18:06:32Z</time>
      </trkpt>
      <trkpt lat="62.637192291805" lon="17.965526581678">
        <ele>56.8</ele>
        <time>2018-01-22T18:06:33Z</time>
      </trkpt>
      <trkpt lat="62.637184412819" lon="17.965494981915">
        <ele>57</ele>
        <time>2018-01-22T18:06:34Z</time>
      </trkpt>
      <trkpt lat="62.637177707299" lon="17.96546857893">
        <ele>57</ele>
        <time>2018-01-22T18:06:35Z</time>
      </trkpt>
      <trkpt lat="62.637169073942" lon="17.965430608923">
        <ele>57</ele>
        <time>2018-01-22T18:06:36Z</time>
      </trkpt>
      <trkpt lat="62.637156081997" lon="17.965403703024">
        <ele>57</ele>
        <time>2018-01-22T18:06:37Z</time>
      </trkpt>
      <trkpt lat="62.637142335681" lon="17.965361206791">
        <ele>57</ele>
        <time>2018-01-22T18:06:38Z</time>
      </trkpt>
      <trkpt lat="62.637129679012" lon="17.965318123825">
        <ele>57</ele>
        <time>2018-01-22T18:06:39Z</time>
      </trkpt>
      <trkpt lat="62.637115429782" lon="17.965276717239">
        <ele>57.2</ele>
        <time>2018-01-22T18:06:40Z</time>
      </trkpt>
      <trkpt lat="62.637102018742" lon="17.96523807668">
        <ele>57.2</ele>
        <time>2018-01-22T18:06:41Z</time>
      </trkpt>
      <trkpt lat="62.637093133928" lon="17.965199100845">
        <ele>57.4</ele>
        <time>2018-01-22T18:06:42Z</time>
      </trkpt>
      <trkpt lat="62.637081566906" lon="17.965177140267">
        <ele>57.4</ele>
        <time>2018-01-22T18:06:43Z</time>
      </trkpt>
      <trkpt lat="62.637067066219" lon="17.965135901319">
        <ele>57.4</ele>
        <time>2018-01-22T18:06:44Z</time>
      </trkpt>
      <trkpt lat="62.637055331559" lon="17.965091980163">
        <ele>57.4</ele>
        <time>2018-01-22T18:06:45Z</time>
      </trkpt>
      <trkpt lat="62.637042591071" lon="17.96507211506">
        <ele>57.4</ele>
        <time>2018-01-22T18:06:46Z</time>
      </trkpt>
      <trkpt lat="62.637028341841" lon="17.965020314918">
        <ele>57.2</ele>
        <time>2018-01-22T18:06:47Z</time>
      </trkpt>
      <trkpt lat="62.637019373208" lon="17.964989804802">
        <ele>57.2</ele>
        <time>2018-01-22T18:06:48Z</time>
      </trkpt>
      <trkpt lat="62.637006213625" lon="17.964960300514">
        <ele>57.4</ele>
        <time>2018-01-22T18:06:49Z</time>
      </trkpt>
      <trkpt lat="62.636987521988" lon="17.964924677439">
        <ele>57.4</ele>
        <time>2018-01-22T18:06:50Z</time>
      </trkpt>
      <trkpt lat="62.636972602206" lon="17.964890395468">
        <ele>57.2</ele>
        <time>2018-01-22T18:06:51Z</time>
      </trkpt>
      <trkpt lat="62.63695466494" lon="17.964855359126">
        <ele>57.2</ele>
        <time>2018-01-22T18:06:52Z</time>
      </trkpt>
      <trkpt lat="62.636940080434" lon="17.964823675544">
        <ele>57.2</ele>
        <time>2018-01-22T18:06:53Z</time>
      </trkpt>
      <trkpt lat="62.636920802064" lon="17.964781682225">
        <ele>57.4</ele>
        <time>2018-01-22T18:06:54Z</time>
      </trkpt>
      <trkpt lat="62.636901942789" lon="17.964739856544">
        <ele>57.2</ele>
        <time>2018-01-22T18:06:55Z</time>
      </trkpt>
      <trkpt lat="62.636881407134" lon="17.964700461614">
        <ele>57.2</ele>
        <time>2018-01-22T18:06:56Z</time>
      </trkpt>
      <trkpt lat="62.63686162585" lon="17.964652014232">
        <ele>57.2</ele>
        <time>2018-01-22T18:06:57Z</time>
      </trkpt>
      <trkpt lat="62.636846957525" lon="17.964621755573">
        <ele>57.2</ele>
        <time>2018-01-22T18:06:58Z</time>
      </trkpt>
      <trkpt lat="62.636827846793" lon="17.964573224372">
        <ele>57.2</ele>
        <time>2018-01-22T18:06:59Z</time>
      </trkpt>
      <trkpt lat="62.63681301083" lon="17.964535757279">
        <ele>57.2</ele>
        <time>2018-01-22T18:07:00Z</time>
      </trkpt>
      <trkpt lat="62.636799683609" lon="17.964497535815">
        <ele>57.2</ele>
        <time>2018-01-22T18:07:01Z</time>
      </trkpt>
      <trkpt lat="62.636782584533" lon="17.964465852233">
        <ele>57.2</ele>
        <time>2018-01-22T18:07:02Z</time>
      </trkpt>
      <trkpt lat="62.63676607219" lon="17.964424278009">
        <ele>57.2</ele>
        <time>2018-01-22T18:07:03Z</time>
      </trkpt>
      <trkpt lat="62.636749643666" lon="17.964372561686">
        <ele>57.2</ele>
        <time>2018-01-22T18:07:04Z</time>
      </trkpt>
      <trkpt lat="62.636732963685" lon="17.964335597507">
        <ele>57.2</ele>
        <time>2018-01-22T18:07:05Z</time>
      </trkpt>
      <trkpt lat="62.636716870437" lon="17.964296621672">
        <ele>57.2</ele>
        <time>2018-01-22T18:07:06Z</time>
      </trkpt>
      <trkpt lat="62.636706979795" lon="17.964269548135">
        <ele>57</ele>
        <time>2018-01-22T18:07:07Z</time>
      </trkpt>
      <trkpt lat="62.636690048357" lon="17.964220011106">
        <ele>57</ele>
        <time>2018-01-22T18:07:08Z</time>
      </trkpt>
      <trkpt lat="62.636675715308" lon="17.964168127145">
        <ele>57.2</ele>
        <time>2018-01-22T18:07:09Z</time>
      </trkpt>
      <trkpt lat="62.636663310096" lon="17.964132839346">
        <ele>57.2</ele>
        <time>2018-01-22T18:07:10Z</time>
      </trkpt>
      <trkpt lat="62.636648893228" lon="17.964090259294">
        <ele>57</ele>
        <time>2018-01-22T18:07:11Z</time>
      </trkpt>
      <trkpt lat="62.63663699093" lon="17.964051367278">
        <ele>57</ele>
        <time>2018-01-22T18:07:12Z</time>
      </trkpt>
      <trkpt lat="62.63662777084" lon="17.964027646501">
        <ele>57.2</ele>
        <time>2018-01-22T18:07:13Z</time>
      </trkpt>
      <trkpt lat="62.636608911565" lon="17.96396654245">
        <ele>57</ele>
        <time>2018-01-22T18:07:14Z</time>
      </trkpt>
      <trkpt lat="62.636596087258" lon="17.963927818072">
        <ele>57</ele>
        <time>2018-01-22T18:07:15Z</time>
      </trkpt>
      <trkpt lat="62.636581167476" lon="17.963884818925">
        <ele>57</ele>
        <time>2018-01-22T18:07:16Z</time>
      </trkpt>
      <trkpt lat="62.636566834427" lon="17.963840143398">
        <ele>57</ele>
        <time>2018-01-22T18:07:17Z</time>
      </trkpt>
      <trkpt lat="62.636556357052" lon="17.963803682133">
        <ele>57</ele>
        <time>2018-01-22T18:07:18Z</time>
      </trkpt>
      <trkpt lat="62.636542443098" lon="17.963762694642">
        <ele>56.8</ele>
        <time>2018-01-22T18:07:19Z</time>
      </trkpt>
      <trkpt lat="62.636524924927" lon="17.963739141503">
        <ele>56.8</ele>
        <time>2018-01-22T18:07:20Z</time>
      </trkpt>
      <trkpt lat="62.636505562738" lon="17.963726149558">
        <ele>56.8</ele>
        <time>2018-01-22T18:07:21Z</time>
      </trkpt>
      <trkpt lat="62.636486452006" lon="17.963733190354">
        <ele>57</ele>
        <time>2018-01-22T18:07:22Z</time>
      </trkpt>
      <trkpt lat="62.636468598559" lon="17.963755653846">
        <ele>56.8</ele>
        <time>2018-01-22T18:07:23Z</time>
      </trkpt>
      <trkpt lat="62.63644336904" lon="17.963793288577">
        <ele>56.6</ele>
        <time>2018-01-22T18:07:24Z</time>
      </trkpt>
      <trkpt lat="62.636427191973" lon="17.963819104829">
        <ele>56.8</ele>
        <time>2018-01-22T18:07:25Z</time>
      </trkpt>
      <trkpt lat="62.636405231395" lon="17.96384332852">
        <ele>56.8</ele>
        <time>2018-01-22T18:07:26Z</time>
      </trkpt>
      <trkpt lat="62.636386455939" lon="17.963866211107">
        <ele>56.8</ele>
        <time>2018-01-22T18:07:27Z</time>
      </trkpt>
      <trkpt lat="62.636371033243" lon="17.963887165857">
        <ele>56.6</ele>
        <time>2018-01-22T18:07:28Z</time>
      </trkpt>
      <trkpt lat="62.636347563923" lon="17.963915329041">
        <ele>56.8</ele>
        <time>2018-01-22T18:07:29Z</time>
      </trkpt>
      <trkpt lat="62.636329123743" lon="17.963938714542">
        <ele>56.8</ele>
        <time>2018-01-22T18:07:30Z</time>
      </trkpt>
      <trkpt lat="62.63630758226" lon="17.963959585473">
        <ele>56.8</ele>
        <time>2018-01-22T18:07:31Z</time>
      </trkpt>
      <trkpt lat="62.636284615854" lon="17.963991101417">
        <ele>56.8</ele>
        <time>2018-01-22T18:07:32Z</time>
      </trkpt>
      <trkpt lat="62.63626567276" lon="17.964016079479">
        <ele>57</ele>
        <time>2018-01-22T18:07:33Z</time>
      </trkpt>
      <trkpt lat="62.636240359422" lon="17.964050445269">
        <ele>57</ele>
        <time>2018-01-22T18:07:34Z</time>
      </trkpt>
      <trkpt lat="62.636218231206" lon="17.964081709756">
        <ele>57</ele>
        <time>2018-01-22T18:07:35Z</time>
      </trkpt>
      <trkpt lat="62.636200880673" lon="17.964100066117">
        <ele>57</ele>
        <time>2018-01-22T18:07:36Z</time>
      </trkpt>
      <trkpt lat="62.636181183208" lon="17.964112638967">
        <ele>57</ele>
        <time>2018-01-22T18:07:37Z</time>
      </trkpt>
      <trkpt lat="62.636158635897" lon="17.964128816034">
        <ele>57</ele>
        <time>2018-01-22T18:07:38Z</time>
      </trkpt>
      <trkpt lat="62.636136088586" lon="17.964157733589">
        <ele>57.2</ele>
        <time>2018-01-22T18:07:39Z</time>
      </trkpt>
      <trkpt lat="62.636112870723" lon="17.964178520701">
        <ele>57.2</ele>
        <time>2018-01-22T18:07:40Z</time>
      </trkpt>
      <trkpt lat="62.636091161602" lon="17.964200900374">
        <ele>57</ele>
        <time>2018-01-22T18:07:41Z</time>
      </trkpt>
      <trkpt lat="62.6360695363" lon="17.964226800445">
        <ele>57.2</ele>
        <time>2018-01-22T18:07:42Z</time>
      </trkpt>
      <trkpt lat="62.636049922654" lon="17.964245827358">
        <ele>57.4</ele>
        <time>2018-01-22T18:07:43Z</time>
      </trkpt>
      <trkpt lat="62.636026872429" lon="17.964268709945">
        <ele>57.4</ele>
        <time>2018-01-22T18:07:44Z</time>
      </trkpt>
      <trkpt lat="62.636008851344" lon="17.96428505465">
        <ele>57.4</ele>
        <time>2018-01-22T18:07:45Z</time>
      </trkpt>
      <trkpt lat="62.635986136395" lon="17.964302824278">
        <ele>57.4</ele>
        <time>2018-01-22T18:07:46Z</time>
      </trkpt>
      <trkpt lat="62.635968282948" lon="17.964324114304">
        <ele>57.6</ele>
        <time>2018-01-22T18:07:47Z</time>
      </trkpt>
      <trkpt lat="62.635945567999" lon="17.964341800113">
        <ele>57.6</ele>
        <time>2018-01-22T18:07:48Z</time>
      </trkpt>
      <trkpt lat="62.635928636561" lon="17.9643563008">
        <ele>57.6</ele>
        <time>2018-01-22T18:07:49Z</time>
      </trkpt>
      <trkpt lat="62.635898210264" lon="17.964377339369">
        <ele>57.6</ele>
        <time>2018-01-22T18:07:50Z</time>
      </trkpt>
      <trkpt lat="62.635880189179" lon="17.964396617739">
        <ele>57.8</ele>
        <time>2018-01-22T18:07:51Z</time>
      </trkpt>
      <trkpt lat="62.635863173922" lon="17.964412124254">
        <ele>57.8</ele>
        <time>2018-01-22T18:07:52Z</time>
      </trkpt>
      <trkpt lat="62.635843141181" lon="17.964428636597">
        <ele>57.8</ele>
        <time>2018-01-22T18:07:53Z</time>
      </trkpt>
      <trkpt lat="62.635820761508" lon="17.96444933989">
        <ele>57.8</ele>
        <time>2018-01-22T18:07:54Z</time>
      </trkpt>
      <trkpt lat="62.635798046559" lon="17.96446861826">
        <ele>58</ele>
        <time>2018-01-22T18:07:55Z</time>
      </trkpt>
      <trkpt lat="62.635771895031" lon="17.964493847779">
        <ele>58</ele>
        <time>2018-01-22T18:07:56Z</time>
      </trkpt>
      <trkpt lat="62.63575353867" lon="17.964510946855">
        <ele>58.2</ele>
        <time>2018-01-22T18:07:57Z</time>
      </trkpt>
      <trkpt lat="62.635732751558" lon="17.964525950456">
        <ele>58</ele>
        <time>2018-01-22T18:07:58Z</time>
      </trkpt>
      <trkpt lat="62.635706432392" lon="17.964538607125">
        <ele>58.2</ele>
        <time>2018-01-22T18:07:59Z</time>
      </trkpt>
      <trkpt lat="62.63567810157" lon="17.964557717857">
        <ele>58.2</ele>
        <time>2018-01-22T18:08:00Z</time>
      </trkpt>
      <trkpt lat="62.635661002494" lon="17.964573140553">
        <ele>58.2</ele>
        <time>2018-01-22T18:08:01Z</time>
      </trkpt>
      <trkpt lat="62.63562864836" lon="17.964592921837">
        <ele>58</ele>
        <time>2018-01-22T18:08:02Z</time>
      </trkpt>
      <trkpt lat="62.635607358334" lon="17.964614044225">
        <ele>58.2</ele>
        <time>2018-01-22T18:08:03Z</time>
      </trkpt>
      <trkpt lat="62.635581290625" lon="17.964634328423">
        <ele>58.4</ele>
        <time>2018-01-22T18:08:04Z</time>
      </trkpt>
      <trkpt lat="62.635553546536" lon="17.964655031716">
        <ele>58.4</ele>
        <time>2018-01-22T18:08:05Z</time>
      </trkpt>
      <trkpt lat="62.635531837415" lon="17.964664922358">
        <ele>58.4</ele>
        <time>2018-01-22T18:08:06Z</time>
      </trkpt>
      <trkpt lat="62.635506021163" lon="17.964679758321">
        <ele>58.6</ele>
        <time>2018-01-22T18:08:07Z</time>
      </trkpt>
      <trkpt lat="62.635484228223" lon="17.964697276492">
        <ele>58.6</ele>
        <time>2018-01-22T18:08:08Z</time>
      </trkpt>
      <trkpt lat="62.635453634288" lon="17.964712615369">
        <ele>58.6</ele>
        <time>2018-01-22T18:08:09Z</time>
      </trkpt>
      <trkpt lat="62.635429913511" lon="17.964726194047">
        <ele>58.6</ele>
        <time>2018-01-22T18:08:10Z</time>
      </trkpt>
      <trkpt lat="62.63540820439" lon="17.964737761069">
        <ele>58.8</ele>
        <time>2018-01-22T18:08:11Z</time>
      </trkpt>
      <trkpt lat="62.63537886774" lon="17.964749328091">
        <ele>58.8</ele>
        <time>2018-01-22T18:08:12Z</time>
      </trkpt>
      <trkpt lat="62.635364534691" lon="17.964760895113">
        <ele>58.6</ele>
        <time>2018-01-22T18:08:13Z</time>
      </trkpt>
      <trkpt lat="62.635330671815" lon="17.964761062751">
        <ele>58.8</ele>
        <time>2018-01-22T18:08:14Z</time>
      </trkpt>
      <trkpt lat="62.635303598278" lon="17.964777407456">
        <ele>58.8</ele>
        <time>2018-01-22T18:08:15Z</time>
      </trkpt>
      <trkpt lat="62.635283900813" lon="17.964790567039">
        <ele>58.8</ele>
        <time>2018-01-22T18:08:16Z</time>
      </trkpt>
      <trkpt lat="62.635254312706" lon="17.964805486821">
        <ele>58.8</ele>
        <time>2018-01-22T18:08:17Z</time>
      </trkpt>
      <trkpt lat="62.635235034336" lon="17.964817975852">
        <ele>58.8</ele>
        <time>2018-01-22T18:08:18Z</time>
      </trkpt>
      <trkpt lat="62.635209218084" lon="17.964828453227">
        <ele>58.8</ele>
        <time>2018-01-22T18:08:19Z</time>
      </trkpt>
      <trkpt lat="62.635183485651" lon="17.964841193715">
        <ele>59</ele>
        <time>2018-01-22T18:08:20Z</time>
      </trkpt>
      <trkpt lat="62.63515674739" lon="17.96484412738">
        <ele>59</ele>
        <time>2018-01-22T18:08:21Z</time>
      </trkpt>
      <trkpt lat="62.635130344405" lon="17.964850497624">
        <ele>59</ele>
        <time>2018-01-22T18:08:22Z</time>
      </trkpt>
      <trkpt lat="62.635109557293" lon="17.964857203144">
        <ele>59.2</ele>
        <time>2018-01-22T18:08:23Z</time>
      </trkpt>
      <trkpt lat="62.635080723557" lon="17.964864579216">
        <ele>59.2</ele>
        <time>2018-01-22T18:08:24Z</time>
      </trkpt>
      <trkpt lat="62.63506035554" lon="17.964869608356">
        <ele>59.4</ele>
        <time>2018-01-22T18:08:25Z</time>
      </trkpt>
      <trkpt lat="62.635032862908" lon="17.964876146238">
        <ele>59.4</ele>
        <time>2018-01-22T18:08:26Z</time>
      </trkpt>
      <trkpt lat="62.635006292285" lon="17.964882265025">
        <ele>59.6</ele>
        <time>2018-01-22T18:08:27Z</time>
      </trkpt>
      <trkpt lat="62.634986678639" lon="17.964886707432">
        <ele>59.8</ele>
        <time>2018-01-22T18:08:28Z</time>
      </trkpt>
      <trkpt lat="62.634959269826" lon="17.964882348844">
        <ele>59.8</ele>
        <time>2018-01-22T18:08:29Z</time>
      </trkpt>
      <trkpt lat="62.634935549049" lon="17.964885953061">
        <ele>59.8</ele>
        <time>2018-01-22T18:08:30Z</time>
      </trkpt>
      <trkpt lat="62.634915181032" lon="17.964889054364">
        <ele>60</ele>
        <time>2018-01-22T18:08:31Z</time>
      </trkpt>
      <trkpt lat="62.63488601202" lon="17.964890814563">
        <ele>60</ele>
        <time>2018-01-22T18:08:32Z</time>
      </trkpt>
      <trkpt lat="62.634864721994" lon="17.964891401296">
        <ele>60</ele>
        <time>2018-01-22T18:08:33Z</time>
      </trkpt>
      <trkpt lat="62.634834128059" lon="17.964892826219">
        <ele>60</ele>
        <time>2018-01-22T18:08:34Z</time>
      </trkpt>
      <trkpt lat="62.634809652911" lon="17.964898190635">
        <ele>60</ele>
        <time>2018-01-22T18:08:35Z</time>
      </trkpt>
      <trkpt lat="62.634783417564" lon="17.96489860973">
        <ele>60.2</ele>
        <time>2018-01-22T18:08:36Z</time>
      </trkpt>
      <trkpt lat="62.63475944533" lon="17.964902633042">
        <ele>60.2</ele>
        <time>2018-01-22T18:08:37Z</time>
      </trkpt>
      <trkpt lat="62.634734970182" lon="17.964904560879">
        <ele>60.2</ele>
        <time>2018-01-22T18:08:38Z</time>
      </trkpt>
      <trkpt lat="62.63470580117" lon="17.964902465404">
        <ele>60.2</ele>
        <time>2018-01-22T18:08:39Z</time>
      </trkpt>
      <trkpt lat="62.634683421497" lon="17.964904728517">
        <ele>60.2</ele>
        <time>2018-01-22T18:08:40Z</time>
      </trkpt>
      <trkpt lat="62.634657018512" lon="17.964914200064">
        <ele>60.2</ele>
        <time>2018-01-22T18:08:41Z</time>
      </trkpt>
      <trkpt lat="62.634631453717" lon="17.964917385186">
        <ele>60.2</ele>
        <time>2018-01-22T18:08:42Z</time>
      </trkpt>
      <trkpt lat="62.634614606098" lon="17.964922162869">
        <ele>60.4</ele>
        <time>2018-01-22T18:08:43Z</time>
      </trkpt>
      <trkpt lat="62.634586359095" lon="17.964926856733">
        <ele>60.4</ele>
        <time>2018-01-22T18:08:44Z</time>
      </trkpt>
      <trkpt lat="62.634561297214" lon="17.964928868389">
        <ele>60.4</ele>
        <time>2018-01-22T18:08:45Z</time>
      </trkpt>
      <trkpt lat="62.634539252817" lon="17.964937669384">
        <ele>60.4</ele>
        <time>2018-01-22T18:08:46Z</time>
      </trkpt>
      <trkpt lat="62.634511760185" lon="17.964935741547">
        <ele>60.6</ele>
        <time>2018-01-22T18:08:47Z</time>
      </trkpt>
      <trkpt lat="62.634491475987" lon="17.964938256117">
        <ele>60.6</ele>
        <time>2018-01-22T18:08:48Z</time>
      </trkpt>
      <trkpt lat="62.634464821545" lon="17.964939345764">
        <ele>60.6</ele>
        <time>2018-01-22T18:08:49Z</time>
      </trkpt>
      <trkpt lat="62.634436406904" lon="17.964939261945">
        <ele>60.8</ele>
        <time>2018-01-22T18:08:50Z</time>
      </trkpt>
      <trkpt lat="62.634410255376" lon="17.96494554837">
        <ele>61</ele>
        <time>2018-01-22T18:08:51Z</time>
      </trkpt>
      <trkpt lat="62.634382511287" lon="17.964942279429">
        <ele>60.8</ele>
        <time>2018-01-22T18:08:52Z</time>
      </trkpt>
      <trkpt lat="62.634361807994" lon="17.964946638017">
        <ele>60.8</ele>
        <time>2018-01-22T18:08:53Z</time>
      </trkpt>
      <trkpt lat="62.634329705317" lon="17.964949571682">
        <ele>61</ele>
        <time>2018-01-22T18:08:54Z</time>
      </trkpt>
      <trkpt lat="62.634308331472" lon="17.9649514157">
        <ele>61</ele>
        <time>2018-01-22T18:08:55Z</time>
      </trkpt>
      <trkpt lat="62.634278994822" lon="17.964956109564">
        <ele>61</ele>
        <time>2018-01-22T18:08:56Z</time>
      </trkpt>
      <trkpt lat="62.634254268217" lon="17.964954600822">
        <ele>61</ele>
        <time>2018-01-22T18:08:57Z</time>
      </trkpt>
      <trkpt lat="62.634232391458" lon="17.964956528659">
        <ele>61.2</ele>
        <time>2018-01-22T18:08:58Z</time>
      </trkpt>
      <trkpt lat="62.634206742844" lon="17.964952589166">
        <ele>61.2</ele>
        <time>2018-01-22T18:08:59Z</time>
      </trkpt>
      <trkpt lat="62.63418193242" lon="17.964951499519">
        <ele>61.2</ele>
        <time>2018-01-22T18:09:00Z</time>
      </trkpt>
      <trkpt lat="62.634158882195" lon="17.96495560665">
        <ele>61.4</ele>
        <time>2018-01-22T18:09:01Z</time>
      </trkpt>
      <trkpt lat="62.634130719011" lon="17.964952672985">
        <ele>61.4</ele>
        <time>2018-01-22T18:09:02Z</time>
      </trkpt>
      <trkpt lat="62.634108255519" lon="17.964947979121">
        <ele>61.6</ele>
        <time>2018-01-22T18:09:03Z</time>
      </trkpt>
      <trkpt lat="62.634083026" lon="17.964946805655">
        <ele>61.6</ele>
        <time>2018-01-22T18:09:04Z</time>
      </trkpt>
      <trkpt lat="62.634058634671" lon="17.964947643845">
        <ele>61.4</ele>
        <time>2018-01-22T18:09:05Z</time>
      </trkpt>
      <trkpt lat="62.634034327161" lon="17.964947727664">
        <ele>61.6</ele>
        <time>2018-01-22T18:09:06Z</time>
      </trkpt>
      <trkpt lat="62.634011528393" lon="17.964944123447">
        <ele>61.8</ele>
        <time>2018-01-22T18:09:07Z</time>
      </trkpt>
      <trkpt lat="62.633990154548" lon="17.964944123447">
        <ele>61.6</ele>
        <time>2018-01-22T18:09:08Z</time>
      </trkpt>
      <trkpt lat="62.633961404631" lon="17.964946721836">
        <ele>61.6</ele>
        <time>2018-01-22T18:09:09Z</time>
      </trkpt>
      <trkpt lat="62.633937851492" lon="17.964949487863">
        <ele>61.8</ele>
        <time>2018-01-22T18:09:10Z</time>
      </trkpt>
      <trkpt lat="62.633915974733" lon="17.9649514157">
        <ele>61.8</ele>
        <time>2018-01-22T18:09:11Z</time>
      </trkpt>
      <trkpt lat="62.633891248128" lon="17.964955271374">
        <ele>61.8</ele>
        <time>2018-01-22T18:09:12Z</time>
      </trkpt>
      <trkpt lat="62.633877082717" lon="17.964960803428">
        <ele>61.8</ele>
        <time>2018-01-22T18:09:13Z</time>
      </trkpt>
      <trkpt lat="62.633853278121" lon="17.964979159789">
        <ele>62</ele>
        <time>2018-01-22T18:09:14Z</time>
      </trkpt>
      <trkpt lat="62.633839867081" lon="17.965010508095">
        <ele>62</ele>
        <time>2018-01-22T18:09:15Z</time>
      </trkpt>
      <trkpt lat="62.633834586484" lon="17.96504445479">
        <ele>62</ele>
        <time>2018-01-22T18:09:16Z</time>
      </trkpt>
      <trkpt lat="62.633826036946" lon="17.965099356235">
        <ele>62.2</ele>
        <time>2018-01-22T18:09:17Z</time>
      </trkpt>
      <trkpt lat="62.633825785489" lon="17.965133135292">
        <ele>62.4</ele>
        <time>2018-01-22T18:09:18Z</time>
      </trkpt>
      <trkpt lat="62.633824528204" lon="17.965178146095">
        <ele>62.4</ele>
        <time>2018-01-22T18:09:19Z</time>
      </trkpt>
      <trkpt lat="62.633821594539" lon="17.965225839106">
        <ele>62.4</ele>
        <time>2018-01-22T18:09:20Z</time>
      </trkpt>
      <trkpt lat="62.633820756349" lon="17.965255930127">
        <ele>62.8</ele>
        <time>2018-01-22T18:09:21Z</time>
      </trkpt>
      <trkpt lat="62.633820421073" lon="17.965311083029">
        <ele>62.8</ele>
        <time>2018-01-22T18:09:22Z</time>
      </trkpt>
      <trkpt lat="62.63382234891" lon="17.96534620319">
        <ele>63</ele>
        <time>2018-01-22T18:09:23Z</time>
      </trkpt>
      <trkpt lat="62.633821678358" lon="17.965397751875">
        <ele>63.2</ele>
        <time>2018-01-22T18:09:24Z</time>
      </trkpt>
      <trkpt lat="62.633819582883" lon="17.965442008307">
        <ele>63.6</ele>
        <time>2018-01-22T18:09:25Z</time>
      </trkpt>
      <trkpt lat="62.633824109109" lon="17.965487438205">
        <ele>63.6</ele>
        <time>2018-01-22T18:09:26Z</time>
      </trkpt>
      <trkpt lat="62.633828886792" lon="17.96554150146">
        <ele>63.8</ele>
        <time>2018-01-22T18:09:27Z</time>
      </trkpt>
      <trkpt lat="62.633832491009" lon="17.965582908046">
        <ele>64</ele>
        <time>2018-01-22T18:09:28Z</time>
      </trkpt>
      <trkpt lat="62.633835508493" lon="17.965628757039">
        <ele>64.2</ele>
        <time>2018-01-22T18:09:29Z</time>
      </trkpt>
      <trkpt lat="62.633838777434" lon="17.965673264928">
        <ele>64.2</ele>
        <time>2018-01-22T18:09:30Z</time>
      </trkpt>
      <trkpt lat="62.633840369995" lon="17.965705283786">
        <ele>64.4</ele>
        <time>2018-01-22T18:09:31Z</time>
      </trkpt>
      <trkpt lat="62.633841962556" lon="17.965753731168">
        <ele>64.6</ele>
        <time>2018-01-22T18:09:32Z</time>
      </trkpt>
      <trkpt lat="62.633844896221" lon="17.965796478858">
        <ele>64.8</ele>
        <time>2018-01-22T18:09:33Z</time>
      </trkpt>
      <trkpt lat="62.633846404963" lon="17.965847859905">
        <ele>64.8</ele>
        <time>2018-01-22T18:09:34Z</time>
      </trkpt>
      <trkpt lat="62.633842968384" lon="17.965899240952">
        <ele>65</ele>
        <time>2018-01-22T18:09:35Z</time>
      </trkpt>
      <trkpt lat="62.633843052203" lon="17.965940731357">
        <ele>65.2</ele>
        <time>2018-01-22T18:09:36Z</time>
      </trkpt>
      <trkpt lat="62.633840621452" lon="17.965980461563">
        <ele>65.4</ele>
        <time>2018-01-22T18:09:37Z</time>
      </trkpt>
      <trkpt lat="62.633831652819" lon="17.966024215081">
        <ele>65.4</ele>
        <time>2018-01-22T18:09:38Z</time>
      </trkpt>
      <trkpt lat="62.633827545688" lon="17.966070986083">
        <ele>65.6</ele>
        <time>2018-01-22T18:09:39Z</time>
      </trkpt>
      <trkpt lat="62.633817487408" lon="17.96611733799">
        <ele>66</ele>
        <time>2018-01-22T18:09:40Z</time>
      </trkpt>
      <trkpt lat="62.633806926214" lon="17.966162935526">
        <ele>66</ele>
        <time>2018-01-22T18:09:41Z</time>
      </trkpt>
      <trkpt lat="62.633797538486" lon="17.966204425931">
        <ele>66.6</ele>
        <time>2018-01-22T18:09:42Z</time>
      </trkpt>
      <trkpt lat="62.633787815482" lon="17.966228398165">
        <ele>66.6</ele>
        <time>2018-01-22T18:09:43Z</time>
      </trkpt>
      <trkpt lat="62.63377205751" lon="17.966276929366">
        <ele>66.8</ele>
        <time>2018-01-22T18:09:44Z</time>
      </trkpt>
      <trkpt lat="62.633753533511" lon="17.966305846921">
        <ele>67</ele>
        <time>2018-01-22T18:09:45Z</time>
      </trkpt>
      <trkpt lat="62.633735428607" lon="17.96632101816">
        <ele>67.2</ele>
        <time>2018-01-22T18:09:46Z</time>
      </trkpt>
      <trkpt lat="62.633710199088" lon="17.966330154431">
        <ele>67.2</ele>
        <time>2018-01-22T18:09:47Z</time>
      </trkpt>
      <trkpt lat="62.633686059216" lon="17.96633107644">
        <ele>67.2</ele>
        <time>2018-01-22T18:09:48Z</time>
      </trkpt>
      <trkpt lat="62.633658398946" lon="17.966328394232">
        <ele>67.4</ele>
        <time>2018-01-22T18:09:49Z</time>
      </trkpt>
      <trkpt lat="62.63363207978" lon="17.966331160259">
        <ele>67.2</ele>
        <time>2018-01-22T18:09:50Z</time>
      </trkpt>
      <trkpt lat="62.633604754786" lon="17.966333507191">
        <ele>67.4</ele>
        <time>2018-01-22T18:09:51Z</time>
      </trkpt>
      <trkpt lat="62.633582878027" lon="17.96633526739">
        <ele>67.4</ele>
        <time>2018-01-22T18:09:52Z</time>
      </trkpt>
      <trkpt lat="62.63356167182" lon="17.966341386177">
        <ele>67.2</ele>
        <time>2018-01-22T18:09:53Z</time>
      </trkpt>
      <trkpt lat="62.633533508636" lon="17.966337865779">
        <ele>67.2</ele>
        <time>2018-01-22T18:09:54Z</time>
      </trkpt>
      <trkpt lat="62.633513811171" lon="17.966339709797">
        <ele>67.2</ele>
        <time>2018-01-22T18:09:55Z</time>
      </trkpt>
      <trkpt lat="62.633488078738" lon="17.966337446684">
        <ele>67.2</ele>
        <time>2018-01-22T18:09:56Z</time>
      </trkpt>
      <trkpt lat="62.633461675753" lon="17.966335183571">
        <ele>67.2</ele>
        <time>2018-01-22T18:09:57Z</time>
      </trkpt>
      <trkpt lat="62.633440385727" lon="17.966333758648">
        <ele>67</ele>
        <time>2018-01-22T18:09:58Z</time>
      </trkpt>
      <trkpt lat="62.633415491484" lon="17.966339039245">
        <ele>67.2</ele>
        <time>2018-01-22T18:09:59Z</time>
      </trkpt>
      <trkpt lat="62.633401828987" lon="17.966340380349">
        <ele>67.2</ele>
        <time>2018-01-22T18:10:00Z</time>
      </trkpt>
      <trkpt lat="62.633365619179" lon="17.966345660946">
        <ele>67</ele>
        <time>2018-01-22T18:10:01Z</time>
      </trkpt>
      <trkpt lat="62.633335947253" lon="17.966354042846">
        <ele>67</ele>
        <time>2018-01-22T18:10:02Z</time>
      </trkpt>
      <trkpt lat="62.633312058838" lon="17.966349935715">
        <ele>67</ele>
        <time>2018-01-22T18:10:03Z</time>
      </trkpt>
      <trkpt lat="62.633286577862" lon="17.966354964855">
        <ele>67</ele>
        <time>2018-01-22T18:10:04Z</time>
      </trkpt>
      <trkpt lat="62.633259420506" lon="17.966355719226">
        <ele>67</ele>
        <time>2018-01-22T18:10:05Z</time>
      </trkpt>
      <trkpt lat="62.633235364453" lon="17.966354461941">
        <ele>67</ele>
        <time>2018-01-22T18:10:06Z</time>
      </trkpt>
      <trkpt lat="62.633213990608" lon="17.966364687859">
        <ele>67</ele>
        <time>2018-01-22T18:10:07Z</time>
      </trkpt>
      <trkpt lat="62.633188761089" lon="17.966364268764">
        <ele>66.8</ele>
        <time>2018-01-22T18:10:08Z</time>
      </trkpt>
      <trkpt lat="62.633160681724" lon="17.966366364239">
        <ele>66.8</ele>
        <time>2018-01-22T18:10:09Z</time>
      </trkpt>
      <trkpt lat="62.633136206576" lon="17.966371561017">
        <ele>66.8</ele>
        <time>2018-01-22T18:10:10Z</time>
      </trkpt>
      <trkpt lat="62.633107791935" lon="17.966371561017">
        <ele>66.4</ele>
        <time>2018-01-22T18:10:11Z</time>
      </trkpt>
      <trkpt lat="62.633083149149" lon="17.96636628042">
        <ele>66.6</ele>
        <time>2018-01-22T18:10:12Z</time>
      </trkpt>
      <trkpt lat="62.633061020933" lon="17.966367034791">
        <ele>66.4</ele>
        <time>2018-01-22T18:10:13Z</time>
      </trkpt>
      <trkpt lat="62.633028080066" lon="17.966361921832">
        <ele>66.4</ele>
        <time>2018-01-22T18:10:14Z</time>
      </trkpt>
      <trkpt lat="62.633004946022" lon="17.966356389778">
        <ele>66.4</ele>
        <time>2018-01-22T18:10:15Z</time>
      </trkpt>
      <trkpt lat="62.632980303236" lon="17.966351360638">
        <ele>66.4</ele>
        <time>2018-01-22T18:10:16Z</time>
      </trkpt>
      <trkpt lat="62.632954403165" lon="17.966342978738">
        <ele>66.2</ele>
        <time>2018-01-22T18:10:17Z</time>
      </trkpt>
      <trkpt lat="62.63293302932" lon="17.966342978738">
        <ele>66.2</ele>
        <time>2018-01-22T18:10:18Z</time>
      </trkpt>
      <trkpt lat="62.632905201412" lon="17.966344068385">
        <ele>66.2</ele>
        <time>2018-01-22T18:10:19Z</time>
      </trkpt>
      <trkpt lat="62.632876535314" lon="17.966350019534">
        <ele>66</ele>
        <time>2018-01-22T18:10:20Z</time>
      </trkpt>
      <trkpt lat="62.632854407098" lon="17.966357144149">
        <ele>66</ele>
        <time>2018-01-22T18:10:21Z</time>
      </trkpt>
      <trkpt lat="62.632829009941" lon="17.966359742538">
        <ele>66</ele>
        <time>2018-01-22T18:10:22Z</time>
      </trkpt>
      <trkpt lat="62.632808222829" lon="17.966367537705">
        <ele>65.8</ele>
        <time>2018-01-22T18:10:23Z</time>
      </trkpt>
      <trkpt lat="62.632779724369" lon="17.966380697288">
        <ele>65.8</ele>
        <time>2018-01-22T18:10:24Z</time>
      </trkpt>
      <trkpt lat="62.632753153746" lon="17.96638807336">
        <ele>65.8</ele>
        <time>2018-01-22T18:10:25Z</time>
      </trkpt>
      <trkpt lat="62.6327251582" lon="17.966394527423">
        <ele>65.6</ele>
        <time>2018-01-22T18:10:26Z</time>
      </trkpt>
      <trkpt lat="62.6326916306" lon="17.96642076277">
        <ele>65.6</ele>
        <time>2018-01-22T18:10:27Z</time>
      </trkpt>
      <trkpt lat="62.632668496556" lon="17.966412045594">
        <ele>65.6</ele>
        <time>2018-01-22T18:10:28Z</time>
      </trkpt>
      <trkpt lat="62.632640752467" lon="17.966417996743">
        <ele>65.4</ele>
        <time>2018-01-22T18:10:29Z</time>
      </trkpt>
      <trkpt lat="62.63261200255" lon="17.966416823277">
        <ele>65.4</ele>
        <time>2018-01-22T18:10:30Z</time>
      </trkpt>
      <trkpt lat="62.632586270117" lon="17.966413554336">
        <ele>65.2</ele>
        <time>2018-01-22T18:10:31Z</time>
      </trkpt>
      <trkpt lat="62.632557687838" lon="17.966413554336">
        <ele>65</ele>
        <time>2018-01-22T18:10:32Z</time>
      </trkpt>
      <trkpt lat="62.632533883242" lon="17.966399388925">
        <ele>65</ele>
        <time>2018-01-22T18:10:33Z</time>
      </trkpt>
      <trkpt lat="62.632503289307" lon="17.966388576274">
        <ele>65.2</ele>
        <time>2018-01-22T18:10:34Z</time>
      </trkpt>
      <trkpt lat="62.632478897978" lon="17.966383379496">
        <ele>65</ele>
        <time>2018-01-22T18:10:35Z</time>
      </trkpt>
      <trkpt lat="62.632451237708" lon="17.966368962628">
        <ele>64.8</ele>
        <time>2018-01-22T18:10:36Z</time>
      </trkpt>
      <trkpt lat="62.632429444768" lon="17.966364520221">
        <ele>65</ele>
        <time>2018-01-22T18:10:37Z</time>
      </trkpt>
      <trkpt lat="62.632404718163" lon="17.966364017307">
        <ele>65</ele>
        <time>2018-01-22T18:10:38Z</time>
      </trkpt>
      <trkpt lat="62.632373286038" lon="17.96635454576">
        <ele>64.8</ele>
        <time>2018-01-22T18:10:39Z</time>
      </trkpt>
      <trkpt lat="62.632346380139" lon="17.966348426973">
        <ele>64.6</ele>
        <time>2018-01-22T18:10:40Z</time>
      </trkpt>
      <trkpt lat="62.632319641878" lon="17.96634029653">
        <ele>64.6</ele>
        <time>2018-01-22T18:10:41Z</time>
      </trkpt>
      <trkpt lat="62.632294160902" lon="17.966330405888">
        <ele>64.4</ele>
        <time>2018-01-22T18:10:42Z</time>
      </trkpt>
      <trkpt lat="62.632276223636" lon="17.966328142775">
        <ele>64.2</ele>
        <time>2018-01-22T18:10:43Z</time>
      </trkpt>
      <trkpt lat="62.632247808995" lon="17.966322443083">
        <ele>64</ele>
        <time>2018-01-22T18:10:44Z</time>
      </trkpt>
      <trkpt lat="62.632226267512" lon="17.966327472223">
        <ele>64</ele>
        <time>2018-01-22T18:10:45Z</time>
      </trkpt>
      <trkpt lat="62.632206402409" lon="17.966347672602">
        <ele>64</ele>
        <time>2018-01-22T18:10:46Z</time>
      </trkpt>
      <trkpt lat="62.632192739912" lon="17.966384217686">
        <ele>63.8</ele>
        <time>2018-01-22T18:10:47Z</time>
      </trkpt>
      <trkpt lat="62.632187124039" lon="17.966421936236">
        <ele>63.6</ele>
        <time>2018-01-22T18:10:48Z</time>
      </trkpt>
      <trkpt lat="62.632182430175" lon="17.966470718894">
        <ele>63.8</ele>
        <time>2018-01-22T18:10:49Z</time>
      </trkpt>
      <trkpt lat="62.632179831786" lon="17.966531487669">
        <ele>63.8</ele>
        <time>2018-01-22T18:10:50Z</time>
      </trkpt>
      <trkpt lat="62.632179161234" lon="17.966569541495">
        <ele>63.6</ele>
        <time>2018-01-22T18:10:51Z</time>
      </trkpt>
      <trkpt lat="62.632176227569" lon="17.966616312497">
        <ele>63.8</ele>
        <time>2018-01-22T18:10:52Z</time>
      </trkpt>
      <trkpt lat="62.63217362918" lon="17.966651432658">
        <ele>64</ele>
        <time>2018-01-22T18:10:53Z</time>
      </trkpt>
      <trkpt lat="62.632169605868" lon="17.966700131497">
        <ele>64</ele>
        <time>2018-01-22T18:10:54Z</time>
      </trkpt>
      <trkpt lat="62.632167678031" lon="17.966744723205">
        <ele>64</ele>
        <time>2018-01-22T18:10:55Z</time>
      </trkpt>
      <trkpt lat="62.632167678031" lon="17.96679040456">
        <ele>64.2</ele>
        <time>2018-01-22T18:10:56Z</time>
      </trkpt>
      <trkpt lat="62.632168432402" lon="17.966834409535">
        <ele>64.4</ele>
        <time>2018-01-22T18:10:57Z</time>
      </trkpt>
      <trkpt lat="62.63216273271" lon="17.966883024555">
        <ele>64.6</ele>
        <time>2018-01-22T18:10:58Z</time>
      </trkpt>
      <trkpt lat="62.63216105633" lon="17.966933567412">
        <ele>64.8</ele>
        <time>2018-01-22T18:10:59Z</time>
      </trkpt>
      <trkpt lat="62.632153344982" lon="17.966981679518">
        <ele>65.2</ele>
        <time>2018-01-22T18:11:00Z</time>
      </trkpt>
      <trkpt lat="62.632146052729" lon="17.967030210719">
        <ele>65.2</ele>
        <time>2018-01-22T18:11:01Z</time>
      </trkpt>
      <trkpt lat="62.632139933942" lon="17.967076059712">
        <ele>65.6</ele>
        <time>2018-01-22T18:11:02Z</time>
      </trkpt>
      <trkpt lat="62.632132222594" lon="17.96711813685">
        <ele>65.6</ele>
        <time>2018-01-22T18:11:03Z</time>
      </trkpt>
      <trkpt lat="62.632123086323" lon="17.967168009155">
        <ele>65.8</ele>
        <time>2018-01-22T18:11:04Z</time>
      </trkpt>
      <trkpt lat="62.632117889545" lon="17.967216121261">
        <ele>66</ele>
        <time>2018-01-22T18:11:05Z</time>
      </trkpt>
      <trkpt lat="62.632106909256" lon="17.967260964426">
        <ele>66.2</ele>
        <time>2018-01-22T18:11:06Z</time>
      </trkpt>
      <trkpt lat="62.632102131573" lon="17.967296587501">
        <ele>66.4</ele>
        <time>2018-01-22T18:11:07Z</time>
      </trkpt>
      <trkpt lat="62.632089307266" lon="17.967342687951">
        <ele>66.6</ele>
        <time>2018-01-22T18:11:08Z</time>
      </trkpt>
      <trkpt lat="62.632075728588" lon="17.967394236636">
        <ele>66.8</ele>
        <time>2018-01-22T18:11:09Z</time>
      </trkpt>
      <trkpt lat="62.632062233729" lon="17.967431200815">
        <ele>67</ele>
        <time>2018-01-22T18:11:10Z</time>
      </trkpt>
      <trkpt lat="62.63204790068" lon="17.96747772036">
        <ele>67</ele>
        <time>2018-01-22T18:11:11Z</time>
      </trkpt>
      <trkpt lat="62.632037758581" lon="17.967516780014">
        <ele>67.2</ele>
        <time>2018-01-22T18:11:12Z</time>
      </trkpt>
      <trkpt lat="62.632023676989" lon="17.967551900175">
        <ele>67.4</ele>
        <time>2018-01-22T18:11:13Z</time>
      </trkpt>
      <trkpt lat="62.632004985352" lon="17.967602107756">
        <ele>67.6</ele>
        <time>2018-01-22T18:11:14Z</time>
      </trkpt>
      <trkpt lat="62.631996603452" lon="17.967645106903">
        <ele>67.8</ele>
        <time>2018-01-22T18:11:15Z</time>
      </trkpt>
      <trkpt lat="62.631980510204" lon="17.96769062062">
        <ele>68</ele>
        <time>2018-01-22T18:11:16Z</time>
      </trkpt>
      <trkpt lat="62.631972966494" lon="17.967731189016">
        <ele>68.4</ele>
        <time>2018-01-22T18:11:17Z</time>
      </trkpt>
      <trkpt lat="62.631960393644" lon="17.967772176507">
        <ele>68.6</ele>
        <time>2018-01-22T18:11:18Z</time>
      </trkpt>
      <trkpt lat="62.63194815607" lon="17.967812744903">
        <ele>68.6</ele>
        <time>2018-01-22T18:11:19Z</time>
      </trkpt>
      <trkpt lat="62.631932984831" lon="17.967853648575">
        <ele>68.8</ele>
        <time>2018-01-22T18:11:20Z</time>
      </trkpt>
      <trkpt lat="62.631918232687" lon="17.967897234455">
        <ele>69.2</ele>
        <time>2018-01-22T18:11:21Z</time>
      </trkpt>
      <trkpt lat="62.631908425864" lon="17.96793956305">
        <ele>69.2</ele>
        <time>2018-01-22T18:11:22Z</time>
      </trkpt>
      <trkpt lat="62.631897277937" lon="17.967970743718">
        <ele>69.2</ele>
        <time>2018-01-22T18:11:23Z</time>
      </trkpt>
      <trkpt lat="62.631879927404" lon="17.968021957127">
        <ele>69.6</ele>
        <time>2018-01-22T18:11:24Z</time>
      </trkpt>
      <trkpt lat="62.631869114753" lon="17.968056406736">
        <ele>69.8</ele>
        <time>2018-01-22T18:11:25Z</time>
      </trkpt>
      <trkpt lat="62.631853356781" lon="17.968111894914">
        <ele>70</ele>
        <time>2018-01-22T18:11:26Z</time>
      </trkpt>
      <trkpt lat="62.631838436999" lon="17.968145841609">
        <ele>70.2</ele>
        <time>2018-01-22T18:11:27Z</time>
      </trkpt>
      <trkpt lat="62.631825445054" lon="17.968185068901">
        <ele>70.6</ele>
        <time>2018-01-22T18:11:28Z</time>
      </trkpt>
      <trkpt lat="62.631807507788" lon="17.968233013369">
        <ele>71</ele>
        <time>2018-01-22T18:11:29Z</time>
      </trkpt>
      <trkpt lat="62.631796192223" lon="17.968273497946">
        <ele>71</ele>
        <time>2018-01-22T18:11:30Z</time>
      </trkpt>
      <trkpt lat="62.631781775355" lon="17.968319598396">
        <ele>71.2</ele>
        <time>2018-01-22T18:11:31Z</time>
      </trkpt>
      <trkpt lat="62.631770292152" lon="17.968358406593">
        <ele>71.4</ele>
        <time>2018-01-22T18:11:32Z</time>
      </trkpt>
      <trkpt lat="62.631758641311" lon="17.968401824835">
        <ele>71.6</ele>
        <time>2018-01-22T18:11:33Z</time>
      </trkpt>
      <trkpt lat="62.631741458416" lon="17.968447422371">
        <ele>71.8</ele>
        <time>2018-01-22T18:11:34Z</time>
      </trkpt>
      <trkpt lat="62.631730394308" lon="17.968487571672">
        <ele>72</ele>
        <time>2018-01-22T18:11:35Z</time>
      </trkpt>
      <trkpt lat="62.631714803974" lon="17.968533588303">
        <ele>72.2</ele>
        <time>2018-01-22T18:11:36Z</time>
      </trkpt>
      <trkpt lat="62.631705164789" lon="17.96856652917">
        <ele>72.4</ele>
        <time>2018-01-22T18:11:37Z</time>
      </trkpt>
      <trkpt lat="62.631693513948" lon="17.968608019575">
        <ele>72.4</ele>
        <time>2018-01-22T18:11:38Z</time>
      </trkpt>
      <trkpt lat="62.631679767632" lon="17.968661077002">
        <ele>72.6</ele>
        <time>2018-01-22T18:11:39Z</time>
      </trkpt>
      <trkpt lat="62.631672643017" lon="17.968701645398">
        <ele>72.8</ele>
        <time>2018-01-22T18:11:40Z</time>
      </trkpt>
      <trkpt lat="62.631664261117" lon="17.968751014789">
        <ele>73.2</ele>
        <time>2018-01-22T18:11:41Z</time>
      </trkpt>
      <trkpt lat="62.631659315796" lon="17.968797450515">
        <ele>73.2</ele>
        <time>2018-01-22T18:11:42Z</time>
      </trkpt>
      <trkpt lat="62.631656717407" lon="17.968833827961">
        <ele>73.4</ele>
        <time>2018-01-22T18:11:43Z</time>
      </trkpt>
      <trkpt lat="62.631656382131" lon="17.968895267288">
        <ele>73.8</ele>
        <time>2018-01-22T18:11:44Z</time>
      </trkpt>
      <trkpt lat="62.631656214493" lon="17.968942373566">
        <ele>73.8</ele>
        <time>2018-01-22T18:11:45Z</time>
      </trkpt>
      <trkpt lat="62.631659734891" lon="17.968989898939">
        <ele>74</ele>
        <time>2018-01-22T18:11:46Z</time>
      </trkpt>
      <trkpt lat="62.631663674384" lon="17.969037340493">
        <ele>74.2</ele>
        <time>2018-01-22T18:11:47Z</time>
      </trkpt>
      <trkpt lat="62.631668787343" lon="17.969075059043">
        <ele>74.6</ele>
        <time>2018-01-22T18:11:48Z</time>
      </trkpt>
      <trkpt lat="62.631673145931" lon="17.969110430661">
        <ele>74.8</ele>
        <time>2018-01-22T18:11:49Z</time>
      </trkpt>
      <trkpt lat="62.63168412622" lon="17.969167846676">
        <ele>74.8</ele>
        <time>2018-01-22T18:11:50Z</time>
      </trkpt>
      <trkpt lat="62.631693094853" lon="17.969210007633">
        <ele>75.2</ele>
        <time>2018-01-22T18:11:51Z</time>
      </trkpt>
      <trkpt lat="62.631704326599" lon="17.969256778635">
        <ele>75.4</ele>
        <time>2018-01-22T18:11:52Z</time>
      </trkpt>
      <trkpt lat="62.631712121766" lon="17.969289216588">
        <ele>75.6</ele>
        <time>2018-01-22T18:11:53Z</time>
      </trkpt>
      <trkpt lat="62.631722012408" lon="17.969344537128">
        <ele>75.8</ele>
        <time>2018-01-22T18:11:54Z</time>
      </trkpt>
      <trkpt lat="62.631727963557" lon="17.969380579298">
        <ele>76.2</ele>
        <time>2018-01-22T18:11:55Z</time>
      </trkpt>
      <trkpt lat="62.631742380425" lon="17.969426344472">
        <ele>76.4</ele>
        <time>2018-01-22T18:11:56Z</time>
      </trkpt>
      <trkpt lat="62.631755120913" lon="17.969466661411">
        <ele>76.6</ele>
        <time>2018-01-22T18:11:57Z</time>
      </trkpt>
      <trkpt lat="62.631770795066" lon="17.969490968921">
        <ele>76.8</ele>
        <time>2018-01-22T18:11:58Z</time>
      </trkpt>
      <trkpt lat="62.631788564694" lon="17.969518210096">
        <ele>77</ele>
        <time>2018-01-22T18:11:59Z</time>
      </trkpt>
      <trkpt lat="62.631809267987" lon="17.969536734095">
        <ele>77</ele>
        <time>2018-01-22T18:12:00Z</time>
      </trkpt>
      <trkpt lat="62.631824439226" lon="17.969549893678">
        <ele>77.2</ele>
        <time>2018-01-22T18:12:01Z</time>
      </trkpt>
      <trkpt lat="62.631843130863" lon="17.969568082401">
        <ele>77.4</ele>
        <time>2018-01-22T18:12:02Z</time>
      </trkpt>
      <trkpt lat="62.6318618225" lon="17.969580152337">
        <ele>77.6</ele>
        <time>2018-01-22T18:12:03Z</time>
      </trkpt>
      <trkpt lat="62.631884956544" lon="17.96957990088">
        <ele>77.6</ele>
        <time>2018-01-22T18:12:04Z</time>
      </trkpt>
      <trkpt lat="62.631906665665" lon="17.969579397966">
        <ele>77.8</ele>
        <time>2018-01-22T18:12:05Z</time>
      </trkpt>
      <trkpt lat="62.631928626243" lon="17.969583002183">
        <ele>78.2</ele>
        <time>2018-01-22T18:12:06Z</time>
      </trkpt>
      <trkpt lat="62.631947736975" lon="17.969581158165">
        <ele>78.2</ele>
        <time>2018-01-22T18:12:07Z</time>
      </trkpt>
      <trkpt lat="62.631968691725" lon="17.969580319975">
        <ele>78.4</ele>
        <time>2018-01-22T18:12:08Z</time>
      </trkpt>
      <trkpt lat="62.631996854909" lon="17.969576799577">
        <ele>78.4</ele>
        <time>2018-01-22T18:12:09Z</time>
      </trkpt>
      <trkpt lat="62.63201688765" lon="17.969572189532">
        <ele>78.6</ele>
        <time>2018-01-22T18:12:10Z</time>
      </trkpt>
      <trkpt lat="62.632039351142" lon="17.969567663306">
        <ele>78.6</ele>
        <time>2018-01-22T18:12:11Z</time>
      </trkpt>
      <trkpt lat="62.632069190706" lon="17.969550983325">
        <ele>78.8</ele>
        <time>2018-01-22T18:12:12Z</time>
      </trkpt>
      <trkpt lat="62.632086205963" lon="17.969544613081">
        <ele>78.8</ele>
        <time>2018-01-22T18:12:13Z</time>
      </trkpt>
      <trkpt lat="62.632112776586" lon="17.96953463862">
        <ele>78.8</ele>
        <time>2018-01-22T18:12:14Z</time>
      </trkpt>
      <trkpt lat="62.632138592838" lon="17.969529777118">
        <ele>78.8</ele>
        <time>2018-01-22T18:12:15Z</time>
      </trkpt>
      <trkpt lat="62.63215937995" lon="17.969523574512">
        <ele>78.8</ele>
        <time>2018-01-22T18:12:16Z</time>
      </trkpt>
      <trkpt lat="62.632184106555" lon="17.969519886476">
        <ele>78.8</ele>
        <time>2018-01-22T18:12:17Z</time>
      </trkpt>
      <trkpt lat="62.632206653866" lon="17.969513767689">
        <ele>78.8</ele>
        <time>2018-01-22T18:12:18Z</time>
      </trkpt>
      <trkpt lat="62.63222894972" lon="17.969504966694">
        <ele>78.8</ele>
        <time>2018-01-22T18:12:19Z</time>
      </trkpt>
      <trkpt lat="62.63225409542" lon="17.969497339165">
        <ele>78.8</ele>
        <time>2018-01-22T18:12:20Z</time>
      </trkpt>
      <trkpt lat="62.63227840293" lon="17.969493148215">
        <ele>78.8</ele>
        <time>2018-01-22T18:12:21Z</time>
      </trkpt>
      <trkpt lat="62.632300447327" lon="17.969488035256">
        <ele>78.8</ele>
        <time>2018-01-22T18:12:22Z</time>
      </trkpt>
      <trkpt lat="62.632321904991" lon="17.969483760487">
        <ele>78.8</ele>
        <time>2018-01-22T18:12:23Z</time>
      </trkpt>
      <trkpt lat="62.632349229985" lon="17.969481162098">
        <ele>78.8</ele>
        <time>2018-01-22T18:12:24Z</time>
      </trkpt>
      <trkpt lat="62.632370268554" lon="17.969477306424">
        <ele>78.8</ele>
        <time>2018-01-22T18:12:25Z</time>
      </trkpt>
      <trkpt lat="62.632399772842" lon="17.969471019999">
        <ele>78.8</ele>
        <time>2018-01-22T18:12:26Z</time>
      </trkpt>
      <trkpt lat="62.632423996533" lon="17.969470014171">
        <ele>78.8</ele>
        <time>2018-01-22T18:12:27Z</time>
      </trkpt>
      <trkpt lat="62.632444029274" lon="17.969471522913">
        <ele>78.8</ele>
        <time>2018-01-22T18:12:28Z</time>
      </trkpt>
      <trkpt lat="62.632471354268" lon="17.969474540397">
        <ele>78.8</ele>
        <time>2018-01-22T18:12:29Z</time>
      </trkpt>
      <trkpt lat="62.632494488312" lon="17.969476719691">
        <ele>78.8</ele>
        <time>2018-01-22T18:12:30Z</time>
      </trkpt>
      <trkpt lat="62.632514940148" lon="17.969475210949">
        <ele>78.8</ele>
        <time>2018-01-22T18:12:31Z</time>
      </trkpt>
      <trkpt lat="62.632543773884" lon="17.969472361103">
        <ele>78.8</ele>
        <time>2018-01-22T18:12:32Z</time>
      </trkpt>
      <trkpt lat="62.632562716978" lon="17.969475797682">
        <ele>78.8</ele>
        <time>2018-01-22T18:12:33Z</time>
      </trkpt>
      <trkpt lat="62.632591215438" lon="17.96947931808">
        <ele>78.8</ele>
        <time>2018-01-22T18:12:34Z</time>
      </trkpt>
      <trkpt lat="62.632615606767" lon="17.96948183265">
        <ele>79</ele>
        <time>2018-01-22T18:12:35Z</time>
      </trkpt>
      <trkpt lat="62.632637651164" lon="17.969481581193">
        <ele>78.8</ele>
        <time>2018-01-22T18:12:36Z</time>
      </trkpt>
      <trkpt lat="62.632660449932" lon="17.969485017772">
        <ele>78.8</ele>
        <time>2018-01-22T18:12:37Z</time>
      </trkpt>
      <trkpt lat="62.632685847089" lon="17.969489711636">
        <ele>79</ele>
        <time>2018-01-22T18:12:38Z</time>
      </trkpt>
      <trkpt lat="62.632713674997" lon="17.969491220378">
        <ele>79.2</ele>
        <time>2018-01-22T18:12:39Z</time>
      </trkpt>
      <trkpt lat="62.632739155973" lon="17.969499602278">
        <ele>79</ele>
        <time>2018-01-22T18:12:40Z</time>
      </trkpt>
      <trkpt lat="62.632760865094" lon="17.96950865473">
        <ele>79.2</ele>
        <time>2018-01-22T18:12:41Z</time>
      </trkpt>
      <trkpt lat="62.632783663862" lon="17.969514941155">
        <ele>79.2</ele>
        <time>2018-01-22T18:12:42Z</time>
      </trkpt>
      <trkpt lat="62.632804367155" lon="17.969521646675">
        <ele>79.2</ele>
        <time>2018-01-22T18:12:43Z</time>
      </trkpt>
      <trkpt lat="62.632832614158" lon="17.969527597824">
        <ele>79.2</ele>
        <time>2018-01-22T18:12:44Z</time>
      </trkpt>
      <trkpt lat="62.632859771514" lon="17.969528855109">
        <ele>79.4</ele>
        <time>2018-01-22T18:12:45Z</time>
      </trkpt>
      <trkpt lat="62.632882402644" lon="17.969529777118">
        <ele>79.4</ele>
        <time>2018-01-22T18:12:46Z</time>
      </trkpt>
      <trkpt lat="62.632905704326" lon="17.969536901733">
        <ele>79.4</ele>
        <time>2018-01-22T18:12:47Z</time>
      </trkpt>
      <trkpt lat="62.632928503094" lon="17.969544361624">
        <ele>79.6</ele>
        <time>2018-01-22T18:12:48Z</time>
      </trkpt>
      <trkpt lat="62.632952978242" lon="17.969552324429">
        <ele>79.6</ele>
        <time>2018-01-22T18:12:49Z</time>
      </trkpt>
      <trkpt lat="62.632979297408" lon="17.969553749352">
        <ele>79.8</ele>
        <time>2018-01-22T18:12:50Z</time>
      </trkpt>
      <trkpt lat="62.633005532755" lon="17.969560454872">
        <ele>79.8</ele>
        <time>2018-01-22T18:12:51Z</time>
      </trkpt>
      <trkpt lat="62.63303025936" lon="17.969569423505">
        <ele>80</ele>
        <time>2018-01-22T18:12:52Z</time>
      </trkpt>
      <trkpt lat="62.633051046472" lon="17.969576212844">
        <ele>80</ele>
        <time>2018-01-22T18:12:53Z</time>
      </trkpt>
      <trkpt lat="62.63308222714" lon="17.969591048807">
        <ele>80.2</ele>
        <time>2018-01-22T18:12:54Z</time>
      </trkpt>
      <trkpt lat="62.633102259881" lon="17.969592054635">
        <ele>80.2</ele>
        <time>2018-01-22T18:12:55Z</time>
      </trkpt>
      <trkpt lat="62.633129752513" lon="17.969604627485">
        <ele>80.2</ele>
        <time>2018-01-22T18:12:56Z</time>
      </trkpt>
      <trkpt lat="62.633153640928" lon="17.969616278326">
        <ele>80.4</ele>
        <time>2018-01-22T18:12:57Z</time>
      </trkpt>
      <trkpt lat="62.633174344221" lon="17.969624492588">
        <ele>80.2</ele>
        <time>2018-01-22T18:12:58Z</time>
      </trkpt>
      <trkpt lat="62.633202004491" lon="17.969638909456">
        <ele>80.2</ele>
        <time>2018-01-22T18:12:59Z</time>
      </trkpt>
      <trkpt lat="62.63322891039" lon="17.96965114703">
        <ele>80.2</ele>
        <time>2018-01-22T18:13:00Z</time>
      </trkpt>
      <trkpt lat="62.633234861539" lon="17.969655589437">
        <ele>80.2</ele>
        <time>2018-01-22T18:13:01Z</time>
      </trkpt>
      <trkpt lat="62.633271909537" lon="17.969681824784">
        <ele>80.2</ele>
        <time>2018-01-22T18:13:02Z</time>
      </trkpt>
      <trkpt lat="62.633294540667" lon="17.96970227662">
        <ele>80.2</ele>
        <time>2018-01-22T18:13:03Z</time>
      </trkpt>
      <trkpt lat="62.633315746874" lon="17.969731948546">
        <ele>80.2</ele>
        <time>2018-01-22T18:13:04Z</time>
      </trkpt>
      <trkpt lat="62.633334187054" lon="17.969776456435">
        <ele>80.2</ele>
        <time>2018-01-22T18:13:05Z</time>
      </trkpt>
      <trkpt lat="62.633345754076" lon="17.969819539401">
        <ele>80.2</ele>
        <time>2018-01-22T18:13:06Z</time>
      </trkpt>
      <trkpt lat="62.633354722709" lon="17.969863292919">
        <ele>80.2</ele>
        <time>2018-01-22T18:13:07Z</time>
      </trkpt>
      <trkpt lat="62.633361763505" lon="17.969912746129">
        <ele>80.4</ele>
        <time>2018-01-22T18:13:08Z</time>
      </trkpt>
      <trkpt lat="62.633369391034" lon="17.969975191284">
        <ele>80.4</ele>
        <time>2018-01-22T18:13:09Z</time>
      </trkpt>
      <trkpt lat="62.633371737966" lon="17.970034702774">
        <ele>80.6</ele>
        <time>2018-01-22T18:13:10Z</time>
      </trkpt>
      <trkpt lat="62.633375845097" lon="17.970083736889">
        <ele>80.8</ele>
        <time>2018-01-22T18:13:11Z</time>
      </trkpt>
      <trkpt lat="62.633376264192" lon="17.970136207583">
        <ele>80.8</ele>
        <time>2018-01-22T18:13:12Z</time>
      </trkpt>
      <trkpt lat="62.633377772934" lon="17.970181218386">
        <ele>81</ele>
        <time>2018-01-22T18:13:13Z</time>
      </trkpt>
      <trkpt lat="62.63338565192" lon="17.97023955641">
        <ele>81.2</ele>
        <time>2018-01-22T18:13:14Z</time>
      </trkpt>
      <trkpt lat="62.633390513422" lon="17.970297307701">
        <ele>81.4</ele>
        <time>2018-01-22T18:13:15Z</time>
      </trkpt>
      <trkpt lat="62.633393363268" lon="17.970345922721">
        <ele>81.4</ele>
        <time>2018-01-22T18:13:16Z</time>
      </trkpt>
      <trkpt lat="62.63339487201" lon="17.97040719441">
        <ele>81.6</ele>
        <time>2018-01-22T18:13:17Z</time>
      </trkpt>
      <trkpt lat="62.633394620553" lon="17.970457318172">
        <ele>81.8</ele>
        <time>2018-01-22T18:13:18Z</time>
      </trkpt>
      <trkpt lat="62.633397302761" lon="17.970508196305">
        <ele>81.8</ele>
        <time>2018-01-22T18:13:19Z</time>
      </trkpt>
      <trkpt lat="62.633400571702" lon="17.970568797442">
        <ele>82</ele>
        <time>2018-01-22T18:13:20Z</time>
      </trkpt>
      <trkpt lat="62.63340157753" lon="17.970619005023">
        <ele>82.2</ele>
        <time>2018-01-22T18:13:21Z</time>
      </trkpt>
      <trkpt lat="62.6334040921" lon="17.970664770197">
        <ele>82.2</ele>
        <time>2018-01-22T18:13:22Z</time>
      </trkpt>
      <trkpt lat="62.633404846471" lon="17.970708775172">
        <ele>82.2</ele>
        <time>2018-01-22T18:13:23Z</time>
      </trkpt>
      <trkpt lat="62.633406522851" lon="17.970763341341">
        <ele>82.2</ele>
        <time>2018-01-22T18:13:24Z</time>
      </trkpt>
      <trkpt lat="62.633407361041" lon="17.970812962189">
        <ele>82.4</ele>
        <time>2018-01-22T18:13:25Z</time>
      </trkpt>
      <trkpt lat="62.633406439032" lon="17.970871384032">
        <ele>82.4</ele>
        <time>2018-01-22T18:13:26Z</time>
      </trkpt>
      <trkpt lat="62.633409456516" lon="17.970917987396">
        <ele>82.6</ele>
        <time>2018-01-22T18:13:27Z</time>
      </trkpt>
      <trkpt lat="62.633407780136" lon="17.970971799194">
        <ele>82.6</ele>
        <time>2018-01-22T18:13:28Z</time>
      </trkpt>
      <trkpt lat="62.633407696317" lon="17.971029382847">
        <ele>82.8</ele>
        <time>2018-01-22T18:13:29Z</time>
      </trkpt>
      <trkpt lat="62.633411551991" lon="17.971079087514">
        <ele>82.8</ele>
        <time>2018-01-22T18:13:30Z</time>
      </trkpt>
      <trkpt lat="62.633412641638" lon="17.97112803781">
        <ele>83</ele>
        <time>2018-01-22T18:13:31Z</time>
      </trkpt>
      <trkpt lat="62.633416162036" lon="17.971179670314">
        <ele>83</ele>
        <time>2018-01-22T18:13:32Z</time>
      </trkpt>
      <trkpt lat="62.63341750314" lon="17.971230380809">
        <ele>83.2</ele>
        <time>2018-01-22T18:13:33Z</time>
      </trkpt>
      <trkpt lat="62.633414066561" lon="17.971284946978">
        <ele>83.2</ele>
        <time>2018-01-22T18:13:34Z</time>
      </trkpt>
      <trkpt lat="62.633414653294" lon="17.971333310541">
        <ele>83.4</ele>
        <time>2018-01-22T18:13:35Z</time>
      </trkpt>
      <trkpt lat="62.633413060733" lon="17.971386703244">
        <ele>83.4</ele>
        <time>2018-01-22T18:13:36Z</time>
      </trkpt>
      <trkpt lat="62.63341079762" lon="17.971436240273">
        <ele>83.6</ele>
        <time>2018-01-22T18:13:37Z</time>
      </trkpt>
      <trkpt lat="62.633412222543" lon="17.971485693483">
        <ele>83.8</ele>
        <time>2018-01-22T18:13:38Z</time>
      </trkpt>
      <trkpt lat="62.633409875611" lon="17.971546713715">
        <ele>83.8</ele>
        <time>2018-01-22T18:13:39Z</time>
      </trkpt>
      <trkpt lat="62.633406187575" lon="17.971596166925">
        <ele>83.8</ele>
        <time>2018-01-22T18:13:40Z</time>
      </trkpt>
      <trkpt lat="62.633406103756" lon="17.971647045058">
        <ele>84.2</ele>
        <time>2018-01-22T18:13:41Z</time>
      </trkpt>
      <trkpt lat="62.633401242254" lon="17.971702449417">
        <ele>84.2</ele>
        <time>2018-01-22T18:13:42Z</time>
      </trkpt>
      <trkpt lat="62.633400404064" lon="17.971745280926">
        <ele>84.2</ele>
        <time>2018-01-22T18:13:43Z</time>
      </trkpt>
      <trkpt lat="62.633396380752" lon="17.971805546787">
        <ele>84.2</ele>
        <time>2018-01-22T18:13:44Z</time>
      </trkpt>
      <trkpt lat="62.633391100155" lon="17.971857346929">
        <ele>84.4</ele>
        <time>2018-01-22T18:13:45Z</time>
      </trkpt>
      <trkpt lat="62.633385568101" lon="17.971911242546">
        <ele>84.4</ele>
        <time>2018-01-22T18:13:46Z</time>
      </trkpt>
      <trkpt lat="62.633381544789" lon="17.971965808715">
        <ele>84.4</ele>
        <time>2018-01-22T18:13:47Z</time>
      </trkpt>
      <trkpt lat="62.633379197857" lon="17.972012579717">
        <ele>84.6</ele>
        <time>2018-01-22T18:13:48Z</time>
      </trkpt>
      <trkpt lat="62.633372911432" lon="17.972067397343">
        <ele>84.6</ele>
        <time>2018-01-22T18:13:49Z</time>
      </trkpt>
      <trkpt lat="62.63336553536" lon="17.972122885521">
        <ele>84.8</ele>
        <time>2018-01-22T18:13:50Z</time>
      </trkpt>
      <trkpt lat="62.633360757677" lon="17.972171332903">
        <ele>85</ele>
        <time>2018-01-22T18:13:51Z</time>
      </trkpt>
      <trkpt lat="62.633355979994" lon="17.972227240176">
        <ele>85</ele>
        <time>2018-01-22T18:13:52Z</time>
      </trkpt>
      <trkpt lat="62.633350028845" lon="17.972272334798">
        <ele>85</ele>
        <time>2018-01-22T18:13:53Z</time>
      </trkpt>
      <trkpt lat="62.633342820411" lon="17.972329583175">
        <ele>85.2</ele>
        <time>2018-01-22T18:13:54Z</time>
      </trkpt>
      <trkpt lat="62.633334941425" lon="17.972376437996">
        <ele>85.2</ele>
        <time>2018-01-22T18:13:55Z</time>
      </trkpt>
      <trkpt lat="62.633327230077" lon="17.972425388292">
        <ele>85.2</ele>
        <time>2018-01-22T18:13:56Z</time>
      </trkpt>
      <trkpt lat="62.633320356919" lon="17.972479116271">
        <ele>85.2</ele>
        <time>2018-01-22T18:13:57Z</time>
      </trkpt>
      <trkpt lat="62.633313316123" lon="17.97252697692">
        <ele>85.4</ele>
        <time>2018-01-22T18:13:58Z</time>
      </trkpt>
      <trkpt lat="62.633304515128" lon="17.972581207813">
        <ele>85.4</ele>
        <time>2018-01-22T18:13:59Z</time>
      </trkpt>
      <trkpt lat="62.633296552323" lon="17.972635690163">
        <ele>85.6</ele>
        <time>2018-01-22T18:14:00Z</time>
      </trkpt>
      <trkpt lat="62.633286326405" lon="17.972680700966">
        <ele>85.6</ele>
        <time>2018-01-22T18:14:01Z</time>
      </trkpt>
      <trkpt lat="62.633277273953" lon="17.97273400985">
        <ele>85.8</ele>
        <time>2018-01-22T18:14:02Z</time>
      </trkpt>
      <trkpt lat="62.633267215673" lon="17.972784468888">
        <ele>85.8</ele>
        <time>2018-01-22T18:14:03Z</time>
      </trkpt>
      <trkpt lat="62.633259001411" lon="17.972834425012">
        <ele>85.8</ele>
        <time>2018-01-22T18:14:04Z</time>
      </trkpt>
      <trkpt lat="62.633251373882" lon="17.972888320629">
        <ele>86</ele>
        <time>2018-01-22T18:14:05Z</time>
      </trkpt>
      <trkpt lat="62.63324064505" lon="17.972936935649">
        <ele>86.2</ele>
        <time>2018-01-22T18:14:06Z</time>
      </trkpt>
      <trkpt lat="62.633230922046" lon="17.972977671683">
        <ele>86.2</ele>
        <time>2018-01-22T18:14:07Z</time>
      </trkpt>
      <trkpt lat="62.633221785775" lon="17.973025951427">
        <ele>86.2</ele>
        <time>2018-01-22T18:14:08Z</time>
      </trkpt>
      <trkpt lat="62.633211727495" lon="17.973082529252">
        <ele>86.2</ele>
        <time>2018-01-22T18:14:09Z</time>
      </trkpt>
      <trkpt lat="62.633203932328" lon="17.973130389901">
        <ele>86.2</ele>
        <time>2018-01-22T18:14:10Z</time>
      </trkpt>
      <trkpt lat="62.633191946211" lon="17.973181268034">
        <ele>86.4</ele>
        <time>2018-01-22T18:14:11Z</time>
      </trkpt>
      <trkpt lat="62.63318364813" lon="17.973222758439">
        <ele>86.4</ele>
        <time>2018-01-22T18:14:12Z</time>
      </trkpt>
      <trkpt lat="62.633176188239" lon="17.973256286039">
        <ele>86.6</ele>
        <time>2018-01-22T18:14:13Z</time>
      </trkpt>
      <trkpt lat="62.633160765543" lon="17.973323089782">
        <ele>86.6</ele>
        <time>2018-01-22T18:14:14Z</time>
      </trkpt>
      <trkpt lat="62.633148779426" lon="17.973371956259">
        <ele>86.8</ele>
        <time>2018-01-22T18:14:15Z</time>
      </trkpt>
      <trkpt lat="62.633136206576" lon="17.973423672582">
        <ele>87</ele>
        <time>2018-01-22T18:14:16Z</time>
      </trkpt>
      <trkpt lat="62.633122544079" lon="17.973470275946">
        <ele>87</ele>
        <time>2018-01-22T18:14:17Z</time>
      </trkpt>
      <trkpt lat="62.633110557962" lon="17.973516627853">
        <ele>87.2</ele>
        <time>2018-01-22T18:14:18Z</time>
      </trkpt>
      <trkpt lat="62.633100080587" lon="17.973563650312">
        <ele>87.2</ele>
        <time>2018-01-22T18:14:19Z</time>
      </trkpt>
      <trkpt lat="62.633089267936" lon="17.973608828753">
        <ele>87.2</ele>
        <time>2018-01-22T18:14:20Z</time>
      </trkpt>
      <trkpt lat="62.633079964027" lon="17.973659790705">
        <ele>87.4</ele>
        <time>2018-01-22T18:14:21Z</time>
      </trkpt>
      <trkpt lat="62.633070408661" lon="17.973705220603">
        <ele>87.4</ele>
        <time>2018-01-22T18:14:22Z</time>
      </trkpt>
      <trkpt lat="62.633059176915" lon="17.973745621361">
        <ele>87.4</ele>
        <time>2018-01-22T18:14:23Z</time>
      </trkpt>
      <trkpt lat="62.633045430599" lon="17.973799600797">
        <ele>87.4</ele>
        <time>2018-01-22T18:14:24Z</time>
      </trkpt>
      <trkpt lat="62.633035120862" lon="17.973841594116">
        <ele>87.6</ele>
        <time>2018-01-22T18:14:25Z</time>
      </trkpt>
      <trkpt lat="62.633022548012" lon="17.973893058982">
        <ele>87.8</ele>
        <time>2018-01-22T18:14:26Z</time>
      </trkpt>
      <trkpt lat="62.633009136972" lon="17.973942763649">
        <ele>87.8</ele>
        <time>2018-01-22T18:14:27Z</time>
      </trkpt>
      <trkpt lat="62.632998659597" lon="17.973983834959">
        <ele>87.8</ele>
        <time>2018-01-22T18:14:28Z</time>
      </trkpt>
      <trkpt lat="62.632985919109" lon="17.974029683952">
        <ele>87.8</ele>
        <time>2018-01-22T18:14:29Z</time>
      </trkpt>
      <trkpt lat="62.632974352087" lon="17.974080059171">
        <ele>88</ele>
        <time>2018-01-22T18:14:30Z</time>
      </trkpt>
      <trkpt lat="62.632961192504" lon="17.974131021123">
        <ele>88</ele>
        <time>2018-01-22T18:14:31Z</time>
      </trkpt>
      <trkpt lat="62.632952475328" lon="17.974182988903">
        <ele>88.2</ele>
        <time>2018-01-22T18:14:32Z</time>
      </trkpt>
      <trkpt lat="62.632944680161" lon="17.974233950855">
        <ele>88.2</ele>
        <time>2018-01-22T18:14:33Z</time>
      </trkpt>
      <trkpt lat="62.632935292433" lon="17.974285750997">
        <ele>88.4</ele>
        <time>2018-01-22T18:14:34Z</time>
      </trkpt>
      <trkpt lat="62.63292883837" lon="17.97433998189">
        <ele>88.4</ele>
        <time>2018-01-22T18:14:35Z</time>
      </trkpt>
      <trkpt lat="62.632923222497" lon="17.974390105652">
        <ele>88.6</ele>
        <time>2018-01-22T18:14:36Z</time>
      </trkpt>
      <trkpt lat="62.632915678787" lon="17.974430925505">
        <ele>88.6</ele>
        <time>2018-01-22T18:14:37Z</time>
      </trkpt>
      <trkpt lat="62.632906793973" lon="17.974483396199">
        <ele>88.8</ele>
        <time>2018-01-22T18:14:38Z</time>
      </trkpt>
      <trkpt lat="62.632897657702" lon="17.974535531617">
        <ele>88.6</ele>
        <time>2018-01-22T18:14:39Z</time>
      </trkpt>
      <trkpt lat="62.632890700725" lon="17.974580123325">
        <ele>88.6</ele>
        <time>2018-01-22T18:14:40Z</time>
      </trkpt>
      <trkpt lat="62.632878882246" lon="17.974624715033">
        <ele>88.6</ele>
        <time>2018-01-22T18:14:41Z</time>
      </trkpt>
      <trkpt lat="62.632866057939" lon="17.974668384732">
        <ele>88.6</ele>
        <time>2018-01-22T18:14:42Z</time>
      </trkpt>
      <trkpt lat="62.632853988003" lon="17.974704091626">
        <ele>88.4</ele>
        <time>2018-01-22T18:14:43Z</time>
      </trkpt>
      <trkpt lat="62.632839487316" lon="17.97476578241">
        <ele>88.6</ele>
        <time>2018-01-22T18:14:44Z</time>
      </trkpt>
      <trkpt lat="62.632826327733" lon="17.974810960851">
        <ele>88.4</ele>
        <time>2018-01-22T18:14:45Z</time>
      </trkpt>
      <trkpt lat="62.632812581417" lon="17.974863934459">
        <ele>88.4</ele>
        <time>2018-01-22T18:14:46Z</time>
      </trkpt>
      <trkpt lat="62.632803612784" lon="17.974917662438">
        <ele>88.6</ele>
        <time>2018-01-22T18:14:47Z</time>
      </trkpt>
      <trkpt lat="62.632792045762" lon="17.974962840879">
        <ele>88.6</ele>
        <time>2018-01-22T18:14:48Z</time>
      </trkpt>
      <trkpt lat="62.632779556731" lon="17.975014892478">
        <ele>88.6</ele>
        <time>2018-01-22T18:14:49Z</time>
      </trkpt>
      <trkpt lat="62.632765810415" lon="17.975064010412">
        <ele>88.6</ele>
        <time>2018-01-22T18:14:50Z</time>
      </trkpt>
      <trkpt lat="62.632754411031" lon="17.975115559097">
        <ele>88.6</ele>
        <time>2018-01-22T18:14:51Z</time>
      </trkpt>
      <trkpt lat="62.632739994163" lon="17.975172891293">
        <ele>88.8</ele>
        <time>2018-01-22T18:14:52Z</time>
      </trkpt>
      <trkpt lat="62.632728846236" lon="17.975210358386">
        <ele>88.8</ele>
        <time>2018-01-22T18:14:53Z</time>
      </trkpt>
      <trkpt lat="62.632714513187" lon="17.975269031686">
        <ele>88.8</ele>
        <time>2018-01-22T18:14:54Z</time>
      </trkpt>
      <trkpt lat="62.632710154599" lon="17.975282610364">
        <ele>88.8</ele>
        <time>2018-01-22T18:14:55Z</time>
      </trkpt>
      <trkpt lat="62.632692804066" lon="17.975358466559">
        <ele>89</ele>
        <time>2018-01-22T18:14:56Z</time>
      </trkpt>
      <trkpt lat="62.632678471017" lon="17.975422420456">
        <ele>89</ele>
        <time>2018-01-22T18:14:57Z</time>
      </trkpt>
      <trkpt lat="62.632667239271" lon="17.975465000508">
        <ele>89.2</ele>
        <time>2018-01-22T18:14:58Z</time>
      </trkpt>
      <trkpt lat="62.632654582602" lon="17.975523087075">
        <ele>89.2</ele>
        <time>2018-01-22T18:14:59Z</time>
      </trkpt>
      <trkpt lat="62.63264217739" lon="17.97557379757">
        <ele>89.4</ele>
        <time>2018-01-22T18:15:00Z</time>
      </trkpt>
      <trkpt lat="62.632631951472" lon="17.975617970183">
        <ele>89.4</ele>
        <time>2018-01-22T18:15:01Z</time>
      </trkpt>
      <trkpt lat="62.632617199328" lon="17.975677649311">
        <ele>89.4</ele>
        <time>2018-01-22T18:15:02Z</time>
      </trkpt>
      <trkpt lat="62.632608565971" lon="17.97572299539">
        <ele>89.4</ele>
        <time>2018-01-22T18:15:03Z</time>
      </trkpt>
      <trkpt lat="62.632596496035" lon="17.975774376437">
        <ele>89.6</ele>
        <time>2018-01-22T18:15:04Z</time>
      </trkpt>
      <trkpt lat="62.63258518047" lon="17.975833887927">
        <ele>89.4</ele>
        <time>2018-01-22T18:15:05Z</time>
      </trkpt>
      <trkpt lat="62.632575206009" lon="17.975879904558">
        <ele>89.6</ele>
        <time>2018-01-22T18:15:06Z</time>
      </trkpt>
      <trkpt lat="62.632561208236" lon="17.975926843198">
        <ele>89.6</ele>
        <time>2018-01-22T18:15:07Z</time>
      </trkpt>
      <trkpt lat="62.632551066137" lon="17.975974787666">
        <ele>89.6</ele>
        <time>2018-01-22T18:15:08Z</time>
      </trkpt>
      <trkpt lat="62.632540253486" lon="17.976035221165">
        <ele>89.4</ele>
        <time>2018-01-22T18:15:09Z</time>
      </trkpt>
      <trkpt lat="62.632527596817" lon="17.976087943316">
        <ele>89.4</ele>
        <time>2018-01-22T18:15:10Z</time>
      </trkpt>
      <trkpt lat="62.632516029795" lon="17.976129852816">
        <ele>89.6</ele>
        <time>2018-01-22T18:15:11Z</time>
      </trkpt>
      <trkpt lat="62.632504043678" lon="17.976176539999">
        <ele>89.6</ele>
        <time>2018-01-22T18:15:12Z</time>
      </trkpt>
      <trkpt lat="62.632495661778" lon="17.976208642676">
        <ele>89.6</ele>
        <time>2018-01-22T18:15:13Z</time>
      </trkpt>
      <trkpt lat="62.632482502195" lon="17.976270752555">
        <ele>89.6</ele>
        <time>2018-01-22T18:15:14Z</time>
      </trkpt>
      <trkpt lat="62.632466073671" lon="17.97631308115">
        <ele>89.6</ele>
        <time>2018-01-22T18:15:15Z</time>
      </trkpt>
      <trkpt lat="62.632453165545" lon="17.976356415573">
        <ele>89.6</ele>
        <time>2018-01-22T18:15:16Z</time>
      </trkpt>
      <trkpt lat="62.632441514704" lon="17.976402935118">
        <ele>89.8</ele>
        <time>2018-01-22T18:15:17Z</time>
      </trkpt>
      <trkpt lat="62.632427349293" lon="17.976448532654">
        <ele>89.8</ele>
        <time>2018-01-22T18:15:18Z</time>
      </trkpt>
      <trkpt lat="62.63241670428" lon="17.976484155729">
        <ele>89.8</ele>
        <time>2018-01-22T18:15:19Z</time>
      </trkpt>
      <trkpt lat="62.632398850833" lon="17.976540817373">
        <ele>89.8</ele>
        <time>2018-01-22T18:15:20Z</time>
      </trkpt>
      <trkpt lat="62.632383763413" lon="17.97658716928">
        <ele>90</ele>
        <time>2018-01-22T18:15:21Z</time>
      </trkpt>
      <trkpt lat="62.632372364029" lon="17.976634191739">
        <ele>90</ele>
        <time>2018-01-22T18:15:22Z</time>
      </trkpt>
      <trkpt lat="62.632360880826" lon="17.976678951085">
        <ele>90</ele>
        <time>2018-01-22T18:15:23Z</time>
      </trkpt>
      <trkpt lat="62.632347218329" lon="17.976734606901">
        <ele>90.2</ele>
        <time>2018-01-22T18:15:24Z</time>
      </trkpt>
      <trkpt lat="62.63233288528" lon="17.976777354591">
        <ele>90.2</ele>
        <time>2018-01-22T18:15:25Z</time>
      </trkpt>
      <trkpt lat="62.632314612738" lon="17.976826221068">
        <ele>90.2</ele>
        <time>2018-01-22T18:15:26Z</time>
      </trkpt>
      <trkpt lat="62.632302207526" lon="17.976871148052">
        <ele>90.2</ele>
        <time>2018-01-22T18:15:27Z</time>
      </trkpt>
      <trkpt lat="62.632291478694" lon="17.976919763072">
        <ele>90.2</ele>
        <time>2018-01-22T18:15:28Z</time>
      </trkpt>
      <trkpt lat="62.632281252776" lon="17.976972233766">
        <ele>90.4</ele>
        <time>2018-01-22T18:15:29Z</time>
      </trkpt>
      <trkpt lat="62.632270188668" lon="17.977018753311">
        <ele>90.2</ele>
        <time>2018-01-22T18:15:30Z</time>
      </trkpt>
      <trkpt lat="62.632260298026" lon="17.977070888729">
        <ele>90.4</ele>
        <time>2018-01-22T18:15:31Z</time>
      </trkpt>
      <trkpt lat="62.632248647185" lon="17.977124113794">
        <ele>90.4</ele>
        <time>2018-01-22T18:15:32Z</time>
      </trkpt>
      <trkpt lat="62.632237834534" lon="17.977169543692">
        <ele>90.6</ele>
        <time>2018-01-22T18:15:33Z</time>
      </trkpt>
      <trkpt lat="62.632225680779" lon="17.977223774585">
        <ele>90.6</ele>
        <time>2018-01-22T18:15:34Z</time>
      </trkpt>
      <trkpt lat="62.632217969431" lon="17.977267528103">
        <ele>90.6</ele>
        <time>2018-01-22T18:15:35Z</time>
      </trkpt>
      <trkpt lat="62.63220715678" lon="17.977313209458">
        <ele>90.8</ele>
        <time>2018-01-22T18:15:36Z</time>
      </trkpt>
      <trkpt lat="62.632195841215" lon="17.977357968804">
        <ele>90.8</ele>
        <time>2018-01-22T18:15:37Z</time>
      </trkpt>
      <trkpt lat="62.632185866754" lon="17.977398872476">
        <ele>90.8</ele>
        <time>2018-01-22T18:15:38Z</time>
      </trkpt>
      <trkpt lat="62.632170611696" lon="17.977456623767">
        <ele>91</ele>
        <time>2018-01-22T18:15:39Z</time>
      </trkpt>
      <trkpt lat="62.63215937995" lon="17.977503478588">
        <ele>91</ele>
        <time>2018-01-22T18:15:40Z</time>
      </trkpt>
      <trkpt lat="62.632147812928" lon="17.977550668685">
        <ele>91</ele>
        <time>2018-01-22T18:15:41Z</time>
      </trkpt>
      <trkpt lat="62.632133647517" lon="17.977600373352">
        <ele>91</ele>
        <time>2018-01-22T18:15:42Z</time>
      </trkpt>
      <trkpt lat="62.632124511246" lon="17.977639768282">
        <ele>91</ele>
        <time>2018-01-22T18:15:43Z</time>
      </trkpt>
      <trkpt lat="62.632112776586" lon="17.977697519573">
        <ele>91.2</ele>
        <time>2018-01-22T18:15:44Z</time>
      </trkpt>
      <trkpt lat="62.632100036098" lon="17.977745212584">
        <ele>91.2</ele>
        <time>2018-01-22T18:15:45Z</time>
      </trkpt>
      <trkpt lat="62.632091151284" lon="17.977783517867">
        <ele>91.2</ele>
        <time>2018-01-22T18:15:46Z</time>
      </trkpt>
      <trkpt lat="62.632076482959" lon="17.977841772072">
        <ele>91.2</ele>
        <time>2018-01-22T18:15:47Z</time>
      </trkpt>
      <trkpt lat="62.632067849602" lon="17.977888375436">
        <ele>91.4</ele>
        <time>2018-01-22T18:15:48Z</time>
      </trkpt>
      <trkpt lat="62.632056366399" lon="17.9779349788">
        <ele>91.4</ele>
        <time>2018-01-22T18:15:49Z</time>
      </trkpt>
      <trkpt lat="62.632041278979" lon="17.977989042055">
        <ele>91.4</ele>
        <time>2018-01-22T18:15:50Z</time>
      </trkpt>
      <trkpt lat="62.632030131052" lon="17.97803137065">
        <ele>91.6</ele>
        <time>2018-01-22T18:15:51Z</time>
      </trkpt>
      <trkpt lat="62.632013786347" lon="17.978096078918">
        <ele>91.6</ele>
        <time>2018-01-22T18:15:53Z</time>
      </trkpt>
      <trkpt lat="62.63199928566" lon="17.978164894317">
        <ele>91.6</ele>
        <time>2018-01-22T18:15:54Z</time>
      </trkpt>
      <trkpt lat="62.631989897932" lon="17.978215520993">
        <ele>91.6</ele>
        <time>2018-01-22T18:15:55Z</time>
      </trkpt>
      <trkpt lat="62.631977576539" lon="17.978261118529">
        <ele>91.6</ele>
        <time>2018-01-22T18:15:56Z</time>
      </trkpt>
      <trkpt lat="62.631965925698" lon="17.978317528716">
        <ele>91.6</ele>
        <time>2018-01-22T18:15:57Z</time>
      </trkpt>
      <trkpt lat="62.631954274857" lon="17.978366227555">
        <ele>91.8</ele>
        <time>2018-01-22T18:15:58Z</time>
      </trkpt>
      <trkpt lat="62.631942037283" lon="17.978417692421">
        <ele>91.8</ele>
        <time>2018-01-22T18:15:59Z</time>
      </trkpt>
      <trkpt lat="62.631929883528" lon="17.978468822011">
        <ele>92</ele>
        <time>2018-01-22T18:16:00Z</time>
      </trkpt>
      <trkpt lat="62.63191965761" lon="17.978512910805">
        <ele>92</ele>
        <time>2018-01-22T18:16:01Z</time>
      </trkpt>
      <trkpt lat="62.631908006769" lon="17.978565465318">
        <ele>92.2</ele>
        <time>2018-01-22T18:16:02Z</time>
      </trkpt>
      <trkpt lat="62.631898199946" lon="17.978608799741">
        <ele>92.2</ele>
        <time>2018-01-22T18:16:03Z</time>
      </trkpt>
      <trkpt lat="62.63188613001" lon="17.978661186616">
        <ele>92.2</ele>
        <time>2018-01-22T18:16:04Z</time>
      </trkpt>
      <trkpt lat="62.631874646807" lon="17.978708209075">
        <ele>92.4</ele>
        <time>2018-01-22T18:16:05Z</time>
      </trkpt>
      <trkpt lat="62.631864588527" lon="17.978760176855">
        <ele>92.4</ele>
        <time>2018-01-22T18:16:06Z</time>
      </trkpt>
      <trkpt lat="62.631855703713" lon="17.978803678916">
        <ele>92.4</ele>
        <time>2018-01-22T18:16:07Z</time>
      </trkpt>
      <trkpt lat="62.631845310157" lon="17.978848689719">
        <ele>92.4</ele>
        <time>2018-01-22T18:16:08Z</time>
      </trkpt>
      <trkpt lat="62.631832988764" lon="17.978900657499">
        <ele>92.6</ele>
        <time>2018-01-22T18:16:09Z</time>
      </trkpt>
      <trkpt lat="62.631823517217" lon="17.978947009406">
        <ele>92.6</ele>
        <time>2018-01-22T18:16:10Z</time>
      </trkpt>
      <trkpt lat="62.631811028186" lon="17.978993277494">
        <ele>92.6</ele>
        <time>2018-01-22T18:16:11Z</time>
      </trkpt>
      <trkpt lat="62.631801221363" lon="17.979040048496">
        <ele>92.6</ele>
        <time>2018-01-22T18:16:12Z</time>
      </trkpt>
      <trkpt lat="62.631791079264" lon="17.979080449254">
        <ele>92.8</ele>
        <time>2018-01-22T18:16:13Z</time>
      </trkpt>
      <trkpt lat="62.631777668224" lon="17.979133422862">
        <ele>92.8</ele>
        <time>2018-01-22T18:16:14Z</time>
      </trkpt>
      <trkpt lat="62.631767861401" lon="17.979178936579">
        <ele>92.8</ele>
        <time>2018-01-22T18:16:15Z</time>
      </trkpt>
      <trkpt lat="62.631755875284" lon="17.979225456124">
        <ele>92.8</ele>
        <time>2018-01-22T18:16:16Z</time>
      </trkpt>
      <trkpt lat="62.631745062633" lon="17.979272478583">
        <ele>93</ele>
        <time>2018-01-22T18:16:17Z</time>
      </trkpt>
      <trkpt lat="62.631735758724" lon="17.97932218325">
        <ele>93</ele>
        <time>2018-01-22T18:16:18Z</time>
      </trkpt>
      <trkpt lat="62.631723856426" lon="17.979374570125">
        <ele>93</ele>
        <time>2018-01-22T18:16:19Z</time>
      </trkpt>
      <trkpt lat="62.631713127594" lon="17.979423520421">
        <ele>93</ele>
        <time>2018-01-22T18:16:20Z</time>
      </trkpt>
      <trkpt lat="62.631700722382" lon="17.979469620871">
        <ele>93.2</ele>
        <time>2018-01-22T18:16:21Z</time>
      </trkpt>
      <trkpt lat="62.631688568627" lon="17.979516056597">
        <ele>93.2</ele>
        <time>2018-01-22T18:16:22Z</time>
      </trkpt>
      <trkpt lat="62.631679599994" lon="17.979556708812">
        <ele>93.2</ele>
        <time>2018-01-22T18:16:23Z</time>
      </trkpt>
      <trkpt lat="62.631666775687" lon="17.979611274981">
        <ele>93.4</ele>
        <time>2018-01-22T18:16:24Z</time>
      </trkpt>
      <trkpt lat="62.631655879217" lon="17.979655531413">
        <ele>93.4</ele>
        <time>2018-01-22T18:16:25Z</time>
      </trkpt>
      <trkpt lat="62.631645234204" lon="17.979708002107">
        <ele>93.6</ele>
        <time>2018-01-22T18:16:26Z</time>
      </trkpt>
      <trkpt lat="62.631631487888" lon="17.979754270195">
        <ele>93.6</ele>
        <time>2018-01-22T18:16:27Z</time>
      </trkpt>
      <trkpt lat="62.631619334133" lon="17.979800705921">
        <ele>93.6</ele>
        <time>2018-01-22T18:16:28Z</time>
      </trkpt>
      <trkpt lat="62.631603827618" lon="17.979850997321">
        <ele>93.6</ele>
        <time>2018-01-22T18:16:29Z</time>
      </trkpt>
      <trkpt lat="62.631589243112" lon="17.97989718159">
        <ele>93.6</ele>
        <time>2018-01-22T18:16:30Z</time>
      </trkpt>
      <trkpt lat="62.631575580615" lon="17.979938336719">
        <ele>93.8</ele>
        <time>2018-01-22T18:16:31Z</time>
      </trkpt>
      <trkpt lat="62.631558062444" lon="17.97999441163">
        <ele>93.6</ele>
        <time>2018-01-22T18:16:32Z</time>
      </trkpt>
      <trkpt lat="62.631544651404" lon="17.98003548294">
        <ele>93.6</ele>
        <time>2018-01-22T18:16:33Z</time>
      </trkpt>
      <trkpt lat="62.631527300871" lon="17.980079152639">
        <ele>93.6</ele>
        <time>2018-01-22T18:16:34Z</time>
      </trkpt>
      <trkpt lat="62.631504837379" lon="17.980113602248">
        <ele>93.8</ele>
        <time>2018-01-22T18:16:35Z</time>
      </trkpt>
      <trkpt lat="62.631479272584" lon="17.980142435984">
        <ele>93.8</ele>
        <time>2018-01-22T18:16:36Z</time>
      </trkpt>
      <trkpt lat="62.631453875427" lon="17.980162468725">
        <ele>93.8</ele>
        <time>2018-01-22T18:16:37Z</time>
      </trkpt>
      <trkpt lat="62.63142764008" lon="17.98017629886">
        <ele>93.8</ele>
        <time>2018-01-22T18:16:38Z</time>
      </trkpt>
      <trkpt lat="62.631399644534" lon="17.980179483982">
        <ele>94</ele>
        <time>2018-01-22T18:16:39Z</time>
      </trkpt>
      <trkpt lat="62.631373660644" lon="17.98016959334">
        <ele>94</ele>
        <time>2018-01-22T18:16:40Z</time>
      </trkpt>
      <trkpt lat="62.631344743089" lon="17.980167497865">
        <ele>94</ele>
        <time>2018-01-22T18:16:41Z</time>
      </trkpt>
      <trkpt lat="62.63131867538" lon="17.980153583911">
        <ele>94</ele>
        <time>2018-01-22T18:16:42Z</time>
      </trkpt>
      <trkpt lat="62.631294284051" lon="17.980140089052">
        <ele>94</ele>
        <time>2018-01-22T18:16:43Z</time>
      </trkpt>
      <trkpt lat="62.631267797247" lon="17.980127600021">
        <ele>94</ele>
        <time>2018-01-22T18:16:44Z</time>
      </trkpt>
      <trkpt lat="62.631243573556" lon="17.980109076022">
        <ele>94</ele>
        <time>2018-01-22T18:16:45Z</time>
      </trkpt>
      <trkpt lat="62.631219266046" lon="17.980092396041">
        <ele>94</ele>
        <time>2018-01-22T18:16:46Z</time>
      </trkpt>
      <trkpt lat="62.631194455622" lon="17.980074794051">
        <ele>94.2</ele>
        <time>2018-01-22T18:16:47Z</time>
      </trkpt>
      <trkpt lat="62.631169393741" lon="17.980054426034">
        <ele>94.2</ele>
        <time>2018-01-22T18:16:48Z</time>
      </trkpt>
      <trkpt lat="62.631145002412" lon="17.980034728569">
        <ele>94.2</ele>
        <time>2018-01-22T18:16:49Z</time>
      </trkpt>
      <trkpt lat="62.631119437617" lon="17.980013354724">
        <ele>94.4</ele>
        <time>2018-01-22T18:16:50Z</time>
      </trkpt>
      <trkpt lat="62.631094962469" lon="17.979994914544">
        <ele>94.6</ele>
        <time>2018-01-22T18:16:51Z</time>
      </trkpt>
      <trkpt lat="62.631071157873" lon="17.979980581495">
        <ele>94.6</ele>
        <time>2018-01-22T18:16:52Z</time>
      </trkpt>
      <trkpt lat="62.6310487782" lon="17.979963314781">
        <ele>94.6</ele>
        <time>2018-01-22T18:16:53Z</time>
      </trkpt>
      <trkpt lat="62.631019776826" lon="17.979940935108">
        <ele>94.6</ele>
        <time>2018-01-22T18:16:54Z</time>
      </trkpt>
      <trkpt lat="62.630996558963" lon="17.979922830204">
        <ele>94.8</ele>
        <time>2018-01-22T18:16:55Z</time>
      </trkpt>
      <trkpt lat="62.630970072159" lon="17.979894918477">
        <ele>95</ele>
        <time>2018-01-22T18:16:56Z</time>
      </trkpt>
      <trkpt lat="62.630949704142" lon="17.979869940415">
        <ele>95</ele>
        <time>2018-01-22T18:16:57Z</time>
      </trkpt>
      <trkpt lat="62.630924558442" lon="17.979849069484">
        <ele>95</ele>
        <time>2018-01-22T18:16:58Z</time>
      </trkpt>
      <trkpt lat="62.630897149629" lon="17.979825348707">
        <ele>95.2</ele>
        <time>2018-01-22T18:16:59Z</time>
      </trkpt>
      <trkpt lat="62.630874602318" lon="17.979807746717">
        <ele>95.2</ele>
        <time>2018-01-22T18:17:00Z</time>
      </trkpt>
      <trkpt lat="62.630851384455" lon="17.979791318193">
        <ele>95.2</ele>
        <time>2018-01-22T18:17:01Z</time>
      </trkpt>
      <trkpt lat="62.630826406393" lon="17.979771117814">
        <ele>95.4</ele>
        <time>2018-01-22T18:17:02Z</time>
      </trkpt>
      <trkpt lat="62.630802853254" lon="17.979750917435">
        <ele>95.4</ele>
        <time>2018-01-22T18:17:03Z</time>
      </trkpt>
      <trkpt lat="62.630775863536" lon="17.979728453943">
        <ele>95.4</ele>
        <time>2018-01-22T18:17:04Z</time>
      </trkpt>
      <trkpt lat="62.630755830795" lon="17.979708169745">
        <ele>95.8</ele>
        <time>2018-01-22T18:17:05Z</time>
      </trkpt>
      <trkpt lat="62.630730936552" lon="17.979680760932">
        <ele>95.8</ele>
        <time>2018-01-22T18:17:06Z</time>
      </trkpt>
      <trkpt lat="62.630711239087" lon="17.979656537241">
        <ele>95.8</ele>
        <time>2018-01-22T18:17:07Z</time>
      </trkpt>
      <trkpt lat="62.630689949061" lon="17.979635414853">
        <ele>96</ele>
        <time>2018-01-22T18:17:08Z</time>
      </trkpt>
      <trkpt lat="62.630663713714" lon="17.979600127054">
        <ele>96.2</ele>
        <time>2018-01-22T18:17:09Z</time>
      </trkpt>
      <trkpt lat="62.630642088412" lon="17.979566264178">
        <ele>96.2</ele>
        <time>2018-01-22T18:17:10Z</time>
      </trkpt>
      <trkpt lat="62.630617277988" lon="17.97953508351">
        <ele>96.2</ele>
        <time>2018-01-22T18:17:11Z</time>
      </trkpt>
      <trkpt lat="62.630594730677" lon="17.979499963349">
        <ele>96.4</ele>
        <time>2018-01-22T18:17:12Z</time>
      </trkpt>
      <trkpt lat="62.630577212506" lon="17.979470961975">
        <ele>96.4</ele>
        <time>2018-01-22T18:17:13Z</time>
      </trkpt>
      <trkpt lat="62.630553575548" lon="17.979427376095">
        <ele>96.2</ele>
        <time>2018-01-22T18:17:14Z</time>
      </trkpt>
      <trkpt lat="62.63053161497" lon="17.979390160459">
        <ele>96.4</ele>
        <time>2018-01-22T18:17:15Z</time>
      </trkpt>
      <trkpt lat="62.630512001324" lon="17.97935654904">
        <ele>96.4</ele>
        <time>2018-01-22T18:17:16Z</time>
      </trkpt>
      <trkpt lat="62.630493225868" lon="17.979316399739">
        <ele>96.4</ele>
        <time>2018-01-22T18:17:17Z</time>
      </trkpt>
      <trkpt lat="62.630474534231" lon="17.979279184103">
        <ele>96.4</ele>
        <time>2018-01-22T18:17:18Z</time>
      </trkpt>
      <trkpt lat="62.630455926413" lon="17.979235514404">
        <ele>96.4</ele>
        <time>2018-01-22T18:17:19Z</time>
      </trkpt>
      <trkpt lat="62.630437905328" lon="17.979183965719">
        <ele>96.4</ele>
        <time>2018-01-22T18:17:20Z</time>
      </trkpt>
      <trkpt lat="62.630419800424" lon="17.979144151694">
        <ele>96.4</ele>
        <time>2018-01-22T18:17:21Z</time>
      </trkpt>
      <trkpt lat="62.630403036624" lon="17.97910257747">
        <ele>96.4</ele>
        <time>2018-01-22T18:17:22Z</time>
      </trkpt>
      <trkpt lat="62.630388200661" lon="17.979063014902">
        <ele>96.4</ele>
        <time>2018-01-22T18:17:23Z</time>
      </trkpt>
      <trkpt lat="62.6303698443" lon="17.979014399882">
        <ele>96.2</ele>
        <time>2018-01-22T18:17:24Z</time>
      </trkpt>
      <trkpt lat="62.630354170147" lon="17.978970730183">
        <ele>96.2</ele>
        <time>2018-01-22T18:17:25Z</time>
      </trkpt>
      <trkpt lat="62.630335729967" lon="17.978917756575">
        <ele>96</ele>
        <time>2018-01-22T18:17:26Z</time>
      </trkpt>
      <trkpt lat="62.630319049986" lon="17.978868806279">
        <ele>96</ele>
        <time>2018-01-22T18:17:27Z</time>
      </trkpt>
      <trkpt lat="62.630303040557" lon="17.978822454372">
        <ele>96</ele>
        <time>2018-01-22T18:17:28Z</time>
      </trkpt>
      <trkpt lat="62.630285773843" lon="17.978774677542">
        <ele>95.8</ele>
        <time>2018-01-22T18:17:29Z</time>
      </trkpt>
      <trkpt lat="62.630270770242" lon="17.97872706835">
        <ele>95.8</ele>
        <time>2018-01-22T18:17:30Z</time>
      </trkpt>
      <trkpt lat="62.630256353374" lon="17.978679207701">
        <ele>95.6</ele>
        <time>2018-01-22T18:17:31Z</time>
      </trkpt>
      <trkpt lat="62.630237997013" lon="17.978624641532">
        <ele>95.4</ele>
        <time>2018-01-22T18:17:32Z</time>
      </trkpt>
      <trkpt lat="62.630223244869" lon="17.978574936865">
        <ele>95.4</ele>
        <time>2018-01-22T18:17:33Z</time>
      </trkpt>
      <trkpt lat="62.630208241268" lon="17.978513413719">
        <ele>95.4</ele>
        <time>2018-01-22T18:17:34Z</time>
      </trkpt>
      <trkpt lat="62.630195416961" lon="17.978460775387">
        <ele>95.2</ele>
        <time>2018-01-22T18:17:35Z</time>
      </trkpt>
      <trkpt lat="62.630182257378" lon="17.978409478159">
        <ele>95</ele>
        <time>2018-01-22T18:17:36Z</time>
      </trkpt>
      <trkpt lat="62.630172618193" lon="17.978356253094">
        <ele>95</ele>
        <time>2018-01-22T18:17:37Z</time>
      </trkpt>
      <trkpt lat="62.630165577397" lon="17.978302022201">
        <ele>95</ele>
        <time>2018-01-22T18:17:38Z</time>
      </trkpt>
      <trkpt lat="62.630160464438" lon="17.978234883182">
        <ele>94.8</ele>
        <time>2018-01-22T18:17:39Z</time>
      </trkpt>
      <trkpt lat="62.630151747262" lon="17.978180484651">
        <ele>94.6</ele>
        <time>2018-01-22T18:17:40Z</time>
      </trkpt>
      <trkpt lat="62.630147304855" lon="17.978125750844">
        <ele>94.6</ele>
        <time>2018-01-22T18:17:41Z</time>
      </trkpt>
      <trkpt lat="62.630145041742" lon="17.978067329001">
        <ele>94.6</ele>
        <time>2018-01-22T18:17:42Z</time>
      </trkpt>
      <trkpt lat="62.630143784457" lon="17.978027514976">
        <ele>94.6</ele>
        <time>2018-01-22T18:17:43Z</time>
      </trkpt>
      <trkpt lat="62.630142275715" lon="17.977952748428">
        <ele>94.4</ele>
        <time>2018-01-22T18:17:44Z</time>
      </trkpt>
      <trkpt lat="62.630144287371" lon="17.977891309101">
        <ele>94.2</ele>
        <time>2018-01-22T18:17:45Z</time>
      </trkpt>
      <trkpt lat="62.630144706466" lon="17.977831378516">
        <ele>94</ele>
        <time>2018-01-22T18:17:46Z</time>
      </trkpt>
      <trkpt lat="62.63014604757" lon="17.977775219786">
        <ele>93.8</ele>
        <time>2018-01-22T18:17:47Z</time>
      </trkpt>
      <trkpt lat="62.630149819425" lon="17.977714702468">
        <ele>93.6</ele>
        <time>2018-01-22T18:17:48Z</time>
      </trkpt>
      <trkpt lat="62.630150909072" lon="17.977657034996">
        <ele>93.6</ele>
        <time>2018-01-22T18:17:49Z</time>
      </trkpt>
      <trkpt lat="62.630152920728" lon="17.977598194058">
        <ele>93.4</ele>
        <time>2018-01-22T18:17:50Z</time>
      </trkpt>
      <trkpt lat="62.630155351479" lon="17.977534994532">
        <ele>93.2</ele>
        <time>2018-01-22T18:17:51Z</time>
      </trkpt>
      <trkpt lat="62.630157614592" lon="17.977476237413">
        <ele>93.2</ele>
        <time>2018-01-22T18:17:52Z</time>
      </trkpt>
      <trkpt lat="62.630160380619" lon="17.977424856366">
        <ele>93</ele>
        <time>2018-01-22T18:17:53Z</time>
      </trkpt>
      <trkpt lat="62.630164236293" lon="17.977359896641">
        <ele>92.8</ele>
        <time>2018-01-22T18:17:54Z</time>
      </trkpt>
      <trkpt lat="62.630165745035" lon="17.977309521422">
        <ele>93</ele>
        <time>2018-01-22T18:17:55Z</time>
      </trkpt>
      <trkpt lat="62.630171277089" lon="17.977245818982">
        <ele>92.8</ele>
        <time>2018-01-22T18:17:56Z</time>
      </trkpt>
      <trkpt lat="62.630176892962" lon="17.977183457646">
        <ele>92.6</ele>
        <time>2018-01-22T18:17:57Z</time>
      </trkpt>
      <trkpt lat="62.630178820799" lon="17.977130148762">
        <ele>92.6</ele>
        <time>2018-01-22T18:17:58Z</time>
      </trkpt>
      <trkpt lat="62.630181670645" lon="17.977067871245">
        <ele>92.6</ele>
        <time>2018-01-22T18:17:59Z</time>
      </trkpt>
      <trkpt lat="62.630184939586" lon="17.97701045523">
        <ele>92.6</ele>
        <time>2018-01-22T18:18:00Z</time>
      </trkpt>
      <trkpt lat="62.630189968726" lon="17.976960666744">
        <ele>92.4</ele>
        <time>2018-01-22T18:18:01Z</time>
      </trkpt>
      <trkpt lat="62.630194243495" lon="17.976893443906">
        <ele>92.4</ele>
        <time>2018-01-22T18:18:02Z</time>
      </trkpt>
      <trkpt lat="62.630198769721" lon="17.976835022063">
        <ele>92.2</ele>
        <time>2018-01-22T18:18:03Z</time>
      </trkpt>
      <trkpt lat="62.63020472087" lon="17.976767799225">
        <ele>92.2</ele>
        <time>2018-01-22T18:18:04Z</time>
      </trkpt>
      <trkpt lat="62.630209833829" lon="17.976705856984">
        <ele>92</ele>
        <time>2018-01-22T18:18:05Z</time>
      </trkpt>
      <trkpt lat="62.63021561734" lon="17.976649027702">
        <ele>91.8</ele>
        <time>2018-01-22T18:18:06Z</time>
      </trkpt>
      <trkpt lat="62.630222825774" lon="17.976593623343">
        <ele>91.6</ele>
        <time>2018-01-22T18:18:07Z</time>
      </trkpt>
      <trkpt lat="62.630229531294" lon="17.976543080486">
        <ele>91.4</ele>
        <time>2018-01-22T18:18:08Z</time>
      </trkpt>
      <trkpt lat="62.630235650081" lon="17.976477282571">
        <ele>91.2</ele>
        <time>2018-01-22T18:18:09Z</time>
      </trkpt>
      <trkpt lat="62.630241936506" lon="17.976421626755">
        <ele>91</ele>
        <time>2018-01-22T18:18:10Z</time>
      </trkpt>
      <trkpt lat="62.630248977302" lon="17.976366809129">
        <ele>91.2</ele>
        <time>2018-01-22T18:18:11Z</time>
      </trkpt>
      <trkpt lat="62.630255599003" lon="17.976314338435">
        <ele>91.2</ele>
        <time>2018-01-22T18:18:12Z</time>
      </trkpt>
      <trkpt lat="62.630275883201" lon="17.976202607708">
        <ele>90.8</ele>
        <time>2018-01-22T18:18:14Z</time>
      </trkpt>
      <trkpt lat="62.630288036956" lon="17.976145024055">
        <ele>90.8</ele>
        <time>2018-01-22T18:18:15Z</time>
      </trkpt>
      <trkpt lat="62.630299017245" lon="17.976092301904">
        <ele>90.6</ele>
        <time>2018-01-22T18:18:16Z</time>
      </trkpt>
      <trkpt lat="62.630311925371" lon="17.976040920857">
        <ele>90.6</ele>
        <time>2018-01-22T18:18:17Z</time>
      </trkpt>
      <trkpt lat="62.630325671687" lon="17.975991551466">
        <ele>90.6</ele>
        <time>2018-01-22T18:18:18Z</time>
      </trkpt>
      <trkpt lat="62.63033883127" lon="17.97594176298">
        <ele>90.4</ele>
        <time>2018-01-22T18:18:19Z</time>
      </trkpt>
      <trkpt lat="62.630353248138" lon="17.97588308968">
        <ele>90.4</ele>
        <time>2018-01-22T18:18:20Z</time>
      </trkpt>
      <trkpt lat="62.630368754653" lon="17.975832127728">
        <ele>90.2</ele>
        <time>2018-01-22T18:18:21Z</time>
      </trkpt>
      <trkpt lat="62.630383422978" lon="17.975783093613">
        <ele>90.2</ele>
        <time>2018-01-22T18:18:22Z</time>
      </trkpt>
      <trkpt lat="62.630396247285" lon="17.975736490249">
        <ele>89.8</ele>
        <time>2018-01-22T18:18:23Z</time>
      </trkpt>
      <trkpt lat="62.63041343018" lon="17.975677146397">
        <ele>89.8</ele>
        <time>2018-01-22T18:18:24Z</time>
      </trkpt>
      <trkpt lat="62.630426925039" lon="17.975629872481">
        <ele>89.8</ele>
        <time>2018-01-22T18:18:25Z</time>
      </trkpt>
      <trkpt lat="62.630439916984" lon="17.975571534457">
        <ele>89.6</ele>
        <time>2018-01-22T18:18:26Z</time>
      </trkpt>
      <trkpt lat="62.630451567825" lon="17.975520488686">
        <ele>89.6</ele>
        <time>2018-01-22T18:18:27Z</time>
      </trkpt>
      <trkpt lat="62.630464140675" lon="17.975470532562">
        <ele>89.4</ele>
        <time>2018-01-22T18:18:28Z</time>
      </trkpt>
      <trkpt lat="62.630475540059" lon="17.97541286509">
        <ele>89.2</ele>
        <time>2018-01-22T18:18:29Z</time>
      </trkpt>
      <trkpt lat="62.630487861452" lon="17.975367519011">
        <ele>89.2</ele>
        <time>2018-01-22T18:18:30Z</time>
      </trkpt>
      <trkpt lat="62.630500937216" lon="17.975305660589">
        <ele>89.2</ele>
        <time>2018-01-22T18:18:31Z</time>
      </trkpt>
      <trkpt lat="62.630516108455" lon="17.975251345877">
        <ele>89</ele>
        <time>2018-01-22T18:18:32Z</time>
      </trkpt>
      <trkpt lat="62.630528932762" lon="17.975201725029">
        <ele>89</ele>
        <time>2018-01-22T18:18:33Z</time>
      </trkpt>
      <trkpt lat="62.63054502601" lon="17.975147242679">
        <ele>89</ele>
        <time>2018-01-22T18:18:34Z</time>
      </trkpt>
      <trkpt lat="62.630558353231" lon="17.975096783641">
        <ele>88.6</ele>
        <time>2018-01-22T18:18:35Z</time>
      </trkpt>
      <trkpt lat="62.630572770099" lon="17.975042552748">
        <ele>88.6</ele>
        <time>2018-01-22T18:18:36Z</time>
      </trkpt>
      <trkpt lat="62.630585510587" lon="17.974988657131">
        <ele>88.8</ele>
        <time>2018-01-22T18:18:37Z</time>
      </trkpt>
      <trkpt lat="62.630596658514" lon="17.974942975776">
        <ele>88.6</ele>
        <time>2018-01-22T18:18:38Z</time>
      </trkpt>
      <trkpt lat="62.630611662115" lon="17.974882123182">
        <ele>88.4</ele>
        <time>2018-01-22T18:18:39Z</time>
      </trkpt>
      <trkpt lat="62.630626162802" lon="17.974826467366">
        <ele>88.6</ele>
        <time>2018-01-22T18:18:40Z</time>
      </trkpt>
      <trkpt lat="62.630638987109" lon="17.974773409939">
        <ele>88.6</ele>
        <time>2018-01-22T18:18:41Z</time>
      </trkpt>
      <trkpt lat="62.630656421461" lon="17.974720939245">
        <ele>88.4</ele>
        <time>2018-01-22T18:18:42Z</time>
      </trkpt>
      <trkpt lat="62.630671341243" lon="17.974680119392">
        <ele>88.2</ele>
        <time>2018-01-22T18:18:43Z</time>
      </trkpt>
      <trkpt lat="62.630688272681" lon="17.974628570707">
        <ele>88.2</ele>
        <time>2018-01-22T18:18:44Z</time>
      </trkpt>
      <trkpt lat="62.630704617386" lon="17.974577441117">
        <ele>88.2</ele>
        <time>2018-01-22T18:18:45Z</time>
      </trkpt>
      <trkpt lat="62.630717274055" lon="17.974526562984">
        <ele>88.2</ele>
        <time>2018-01-22T18:18:46Z</time>
      </trkpt>
      <trkpt lat="62.630731858561" lon="17.974473840833">
        <ele>88.2</ele>
        <time>2018-01-22T18:18:47Z</time>
      </trkpt>
      <trkpt lat="62.630745018144" lon="17.974429835858">
        <ele>88.2</ele>
        <time>2018-01-22T18:18:48Z</time>
      </trkpt>
      <trkpt lat="62.63075792627" lon="17.974383986865">
        <ele>88</ele>
        <time>2018-01-22T18:18:49Z</time>
      </trkpt>
      <trkpt lat="62.630772678414" lon="17.974327576678">
        <ele>88</ele>
        <time>2018-01-22T18:18:50Z</time>
      </trkpt>
      <trkpt lat="62.630787682015" lon="17.974278542563">
        <ele>88</ele>
        <time>2018-01-22T18:18:51Z</time>
      </trkpt>
      <trkpt lat="62.630799500494" lon="17.974230095181">
        <ele>87.8</ele>
        <time>2018-01-22T18:18:52Z</time>
      </trkpt>
      <trkpt lat="62.630811989525" lon="17.974187766586">
        <ele>88</ele>
        <time>2018-01-22T18:18:53Z</time>
      </trkpt>
      <trkpt lat="62.630827328402" lon="17.974133703331">
        <ele>87.8</ele>
        <time>2018-01-22T18:18:54Z</time>
      </trkpt>
      <trkpt lat="62.630840320347" lon="17.974082992836">
        <ele>87.8</ele>
        <time>2018-01-22T18:18:55Z</time>
      </trkpt>
      <trkpt lat="62.630857335604" lon="17.974032114703">
        <ele>87.8</ele>
        <time>2018-01-22T18:18:56Z</time>
      </trkpt>
      <trkpt lat="62.630872087748" lon="17.973985008425">
        <ele>87.6</ele>
        <time>2018-01-22T18:18:57Z</time>
      </trkpt>
      <trkpt lat="62.630884157684" lon="17.973942176916">
        <ele>87.6</ele>
        <time>2018-01-22T18:18:58Z</time>
      </trkpt>
      <trkpt lat="62.63089455124" lon="17.973898591036">
        <ele>87.6</ele>
        <time>2018-01-22T18:18:59Z</time>
      </trkpt>
      <trkpt lat="62.630895724706" lon="17.973854334604">
        <ele>87.4</ele>
        <time>2018-01-22T18:19:00Z</time>
      </trkpt>
      <trkpt lat="62.630888516272" lon="17.973801780091">
        <ele>87.4</ele>
        <time>2018-01-22T18:19:01Z</time>
      </trkpt>
      <trkpt lat="62.630873847947" lon="17.973747633017">
        <ele>87.4</ele>
        <time>2018-01-22T18:19:02Z</time>
      </trkpt>
      <trkpt lat="62.630861945649" lon="17.973710836476">
        <ele>87.4</ele>
        <time>2018-01-22T18:19:03Z</time>
      </trkpt>
      <trkpt lat="62.630843756926" lon="17.973663814017">
        <ele>87.4</ele>
        <time>2018-01-22T18:19:04Z</time>
      </trkpt>
      <trkpt lat="62.630828082773" lon="17.973616456282">
        <ele>87.2</ele>
        <time>2018-01-22T18:19:05Z</time>
      </trkpt>
      <trkpt lat="62.630812324801" lon="17.973575384972">
        <ele>87.4</ele>
        <time>2018-01-22T18:19:06Z</time>
      </trkpt>
      <trkpt lat="62.630797153562" lon="17.973529033065">
        <ele>87.2</ele>
        <time>2018-01-22T18:19:07Z</time>
      </trkpt>
      <trkpt lat="62.630783742522" lon="17.973487877936">
        <ele>87</ele>
        <time>2018-01-22T18:19:08Z</time>
      </trkpt>
      <trkpt lat="62.630766056713" lon="17.973440268744">
        <ele>87</ele>
        <time>2018-01-22T18:19:09Z</time>
      </trkpt>
      <trkpt lat="62.630751388388" lon="17.973394755027">
        <ele>87</ele>
        <time>2018-01-22T18:19:10Z</time>
      </trkpt>
      <trkpt lat="62.6307386479" lon="17.973343709256">
        <ele>86.8</ele>
        <time>2018-01-22T18:19:11Z</time>
      </trkpt>
      <trkpt lat="62.630724063394" lon="17.973294088408">
        <ele>86.8</ele>
        <time>2018-01-22T18:19:12Z</time>
      </trkpt>
      <trkpt lat="62.630710400897" lon="17.973245473388">
        <ele>86.8</ele>
        <time>2018-01-22T18:19:13Z</time>
      </trkpt>
      <trkpt lat="62.630694894382" lon="17.973192667418">
        <ele>86.8</ele>
        <time>2018-01-22T18:19:14Z</time>
      </trkpt>
      <trkpt lat="62.630678884953" lon="17.973146734606">
        <ele>86.6</ele>
        <time>2018-01-22T18:19:15Z</time>
      </trkpt>
      <trkpt lat="62.6306632108" lon="17.973094599188">
        <ele>86.6</ele>
        <time>2018-01-22T18:19:16Z</time>
      </trkpt>
      <trkpt lat="62.630649380665" lon="17.973049420747">
        <ele>86.4</ele>
        <time>2018-01-22T18:19:17Z</time>
      </trkpt>
      <trkpt lat="62.630634293245" lon="17.973006840695">
        <ele>86.4</ele>
        <time>2018-01-22T18:19:18Z</time>
      </trkpt>
      <trkpt lat="62.630618954368" lon="17.972954202363">
        <ele>86.4</ele>
        <time>2018-01-22T18:19:19Z</time>
      </trkpt>
      <trkpt lat="62.630602358206" lon="17.972906760809">
        <ele>86.2</ele>
        <time>2018-01-22T18:19:20Z</time>
      </trkpt>
      <trkpt lat="62.630587354605" lon="17.972855798857">
        <ele>86.2</ele>
        <time>2018-01-22T18:19:21Z</time>
      </trkpt>
      <trkpt lat="62.630572937737" lon="17.972808105846">
        <ele>86.2</ele>
        <time>2018-01-22T18:19:22Z</time>
      </trkpt>
      <trkpt lat="62.63055927524" lon="17.972767285993">
        <ele>86.2</ele>
        <time>2018-01-22T18:19:23Z</time>
      </trkpt>
      <trkpt lat="62.630541924707" lon="17.972707020132">
        <ele>85.8</ele>
        <time>2018-01-22T18:19:24Z</time>
      </trkpt>
      <trkpt lat="62.630533039893" lon="17.972671564695">
        <ele>86</ele>
        <time>2018-01-22T18:19:25Z</time>
      </trkpt>
      <trkpt lat="62.630513761523" lon="17.972602162563">
        <ele>86</ele>
        <time>2018-01-22T18:19:26Z</time>
      </trkpt>
      <trkpt lat="62.63050227832" lon="17.972550697697">
        <ele>86</ele>
        <time>2018-01-22T18:19:27Z</time>
      </trkpt>
      <trkpt lat="62.630492303859" lon="17.972506273627">
        <ele>85.8</ele>
        <time>2018-01-22T18:19:28Z</time>
      </trkpt>
      <trkpt lat="62.630484927787" lon="17.972449192888">
        <ele>85.8</ele>
        <time>2018-01-22T18:19:29Z</time>
      </trkpt>
      <trkpt lat="62.630474366593" lon="17.97239873385">
        <ele>85.8</ele>
        <time>2018-01-22T18:19:30Z</time>
      </trkpt>
      <trkpt lat="62.630467325797" lon="17.972352465762">
        <ele>85.6</ele>
        <time>2018-01-22T18:19:31Z</time>
      </trkpt>
      <trkpt lat="62.630461961381" lon="17.972292032263">
        <ele>85.6</ele>
        <time>2018-01-22T18:19:32Z</time>
      </trkpt>
      <trkpt lat="62.630456932241" lon="17.972235202981">
        <ele>85.6</ele>
        <time>2018-01-22T18:19:33Z</time>
      </trkpt>
      <trkpt lat="62.630449556169" lon="17.972175104758">
        <ele>85.4</ele>
        <time>2018-01-22T18:19:34Z</time>
      </trkpt>
      <trkpt lat="62.630440838993" lon="17.972122717883">
        <ele>85.4</ele>
        <time>2018-01-22T18:19:35Z</time>
      </trkpt>
      <trkpt lat="62.630432624731" lon="17.97206848699">
        <ele>85.4</ele>
        <time>2018-01-22T18:19:36Z</time>
      </trkpt>
      <trkpt lat="62.630426589763" lon="17.972015764839">
        <ele>85.4</ele>
        <time>2018-01-22T18:19:37Z</time>
      </trkpt>
      <trkpt lat="62.630419046053" lon="17.971964970525">
        <ele>85.4</ele>
        <time>2018-01-22T18:19:38Z</time>
      </trkpt>
      <trkpt lat="62.630411167067" lon="17.971902693008">
        <ele>85.2</ele>
        <time>2018-01-22T18:19:39Z</time>
      </trkpt>
      <trkpt lat="62.630404126271" lon="17.97184804302">
        <ele>85.2</ele>
        <time>2018-01-22T18:19:40Z</time>
      </trkpt>
      <trkpt lat="62.630397336932" lon="17.971792387204">
        <ele>85.2</ele>
        <time>2018-01-22T18:19:41Z</time>
      </trkpt>
      <trkpt lat="62.630391553421" lon="17.971738407768">
        <ele>85</ele>
        <time>2018-01-22T18:19:42Z</time>
      </trkpt>
      <trkpt lat="62.630388619756" lon="17.971688116368">
        <ele>85</ele>
        <time>2018-01-22T18:19:43Z</time>
      </trkpt>
      <trkpt lat="62.630382165693" lon="17.971630197439">
        <ele>85</ele>
        <time>2018-01-22T18:19:44Z</time>
      </trkpt>
      <trkpt lat="62.630375208716" lon="17.971578397297">
        <ele>85</ele>
        <time>2018-01-22T18:19:45Z</time>
      </trkpt>
      <trkpt lat="62.630367665006" lon="17.971524669318">
        <ele>85</ele>
        <time>2018-01-22T18:19:46Z</time>
      </trkpt>
      <trkpt lat="62.630363557875" lon="17.971469097321">
        <ele>85</ele>
        <time>2018-01-22T18:19:47Z</time>
      </trkpt>
      <trkpt lat="62.630359534563" lon="17.9714222425">
        <ele>85</ele>
        <time>2018-01-22T18:19:48Z</time>
      </trkpt>
      <trkpt lat="62.630356265622" lon="17.971365161761">
        <ele>85</ele>
        <time>2018-01-22T18:19:49Z</time>
      </trkpt>
      <trkpt lat="62.630352661405" lon="17.971306488461">
        <ele>84.8</ele>
        <time>2018-01-22T18:19:50Z</time>
      </trkpt>
      <trkpt lat="62.630349476283" lon="17.971248485713">
        <ele>84.6</ele>
        <time>2018-01-22T18:19:51Z</time>
      </trkpt>
      <trkpt lat="62.630349643921" lon="17.971189141861">
        <ele>84.6</ele>
        <time>2018-01-22T18:19:52Z</time>
      </trkpt>
      <trkpt lat="62.630349560102" lon="17.971140191565">
        <ele>84.6</ele>
        <time>2018-01-22T18:19:53Z</time>
      </trkpt>
      <trkpt lat="62.630349476283" lon="17.971076740582">
        <ele>84.6</ele>
        <time>2018-01-22T18:19:54Z</time>
      </trkpt>
      <trkpt lat="62.630351907034" lon="17.971024018431">
        <ele>84.4</ele>
        <time>2018-01-22T18:19:55Z</time>
      </trkpt>
      <trkpt lat="62.630351823215" lon="17.97096710533">
        <ele>84.6</ele>
        <time>2018-01-22T18:19:56Z</time>
      </trkpt>
      <trkpt lat="62.630351823215" lon="17.970912539161">
        <ele>84.6</ele>
        <time>2018-01-22T18:19:57Z</time>
      </trkpt>
      <trkpt lat="62.630351487939" lon="17.97085981701">
        <ele>84.4</ele>
        <time>2018-01-22T18:19:58Z</time>
      </trkpt>
      <trkpt lat="62.630353499595" lon="17.97080365828">
        <ele>84.6</ele>
        <time>2018-01-22T18:19:59Z</time>
      </trkpt>
      <trkpt lat="62.63035643326" lon="17.970746828998">
        <ele>84.4</ele>
        <time>2018-01-22T18:20:00Z</time>
      </trkpt>
      <trkpt lat="62.630357858183" lon="17.97069217901">
        <ele>84.2</ele>
        <time>2018-01-22T18:20:01Z</time>
      </trkpt>
      <trkpt lat="62.630365569531" lon="17.970635517366">
        <ele>84.2</ele>
        <time>2018-01-22T18:20:02Z</time>
      </trkpt>
      <trkpt lat="62.630379483485" lon="17.970579945369">
        <ele>84.2</ele>
        <time>2018-01-22T18:20:03Z</time>
      </trkpt>
      <trkpt lat="62.630397923665" lon="17.970522277897">
        <ele>84.2</ele>
        <time>2018-01-22T18:20:04Z</time>
      </trkpt>
      <trkpt lat="62.630420303338" lon="17.970472070316">
        <ele>84.2</ele>
        <time>2018-01-22T18:20:05Z</time>
      </trkpt>
      <trkpt lat="62.630444191753" lon="17.970427646246">
        <ele>84.2</ele>
        <time>2018-01-22T18:20:06Z</time>
      </trkpt>
      <trkpt lat="62.630466739064" lon="17.970388251316">
        <ele>84</ele>
        <time>2018-01-22T18:20:07Z</time>
      </trkpt>
      <trkpt lat="62.630490376022" lon="17.970352795879">
        <ele>83.8</ele>
        <time>2018-01-22T18:20:08Z</time>
      </trkpt>
      <trkpt lat="62.630522143423" lon="17.970317088985">
        <ele>83.6</ele>
        <time>2018-01-22T18:20:09Z</time>
      </trkpt>
      <trkpt lat="62.630549133141" lon="17.970294374036">
        <ele>83.2</ele>
        <time>2018-01-22T18:20:10Z</time>
      </trkpt>
      <trkpt lat="62.630579475619" lon="17.970277694055">
        <ele>82.8</ele>
        <time>2018-01-22T18:20:11Z</time>
      </trkpt>
      <trkpt lat="62.630608309355" lon="17.970260930255">
        <ele>82.4</ele>
        <time>2018-01-22T18:20:12Z</time>
      </trkpt>
      <trkpt lat="62.630633790331" lon="17.970247435396">
        <ele>82</ele>
        <time>2018-01-22T18:20:13Z</time>
      </trkpt>
      <trkpt lat="62.630665138637" lon="17.970234108175">
        <ele>82</ele>
        <time>2018-01-22T18:20:14Z</time>
      </trkpt>
      <trkpt lat="62.63069422383" lon="17.970219020755">
        <ele>82</ele>
        <time>2018-01-22T18:20:15Z</time>
      </trkpt>
      <trkpt lat="62.630721297367" lon="17.97019932329">
        <ele>81.6</ele>
        <time>2018-01-22T18:20:16Z</time>
      </trkpt>
      <trkpt lat="62.63075038256" lon="17.970192869227">
        <ele>81.6</ele>
        <time>2018-01-22T18:20:17Z</time>
      </trkpt>
      <trkpt lat="62.63077636645" lon="17.970185493155">
        <ele>81.6</ele>
        <time>2018-01-22T18:20:18Z</time>
      </trkpt>
      <trkpt lat="62.630806708928" lon="17.970173004124">
        <ele>81.4</ele>
        <time>2018-01-22T18:20:19Z</time>
      </trkpt>
      <trkpt lat="62.63083503975" lon="17.970160431274">
        <ele>81.2</ele>
        <time>2018-01-22T18:20:20Z</time>
      </trkpt>
      <trkpt lat="62.630889857376" lon="17.970132351909">
        <ele>81.2</ele>
        <time>2018-01-22T18:20:22Z</time>
      </trkpt>
      <trkpt lat="62.630912572325" lon="17.970116593937">
        <ele>81</ele>
        <time>2018-01-22T18:20:23Z</time>
      </trkpt>
      <trkpt lat="62.630943585355" lon="17.970098489033">
        <ele>80.8</ele>
        <time>2018-01-22T18:20:24Z</time>
      </trkpt>
      <trkpt lat="62.630969401607" lon="17.970084575079">
        <ele>80.8</ele>
        <time>2018-01-22T18:20:25Z</time>
      </trkpt>
      <trkpt lat="62.630996475144" lon="17.97006688927">
        <ele>80.8</ele>
        <time>2018-01-22T18:20:26Z</time>
      </trkpt>
      <trkpt lat="62.63102614707" lon="17.970055741343">
        <ele>80.8</ele>
        <time>2018-01-22T18:20:27Z</time>
      </trkpt>
      <trkpt lat="62.631053052969" lon="17.970043000855">
        <ele>80.8</ele>
        <time>2018-01-22T18:20:28Z</time>
      </trkpt>
      <trkpt lat="62.631082473438" lon="17.970026823788">
        <ele>80.6</ele>
        <time>2018-01-22T18:20:29Z</time>
      </trkpt>
      <trkpt lat="62.631111893907" lon="17.970014250938">
        <ele>80.6</ele>
        <time>2018-01-22T18:20:30Z</time>
      </trkpt>
      <trkpt lat="62.631138045435" lon="17.970006455771">
        <ele>80.6</ele>
        <time>2018-01-22T18:20:31Z</time>
      </trkpt>
      <trkpt lat="62.63116361023" lon="17.969988853781">
        <ele>80.4</ele>
        <time>2018-01-22T18:20:32Z</time>
      </trkpt>
      <trkpt lat="62.631193701251" lon="17.969970245963">
        <ele>80.2</ele>
        <time>2018-01-22T18:20:33Z</time>
      </trkpt>
      <trkpt lat="62.631219852779" lon="17.969948201566">
        <ele>80.2</ele>
        <time>2018-01-22T18:20:34Z</time>
      </trkpt>
      <trkpt lat="62.631247680687" lon="17.969935125802">
        <ele>80.2</ele>
        <time>2018-01-22T18:20:35Z</time>
      </trkpt>
      <trkpt lat="62.631272742568" lon="17.969925486617">
        <ele>80</ele>
        <time>2018-01-22T18:20:36Z</time>
      </trkpt>
      <trkpt lat="62.631296966259" lon="17.969914673966">
        <ele>80</ele>
        <time>2018-01-22T18:20:37Z</time>
      </trkpt>
      <trkpt lat="62.631323285425" lon="17.969900005641">
        <ele>80.2</ele>
        <time>2018-01-22T18:20:38Z</time>
      </trkpt>
      <trkpt lat="62.631352873532" lon="17.969879469986">
        <ele>80</ele>
        <time>2018-01-22T18:20:39Z</time>
      </trkpt>
      <trkpt lat="62.631379444155" lon="17.969863125281">
        <ele>79.8</ele>
        <time>2018-01-22T18:20:40Z</time>
      </trkpt>
      <trkpt lat="62.631407104425" lon="17.969849630422">
        <ele>80</ele>
        <time>2018-01-22T18:20:41Z</time>
      </trkpt>
      <trkpt lat="62.631433172134" lon="17.969831525518">
        <ele>79.8</ele>
        <time>2018-01-22T18:20:42Z</time>
      </trkpt>
      <trkpt lat="62.631456389997" lon="17.969820377591">
        <ele>79.8</ele>
        <time>2018-01-22T18:20:43Z</time>
      </trkpt>
      <trkpt lat="62.63148715157" lon="17.969805122533">
        <ele>79.8</ele>
        <time>2018-01-22T18:20:44Z</time>
      </trkpt>
      <trkpt lat="62.631511375261" lon="17.969794309882">
        <ele>79.8</ele>
        <time>2018-01-22T18:20:45Z</time>
      </trkpt>
      <trkpt lat="62.631540125178" lon="17.969778300453">
        <ele>79.8</ele>
        <time>2018-01-22T18:20:46Z</time>
      </trkpt>
      <trkpt lat="62.631566109068" lon="17.96976430268">
        <ele>79.8</ele>
        <time>2018-01-22T18:20:47Z</time>
      </trkpt>
      <trkpt lat="62.631589913664" lon="17.969750221088">
        <ele>79.8</ele>
        <time>2018-01-22T18:20:48Z</time>
      </trkpt>
      <trkpt lat="62.631616903382" lon="17.969737061505">
        <ele>79.8</ele>
        <time>2018-01-22T18:20:49Z</time>
      </trkpt>
      <trkpt lat="62.631643976919" lon="17.969713340728">
        <ele>79.8</ele>
        <time>2018-01-22T18:20:50Z</time>
      </trkpt>
      <trkpt lat="62.631670631361" lon="17.969690793417">
        <ele>79.8</ele>
        <time>2018-01-22T18:20:51Z</time>
      </trkpt>
      <trkpt lat="62.631696447613" lon="17.969664474251">
        <ele>79.8</ele>
        <time>2018-01-22T18:20:52Z</time>
      </trkpt>
      <trkpt lat="62.631714720155" lon="17.969631114289">
        <ele>79.6</ele>
        <time>2018-01-22T18:20:53Z</time>
      </trkpt>
      <trkpt lat="62.631741458416" lon="17.969589288608">
        <ele>79.6</ele>
        <time>2018-01-22T18:20:54Z</time>
      </trkpt>
      <trkpt lat="62.63176794522" lon="17.969559029949">
        <ele>79.4</ele>
        <time>2018-01-22T18:20:55Z</time>
      </trkpt>
      <trkpt lat="62.631796192223" lon="17.969534387163">
        <ele>79.2</ele>
        <time>2018-01-22T18:20:56Z</time>
      </trkpt>
      <trkpt lat="62.631824187769" lon="17.96952122758">
        <ele>79</ele>
        <time>2018-01-22T18:20:57Z</time>
      </trkpt>
      <trkpt lat="62.631848830555" lon="17.969513935327">
        <ele>78.8</ele>
        <time>2018-01-22T18:20:58Z</time>
      </trkpt>
      <trkpt lat="62.631876658463" lon="17.969513013318">
        <ele>78.6</ele>
        <time>2018-01-22T18:20:59Z</time>
      </trkpt>
      <trkpt lat="62.631903732" lon="17.969515024974">
        <ele>78.6</ele>
        <time>2018-01-22T18:21:00Z</time>
      </trkpt>
      <trkpt lat="62.631926949863" lon="17.969517204268">
        <ele>78.6</ele>
        <time>2018-01-22T18:21:01Z</time>
      </trkpt>
      <trkpt lat="62.631954442495" lon="17.969520305571">
        <ele>78.6</ele>
        <time>2018-01-22T18:21:02Z</time>
      </trkpt>
      <trkpt lat="62.631978666186" lon="17.969519048286">
        <ele>78.8</ele>
        <time>2018-01-22T18:21:03Z</time>
      </trkpt>
      <trkpt lat="62.632005236809" lon="17.969513935327">
        <ele>79</ele>
        <time>2018-01-22T18:21:04Z</time>
      </trkpt>
      <trkpt lat="62.632032394165" lon="17.96950781654">
        <ele>78.8</ele>
        <time>2018-01-22T18:21:05Z</time>
      </trkpt>
      <trkpt lat="62.632058210417" lon="17.969503290314">
        <ele>79</ele>
        <time>2018-01-22T18:21:06Z</time>
      </trkpt>
      <trkpt lat="62.63208142828" lon="17.969497674441">
        <ele>79</ele>
        <time>2018-01-22T18:21:07Z</time>
      </trkpt>
      <trkpt lat="62.632107495989" lon="17.96949105274">
        <ele>79</ele>
        <time>2018-01-22T18:21:08Z</time>
      </trkpt>
      <trkpt lat="62.632137084096" lon="17.96948518541">
        <ele>79</ele>
        <time>2018-01-22T18:21:09Z</time>
      </trkpt>
      <trkpt lat="62.632163403262" lon="17.969476887329">
        <ele>79</ele>
        <time>2018-01-22T18:21:10Z</time>
      </trkpt>
      <trkpt lat="62.632192153179" lon="17.969472277284">
        <ele>79</ele>
        <time>2018-01-22T18:21:11Z</time>
      </trkpt>
      <trkpt lat="62.632208246427" lon="17.96946758342">
        <ele>79</ele>
        <time>2018-01-22T18:21:12Z</time>
      </trkpt>
      <trkpt lat="62.632241857846" lon="17.969455178208">
        <ele>79.2</ele>
        <time>2018-01-22T18:21:13Z</time>
      </trkpt>
      <trkpt lat="62.63227421198" lon="17.969452160724">
        <ele>79.2</ele>
        <time>2018-01-22T18:21:14Z</time>
      </trkpt>
      <trkpt lat="62.632300950241" lon="17.969451322534">
        <ele>79.2</ele>
        <time>2018-01-22T18:21:15Z</time>
      </trkpt>
      <trkpt lat="62.632330454529" lon="17.969451071077">
        <ele>79.2</ele>
        <time>2018-01-22T18:21:16Z</time>
      </trkpt>
      <trkpt lat="62.632356773695" lon="17.969447969774">
        <ele>79.2</ele>
        <time>2018-01-22T18:21:17Z</time>
      </trkpt>
      <trkpt lat="62.632381332662" lon="17.969444533195">
        <ele>79.2</ele>
        <time>2018-01-22T18:21:18Z</time>
      </trkpt>
      <trkpt lat="62.63240916057" lon="17.969444533195">
        <ele>79.2</ele>
        <time>2018-01-22T18:21:19Z</time>
      </trkpt>
      <trkpt lat="62.632433970994" lon="17.969444700833">
        <ele>79.2</ele>
        <time>2018-01-22T18:21:20Z</time>
      </trkpt>
      <trkpt lat="62.632464732567" lon="17.969441934806">
        <ele>79.2</ele>
        <time>2018-01-22T18:21:21Z</time>
      </trkpt>
      <trkpt lat="62.632492644294" lon="17.96944159953">
        <ele>79.4</ele>
        <time>2018-01-22T18:21:22Z</time>
      </trkpt>
      <trkpt lat="62.632515945976" lon="17.969437324761">
        <ele>79.4</ele>
        <time>2018-01-22T18:21:23Z</time>
      </trkpt>
      <trkpt lat="62.632547713377" lon="17.969440174607">
        <ele>79.2</ele>
        <time>2018-01-22T18:21:24Z</time>
      </trkpt>
      <trkpt lat="62.632572859077" lon="17.969449478516">
        <ele>79.2</ele>
        <time>2018-01-22T18:21:25Z</time>
      </trkpt>
      <trkpt lat="62.63260026789" lon="17.969453920923">
        <ele>79.4</ele>
        <time>2018-01-22T18:21:26Z</time>
      </trkpt>
      <trkpt lat="62.632628347255" lon="17.969458866244">
        <ele>79.2</ele>
        <time>2018-01-22T18:21:27Z</time>
      </trkpt>
      <trkpt lat="62.632653241498" lon="17.969467164325">
        <ele>79.2</ele>
        <time>2018-01-22T18:21:28Z</time>
      </trkpt>
      <trkpt lat="62.63268157232" lon="17.969471942008">
        <ele>79.4</ele>
        <time>2018-01-22T18:21:29Z</time>
      </trkpt>
      <trkpt lat="62.632709735504" lon="17.969470768542">
        <ele>79.4</ele>
        <time>2018-01-22T18:21:30Z</time>
      </trkpt>
      <trkpt lat="62.632734210652" lon="17.969478815166">
        <ele>79.2</ele>
        <time>2018-01-22T18:21:31Z</time>
      </trkpt>
      <trkpt lat="62.632761954741" lon="17.969485520686">
        <ele>79.2</ele>
        <time>2018-01-22T18:21:32Z</time>
      </trkpt>
      <trkpt lat="62.63278802245" lon="17.96949189093">
        <ele>79.4</ele>
        <time>2018-01-22T18:21:33Z</time>
      </trkpt>
      <trkpt lat="62.632816269453" lon="17.96949775826">
        <ele>79.4</ele>
        <time>2018-01-22T18:21:34Z</time>
      </trkpt>
      <trkpt lat="62.632843510628" lon="17.9695111693">
        <ele>79.4</ele>
        <time>2018-01-22T18:21:35Z</time>
      </trkpt>
      <trkpt lat="62.632869075423" lon="17.969516449897">
        <ele>79.4</ele>
        <time>2018-01-22T18:21:36Z</time>
      </trkpt>
      <trkpt lat="62.632891874191" lon="17.96951871301">
        <ele>79.6</ele>
        <time>2018-01-22T18:21:37Z</time>
      </trkpt>
      <trkpt lat="62.632917271348" lon="17.969527514005">
        <ele>79.8</ele>
        <time>2018-01-22T18:21:38Z</time>
      </trkpt>
      <trkpt lat="62.63294644036" lon="17.96953463862">
        <ele>79.8</ele>
        <time>2018-01-22T18:21:39Z</time>
      </trkpt>
      <trkpt lat="62.632973178621" lon="17.969536063543">
        <ele>79.8</ele>
        <time>2018-01-22T18:21:40Z</time>
      </trkpt>
      <trkpt lat="62.633001006529" lon="17.969539416303">
        <ele>80</ele>
        <time>2018-01-22T18:21:41Z</time>
      </trkpt>
      <trkpt lat="62.633027158057" lon="17.969540925045">
        <ele>80</ele>
        <time>2018-01-22T18:21:42Z</time>
      </trkpt>
      <trkpt lat="62.63305121411" lon="17.969547714384">
        <ele>80</ele>
        <time>2018-01-22T18:21:43Z</time>
      </trkpt>
      <trkpt lat="62.633080718398" lon="17.96955894613">
        <ele>80</ele>
        <time>2018-01-22T18:21:44Z</time>
      </trkpt>
      <trkpt lat="62.633105612641" lon="17.969562466528">
        <ele>80.2</ele>
        <time>2018-01-22T18:21:45Z</time>
      </trkpt>
      <trkpt lat="62.633130423065" lon="17.969569172048">
        <ele>80.2</ele>
        <time>2018-01-22T18:21:46Z</time>
      </trkpt>
      <trkpt lat="62.633154814394" lon="17.969578978871">
        <ele>80.2</ele>
        <time>2018-01-22T18:21:47Z</time>
      </trkpt>
      <trkpt lat="62.6331777808" lon="17.969586774038">
        <ele>80.4</ele>
        <time>2018-01-22T18:21:48Z</time>
      </trkpt>
      <trkpt lat="62.633204435242" lon="17.969596497042">
        <ele>80.4</ele>
        <time>2018-01-22T18:21:49Z</time>
      </trkpt>
      <trkpt lat="62.633232682245" lon="17.969604543666">
        <ele>80.4</ele>
        <time>2018-01-22T18:21:50Z</time>
      </trkpt>
      <trkpt lat="62.633258330859" lon="17.969618289982">
        <ele>80.4</ele>
        <time>2018-01-22T18:21:51Z</time>
      </trkpt>
      <trkpt lat="62.633282638369" lon="17.969642513673">
        <ele>80.4</ele>
        <time>2018-01-22T18:21:52Z</time>
      </trkpt>
      <trkpt lat="62.633301330006" lon="17.969664725708">
        <ele>80.4</ele>
        <time>2018-01-22T18:21:53Z</time>
      </trkpt>
      <trkpt lat="62.633326056611" lon="17.969701941344">
        <ele>80.4</ele>
        <time>2018-01-22T18:21:54Z</time>
      </trkpt>
      <trkpt lat="62.633343155687" lon="17.96973664241">
        <ele>80.4</ele>
        <time>2018-01-22T18:21:55Z</time>
      </trkpt>
      <trkpt lat="62.633358326926" lon="17.969782910498">
        <ele>80.4</ele>
        <time>2018-01-22T18:21:56Z</time>
      </trkpt>
      <trkpt lat="62.633370983595" lon="17.969834291545">
        <ele>80.6</ele>
        <time>2018-01-22T18:21:57Z</time>
      </trkpt>
      <trkpt lat="62.633382131522" lon="17.969881816918">
        <ele>80.6</ele>
        <time>2018-01-22T18:21:58Z</time>
      </trkpt>
      <trkpt lat="62.633392189802" lon="17.969943172426">
        <ele>80.6</ele>
        <time>2018-01-22T18:21:59Z</time>
      </trkpt>
      <trkpt lat="62.633400068788" lon="17.969998409147">
        <ele>80.8</ele>
        <time>2018-01-22T18:22:00Z</time>
      </trkpt>
      <trkpt lat="62.6334040921" lon="17.970050628384">
        <ele>81</ele>
        <time>2018-01-22T18:22:01Z</time>
      </trkpt>
      <trkpt lat="62.633407193403" lon="17.970113073539">
        <ele>81.2</ele>
        <time>2018-01-22T18:22:02Z</time>
      </trkpt>
      <trkpt lat="62.633412054905" lon="17.970162862025">
        <ele>81.2</ele>
        <time>2018-01-22T18:22:03Z</time>
      </trkpt>
      <trkpt lat="62.633415156208" lon="17.970224133714">
        <ele>81.4</ele>
        <time>2018-01-22T18:22:04Z</time>
      </trkpt>
      <trkpt lat="62.633417838416" lon="17.970288255249">
        <ele>81.6</ele>
        <time>2018-01-22T18:22:05Z</time>
      </trkpt>
      <trkpt lat="62.6334208559" lon="17.970342569961">
        <ele>81.6</ele>
        <time>2018-01-22T18:22:06Z</time>
      </trkpt>
      <trkpt lat="62.633423957203" lon="17.97039881251">
        <ele>81.8</ele>
        <time>2018-01-22T18:22:07Z</time>
      </trkpt>
      <trkpt lat="62.633426471773" lon="17.970451199385">
        <ele>81.8</ele>
        <time>2018-01-22T18:22:08Z</time>
      </trkpt>
      <trkpt lat="62.633429070162" lon="17.970511297608">
        <ele>82</ele>
        <time>2018-01-22T18:22:09Z</time>
      </trkpt>
      <trkpt lat="62.633429656895" lon="17.970569719451">
        <ele>82</ele>
        <time>2018-01-22T18:22:10Z</time>
      </trkpt>
      <trkpt lat="62.633431081818" lon="17.970621435774">
        <ele>82</ele>
        <time>2018-01-22T18:22:11Z</time>
      </trkpt>
      <trkpt lat="62.633434518397" lon="17.970677426866">
        <ele>82.2</ele>
        <time>2018-01-22T18:22:12Z</time>
      </trkpt>
      <trkpt lat="62.633436110958" lon="17.970727969723">
        <ele>82.4</ele>
        <time>2018-01-22T18:22:13Z</time>
      </trkpt>
      <trkpt lat="62.633438374071" lon="17.970788403222">
        <ele>82.4</ele>
        <time>2018-01-22T18:22:14Z</time>
      </trkpt>
      <trkpt lat="62.633440218089" lon="17.970848752902">
        <ele>82.4</ele>
        <time>2018-01-22T18:22:15Z</time>
      </trkpt>
      <trkpt lat="62.63344516341" lon="17.970903067614">
        <ele>82.6</ele>
        <time>2018-01-22T18:22:16Z</time>
      </trkpt>
      <trkpt lat="62.63344683979" lon="17.970959310163">
        <ele>82.6</ele>
        <time>2018-01-22T18:22:17Z</time>
      </trkpt>
      <trkpt lat="62.633447426523" lon="17.971014546884">
        <ele>82.8</ele>
        <time>2018-01-22T18:22:18Z</time>
      </trkpt>
      <trkpt lat="62.633449521998" lon="17.971068777777">
        <ele>82.8</ele>
        <time>2018-01-22T18:22:19Z</time>
      </trkpt>
      <trkpt lat="62.633451282197" lon="17.971129462733">
        <ele>83</ele>
        <time>2018-01-22T18:22:20Z</time>
      </trkpt>
      <trkpt lat="62.63345019255" lon="17.971184112721">
        <ele>83.2</ele>
        <time>2018-01-22T18:22:21Z</time>
      </trkpt>
      <trkpt lat="62.633450611645" lon="17.971239936175">
        <ele>83.4</ele>
        <time>2018-01-22T18:22:22Z</time>
      </trkpt>
      <trkpt lat="62.633448851446" lon="17.971292490688">
        <ele>83.6</ele>
        <time>2018-01-22T18:22:23Z</time>
      </trkpt>
      <trkpt lat="62.633447510342" lon="17.971354181472">
        <ele>83.6</ele>
        <time>2018-01-22T18:22:24Z</time>
      </trkpt>
      <trkpt lat="62.63344683979" lon="17.971412687134">
        <ele>83.6</ele>
        <time>2018-01-22T18:22:25Z</time>
      </trkpt>
      <trkpt lat="62.633444660496" lon="17.971463481448">
        <ele>83.6</ele>
        <time>2018-01-22T18:22:26Z</time>
      </trkpt>
      <trkpt lat="62.633440553365" lon="17.971529279363">
        <ele>83.8</ele>
        <time>2018-01-22T18:22:27Z</time>
      </trkpt>
      <trkpt lat="62.633438122614" lon="17.971582504428">
        <ele>84</ele>
        <time>2018-01-22T18:22:28Z</time>
      </trkpt>
      <trkpt lat="62.633434434578" lon="17.971636735321">
        <ele>84</ele>
        <time>2018-01-22T18:22:29Z</time>
      </trkpt>
      <trkpt lat="62.633431081818" lon="17.971692726413">
        <ele>84.2</ele>
        <time>2018-01-22T18:22:30Z</time>
      </trkpt>
      <trkpt lat="62.633427309963" lon="17.971744526555">
        <ele>84.4</ele>
        <time>2018-01-22T18:22:31Z</time>
      </trkpt>
      <trkpt lat="62.633423202832" lon="17.971802864579">
        <ele>84.4</ele>
        <time>2018-01-22T18:22:32Z</time>
      </trkpt>
      <trkpt lat="62.633417335502" lon="17.971857766024">
        <ele>84.2</ele>
        <time>2018-01-22T18:22:33Z</time>
      </trkpt>
      <trkpt lat="62.633411216715" lon="17.971917026057">
        <ele>84.4</ele>
        <time>2018-01-22T18:22:34Z</time>
      </trkpt>
      <trkpt lat="62.633406690489" lon="17.971975531719">
        <ele>84.4</ele>
        <time>2018-01-22T18:22:35Z</time>
      </trkpt>
      <trkpt lat="62.63339822477" lon="17.972034205019">
        <ele>84.6</ele>
        <time>2018-01-22T18:22:36Z</time>
      </trkpt>
      <trkpt lat="62.633392105983" lon="17.972085166971">
        <ele>84.6</ele>
        <time>2018-01-22T18:22:37Z</time>
      </trkpt>
      <trkpt lat="62.633386238653" lon="17.97214140952">
        <ele>84.6</ele>
        <time>2018-01-22T18:22:38Z</time>
      </trkpt>
      <trkpt lat="62.633378527305" lon="17.972201088648">
        <ele>84.8</ele>
        <time>2018-01-22T18:22:39Z</time>
      </trkpt>
      <trkpt lat="62.633371235052" lon="17.972255487179">
        <ele>84.8</ele>
        <time>2018-01-22T18:22:40Z</time>
      </trkpt>
      <trkpt lat="62.633362769333" lon="17.972311897366">
        <ele>84.8</ele>
        <time>2018-01-22T18:22:41Z</time>
      </trkpt>
      <trkpt lat="62.633354974166" lon="17.972361099119">
        <ele>85</ele>
        <time>2018-01-22T18:22:42Z</time>
      </trkpt>
      <trkpt lat="62.63334793337" lon="17.972412480166">
        <ele>85.2</ele>
        <time>2018-01-22T18:22:43Z</time>
      </trkpt>
      <trkpt lat="62.633339048556" lon="17.972473919493">
        <ele>85.4</ele>
        <time>2018-01-22T18:22:44Z</time>
      </trkpt>
      <trkpt lat="62.633330750475" lon="17.972528485662">
        <ele>85.4</ele>
        <time>2018-01-22T18:22:45Z</time>
      </trkpt>
      <trkpt lat="62.633320021643" lon="17.972586656048">
        <ele>85.6</ele>
        <time>2018-01-22T18:22:46Z</time>
      </trkpt>
      <trkpt lat="62.633310801553" lon="17.972639126742">
        <ele>85.8</ele>
        <time>2018-01-22T18:22:47Z</time>
      </trkpt>
      <trkpt lat="62.633301330006" lon="17.972691094522">
        <ele>85.8</ele>
        <time>2018-01-22T18:22:48Z</time>
      </trkpt>
      <trkpt lat="62.633290433536" lon="17.972744403406">
        <ele>86</ele>
        <time>2018-01-22T18:22:49Z</time>
      </trkpt>
      <trkpt lat="62.633280207618" lon="17.972797544652">
        <ele>86</ele>
        <time>2018-01-22T18:22:50Z</time>
      </trkpt>
      <trkpt lat="62.633268808234" lon="17.972851775545">
        <ele>86</ele>
        <time>2018-01-22T18:22:51Z</time>
      </trkpt>
      <trkpt lat="62.633260007239" lon="17.972901899307">
        <ele>86.2</ele>
        <time>2018-01-22T18:22:52Z</time>
      </trkpt>
      <trkpt lat="62.633249781321" lon="17.972945485187">
        <ele>86.2</ele>
        <time>2018-01-22T18:22:53Z</time>
      </trkpt>
      <trkpt lat="62.633235280634" lon="17.973003152659">
        <ele>86.4</ele>
        <time>2018-01-22T18:22:54Z</time>
      </trkpt>
      <trkpt lat="62.633225306173" lon="17.973045229797">
        <ele>86.4</ele>
        <time>2018-01-22T18:22:55Z</time>
      </trkpt>
      <trkpt lat="62.633213655332" lon="17.973104154554">
        <ele>86.4</ele>
        <time>2018-01-22T18:22:56Z</time>
      </trkpt>
      <trkpt lat="62.633202758862" lon="17.973155954696">
        <ele>86.4</ele>
        <time>2018-01-22T18:22:57Z</time>
      </trkpt>
      <trkpt lat="62.633192365306" lon="17.973199624395">
        <ele>86.6</ele>
        <time>2018-01-22T18:22:58Z</time>
      </trkpt>
      <trkpt lat="62.633179960094" lon="17.973255615487">
        <ele>86.6</ele>
        <time>2018-01-22T18:22:59Z</time>
      </trkpt>
      <trkpt lat="62.633167806339" lon="17.973301213023">
        <ele>86.6</ele>
        <time>2018-01-22T18:23:00Z</time>
      </trkpt>
      <trkpt lat="62.633156239317" lon="17.973347984025">
        <ele>86.8</ele>
        <time>2018-01-22T18:23:01Z</time>
      </trkpt>
      <trkpt lat="62.633143163553" lon="17.973403220746">
        <ele>86.8</ele>
        <time>2018-01-22T18:23:02Z</time>
      </trkpt>
      <trkpt lat="62.633132686178" lon="17.973448650644">
        <ele>87</ele>
        <time>2018-01-22T18:23:03Z</time>
      </trkpt>
      <trkpt lat="62.633118604586" lon="17.973502797718">
        <ele>87.2</ele>
        <time>2018-01-22T18:23:04Z</time>
      </trkpt>
      <trkpt lat="62.633105947917" lon="17.973550909824">
        <ele>87.2</ele>
        <time>2018-01-22T18:23:05Z</time>
      </trkpt>
      <trkpt lat="62.633094380895" lon="17.973600446853">
        <ele>87.4</ele>
        <time>2018-01-22T18:23:06Z</time>
      </trkpt>
      <trkpt lat="62.633080299303" lon="17.973644703285">
        <ele>87.4</ele>
        <time>2018-01-22T18:23:07Z</time>
      </trkpt>
      <trkpt lat="62.633069151376" lon="17.973686948061">
        <ele>87.6</ele>
        <time>2018-01-22T18:23:08Z</time>
      </trkpt>
      <trkpt lat="62.633054399232" lon="17.973741430411">
        <ele>87.6</ele>
        <time>2018-01-22T18:23:09Z</time>
      </trkpt>
      <trkpt lat="62.633044005676" lon="17.973789207241">
        <ele>87.6</ele>
        <time>2018-01-22T18:23:10Z</time>
      </trkpt>
      <trkpt lat="62.633033109206" lon="17.973841007383">
        <ele>88</ele>
        <time>2018-01-22T18:23:11Z</time>
      </trkpt>
      <trkpt lat="62.633021374546" lon="17.973897669027">
        <ele>88</ele>
        <time>2018-01-22T18:23:12Z</time>
      </trkpt>
      <trkpt lat="62.633011902999" lon="17.97394016526">
        <ele>88</ele>
        <time>2018-01-22T18:23:13Z</time>
      </trkpt>
      <trkpt lat="62.632996647941" lon="17.973996407809">
        <ele>88</ele>
        <time>2018-01-22T18:23:14Z</time>
      </trkpt>
      <trkpt lat="62.63298332072" lon="17.974043514087">
        <ele>88.2</ele>
        <time>2018-01-22T18:23:15Z</time>
      </trkpt>
      <trkpt lat="62.632972675707" lon="17.974094140763">
        <ele>88.4</ele>
        <time>2018-01-22T18:23:16Z</time>
      </trkpt>
      <trkpt lat="62.632959683762" lon="17.97414636">
        <ele>88.4</ele>
        <time>2018-01-22T18:23:17Z</time>
      </trkpt>
      <trkpt lat="62.63294727855" lon="17.97418994588">
        <ele>88.2</ele>
        <time>2018-01-22T18:23:18Z</time>
      </trkpt>
      <trkpt lat="62.632934202786" lon="17.974240153461">
        <ele>88.4</ele>
        <time>2018-01-22T18:23:19Z</time>
      </trkpt>
      <trkpt lat="62.632919031547" lon="17.974293629983">
        <ele>88.4</ele>
        <time>2018-01-22T18:23:20Z</time>
      </trkpt>
      <trkpt lat="62.632906877792" lon="17.97434333465">
        <ele>88.6</ele>
        <time>2018-01-22T18:23:21Z</time>
      </trkpt>
      <trkpt lat="62.632894807856" lon="17.97439446424">
        <ele>88.6</ele>
        <time>2018-01-22T18:23:22Z</time>
      </trkpt>
      <trkpt lat="62.632885336309" lon="17.974436876654">
        <ele>88.6</ele>
        <time>2018-01-22T18:23:23Z</time>
      </trkpt>
      <trkpt lat="62.632871254717" lon="17.974494711764">
        <ele>88.6</ele>
        <time>2018-01-22T18:23:24Z</time>
      </trkpt>
      <trkpt lat="62.632859520057" lon="17.974543242965">
        <ele>88.8</ele>
        <time>2018-01-22T18:23:25Z</time>
      </trkpt>
      <trkpt lat="62.632846863388" lon="17.974597809134">
        <ele>88.8</ele>
        <time>2018-01-22T18:23:26Z</time>
      </trkpt>
      <trkpt lat="62.632833871443" lon="17.97465430314">
        <ele>88.8</ele>
        <time>2018-01-22T18:23:27Z</time>
      </trkpt>
      <trkpt lat="62.632822807335" lon="17.974702415246">
        <ele>89</ele>
        <time>2018-01-22T18:23:28Z</time>
      </trkpt>
      <trkpt lat="62.632809061019" lon="17.974753712474">
        <ele>89</ele>
        <time>2018-01-22T18:23:29Z</time>
      </trkpt>
      <trkpt lat="62.63279556616" lon="17.974811966679">
        <ele>89.2</ele>
        <time>2018-01-22T18:23:30Z</time>
      </trkpt>
      <trkpt lat="62.632784837328" lon="17.974859492052">
        <ele>89</ele>
        <time>2018-01-22T18:23:31Z</time>
      </trkpt>
      <trkpt lat="62.632771342469" lon="17.974917830076">
        <ele>89</ele>
        <time>2018-01-22T18:23:32Z</time>
      </trkpt>
      <trkpt lat="62.632760026904" lon="17.974970384589">
        <ele>89</ele>
        <time>2018-01-22T18:23:33Z</time>
      </trkpt>
      <trkpt lat="62.632748543701" lon="17.975023022921">
        <ele>89.2</ele>
        <time>2018-01-22T18:23:34Z</time>
      </trkpt>
      <trkpt lat="62.632736306127" lon="17.975079852203">
        <ele>89.2</ele>
        <time>2018-01-22T18:23:35Z</time>
      </trkpt>
      <trkpt lat="62.63272599639" lon="17.975134921286">
        <ele>89.2</ele>
        <time>2018-01-22T18:23:36Z</time>
      </trkpt>
      <trkpt lat="62.632715686653" lon="17.975186134695">
        <ele>89.4</ele>
        <time>2018-01-22T18:23:37Z</time>
      </trkpt>
      <trkpt lat="62.632702443251" lon="17.975234833534">
        <ele>89.4</ele>
        <time>2018-01-22T18:23:38Z</time>
      </trkpt>
      <trkpt lat="62.632689367487" lon="17.975288729151">
        <ele>89.4</ele>
        <time>2018-01-22T18:23:39Z</time>
      </trkpt>
      <trkpt lat="62.632676962275" lon="17.975339607284">
        <ele>89.4</ele>
        <time>2018-01-22T18:23:40Z</time>
      </trkpt>
      <trkpt lat="62.632664137968" lon="17.975392329435">
        <ele>89.2</ele>
        <time>2018-01-22T18:23:41Z</time>
      </trkpt>
      <trkpt lat="62.63265223567" lon="17.975442453197">
        <ele>89.2</ele>
        <time>2018-01-22T18:23:42Z</time>
      </trkpt>
      <trkpt lat="62.632641003924" lon="17.975485955258">
        <ele>89.2</ele>
        <time>2018-01-22T18:23:43Z</time>
      </trkpt>
      <trkpt lat="62.63262876635" lon="17.975538677409">
        <ele>89.2</ele>
        <time>2018-01-22T18:23:44Z</time>
      </trkpt>
      <trkpt lat="62.632618959527" lon="17.975590058456">
        <ele>89.2</ele>
        <time>2018-01-22T18:23:45Z</time>
      </trkpt>
      <trkpt lat="62.632605883763" lon="17.975643451159">
        <ele>89.4</ele>
        <time>2018-01-22T18:23:46Z</time>
      </trkpt>
      <trkpt lat="62.632593981465" lon="17.975689886885">
        <ele>89.4</ele>
        <time>2018-01-22T18:23:47Z</time>
      </trkpt>
      <trkpt lat="62.632583084995" lon="17.975735903516">
        <ele>89.6</ele>
        <time>2018-01-22T18:23:48Z</time>
      </trkpt>
      <trkpt lat="62.632571098878" lon="17.975788038934">
        <ele>89.6</ele>
        <time>2018-01-22T18:23:49Z</time>
      </trkpt>
      <trkpt lat="62.632560118589" lon="17.975840509628">
        <ele>89.8</ele>
        <time>2018-01-22T18:23:50Z</time>
      </trkpt>
      <trkpt lat="62.632548635386" lon="17.975892058313">
        <ele>89.8</ele>
        <time>2018-01-22T18:23:51Z</time>
      </trkpt>
      <trkpt lat="62.632537571278" lon="17.975938996953">
        <ele>89.6</ele>
        <time>2018-01-22T18:23:52Z</time>
      </trkpt>
      <trkpt lat="62.632527848274" lon="17.975979062435">
        <ele>89.8</ele>
        <time>2018-01-22T18:23:53Z</time>
      </trkpt>
      <trkpt lat="62.632511922664" lon="17.97603480207">
        <ele>89.8</ele>
        <time>2018-01-22T18:23:54Z</time>
      </trkpt>
      <trkpt lat="62.632502032022" lon="17.976075957199">
        <ele>89.8</ele>
        <time>2018-01-22T18:23:55Z</time>
      </trkpt>
      <trkpt lat="62.63248962681" lon="17.97612700297">
        <ele>89.8</ele>
        <time>2018-01-22T18:23:56Z</time>
      </trkpt>
      <trkpt lat="62.632478981797" lon="17.976172181411">
        <ele>90</ele>
        <time>2018-01-22T18:23:57Z</time>
      </trkpt>
      <trkpt lat="62.632469258793" lon="17.976213252721">
        <ele>90</ele>
        <time>2018-01-22T18:23:58Z</time>
      </trkpt>
      <trkpt lat="62.632456350667" lon="17.976265136682">
        <ele>90</ele>
        <time>2018-01-22T18:23:59Z</time>
      </trkpt>
      <trkpt lat="62.632445538016" lon="17.976316098634">
        <ele>90</ele>
        <time>2018-01-22T18:24:00Z</time>
      </trkpt>
      <trkpt lat="62.632434473908" lon="17.976362701998">
        <ele>90.2</ele>
        <time>2018-01-22T18:24:01Z</time>
      </trkpt>
      <trkpt lat="62.632420140859" lon="17.97641450214">
        <ele>90.2</ele>
        <time>2018-01-22T18:24:02Z</time>
      </trkpt>
      <trkpt lat="62.632410585493" lon="17.976463033341">
        <ele>90.2</ele>
        <time>2018-01-22T18:24:03Z</time>
      </trkpt>
      <trkpt lat="62.632398180281" lon="17.976518605338">
        <ele>90.2</ele>
        <time>2018-01-22T18:24:04Z</time>
      </trkpt>
      <trkpt lat="62.632383092861" lon="17.976571578946">
        <ele>90.2</ele>
        <time>2018-01-22T18:24:05Z</time>
      </trkpt>
      <trkpt lat="62.632371861115" lon="17.976619691052">
        <ele>90.4</ele>
        <time>2018-01-22T18:24:06Z</time>
      </trkpt>
      <trkpt lat="62.632360126455" lon="17.976667467882">
        <ele>90.4</ele>
        <time>2018-01-22T18:24:07Z</time>
      </trkpt>
      <trkpt lat="62.632349397623" lon="17.976716501997">
        <ele>90.4</ele>
        <time>2018-01-22T18:24:08Z</time>
      </trkpt>
      <trkpt lat="62.632338417334" lon="17.976775342935">
        <ele>90.4</ele>
        <time>2018-01-22T18:24:09Z</time>
      </trkpt>
      <trkpt lat="62.63232701795" lon="17.976827394534">
        <ele>90.4</ele>
        <time>2018-01-22T18:24:10Z</time>
      </trkpt>
      <trkpt lat="62.632316037661" lon="17.976878356486">
        <ele>90.6</ele>
        <time>2018-01-22T18:24:11Z</time>
      </trkpt>
      <trkpt lat="62.632306314657" lon="17.976930324266">
        <ele>90.6</ele>
        <time>2018-01-22T18:24:12Z</time>
      </trkpt>
      <trkpt lat="62.632295585825" lon="17.976975418888">
        <ele>90.6</ele>
        <time>2018-01-22T18:24:13Z</time>
      </trkpt>
      <trkpt lat="62.632284521717" lon="17.977031074704">
        <ele>90.8</ele>
        <time>2018-01-22T18:24:14Z</time>
      </trkpt>
      <trkpt lat="62.632272870876" lon="17.977081198466">
        <ele>90.6</ele>
        <time>2018-01-22T18:24:15Z</time>
      </trkpt>
      <trkpt lat="62.632260549483" lon="17.977134926445">
        <ele>90.8</ele>
        <time>2018-01-22T18:24:16Z</time>
      </trkpt>
      <trkpt lat="62.632251245574" lon="17.97718312237">
        <ele>90.8</ele>
        <time>2018-01-22T18:24:17Z</time>
      </trkpt>
      <trkpt lat="62.63224152257" lon="17.977229725734">
        <ele>90.8</ele>
        <time>2018-01-22T18:24:18Z</time>
      </trkpt>
      <trkpt lat="62.632230458462" lon="17.977279011306">
        <ele>90.8</ele>
        <time>2018-01-22T18:24:19Z</time>
      </trkpt>
      <trkpt lat="62.632219226716" lon="17.97733064381">
        <ele>91</ele>
        <time>2018-01-22T18:24:20Z</time>
      </trkpt>
      <trkpt lat="62.632206570047" lon="17.977383282142">
        <ele>91</ele>
        <time>2018-01-22T18:24:21Z</time>
      </trkpt>
      <trkpt lat="62.632197433776" lon="17.97743709394">
        <ele>91</ele>
        <time>2018-01-22T18:24:22Z</time>
      </trkpt>
      <trkpt lat="62.632188297505" lon="17.977482607657">
        <ele>91.2</ele>
        <time>2018-01-22T18:24:23Z</time>
      </trkpt>
      <trkpt lat="62.632174551189" lon="17.977540442767">
        <ele>91.2</ele>
        <time>2018-01-22T18:24:24Z</time>
      </trkpt>
      <trkpt lat="62.63216524728" lon="17.977585956484">
        <ele>91.2</ele>
        <time>2018-01-22T18:24:25Z</time>
      </trkpt>
      <trkpt lat="62.632152422973" lon="17.977643959232">
        <ele>91.2</ele>
        <time>2018-01-22T18:24:26Z</time>
      </trkpt>
      <trkpt lat="62.632141107408" lon="17.977688383302">
        <ele>91.2</ele>
        <time>2018-01-22T18:24:27Z</time>
      </trkpt>
      <trkpt lat="62.632131635861" lon="17.977735154304">
        <ele>91.4</ele>
        <time>2018-01-22T18:24:28Z</time>
      </trkpt>
      <trkpt lat="62.632118979192" lon="17.977791061577">
        <ele>91.4</ele>
        <time>2018-01-22T18:24:29Z</time>
      </trkpt>
      <trkpt lat="62.632108166541" lon="17.977840011873">
        <ele>91.4</ele>
        <time>2018-01-22T18:24:30Z</time>
      </trkpt>
      <trkpt lat="62.632097772985" lon="17.977881083183">
        <ele>91.6</ele>
        <time>2018-01-22T18:24:31Z</time>
      </trkpt>
      <trkpt lat="62.632084864859" lon="17.977931039307">
        <ele>91.6</ele>
        <time>2018-01-22T18:24:32Z</time>
      </trkpt>
      <trkpt lat="62.632073633113" lon="17.977974122273">
        <ele>91.8</ele>
        <time>2018-01-22T18:24:33Z</time>
      </trkpt>
      <trkpt lat="62.632061479358" lon="17.978025251863">
        <ele>91.8</ele>
        <time>2018-01-22T18:24:34Z</time>
      </trkpt>
      <trkpt lat="62.632049828517" lon="17.978077890195">
        <ele>91.8</ele>
        <time>2018-01-22T18:24:35Z</time>
      </trkpt>
      <trkpt lat="62.63203951878" lon="17.978123990645">
        <ele>92</ele>
        <time>2018-01-22T18:24:36Z</time>
      </trkpt>
      <trkpt lat="62.632028706129" lon="17.978172270389">
        <ele>92</ele>
        <time>2018-01-22T18:24:37Z</time>
      </trkpt>
      <trkpt lat="62.632017977297" lon="17.978219041391">
        <ele>92</ele>
        <time>2018-01-22T18:24:38Z</time>
      </trkpt>
      <trkpt lat="62.632005739723" lon="17.978275451578">
        <ele>92.2</ele>
        <time>2018-01-22T18:24:39Z</time>
      </trkpt>
      <trkpt lat="62.63199341833" lon="17.978326916444">
        <ele>92.2</ele>
        <time>2018-01-22T18:24:40Z</time>
      </trkpt>
      <trkpt lat="62.631983276231" lon="17.978376285835">
        <ele>92.2</ele>
        <time>2018-01-22T18:24:41Z</time>
      </trkpt>
      <trkpt lat="62.631971960666" lon="17.978425822864">
        <ele>92.4</ele>
        <time>2018-01-22T18:24:42Z</time>
      </trkpt>
      <trkpt lat="62.631960645101" lon="17.978469911658">
        <ele>92.4</ele>
        <time>2018-01-22T18:24:43Z</time>
      </trkpt>
      <trkpt lat="62.631947234061" lon="17.978527746768">
        <ele>92.4</ele>
        <time>2018-01-22T18:24:44Z</time>
      </trkpt>
      <trkpt lat="62.631934828849" lon="17.978577199978">
        <ele>92.4</ele>
        <time>2018-01-22T18:24:45Z</time>
      </trkpt>
      <trkpt lat="62.631924183836" lon="17.978629670672">
        <ele>92.4</ele>
        <time>2018-01-22T18:24:46Z</time>
      </trkpt>
      <trkpt lat="62.631914209375" lon="17.978680632624">
        <ele>92.4</ele>
        <time>2018-01-22T18:24:47Z</time>
      </trkpt>
      <trkpt lat="62.631902307077" lon="17.978730337291">
        <ele>92.6</ele>
        <time>2018-01-22T18:24:48Z</time>
      </trkpt>
      <trkpt lat="62.631890153322" lon="17.978778617035">
        <ele>92.4</ele>
        <time>2018-01-22T18:24:49Z</time>
      </trkpt>
      <trkpt lat="62.631876993739" lon="17.97882262201">
        <ele>92.6</ele>
        <time>2018-01-22T18:24:50Z</time>
      </trkpt>
      <trkpt lat="62.631862912147" lon="17.978869141555">
        <ele>92.6</ele>
        <time>2018-01-22T18:24:51Z</time>
      </trkpt>
      <trkpt lat="62.631853859695" lon="17.978920774059">
        <ele>92.6</ele>
        <time>2018-01-22T18:24:52Z</time>
      </trkpt>
      <trkpt lat="62.631844639605" lon="17.978965030491">
        <ele>92.8</ele>
        <time>2018-01-22T18:24:53Z</time>
      </trkpt>
      <trkpt lat="62.631831060927" lon="17.979022278868">
        <ele>92.8</ele>
        <time>2018-01-22T18:24:54Z</time>
      </trkpt>
      <trkpt lat="62.63182242757" lon="17.979067792585">
        <ele>93</ele>
        <time>2018-01-22T18:24:55Z</time>
      </trkpt>
      <trkpt lat="62.631811698738" lon="17.979118838356">
        <ele>93</ele>
        <time>2018-01-22T18:24:56Z</time>
      </trkpt>
      <trkpt lat="62.631799377345" lon="17.979168375385">
        <ele>93</ele>
        <time>2018-01-22T18:24:57Z</time>
      </trkpt>
      <trkpt lat="62.631789821979" lon="17.979215397844">
        <ele>93.2</ele>
        <time>2018-01-22T18:24:58Z</time>
      </trkpt>
      <trkpt lat="62.631778506414" lon="17.979275412248">
        <ele>93.2</ele>
        <time>2018-01-22T18:24:59Z</time>
      </trkpt>
      <trkpt lat="62.631767274668" lon="17.979325703648">
        <ele>93.2</ele>
        <time>2018-01-22T18:25:00Z</time>
      </trkpt>
      <trkpt lat="62.631756545836" lon="17.979370127718">
        <ele>93.2</ele>
        <time>2018-01-22T18:25:01Z</time>
      </trkpt>
      <trkpt lat="62.631743302434" lon="17.979424358611">
        <ele>93.4</ele>
        <time>2018-01-22T18:25:02Z</time>
      </trkpt>
      <trkpt lat="62.631733411792" lon="17.979469620871">
        <ele>93.4</ele>
        <time>2018-01-22T18:25:03Z</time>
      </trkpt>
      <trkpt lat="62.631721425675" lon="17.97952502523">
        <ele>93.4</ele>
        <time>2018-01-22T18:25:04Z</time>
      </trkpt>
      <trkpt lat="62.631708936644" lon="17.979575903363">
        <ele>93.6</ele>
        <time>2018-01-22T18:25:05Z</time>
      </trkpt>
      <trkpt lat="62.631696531432" lon="17.979623512555">
        <ele>93.6</ele>
        <time>2018-01-22T18:25:06Z</time>
      </trkpt>
      <trkpt lat="62.631682952754" lon="17.979673049584">
        <ele>93.6</ele>
        <time>2018-01-22T18:25:07Z</time>
      </trkpt>
      <trkpt lat="62.631671050456" lon="17.979719233853">
        <ele>93.6</ele>
        <time>2018-01-22T18:25:08Z</time>
      </trkpt>
      <trkpt lat="62.631655795398" lon="17.979778326248">
        <ele>93.6</ele>
        <time>2018-01-22T18:25:09Z</time>
      </trkpt>
      <trkpt lat="62.631639199236" lon="17.979825851621">
        <ele>93.6</ele>
        <time>2018-01-22T18:25:10Z</time>
      </trkpt>
      <trkpt lat="62.631626374929" lon="17.979868096397">
        <ele>93.6</ele>
        <time>2018-01-22T18:25:11Z</time>
      </trkpt>
      <trkpt lat="62.631613215346" lon="17.979911179363">
        <ele>93.6</ele>
        <time>2018-01-22T18:25:12Z</time>
      </trkpt>
      <trkpt lat="62.631599301392" lon="17.979950658112">
        <ele>93.8</ele>
        <time>2018-01-22T18:25:13Z</time>
      </trkpt>
      <trkpt lat="62.63158270523" lon="17.98000027896">
        <ele>93.8</ele>
        <time>2018-01-22T18:25:14Z</time>
      </trkpt>
      <trkpt lat="62.631566025249" lon="17.980048139609">
        <ele>93.8</ele>
        <time>2018-01-22T18:25:15Z</time>
      </trkpt>
      <trkpt lat="62.631544735223" lon="17.980086528711">
        <ele>94</ele>
        <time>2018-01-22T18:25:16Z</time>
      </trkpt>
      <trkpt lat="62.631523445197" lon="17.980118547569">
        <ele>94</ele>
        <time>2018-01-22T18:25:17Z</time>
      </trkpt>
      <trkpt lat="62.631499137687" lon="17.980137406844">
        <ele>94</ele>
        <time>2018-01-22T18:25:18Z</time>
      </trkpt>
      <trkpt lat="62.631471728874" lon="17.980146207839">
        <ele>94</ele>
        <time>2018-01-22T18:25:19Z</time>
      </trkpt>
      <trkpt lat="62.631443481871" lon="17.980152158988">
        <ele>94</ele>
        <time>2018-01-22T18:25:20Z</time>
      </trkpt>
      <trkpt lat="62.63141506723" lon="17.980146291658">
        <ele>94</ele>
        <time>2018-01-22T18:25:21Z</time>
      </trkpt>
      <trkpt lat="62.631386484951" lon="17.980140089052">
        <ele>94.2</ele>
        <time>2018-01-22T18:25:22Z</time>
      </trkpt>
      <trkpt lat="62.631362428898" lon="17.98013187479">
        <ele>94.2</ele>
        <time>2018-01-22T18:25:23Z</time>
      </trkpt>
      <trkpt lat="62.631332589334" lon="17.98011175823">
        <ele>94.2</ele>
        <time>2018-01-22T18:25:24Z</time>
      </trkpt>
      <trkpt lat="62.631308449462" lon="17.980096503172">
        <ele>94.2</ele>
        <time>2018-01-22T18:25:25Z</time>
      </trkpt>
      <trkpt lat="62.631282800848" lon="17.980082756856">
        <ele>94.2</ele>
        <time>2018-01-22T18:25:26Z</time>
      </trkpt>
      <trkpt lat="62.631262851926" lon="17.980068256169">
        <ele>94.2</ele>
        <time>2018-01-22T18:25:27Z</time>
      </trkpt>
      <trkpt lat="62.63123401819" lon="17.980050235084">
        <ele>94.2</ele>
        <time>2018-01-22T18:25:28Z</time>
      </trkpt>
      <trkpt lat="62.631207699024" lon="17.98002793923">
        <ele>94.2</ele>
        <time>2018-01-22T18:25:29Z</time>
      </trkpt>
      <trkpt lat="62.631182804781" lon="17.980008912317">
        <ele>94.2</ele>
        <time>2018-01-22T18:25:30Z</time>
      </trkpt>
      <trkpt lat="62.631158413452" lon="17.979992483793">
        <ele>94.2</ele>
        <time>2018-01-22T18:25:31Z</time>
      </trkpt>
      <trkpt lat="62.631132681019" lon="17.979967002817">
        <ele>94.4</ele>
        <time>2018-01-22T18:25:32Z</time>
      </trkpt>
      <trkpt lat="62.63110912788" lon="17.979947640628">
        <ele>94.4</ele>
        <time>2018-01-22T18:25:33Z</time>
      </trkpt>
      <trkpt lat="62.631083646904" lon="17.979932301751">
        <ele>94.6</ele>
        <time>2018-01-22T18:25:34Z</time>
      </trkpt>
      <trkpt lat="62.631057076281" lon="17.979917046693">
        <ele>94.8</ele>
        <time>2018-01-22T18:25:35Z</time>
      </trkpt>
      <trkpt lat="62.631030505658" lon="17.979901623997">
        <ele>95</ele>
        <time>2018-01-22T18:25:36Z</time>
      </trkpt>
      <trkpt lat="62.631005359958" lon="17.979885027835">
        <ele>95</ele>
        <time>2018-01-22T18:25:37Z</time>
      </trkpt>
      <trkpt lat="62.630980381896" lon="17.979870275691">
        <ele>95</ele>
        <time>2018-01-22T18:25:38Z</time>
      </trkpt>
      <trkpt lat="62.630954230368" lon="17.979852338425">
        <ele>95.2</ele>
        <time>2018-01-22T18:25:39Z</time>
      </trkpt>
      <trkpt lat="62.630929839039" lon="17.97982761182">
        <ele>95.2</ele>
        <time>2018-01-22T18:25:40Z</time>
      </trkpt>
      <trkpt lat="62.630908213737" lon="17.979811602391">
        <ele>95.2</ele>
        <time>2018-01-22T18:25:41Z</time>
      </trkpt>
      <trkpt lat="62.630882146028" lon="17.979796514971">
        <ele>95.4</ele>
        <time>2018-01-22T18:25:42Z</time>
      </trkpt>
      <trkpt lat="62.630859095803" lon="17.979778242429">
        <ele>95.4</ele>
        <time>2018-01-22T18:25:43Z</time>
      </trkpt>
      <trkpt lat="62.630833195732" lon="17.979759969887">
        <ele>95.6</ele>
        <time>2018-01-22T18:25:44Z</time>
      </trkpt>
      <trkpt lat="62.630808720584" lon="17.979743625182">
        <ele>95.6</ele>
        <time>2018-01-22T18:25:45Z</time>
      </trkpt>
      <trkpt lat="62.630786089454" lon="17.979722167518">
        <ele>95.6</ele>
        <time>2018-01-22T18:25:46Z</time>
      </trkpt>
      <trkpt lat="62.63076295541" lon="17.979697105637">
        <ele>95.8</ele>
        <time>2018-01-22T18:25:47Z</time>
      </trkpt>
      <trkpt lat="62.630739821366" lon="17.979673049584">
        <ele>95.8</ele>
        <time>2018-01-22T18:25:48Z</time>
      </trkpt>
      <trkpt lat="62.630716938779" lon="17.979646898056">
        <ele>96</ele>
        <time>2018-01-22T18:25:49Z</time>
      </trkpt>
      <trkpt lat="62.630692295993" lon="17.979616807035">
        <ele>96</ele>
        <time>2018-01-22T18:25:50Z</time>
      </trkpt>
      <trkpt lat="62.630669329587" lon="17.979584871996">
        <ele>96.2</ele>
        <time>2018-01-22T18:25:51Z</time>
      </trkpt>
      <trkpt lat="62.630648877751" lon="17.979558049916">
        <ele>96.2</ele>
        <time>2018-01-22T18:25:52Z</time>
      </trkpt>
      <trkpt lat="62.630630772847" lon="17.979533155673">
        <ele>96.4</ele>
        <time>2018-01-22T18:25:53Z</time>
      </trkpt>
      <trkpt lat="62.630610907744" lon="17.979497113503">
        <ele>96.4</ele>
        <time>2018-01-22T18:25:54Z</time>
      </trkpt>
      <trkpt lat="62.630594311582" lon="17.979466435749">
        <ele>96.4</ele>
        <time>2018-01-22T18:25:55Z</time>
      </trkpt>
      <trkpt lat="62.630575703764" lon="17.979428549561">
        <ele>96.6</ele>
        <time>2018-01-22T18:25:56Z</time>
      </trkpt>
      <trkpt lat="62.630558688507" lon="17.979390998649">
        <ele>96.6</ele>
        <time>2018-01-22T18:25:57Z</time>
      </trkpt>
      <trkpt lat="62.630543768725" lon="17.979355962307">
        <ele>96.6</ele>
        <time>2018-01-22T18:25:58Z</time>
      </trkpt>
      <trkpt lat="62.630525244726" lon="17.979308436934">
        <ele>96.8</ele>
        <time>2018-01-22T18:25:59Z</time>
      </trkpt>
      <trkpt lat="62.630508397107" lon="17.979268790547">
        <ele>96.6</ele>
        <time>2018-01-22T18:26:00Z</time>
      </trkpt>
      <trkpt lat="62.630492136221" lon="17.979232916015">
        <ele>96.6</ele>
        <time>2018-01-22T18:26:01Z</time>
      </trkpt>
      <trkpt lat="62.630471852023" lon="17.979192431438">
        <ele>96.6</ele>
        <time>2018-01-22T18:26:02Z</time>
      </trkpt>
      <trkpt lat="62.630455004404" lon="17.979154629069">
        <ele>96.6</ele>
        <time>2018-01-22T18:26:03Z</time>
      </trkpt>
      <trkpt lat="62.630437570052" lon="17.979107522791">
        <ele>96.4</ele>
        <time>2018-01-22T18:26:04Z</time>
      </trkpt>
      <trkpt lat="62.630419213691" lon="17.979059662142">
        <ele>96.4</ele>
        <time>2018-01-22T18:26:05Z</time>
      </trkpt>
      <trkpt lat="62.630403623357" lon="17.97901875847">
        <ele>96.4</ele>
        <time>2018-01-22T18:26:06Z</time>
      </trkpt>
      <trkpt lat="62.630386524281" lon="17.978977770979">
        <ele>96.4</ele>
        <time>2018-01-22T18:26:07Z</time>
      </trkpt>
      <trkpt lat="62.630369509024" lon="17.978933179271">
        <ele>96.4</ele>
        <time>2018-01-22T18:26:08Z</time>
      </trkpt>
      <trkpt lat="62.630353583414" lon="17.978881882043">
        <ele>96.4</ele>
        <time>2018-01-22T18:26:09Z</time>
      </trkpt>
      <trkpt lat="62.630337238709" lon="17.97883435667">
        <ele>96.2</ele>
        <time>2018-01-22T18:26:10Z</time>
      </trkpt>
      <trkpt lat="62.630316703054" lon="17.978786412202">
        <ele>96.2</ele>
        <time>2018-01-22T18:26:11Z</time>
      </trkpt>
      <trkpt lat="62.630295496847" lon="17.978739892657">
        <ele>96</ele>
        <time>2018-01-22T18:26:12Z</time>
      </trkpt>
      <trkpt lat="62.63027680521" lon="17.978697061148">
        <ele>96</ele>
        <time>2018-01-22T18:26:13Z</time>
      </trkpt>
      <trkpt lat="62.630256269555" lon="17.978641405332">
        <ele>95.8</ele>
        <time>2018-01-22T18:26:14Z</time>
      </trkpt>
      <trkpt lat="62.63023908666" lon="17.978589186095">
        <ele>95.8</ele>
        <time>2018-01-22T18:26:15Z</time>
      </trkpt>
      <trkpt lat="62.630223328688" lon="17.978532105356">
        <ele>95.6</ele>
        <time>2018-01-22T18:26:16Z</time>
      </trkpt>
      <trkpt lat="62.630208576544" lon="17.978479131748">
        <ele>95.4</ele>
        <time>2018-01-22T18:26:17Z</time>
      </trkpt>
      <trkpt lat="62.630198350626" lon="17.978424733217">
        <ele>95.2</ele>
        <time>2018-01-22T18:26:18Z</time>
      </trkpt>
      <trkpt lat="62.630188711441" lon="17.978370083229">
        <ele>95</ele>
        <time>2018-01-22T18:26:19Z</time>
      </trkpt>
      <trkpt lat="62.630181419188" lon="17.978309985006">
        <ele>95</ele>
        <time>2018-01-22T18:26:20Z</time>
      </trkpt>
      <trkpt lat="62.630172534374" lon="17.978251730801">
        <ele>94.6</ele>
        <time>2018-01-22T18:26:21Z</time>
      </trkpt>
      <trkpt lat="62.630166834682" lon="17.97818978856">
        <ele>94.6</ele>
        <time>2018-01-22T18:26:22Z</time>
      </trkpt>
      <trkpt lat="62.63016281137" lon="17.978137736961">
        <ele>94.6</ele>
        <time>2018-01-22T18:26:23Z</time>
      </trkpt>
      <trkpt lat="62.63015778223" lon="17.978071100856">
        <ele>94.4</ele>
        <time>2018-01-22T18:26:24Z</time>
      </trkpt>
      <trkpt lat="62.630154932384" lon="17.978011421728">
        <ele>94.4</ele>
        <time>2018-01-22T18:26:25Z</time>
      </trkpt>
      <trkpt lat="62.630153758918" lon="17.977945539994">
        <ele>94.2</ele>
        <time>2018-01-22T18:26:26Z</time>
      </trkpt>
      <trkpt lat="62.630152669271" lon="17.977882256649">
        <ele>94.2</ele>
        <time>2018-01-22T18:26:27Z</time>
      </trkpt>
      <trkpt lat="62.63015359128" lon="17.977820398227">
        <ele>94</ele>
        <time>2018-01-22T18:26:28Z</time>
      </trkpt>
      <trkpt lat="62.630154513289" lon="17.97775476795">
        <ele>94</ele>
        <time>2018-01-22T18:26:29Z</time>
      </trkpt>
      <trkpt lat="62.630156357307" lon="17.97768938913">
        <ele>94</ele>
        <time>2018-01-22T18:26:30Z</time>
      </trkpt>
      <trkpt lat="62.630157446954" lon="17.977633314219">
        <ele>93.8</ele>
        <time>2018-01-22T18:26:31Z</time>
      </trkpt>
      <trkpt lat="62.630158117506" lon="17.977572964539">
        <ele>93.8</ele>
        <time>2018-01-22T18:26:32Z</time>
      </trkpt>
      <trkpt lat="62.630160715895" lon="17.977513704506">
        <ele>93.6</ele>
        <time>2018-01-22T18:26:33Z</time>
      </trkpt>
      <trkpt lat="62.630165577397" lon="17.977447487496">
        <ele>93.4</ele>
        <time>2018-01-22T18:26:34Z</time>
      </trkpt>
      <trkpt lat="62.630167337596" lon="17.977386048169">
        <ele>93.4</ele>
        <time>2018-01-22T18:26:35Z</time>
      </trkpt>
      <trkpt lat="62.630171277089" lon="17.977321088444">
        <ele>93.2</ele>
        <time>2018-01-22T18:26:36Z</time>
      </trkpt>
      <trkpt lat="62.630174965125" lon="17.977262247506">
        <ele>93</ele>
        <time>2018-01-22T18:26:37Z</time>
      </trkpt>
      <trkpt lat="62.630178904618" lon="17.977206172595">
        <ele>92.8</ele>
        <time>2018-01-22T18:26:38Z</time>
      </trkpt>
      <trkpt lat="62.630182257378" lon="17.977137608653">
        <ele>92.6</ele>
        <time>2018-01-22T18:26:39Z</time>
      </trkpt>
      <trkpt lat="62.630186951242" lon="17.977079689724">
        <ele>92.6</ele>
        <time>2018-01-22T18:26:40Z</time>
      </trkpt>
      <trkpt lat="62.630191477468" lon="17.977020094415">
        <ele>92.4</ele>
        <time>2018-01-22T18:26:41Z</time>
      </trkpt>
      <trkpt lat="62.630192650934" lon="17.976957230165">
        <ele>92.4</ele>
        <time>2018-01-22T18:26:42Z</time>
      </trkpt>
      <trkpt lat="62.630194997866" lon="17.976904591833">
        <ele>92.4</ele>
        <time>2018-01-22T18:26:43Z</time>
      </trkpt>
      <trkpt lat="62.630196506608" lon="17.976835860253">
        <ele>92.2</ele>
        <time>2018-01-22T18:26:44Z</time>
      </trkpt>
      <trkpt lat="62.630200194644" lon="17.976772325451">
        <ele>92.2</ele>
        <time>2018-01-22T18:26:45Z</time>
      </trkpt>
      <trkpt lat="62.630204134137" lon="17.976713065418">
        <ele>92</ele>
        <time>2018-01-22T18:26:46Z</time>
      </trkpt>
      <trkpt lat="62.630212851313" lon="17.976655565584">
        <ele>91.8</ele>
        <time>2018-01-22T18:26:47Z</time>
      </trkpt>
      <trkpt lat="62.630219892109" lon="17.976600245044">
        <ele>91.8</ele>
        <time>2018-01-22T18:26:48Z</time>
      </trkpt>
      <trkpt lat="62.630223496326" lon="17.976534698586">
        <ele>91.8</ele>
        <time>2018-01-22T18:26:49Z</time>
      </trkpt>
      <trkpt lat="62.630231123855" lon="17.976464877359">
        <ele>91.6</ele>
        <time>2018-01-22T18:26:50Z</time>
      </trkpt>
      <trkpt lat="62.630241098316" lon="17.976401174919">
        <ele>91.6</ele>
        <time>2018-01-22T18:26:51Z</time>
      </trkpt>
      <trkpt lat="62.630250234587" lon="17.976344345637">
        <ele>91.4</ele>
        <time>2018-01-22T18:26:52Z</time>
      </trkpt>
      <trkpt lat="62.630261047238" lon="17.976290030925">
        <ele>91.4</ele>
        <time>2018-01-22T18:26:53Z</time>
      </trkpt>
      <trkpt lat="62.630273871545" lon="17.976232531091">
        <ele>91.4</ele>
        <time>2018-01-22T18:26:54Z</time>
      </trkpt>
      <trkpt lat="62.630285857662" lon="17.976180144216">
        <ele>91.2</ele>
        <time>2018-01-22T18:26:55Z</time>
      </trkpt>
      <trkpt lat="62.630299184883" lon="17.976122141468">
        <ele>91</ele>
        <time>2018-01-22T18:26:56Z</time>
      </trkpt>
      <trkpt lat="62.630311171" lon="17.976069754593">
        <ele>90.8</ele>
        <time>2018-01-22T18:26:57Z</time>
      </trkpt>
      <trkpt lat="62.630324162945" lon="17.976015775157">
        <ele>90.8</ele>
        <time>2018-01-22T18:26:58Z</time>
      </trkpt>
      <trkpt lat="62.630340423831" lon="17.97595852678">
        <ele>90.6</ele>
        <time>2018-01-22T18:26:59Z</time>
      </trkpt>
      <trkpt lat="62.630352326129" lon="17.975907229552">
        <ele>90.6</ele>
        <time>2018-01-22T18:27:00Z</time>
      </trkpt>
      <trkpt lat="62.630367581187" lon="17.975858614532">
        <ele>90.4</ele>
        <time>2018-01-22T18:27:01Z</time>
      </trkpt>
      <trkpt lat="62.630384764082" lon="17.975804718915">
        <ele>90.4</ele>
        <time>2018-01-22T18:27:02Z</time>
      </trkpt>
      <trkpt lat="62.630398510398" lon="17.97575819937">
        <ele>90.2</ele>
        <time>2018-01-22T18:27:03Z</time>
      </trkpt>
      <trkpt lat="62.630414519827" lon="17.975705980133">
        <ele>90.2</ele>
        <time>2018-01-22T18:27:04Z</time>
      </trkpt>
      <trkpt lat="62.630429774885" lon="17.97565929295">
        <ele>90</ele>
        <time>2018-01-22T18:27:05Z</time>
      </trkpt>
      <trkpt lat="62.630444107934" lon="17.975609085369">
        <ele>89.8</ele>
        <time>2018-01-22T18:27:06Z</time>
      </trkpt>
      <trkpt lat="62.630458273345" lon="17.975557704322">
        <ele>89.8</ele>
        <time>2018-01-22T18:27:07Z</time>
      </trkpt>
      <trkpt lat="62.630471852023" lon="17.975507161465">
        <ele>89.6</ele>
        <time>2018-01-22T18:27:08Z</time>
      </trkpt>
      <trkpt lat="62.630486771805" lon="17.97544890726">
        <ele>89.6</ele>
        <time>2018-01-22T18:27:09Z</time>
      </trkpt>
      <trkpt lat="62.630500182845" lon="17.975394592548">
        <ele>89.4</ele>
        <time>2018-01-22T18:27:10Z</time>
      </trkpt>
      <trkpt lat="62.630513677704" lon="17.975341870397">
        <ele>89.6</ele>
        <time>2018-01-22T18:27:11Z</time>
      </trkpt>
      <trkpt lat="62.630526502011" lon="17.975286717495">
        <ele>89.4</ele>
        <time>2018-01-22T18:27:12Z</time>
      </trkpt>
      <trkpt lat="62.630538991042" lon="17.975240952321">
        <ele>89.4</ele>
        <time>2018-01-22T18:27:13Z</time>
      </trkpt>
      <trkpt lat="62.630554413738" lon="17.975183871582">
        <ele>89.4</ele>
        <time>2018-01-22T18:27:14Z</time>
      </trkpt>
      <trkpt lat="62.630569165882" lon="17.975128467223">
        <ele>89.4</ele>
        <time>2018-01-22T18:27:15Z</time>
      </trkpt>
      <trkpt lat="62.630581822551" lon="17.975075661253">
        <ele>89.2</ele>
        <time>2018-01-22T18:27:16Z</time>
      </trkpt>
      <trkpt lat="62.630595401229" lon="17.975024866939">
        <ele>89.4</ele>
        <time>2018-01-22T18:27:17Z</time>
      </trkpt>
      <trkpt lat="62.63060621388" lon="17.974975246091">
        <ele>89.2</ele>
        <time>2018-01-22T18:27:18Z</time>
      </trkpt>
      <trkpt lat="62.630616439798" lon="17.974924367958">
        <ele>89</ele>
        <time>2018-01-22T18:27:19Z</time>
      </trkpt>
      <trkpt lat="62.630628761191" lon="17.974868795961">
        <ele>89</ele>
        <time>2018-01-22T18:27:20Z</time>
      </trkpt>
      <trkpt lat="62.630641250222" lon="17.974825126262">
        <ele>88.8</ele>
        <time>2018-01-22T18:27:21Z</time>
      </trkpt>
      <trkpt lat="62.630654745081" lon="17.974776092147">
        <ele>88.8</ele>
        <time>2018-01-22T18:27:22Z</time>
      </trkpt>
      <trkpt lat="62.630669245768" lon="17.974731165163">
        <ele>88.8</ele>
        <time>2018-01-22T18:27:23Z</time>
      </trkpt>
      <trkpt lat="62.630686596301" lon="17.974679113564">
        <ele>88.6</ele>
        <time>2018-01-22T18:27:24Z</time>
      </trkpt>
      <trkpt lat="62.630700426436" lon="17.974638545168">
        <ele>88.4</ele>
        <time>2018-01-22T18:27:25Z</time>
      </trkpt>
      <trkpt lat="62.630714927123" lon="17.974582051162">
        <ele>88.4</ele>
        <time>2018-01-22T18:27:26Z</time>
      </trkpt>
      <trkpt lat="62.630729008715" lon="17.974528490821">
        <ele>88.4</ele>
        <time>2018-01-22T18:27:27Z</time>
      </trkpt>
      <trkpt lat="62.630744263773" lon="17.974474176109">
        <ele>88.2</ele>
        <time>2018-01-22T18:27:28Z</time>
      </trkpt>
      <trkpt lat="62.630761195211" lon="17.974415167533">
        <ele>88.4</ele>
        <time>2018-01-22T18:27:29Z</time>
      </trkpt>
      <trkpt lat="62.630773432785" lon="17.974360769002">
        <ele>88.4</ele>
        <time>2018-01-22T18:27:30Z</time>
      </trkpt>
      <trkpt lat="62.630787849653" lon="17.974308717403">
        <ele>88.4</ele>
        <time>2018-01-22T18:27:31Z</time>
      </trkpt>
      <trkpt lat="62.630802601797" lon="17.974252726311">
        <ele>88.4</ele>
        <time>2018-01-22T18:27:32Z</time>
      </trkpt>
      <trkpt lat="62.630815929018" lon="17.974206542042">
        <ele>88.4</ele>
        <time>2018-01-22T18:27:33Z</time>
      </trkpt>
      <trkpt lat="62.63083168699" lon="17.974153149339">
        <ele>88.4</ele>
        <time>2018-01-22T18:27:34Z</time>
      </trkpt>
      <trkpt lat="62.630845181849" lon="17.974101265378">
        <ele>88.2</ele>
        <time>2018-01-22T18:27:35Z</time>
      </trkpt>
      <trkpt lat="62.630857503242" lon="17.974050890159">
        <ele>88.2</ele>
        <time>2018-01-22T18:27:36Z</time>
      </trkpt>
      <trkpt lat="62.630871333377" lon="17.974005963175">
        <ele>88</ele>
        <time>2018-01-22T18:27:37Z</time>
      </trkpt>
      <trkpt lat="62.630882397485" lon="17.973964975684">
        <ele>88</ele>
        <time>2018-01-22T18:27:38Z</time>
      </trkpt>
      <trkpt lat="62.630892204308" lon="17.973909319868">
        <ele>88</ele>
        <time>2018-01-22T18:27:39Z</time>
      </trkpt>
      <trkpt lat="62.630885750245" lon="17.973850562749">
        <ele>87.8</ele>
        <time>2018-01-22T18:27:40Z</time>
      </trkpt>
      <trkpt lat="62.630872925938" lon="17.973804881394">
        <ele>87.8</ele>
        <time>2018-01-22T18:27:41Z</time>
      </trkpt>
      <trkpt lat="62.630856329776" lon="17.973753416528">
        <ele>87.8</ele>
        <time>2018-01-22T18:27:42Z</time>
      </trkpt>
      <trkpt lat="62.630839565976" lon="17.973708154268">
        <ele>87.6</ele>
        <time>2018-01-22T18:27:43Z</time>
      </trkpt>
      <trkpt lat="62.630823388909" lon="17.973656102669">
        <ele>87.6</ele>
        <time>2018-01-22T18:27:44Z</time>
      </trkpt>
      <trkpt lat="62.630806960385" lon="17.973603631975">
        <ele>87.6</ele>
        <time>2018-01-22T18:27:45Z</time>
      </trkpt>
      <trkpt lat="62.630791956784" lon="17.97355375967">
        <ele>87.4</ele>
        <time>2018-01-22T18:27:46Z</time>
      </trkpt>
      <trkpt lat="62.630777037002" lon="17.973505396107">
        <ele>87.4</ele>
        <time>2018-01-22T18:27:47Z</time>
      </trkpt>
      <trkpt lat="62.630760105564" lon="17.973456110535">
        <ele>87.4</ele>
        <time>2018-01-22T18:27:48Z</time>
      </trkpt>
      <trkpt lat="62.63074283885" lon="17.973406489687">
        <ele>87.4</ele>
        <time>2018-01-22T18:27:49Z</time>
      </trkpt>
      <trkpt lat="62.630728170525" lon="17.973355192459">
        <ele>87.2</ele>
        <time>2018-01-22T18:27:50Z</time>
      </trkpt>
      <trkpt lat="62.630714088933" lon="17.973302973222">
        <ele>87.2</ele>
        <time>2018-01-22T18:27:51Z</time>
      </trkpt>
      <trkpt lat="62.630697744228" lon="17.973253352374">
        <ele>87.2</ele>
        <time>2018-01-22T18:27:52Z</time>
      </trkpt>
      <trkpt lat="62.630682992084" lon="17.973208257752">
        <ele>87.2</ele>
        <time>2018-01-22T18:27:53Z</time>
      </trkpt>
      <trkpt lat="62.630666228284" lon="17.97314807571">
        <ele>87.2</ele>
        <time>2018-01-22T18:27:54Z</time>
      </trkpt>
      <trkpt lat="62.630649464484" lon="17.973104322192">
        <ele>87.2</ele>
        <time>2018-01-22T18:27:55Z</time>
      </trkpt>
      <trkpt lat="62.630629180286" lon="17.973047995824">
        <ele>87</ele>
        <time>2018-01-22T18:27:56Z</time>
      </trkpt>
      <trkpt lat="62.630613338495" lon="17.97300055427">
        <ele>87</ele>
        <time>2018-01-22T18:27:57Z</time>
      </trkpt>
      <trkpt lat="62.630600514188" lon="17.972956297838">
        <ele>87</ele>
        <time>2018-01-22T18:27:58Z</time>
      </trkpt>
      <trkpt lat="62.630583498931" lon="17.972902569859">
        <ele>86.8</ele>
        <time>2018-01-22T18:27:59Z</time>
      </trkpt>
      <trkpt lat="62.630570590805" lon="17.972854373934">
        <ele>86.8</ele>
        <time>2018-01-22T18:28:00Z</time>
      </trkpt>
      <trkpt lat="62.630557934136" lon="17.972807938208">
        <ele>86.6</ele>
        <time>2018-01-22T18:28:01Z</time>
      </trkpt>
      <trkpt lat="62.630541757069" lon="17.972756305704">
        <ele>86.4</ele>
        <time>2018-01-22T18:28:02Z</time>
      </trkpt>
      <trkpt lat="62.630528094572" lon="17.972708947969">
        <ele>86.4</ele>
        <time>2018-01-22T18:28:03Z</time>
      </trkpt>
      <trkpt lat="62.630514515894" lon="17.972649771755">
        <ele>86.2</ele>
        <time>2018-01-22T18:28:04Z</time>
      </trkpt>
      <trkpt lat="62.630503703243" lon="17.972596295233">
        <ele>86.2</ele>
        <time>2018-01-22T18:28:05Z</time>
      </trkpt>
      <trkpt lat="62.630491465669" lon="17.972539382132">
        <ele>86</ele>
        <time>2018-01-22T18:28:06Z</time>
      </trkpt>
      <trkpt lat="62.630482664674" lon="17.972482217574">
        <ele>86</ele>
        <time>2018-01-22T18:28:07Z</time>
      </trkpt>
      <trkpt lat="62.630475540059" lon="17.972429243966">
        <ele>86</ele>
        <time>2018-01-22T18:28:08Z</time>
      </trkpt>
      <trkpt lat="62.630465230322" lon="17.97236604444">
        <ele>86</ele>
        <time>2018-01-22T18:28:09Z</time>
      </trkpt>
      <trkpt lat="62.630456848422" lon="17.972308796063">
        <ele>86</ele>
        <time>2018-01-22T18:28:10Z</time>
      </trkpt>
      <trkpt lat="62.63044863416" lon="17.972255738636">
        <ele>86</ele>
        <time>2018-01-22T18:28:11Z</time>
      </trkpt>
      <trkpt lat="62.63044025226" lon="17.972196394784">
        <ele>86</ele>
        <time>2018-01-22T18:28:12Z</time>
      </trkpt>
      <trkpt lat="62.630433882016" lon="17.97214560047">
        <ele>85.8</ele>
        <time>2018-01-22T18:28:13Z</time>
      </trkpt>
      <trkpt lat="62.630427344134" lon="17.972082400944">
        <ele>85.8</ele>
        <time>2018-01-22T18:28:14Z</time>
      </trkpt>
      <trkpt lat="62.630418124044" lon="17.972020793979">
        <ele>85.8</ele>
        <time>2018-01-22T18:28:15Z</time>
      </trkpt>
      <trkpt lat="62.630412256714" lon="17.971963797059">
        <ele>85.8</ele>
        <time>2018-01-22T18:28:16Z</time>
      </trkpt>
      <trkpt lat="62.630402617529" lon="17.971908476519">
        <ele>85.6</ele>
        <time>2018-01-22T18:28:17Z</time>
      </trkpt>
      <trkpt lat="62.630395073819" lon="17.97185307216">
        <ele>85.6</ele>
        <time>2018-01-22T18:28:18Z</time>
      </trkpt>
      <trkpt lat="62.630389457946" lon="17.971796159059">
        <ele>85.6</ele>
        <time>2018-01-22T18:28:19Z</time>
      </trkpt>
      <trkpt lat="62.630381998055" lon="17.97173488737">
        <ele>85.8</ele>
        <time>2018-01-22T18:28:20Z</time>
      </trkpt>
      <trkpt lat="62.630374286707" lon="17.971674705328">
        <ele>85.6</ele>
        <time>2018-01-22T18:28:21Z</time>
      </trkpt>
      <trkpt lat="62.630366826816" lon="17.97161921715">
        <ele>85.6</ele>
        <time>2018-01-22T18:28:22Z</time>
      </trkpt>
      <trkpt lat="62.630358864011" lon="17.971566746456">
        <ele>85.6</ele>
        <time>2018-01-22T18:28:23Z</time>
      </trkpt>
      <trkpt lat="62.630349057188" lon="17.97150103236">
        <ele>85.4</ele>
        <time>2018-01-22T18:28:24Z</time>
      </trkpt>
      <trkpt lat="62.630344363324" lon="17.971446130915">
        <ele>85.4</ele>
        <time>2018-01-22T18:28:25Z</time>
      </trkpt>
      <trkpt lat="62.63033883127" lon="17.971384775407">
        <ele>85.4</ele>
        <time>2018-01-22T18:28:26Z</time>
      </trkpt>
      <trkpt lat="62.630334556501" lon="17.971342865907">
        <ele>85.4</ele>
        <time>2018-01-22T18:28:27Z</time>
      </trkpt>
      <trkpt lat="62.630326174601" lon="17.971280756028">
        <ele>85.2</ele>
        <time>2018-01-22T18:28:28Z</time>
      </trkpt>
      <trkpt lat="62.630323827669" lon="17.971216969769">
        <ele>85.2</ele>
        <time>2018-01-22T18:28:29Z</time>
      </trkpt>
      <trkpt lat="62.630321648375" lon="17.971156033356">
        <ele>85.2</ele>
        <time>2018-01-22T18:28:30Z</time>
      </trkpt>
      <trkpt lat="62.63032122928" lon="17.971095935133">
        <ele>85</ele>
        <time>2018-01-22T18:28:31Z</time>
      </trkpt>
      <trkpt lat="62.630323073298" lon="17.971032316512">
        <ele>85</ele>
        <time>2018-01-22T18:28:32Z</time>
      </trkpt>
      <trkpt lat="62.630323576212" lon="17.970987557166">
        <ele>85</ele>
        <time>2018-01-22T18:28:33Z</time>
      </trkpt>
      <trkpt lat="62.630323324755" lon="17.970931817531">
        <ele>85</ele>
        <time>2018-01-22T18:28:34Z</time>
      </trkpt>
      <trkpt lat="62.630325923144" lon="17.970874317697">
        <ele>85</ele>
        <time>2018-01-22T18:28:35Z</time>
      </trkpt>
      <trkpt lat="62.630327348067" lon="17.970821427908">
        <ele>85</ele>
        <time>2018-01-22T18:28:36Z</time>
      </trkpt>
      <trkpt lat="62.630329527361" lon="17.970765185359">
        <ele>85</ele>
        <time>2018-01-22T18:28:37Z</time>
      </trkpt>
      <trkpt lat="62.630332544845" lon="17.970712547027">
        <ele>85</ele>
        <time>2018-01-22T18:28:38Z</time>
      </trkpt>
      <trkpt lat="62.630342016392" lon="17.970644569818">
        <ele>85</ele>
        <time>2018-01-22T18:28:39Z</time>
      </trkpt>
      <trkpt lat="62.630360372753" lon="17.970588578726">
        <ele>84.8</ele>
        <time>2018-01-22T18:28:40Z</time>
      </trkpt>
      <trkpt lat="62.630382752426" lon="17.97053711386">
        <ele>84.8</ele>
        <time>2018-01-22T18:28:41Z</time>
      </trkpt>
      <trkpt lat="62.63040756285" lon="17.970484475528">
        <ele>84.6</ele>
        <time>2018-01-22T18:28:42Z</time>
      </trkpt>
      <trkpt lat="62.630433714378" lon="17.970443320399">
        <ele>84.2</ele>
        <time>2018-01-22T18:28:43Z</time>
      </trkpt>
      <trkpt lat="62.630464224494" lon="17.970399315424">
        <ele>84</ele>
        <time>2018-01-22T18:28:44Z</time>
      </trkpt>
      <trkpt lat="62.630494064058" lon="17.970362435064">
        <ele>83.4</ele>
        <time>2018-01-22T18:28:45Z</time>
      </trkpt>
      <trkpt lat="62.630522981613" lon="17.970333349871">
        <ele>83.2</ele>
        <time>2018-01-22T18:28:46Z</time>
      </trkpt>
      <trkpt lat="62.630551815349" lon="17.970311305474">
        <ele>82.8</ele>
        <time>2018-01-22T18:28:47Z</time>
      </trkpt>
      <trkpt lat="62.630581738732" lon="17.970290434543">
        <ele>82.8</ele>
        <time>2018-01-22T18:28:48Z</time>
      </trkpt>
      <trkpt lat="62.630611494477" lon="17.970272413458">
        <ele>82.6</ele>
        <time>2018-01-22T18:28:49Z</time>
      </trkpt>
      <trkpt lat="62.630640914946" lon="17.970254140916">
        <ele>82.4</ele>
        <time>2018-01-22T18:28:50Z</time>
      </trkpt>
      <trkpt lat="62.630671425062" lon="17.970238802039">
        <ele>82.4</ele>
        <time>2018-01-22T18:28:51Z</time>
      </trkpt>
      <trkpt lat="62.630701516083" lon="17.970226732103">
        <ele>82.2</ele>
        <time>2018-01-22T18:28:52Z</time>
      </trkpt>
      <trkpt lat="62.63072858962" lon="17.970212231416">
        <ele>82</ele>
        <time>2018-01-22T18:28:53Z</time>
      </trkpt>
      <trkpt lat="62.630760692297" lon="17.970198568919">
        <ele>82</ele>
        <time>2018-01-22T18:28:54Z</time>
      </trkpt>
      <trkpt lat="62.63078726292" lon="17.970187504811">
        <ele>82</ele>
        <time>2018-01-22T18:28:55Z</time>
      </trkpt>
      <trkpt lat="62.630842751098" lon="17.970154228668">
        <ele>81.8</ele>
        <time>2018-01-22T18:28:57Z</time>
      </trkpt>
      <trkpt lat="62.630870830463" lon="17.970136123764">
        <ele>81.6</ele>
        <time>2018-01-22T18:28:58Z</time>
      </trkpt>
      <trkpt lat="62.63090125676" lon="17.970120030516">
        <ele>81.6</ele>
        <time>2018-01-22T18:28:59Z</time>
      </trkpt>
      <trkpt lat="62.630928246478" lon="17.970102344707">
        <ele>81.4</ele>
        <time>2018-01-22T18:29:00Z</time>
      </trkpt>
      <trkpt lat="62.630955655291" lon="17.97008532945">
        <ele>81.4</ele>
        <time>2018-01-22T18:29:01Z</time>
      </trkpt>
      <trkpt lat="62.630985243398" lon="17.970064709976">
        <ele>81.2</ele>
        <time>2018-01-22T18:29:02Z</time>
      </trkpt>
      <trkpt lat="62.631016004971" lon="17.970051298936">
        <ele>81.2</ele>
        <time>2018-01-22T18:29:03Z</time>
      </trkpt>
      <trkpt lat="62.631051208951" lon="17.970036211516">
        <ele>81.2</ele>
        <time>2018-01-22T18:29:04Z</time>
      </trkpt>
      <trkpt lat="62.631081802886" lon="17.970020034449">
        <ele>81.2</ele>
        <time>2018-01-22T18:29:05Z</time>
      </trkpt>
      <trkpt lat="62.631112313002" lon="17.970002683916">
        <ele>81</ele>
        <time>2018-01-22T18:29:06Z</time>
      </trkpt>
      <trkpt lat="62.631136033779" lon="17.96999061398">
        <ele>81</ele>
        <time>2018-01-22T18:29:07Z</time>
      </trkpt>
      <trkpt lat="62.631167465904" lon="17.969974017818">
        <ele>80.8</ele>
        <time>2018-01-22T18:29:08Z</time>
      </trkpt>
      <trkpt lat="62.631202418427" lon="17.969956751104">
        <ele>80.8</ele>
        <time>2018-01-22T18:29:09Z</time>
      </trkpt>
      <trkpt lat="62.631230246335" lon="17.969939232933">
        <ele>80.6</ele>
        <time>2018-01-22T18:29:10Z</time>
      </trkpt>
      <trkpt lat="62.63125748751" lon="17.96992355878">
        <ele>80.4</ele>
        <time>2018-01-22T18:29:11Z</time>
      </trkpt>
      <trkpt lat="62.631285650694" lon="17.969907381713">
        <ele>80.4</ele>
        <time>2018-01-22T18:29:12Z</time>
      </trkpt>
      <trkpt lat="62.631306856901" lon="17.969894976501">
        <ele>80.4</ele>
        <time>2018-01-22T18:29:13Z</time>
      </trkpt>
      <trkpt lat="62.631339546311" lon="17.969878715615">
        <ele>80.2</ele>
        <time>2018-01-22T18:29:14Z</time>
      </trkpt>
      <trkpt lat="62.631366116934" lon="17.969859437245">
        <ele>80.4</ele>
        <time>2018-01-22T18:29:15Z</time>
      </trkpt>
      <trkpt lat="62.631404757493" lon="17.969835213554">
        <ele>80.2</ele>
        <time>2018-01-22T18:29:16Z</time>
      </trkpt>
      <trkpt lat="62.631413307031" lon="17.969831190242">
        <ele>80.2</ele>
        <time>2018-01-22T18:29:17Z</time>
      </trkpt>
      <trkpt lat="62.631451528495" lon="17.969804703438">
        <ele>80.2</ele>
        <time>2018-01-22T18:29:18Z</time>
      </trkpt>
      <trkpt lat="62.631478853489" lon="17.969789616018">
        <ele>80.2</ele>
        <time>2018-01-22T18:29:19Z</time>
      </trkpt>
      <trkpt lat="62.631508190139" lon="17.969776791711">
        <ele>80.2</ele>
        <time>2018-01-22T18:29:20Z</time>
      </trkpt>
      <trkpt lat="62.631534593124" lon="17.969760279368">
        <ele>80</ele>
        <time>2018-01-22T18:29:21Z</time>
      </trkpt>
      <trkpt lat="62.631563845955" lon="17.969743515568">
        <ele>80</ele>
        <time>2018-01-22T18:29:22Z</time>
      </trkpt>
      <trkpt lat="62.631587231456" lon="17.969732200003">
        <ele>80.2</ele>
        <time>2018-01-22T18:29:23Z</time>
      </trkpt>
      <trkpt lat="62.631616149011" lon="17.969714765651">
        <ele>80.2</ele>
        <time>2018-01-22T18:29:24Z</time>
      </trkpt>
      <trkpt lat="62.631642468177" lon="17.969699007679">
        <ele>80</ele>
        <time>2018-01-22T18:29:25Z</time>
      </trkpt>
      <trkpt lat="62.631668871162" lon="17.969676963282">
        <ele>80</ele>
        <time>2018-01-22T18:29:26Z</time>
      </trkpt>
      <trkpt lat="62.631693933043" lon="17.969651230849">
        <ele>79.8</ele>
        <time>2018-01-22T18:29:27Z</time>
      </trkpt>
      <trkpt lat="62.631716564173" lon="17.969624744045">
        <ele>79.8</ele>
        <time>2018-01-22T18:29:28Z</time>
      </trkpt>
      <trkpt lat="62.631740787864" lon="17.969593060463">
        <ele>79.8</ele>
        <time>2018-01-22T18:29:29Z</time>
      </trkpt>
      <trkpt lat="62.631767190849" lon="17.969559197587">
        <ele>79.6</ele>
        <time>2018-01-22T18:29:30Z</time>
      </trkpt>
      <trkpt lat="62.631791582178" lon="17.969541511778">
        <ele>79.6</ele>
        <time>2018-01-22T18:29:31Z</time>
      </trkpt>
      <trkpt lat="62.631820332095" lon="17.969526340539">
        <ele>79.6</ele>
        <time>2018-01-22T18:29:32Z</time>
      </trkpt>
      <trkpt lat="62.631848662917" lon="17.969523490693">
        <ele>79.4</ele>
        <time>2018-01-22T18:29:33Z</time>
      </trkpt>
      <trkpt lat="62.631875987911" lon="17.969521646675">
        <ele>79.2</ele>
        <time>2018-01-22T18:29:34Z</time>
      </trkpt>
      <trkpt lat="62.631903732" lon="17.969525753806">
        <ele>79.2</ele>
        <time>2018-01-22T18:29:35Z</time>
      </trkpt>
      <trkpt lat="62.631929632071" lon="17.969528268376">
        <ele>79.2</ele>
        <time>2018-01-22T18:29:36Z</time>
      </trkpt>
      <trkpt lat="62.631954191038" lon="17.969529441842">
        <ele>79.2</ele>
        <time>2018-01-22T18:29:37Z</time>
      </trkpt>
      <trkpt lat="62.631981013118" lon="17.969532626964">
        <ele>79.2</ele>
        <time>2018-01-22T18:29:38Z</time>
      </trkpt>
      <trkpt lat="62.632009427759" lon="17.969525167073">
        <ele>79.2</ele>
        <time>2018-01-22T18:29:39Z</time>
      </trkpt>
      <trkpt lat="62.63203448964" lon="17.969525586168">
        <ele>79.2</ele>
        <time>2018-01-22T18:29:40Z</time>
      </trkpt>
      <trkpt lat="62.632061646996" lon="17.969522401046">
        <ele>79.4</ele>
        <time>2018-01-22T18:29:41Z</time>
      </trkpt>
      <trkpt lat="62.632085451592" lon="17.969517204268">
        <ele>79.4</ele>
        <time>2018-01-22T18:29:42Z</time>
      </trkpt>
      <trkpt lat="62.632107579808" lon="17.969509744377">
        <ele>79.4</ele>
        <time>2018-01-22T18:29:43Z</time>
      </trkpt>
      <trkpt lat="62.632137167915" lon="17.969505553427">
        <ele>79.6</ele>
        <time>2018-01-22T18:29:44Z</time>
      </trkpt>
      <trkpt lat="62.632162481253" lon="17.969500608106">
        <ele>79.6</ele>
        <time>2018-01-22T18:29:45Z</time>
      </trkpt>
      <trkpt lat="62.632190560618" lon="17.969493818767">
        <ele>79.6</ele>
        <time>2018-01-22T18:29:46Z</time>
      </trkpt>
      <trkpt lat="62.632219059078" lon="17.969489292541">
        <ele>79.6</ele>
        <time>2018-01-22T18:29:47Z</time>
      </trkpt>
      <trkpt lat="62.632243534226" lon="17.969483425211">
        <ele>79.6</ele>
        <time>2018-01-22T18:29:48Z</time>
      </trkpt>
      <trkpt lat="62.632273792885" lon="17.969480826822">
        <ele>79.6</ele>
        <time>2018-01-22T18:29:49Z</time>
      </trkpt>
      <trkpt lat="62.632303297173" lon="17.969475462406">
        <ele>79.6</ele>
        <time>2018-01-22T18:29:50Z</time>
      </trkpt>
      <trkpt lat="62.632329197244" lon="17.96947009799">
        <ele>79.6</ele>
        <time>2018-01-22T18:29:51Z</time>
      </trkpt>
      <trkpt lat="62.632359036808" lon="17.969464985031">
        <ele>79.6</ele>
        <time>2018-01-22T18:29:52Z</time>
      </trkpt>
      <trkpt lat="62.632382589947" lon="17.969459620615">
        <ele>79.6</ele>
        <time>2018-01-22T18:29:53Z</time>
      </trkpt>
      <trkpt lat="62.632411926597" lon="17.969457022226">
        <ele>79.6</ele>
        <time>2018-01-22T18:29:54Z</time>
      </trkpt>
      <trkpt lat="62.632438245763" lon="17.969458950063">
        <ele>79.8</ele>
        <time>2018-01-22T18:29:55Z</time>
      </trkpt>
      <trkpt lat="62.63246280473" lon="17.969455681122">
        <ele>79.8</ele>
        <time>2018-01-22T18:29:56Z</time>
      </trkpt>
      <trkpt lat="62.632491973742" lon="17.969458447149">
        <ele>79.6</ele>
        <time>2018-01-22T18:29:57Z</time>
      </trkpt>
      <trkpt lat="62.632516281252" lon="17.969463141013">
        <ele>79.6</ele>
        <time>2018-01-22T18:29:58Z</time>
      </trkpt>
      <trkpt lat="62.632542851875" lon="17.969464817393">
        <ele>79.6</ele>
        <time>2018-01-22T18:29:59Z</time>
      </trkpt>
      <trkpt lat="62.632571015059" lon="17.969467080506">
        <ele>79.6</ele>
        <time>2018-01-22T18:30:00Z</time>
      </trkpt>
      <trkpt lat="62.632595825483" lon="17.96947345075">
        <ele>79.6</ele>
        <time>2018-01-22T18:30:01Z</time>
      </trkpt>
      <trkpt lat="62.632622396106" lon="17.969479569537">
        <ele>79.6</ele>
        <time>2018-01-22T18:30:02Z</time>
      </trkpt>
      <trkpt lat="62.632648296177" lon="17.969484850134">
        <ele>79.8</ele>
        <time>2018-01-22T18:30:03Z</time>
      </trkpt>
      <trkpt lat="62.632674699162" lon="17.969489292541">
        <ele>79.6</ele>
        <time>2018-01-22T18:30:04Z</time>
      </trkpt>
      <trkpt lat="62.632700180138" lon="17.969497590622">
        <ele>79.6</ele>
        <time>2018-01-22T18:30:05Z</time>
      </trkpt>
      <trkpt lat="62.632727421313" lon="17.969509241463">
        <ele>79.8</ele>
        <time>2018-01-22T18:30:06Z</time>
      </trkpt>
      <trkpt lat="62.632749884805" lon="17.969518880648">
        <ele>79.8</ele>
        <time>2018-01-22T18:30:07Z</time>
      </trkpt>
      <trkpt lat="62.632772767392" lon="17.969527514005">
        <ele>79.8</ele>
        <time>2018-01-22T18:30:08Z</time>
      </trkpt>
      <trkpt lat="62.632799002739" lon="17.969537739923">
        <ele>79.8</ele>
        <time>2018-01-22T18:30:09Z</time>
      </trkpt>
      <trkpt lat="62.632823645525" lon="17.969540673588">
        <ele>79.8</ele>
        <time>2018-01-22T18:30:10Z</time>
      </trkpt>
      <trkpt lat="62.632852730718" lon="17.969553246438">
        <ele>79.8</ele>
        <time>2018-01-22T18:30:11Z</time>
      </trkpt>
      <trkpt lat="62.632876451495" lon="17.969556766836">
        <ele>80</ele>
        <time>2018-01-22T18:30:12Z</time>
      </trkpt>
      <trkpt lat="62.632901261919" lon="17.969564981098">
        <ele>80</ele>
        <time>2018-01-22T18:30:13Z</time>
      </trkpt>
      <trkpt lat="62.63293051475" lon="17.969571770437">
        <ele>80</ele>
        <time>2018-01-22T18:30:14Z</time>
      </trkpt>
      <trkpt lat="62.632954738441" lon="17.969571267523">
        <ele>80</ele>
        <time>2018-01-22T18:30:15Z</time>
      </trkpt>
      <trkpt lat="62.632985080919" lon="17.969580990527">
        <ele>80.2</ele>
        <time>2018-01-22T18:30:16Z</time>
      </trkpt>
      <trkpt lat="62.633014585207" lon="17.969590713531">
        <ele>80.4</ele>
        <time>2018-01-22T18:30:17Z</time>
      </trkpt>
      <trkpt lat="62.633038222165" lon="17.969597754327">
        <ele>80.4</ele>
        <time>2018-01-22T18:30:18Z</time>
      </trkpt>
      <trkpt lat="62.633066888263" lon="17.969605968589">
        <ele>80.6</ele>
        <time>2018-01-22T18:30:19Z</time>
      </trkpt>
      <trkpt lat="62.633095051447" lon="17.969612757928">
        <ele>80.6</ele>
        <time>2018-01-22T18:30:20Z</time>
      </trkpt>
      <trkpt lat="62.633124388097" lon="17.969613763756">
        <ele>80.6</ele>
        <time>2018-01-22T18:30:21Z</time>
      </trkpt>
      <trkpt lat="62.633152216005" lon="17.969628683538">
        <ele>80.8</ele>
        <time>2018-01-22T18:30:22Z</time>
      </trkpt>
      <trkpt lat="62.63317358985" lon="17.969630024642">
        <ele>80.8</ele>
        <time>2018-01-22T18:30:23Z</time>
      </trkpt>
      <trkpt lat="62.633203932328" lon="17.969643268044">
        <ele>80.8</ele>
        <time>2018-01-22T18:30:24Z</time>
      </trkpt>
      <trkpt lat="62.633230083856" lon="17.969655086523">
        <ele>80.8</ele>
        <time>2018-01-22T18:30:25Z</time>
      </trkpt>
      <trkpt lat="62.633255816289" lon="17.969669754848">
        <ele>81</ele>
        <time>2018-01-22T18:30:26Z</time>
      </trkpt>
      <trkpt lat="62.633282470731" lon="17.969694481453">
        <ele>81</ele>
        <time>2018-01-22T18:30:27Z</time>
      </trkpt>
      <trkpt lat="62.633303928395" lon="17.969716609669">
        <ele>80.8</ele>
        <time>2018-01-22T18:30:28Z</time>
      </trkpt>
      <trkpt lat="62.633328319724" lon="17.96975592078">
        <ele>80.8</ele>
        <time>2018-01-22T18:30:29Z</time>
      </trkpt>
      <trkpt lat="62.633347765732" lon="17.969796656814">
        <ele>81</ele>
        <time>2018-01-22T18:30:30Z</time>
      </trkpt>
      <trkpt lat="62.633359165116" lon="17.969840661789">
        <ele>81</ele>
        <time>2018-01-22T18:30:31Z</time>
      </trkpt>
      <trkpt lat="62.633371151233" lon="17.969897742528">
        <ele>81</ele>
        <time>2018-01-22T18:30:32Z</time>
      </trkpt>
      <trkpt lat="62.63338062278" lon="17.969943256245">
        <ele>81</ele>
        <time>2018-01-22T18:30:33Z</time>
      </trkpt>
      <trkpt lat="62.633389507594" lon="17.970007880694">
        <ele>81.2</ele>
        <time>2018-01-22T18:30:34Z</time>
      </trkpt>
      <trkpt lat="62.633392022164" lon="17.970066637813">
        <ele>81.2</ele>
        <time>2018-01-22T18:30:35Z</time>
      </trkpt>
      <trkpt lat="62.633397302761" lon="17.970119276145">
        <ele>81.4</ele>
        <time>2018-01-22T18:30:36Z</time>
      </trkpt>
      <trkpt lat="62.633399230598" lon="17.970173674676">
        <ele>81.4</ele>
        <time>2018-01-22T18:30:37Z</time>
      </trkpt>
      <trkpt lat="62.633402918634" lon="17.970220613316">
        <ele>81.6</ele>
        <time>2018-01-22T18:30:38Z</time>
      </trkpt>
      <trkpt lat="62.633405265566" lon="17.970284399575">
        <ele>81.8</ele>
        <time>2018-01-22T18:30:39Z</time>
      </trkpt>
      <trkpt lat="62.633406858127" lon="17.970341145038">
        <ele>81.8</ele>
        <time>2018-01-22T18:30:40Z</time>
      </trkpt>
      <trkpt lat="62.633411887267" lon="17.970395627388">
        <ele>82</ele>
        <time>2018-01-22T18:30:41Z</time>
      </trkpt>
      <trkpt lat="62.633415323846" lon="17.970459413647">
        <ele>82.2</ele>
        <time>2018-01-22T18:30:42Z</time>
      </trkpt>
      <trkpt lat="62.633417670778" lon="17.970504592088">
        <ele>82.2</ele>
        <time>2018-01-22T18:30:43Z</time>
      </trkpt>
      <trkpt lat="62.633419682434" lon="17.970566031415">
        <ele>82.4</ele>
        <time>2018-01-22T18:30:44Z</time>
      </trkpt>
      <trkpt lat="62.63342337047" lon="17.970624201801">
        <ele>82.6</ele>
        <time>2018-01-22T18:30:45Z</time>
      </trkpt>
      <trkpt lat="62.633428483429" lon="17.970674157925">
        <ele>82.6</ele>
        <time>2018-01-22T18:30:46Z</time>
      </trkpt>
      <trkpt lat="62.633432674379" lon="17.970729729922">
        <ele>82.8</ele>
        <time>2018-01-22T18:30:47Z</time>
      </trkpt>
      <trkpt lat="62.633433931664" lon="17.97078018896">
        <ele>83</ele>
        <time>2018-01-22T18:30:48Z</time>
      </trkpt>
      <trkpt lat="62.633436949148" lon="17.970832240559">
        <ele>82.8</ele>
        <time>2018-01-22T18:30:49Z</time>
      </trkpt>
      <trkpt lat="62.633439882813" lon="17.9708941828">
        <ele>83</ele>
        <time>2018-01-22T18:30:50Z</time>
      </trkpt>
      <trkpt lat="62.633442397383" lon="17.970945982942">
        <ele>83</ele>
        <time>2018-01-22T18:30:51Z</time>
      </trkpt>
      <trkpt lat="62.633445079591" lon="17.971000297654">
        <ele>83.2</ele>
        <time>2018-01-22T18:30:52Z</time>
      </trkpt>
      <trkpt lat="62.633444995772" lon="17.971047906846">
        <ele>83.2</ele>
        <time>2018-01-22T18:30:53Z</time>
      </trkpt>
      <trkpt lat="62.633445498686" lon="17.971102640653">
        <ele>83.2</ele>
        <time>2018-01-22T18:30:54Z</time>
      </trkpt>
      <trkpt lat="62.633447258885" lon="17.971155111347">
        <ele>83.2</ele>
        <time>2018-01-22T18:30:55Z</time>
      </trkpt>
      <trkpt lat="62.633446336876" lon="17.971215796303">
        <ele>83.4</ele>
        <time>2018-01-22T18:30:56Z</time>
      </trkpt>
      <trkpt lat="62.633447258885" lon="17.971269440463">
        <ele>83.6</ele>
        <time>2018-01-22T18:30:57Z</time>
      </trkpt>
      <trkpt lat="62.633444576677" lon="17.971342111536">
        <ele>83.6</ele>
        <time>2018-01-22T18:30:58Z</time>
      </trkpt>
      <trkpt lat="62.633445079591" lon="17.97138452395">
        <ele>83.6</ele>
        <time>2018-01-22T18:30:59Z</time>
      </trkpt>
      <trkpt lat="62.633444157582" lon="17.97144906458">
        <ele>83.6</ele>
        <time>2018-01-22T18:31:00Z</time>
      </trkpt>
      <trkpt lat="62.633440385727" lon="17.971504133663">
        <ele>83.8</ele>
        <time>2018-01-22T18:31:01Z</time>
      </trkpt>
      <trkpt lat="62.633436865329" lon="17.971563477515">
        <ele>84</ele>
        <time>2018-01-22T18:31:02Z</time>
      </trkpt>
      <trkpt lat="62.633434183121" lon="17.971614607105">
        <ele>84.2</ele>
        <time>2018-01-22T18:31:03Z</time>
      </trkpt>
      <trkpt lat="62.633430243628" lon="17.971664227953">
        <ele>84.2</ele>
        <time>2018-01-22T18:31:04Z</time>
      </trkpt>
      <trkpt lat="62.633427477601" lon="17.97171477081">
        <ele>84.4</ele>
        <time>2018-01-22T18:31:05Z</time>
      </trkpt>
      <trkpt lat="62.633418928063" lon="17.971771180997">
        <ele>84.4</ele>
        <time>2018-01-22T18:31:06Z</time>
      </trkpt>
      <trkpt lat="62.633416581131" lon="17.971817197628">
        <ele>84.4</ele>
        <time>2018-01-22T18:31:07Z</time>
      </trkpt>
      <trkpt lat="62.633413396009" lon="17.971871931435">
        <ele>84.6</ele>
        <time>2018-01-22T18:31:08Z</time>
      </trkpt>
      <trkpt lat="62.633407109584" lon="17.97193521478">
        <ele>84.6</ele>
        <time>2018-01-22T18:31:09Z</time>
      </trkpt>
      <trkpt lat="62.63340325391" lon="17.971989613311">
        <ele>84.8</ele>
        <time>2018-01-22T18:31:10Z</time>
      </trkpt>
      <trkpt lat="62.633395542562" lon="17.972044263299">
        <ele>84.8</ele>
        <time>2018-01-22T18:31:11Z</time>
      </trkpt>
      <trkpt lat="62.633388585585" lon="17.972095560527">
        <ele>84.8</ele>
        <time>2018-01-22T18:31:12Z</time>
      </trkpt>
      <trkpt lat="62.633381628608" lon="17.97214224771">
        <ele>85</ele>
        <time>2018-01-22T18:31:13Z</time>
      </trkpt>
      <trkpt lat="62.63337140269" lon="17.972207877987">
        <ele>85</ele>
        <time>2018-01-22T18:31:14Z</time>
      </trkpt>
      <trkpt lat="62.633366541188" lon="17.972254732808">
        <ele>85</ele>
        <time>2018-01-22T18:31:15Z</time>
      </trkpt>
      <trkpt lat="62.633356902003" lon="17.972312903194">
        <ele>85.2</ele>
        <time>2018-01-22T18:31:16Z</time>
      </trkpt>
      <trkpt lat="62.633341646945" lon="17.972355483246">
        <ele>85.2</ele>
        <time>2018-01-22T18:31:17Z</time>
      </trkpt>
      <trkpt lat="62.633333432683" lon="17.972400661687">
        <ele>85.4</ele>
        <time>2018-01-22T18:31:18Z</time>
      </trkpt>
      <trkpt lat="62.633320943652" lon="17.972458999711">
        <ele>85.6</ele>
        <time>2018-01-22T18:31:19Z</time>
      </trkpt>
      <trkpt lat="62.633312645571" lon="17.972511218948">
        <ele>85.6</ele>
        <time>2018-01-22T18:31:20Z</time>
      </trkpt>
      <trkpt lat="62.633304515128" lon="17.972566539488">
        <ele>85.6</ele>
        <time>2018-01-22T18:31:21Z</time>
      </trkpt>
      <trkpt lat="62.63329428921" lon="17.972615489784">
        <ele>85.8</ele>
        <time>2018-01-22T18:31:22Z</time>
      </trkpt>
      <trkpt lat="62.633287835147" lon="17.972658740388">
        <ele>85.8</ele>
        <time>2018-01-22T18:31:23Z</time>
      </trkpt>
      <trkpt lat="62.633272999184" lon="17.972720682629">
        <ele>85.8</ele>
        <time>2018-01-22T18:31:24Z</time>
      </trkpt>
      <trkpt lat="62.633266964216" lon="17.97275999374">
        <ele>86</ele>
        <time>2018-01-22T18:31:25Z</time>
      </trkpt>
      <trkpt lat="62.633256822117" lon="17.972815062823">
        <ele>86.2</ele>
        <time>2018-01-22T18:31:26Z</time>
      </trkpt>
      <trkpt lat="62.633243746353" lon="17.97286812025">
        <ele>86.2</ele>
        <time>2018-01-22T18:31:27Z</time>
      </trkpt>
      <trkpt lat="62.633238214299" lon="17.972900558203">
        <ele>86.2</ele>
        <time>2018-01-22T18:31:28Z</time>
      </trkpt>
      <trkpt lat="62.633223126879" lon="17.972972474905">
        <ele>86.4</ele>
        <time>2018-01-22T18:31:29Z</time>
      </trkpt>
      <trkpt lat="62.633212230409" lon="17.973020503192">
        <ele>86.4</ele>
        <time>2018-01-22T18:31:30Z</time>
      </trkpt>
      <trkpt lat="62.633202172129" lon="17.973061239226">
        <ele>86.6</ele>
        <time>2018-01-22T18:31:31Z</time>
      </trkpt>
      <trkpt lat="62.633187503804" lon="17.973119493431">
        <ele>86.6</ele>
        <time>2018-01-22T18:31:32Z</time>
      </trkpt>
      <trkpt lat="62.633179624818" lon="17.973157631076">
        <ele>86.6</ele>
        <time>2018-01-22T18:31:33Z</time>
      </trkpt>
      <trkpt lat="62.633167973977" lon="17.973209682675">
        <ele>86.6</ele>
        <time>2018-01-22T18:31:34Z</time>
      </trkpt>
      <trkpt lat="62.633156574593" lon="17.973261063722">
        <ele>86.8</ele>
        <time>2018-01-22T18:31:35Z</time>
      </trkpt>
      <trkpt lat="62.63314844415" lon="17.973305990706">
        <ele>87</ele>
        <time>2018-01-22T18:31:36Z</time>
      </trkpt>
      <trkpt lat="62.633136206576" lon="17.973358209943">
        <ele>87</ele>
        <time>2018-01-22T18:31:37Z</time>
      </trkpt>
      <trkpt lat="62.633127154124" lon="17.973406405868">
        <ele>87</ele>
        <time>2018-01-22T18:31:38Z</time>
      </trkpt>
      <trkpt lat="62.633116676749" lon="17.973461055856">
        <ele>87</ele>
        <time>2018-01-22T18:31:39Z</time>
      </trkpt>
      <trkpt lat="62.633101170234" lon="17.973511263437">
        <ele>87.2</ele>
        <time>2018-01-22T18:31:40Z</time>
      </trkpt>
      <trkpt lat="62.633088262108" lon="17.97355543605">
        <ele>87.4</ele>
        <time>2018-01-22T18:31:41Z</time>
      </trkpt>
      <trkpt lat="62.633077784733" lon="17.97361243297">
        <ele>87.4</ele>
        <time>2018-01-22T18:31:42Z</time>
      </trkpt>
      <trkpt lat="62.63306713972" lon="17.973656102669">
        <ele>87.4</ele>
        <time>2018-01-22T18:31:43Z</time>
      </trkpt>
      <trkpt lat="62.633058254906" lon="17.973705974974">
        <ele>87.6</ele>
        <time>2018-01-22T18:31:44Z</time>
      </trkpt>
      <trkpt lat="62.633044173314" lon="17.973762552799">
        <ele>87.8</ele>
        <time>2018-01-22T18:31:45Z</time>
      </trkpt>
      <trkpt lat="62.633029253532" lon="17.973813430932">
        <ele>87.8</ele>
        <time>2018-01-22T18:31:46Z</time>
      </trkpt>
      <trkpt lat="62.633022212736" lon="17.973865482531">
        <ele>88</ele>
        <time>2018-01-22T18:31:47Z</time>
      </trkpt>
      <trkpt lat="62.633011148628" lon="17.973922730908">
        <ele>88</ele>
        <time>2018-01-22T18:31:48Z</time>
      </trkpt>
      <trkpt lat="62.633000838891" lon="17.97397117829">
        <ele>88.2</ele>
        <time>2018-01-22T18:31:49Z</time>
      </trkpt>
      <trkpt lat="62.632989104231" lon="17.974023565165">
        <ele>88.2</ele>
        <time>2018-01-22T18:31:50Z</time>
      </trkpt>
      <trkpt lat="62.632970077318" lon="17.974072347823">
        <ele>88.2</ele>
        <time>2018-01-22T18:31:51Z</time>
      </trkpt>
      <trkpt lat="62.632956582459" lon="17.974114005866">
        <ele>88.4</ele>
        <time>2018-01-22T18:31:52Z</time>
      </trkpt>
      <trkpt lat="62.632944680161" lon="17.974159435764">
        <ele>88.4</ele>
        <time>2018-01-22T18:31:53Z</time>
      </trkpt>
      <trkpt lat="62.632930598569" lon="17.974217689969">
        <ele>88.4</ele>
        <time>2018-01-22T18:31:54Z</time>
      </trkpt>
      <trkpt lat="62.632923473954" lon="17.97426119203">
        <ele>88.4</ele>
        <time>2018-01-22T18:31:55Z</time>
      </trkpt>
      <trkpt lat="62.632908805629" lon="17.974318272769">
        <ele>88.4</ele>
        <time>2018-01-22T18:31:56Z</time>
      </trkpt>
      <trkpt lat="62.632897909159" lon="17.974365295228">
        <ele>88.4</ele>
        <time>2018-01-22T18:31:57Z</time>
      </trkpt>
      <trkpt lat="62.632886677413" lon="17.974411395678">
        <ele>88.4</ele>
        <time>2018-01-22T18:31:58Z</time>
      </trkpt>
      <trkpt lat="62.632870416527" lon="17.974469146969">
        <ele>88.4</ele>
        <time>2018-01-22T18:31:59Z</time>
      </trkpt>
      <trkpt lat="62.632859855333" lon="17.974515331238">
        <ele>88.6</ele>
        <time>2018-01-22T18:32:00Z</time>
      </trkpt>
      <trkpt lat="62.632849042682" lon="17.974569059217">
        <ele>88.6</ele>
        <time>2018-01-22T18:32:01Z</time>
      </trkpt>
      <trkpt lat="62.632832781796" lon="17.974619015341">
        <ele>88.8</ele>
        <time>2018-01-22T18:32:02Z</time>
      </trkpt>
      <trkpt lat="62.632823896982" lon="17.974669139103">
        <ele>89</ele>
        <time>2018-01-22T18:32:03Z</time>
      </trkpt>
      <trkpt lat="62.632809899209" lon="17.974727644765">
        <ele>89</ele>
        <time>2018-01-22T18:32:04Z</time>
      </trkpt>
      <trkpt lat="62.632797074902" lon="17.974778019984">
        <ele>89</ele>
        <time>2018-01-22T18:32:05Z</time>
      </trkpt>
      <trkpt lat="62.632787268079" lon="17.974825042443">
        <ele>89.2</ele>
        <time>2018-01-22T18:32:06Z</time>
      </trkpt>
      <trkpt lat="62.63277293503" lon="17.974878686603">
        <ele>89.2</ele>
        <time>2018-01-22T18:32:07Z</time>
      </trkpt>
      <trkpt lat="62.632766313329" lon="17.97492336213">
        <ele>89.2</ele>
        <time>2018-01-22T18:32:08Z</time>
      </trkpt>
      <trkpt lat="62.63275198028" lon="17.97498119724">
        <ele>89</ele>
        <time>2018-01-22T18:32:09Z</time>
      </trkpt>
      <trkpt lat="62.63273856924" lon="17.975034338486">
        <ele>89</ele>
        <time>2018-01-22T18:32:10Z</time>
      </trkpt>
      <trkpt lat="62.632730438797" lon="17.975083204963">
        <ele>89</ele>
        <time>2018-01-22T18:32:11Z</time>
      </trkpt>
      <trkpt lat="62.632719207051" lon="17.975128383404">
        <ele>89</ele>
        <time>2018-01-22T18:32:12Z</time>
      </trkpt>
      <trkpt lat="62.6327083944" lon="17.975178088071">
        <ele>89</ele>
        <time>2018-01-22T18:32:13Z</time>
      </trkpt>
      <trkpt lat="62.632696995016" lon="17.975229552937">
        <ele>89</ele>
        <time>2018-01-22T18:32:14Z</time>
      </trkpt>
      <trkpt lat="62.632684170709" lon="17.975284538201">
        <ele>89.2</ele>
        <time>2018-01-22T18:32:15Z</time>
      </trkpt>
      <trkpt lat="62.632670592031" lon="17.975337176533">
        <ele>89.2</ele>
        <time>2018-01-22T18:32:16Z</time>
      </trkpt>
      <trkpt lat="62.632662377769" lon="17.97538436663">
        <ele>89.2</ele>
        <time>2018-01-22T18:32:17Z</time>
      </trkpt>
      <trkpt lat="62.632645446331" lon="17.975444548672">
        <ele>89.2</ele>
        <time>2018-01-22T18:32:18Z</time>
      </trkpt>
      <trkpt lat="62.632635220413" lon="17.975493163692">
        <ele>89.4</ele>
        <time>2018-01-22T18:32:19Z</time>
      </trkpt>
      <trkpt lat="62.632623988667" lon="17.975551082621">
        <ele>89.4</ele>
        <time>2018-01-22T18:32:20Z</time>
      </trkpt>
      <trkpt lat="62.632610158532" lon="17.9756048106">
        <ele>89.4</ele>
        <time>2018-01-22T18:32:21Z</time>
      </trkpt>
      <trkpt lat="62.632599094424" lon="17.975648983213">
        <ele>89.6</ele>
        <time>2018-01-22T18:32:22Z</time>
      </trkpt>
      <trkpt lat="62.632589539058" lon="17.975695754215">
        <ele>89.6</ele>
        <time>2018-01-22T18:32:23Z</time>
      </trkpt>
      <trkpt lat="62.632576882389" lon="17.975753421687">
        <ele>89.6</ele>
        <time>2018-01-22T18:32:24Z</time>
      </trkpt>
      <trkpt lat="62.632569422498" lon="17.97579843249">
        <ele>89.8</ele>
        <time>2018-01-22T18:32:25Z</time>
      </trkpt>
      <trkpt lat="62.632556346734" lon="17.975859452722">
        <ele>89.8</ele>
        <time>2018-01-22T18:32:26Z</time>
      </trkpt>
      <trkpt lat="62.632543019513" lon="17.97591745547">
        <ele>89.8</ele>
        <time>2018-01-22T18:32:27Z</time>
      </trkpt>
      <trkpt lat="62.632533715604" lon="17.975958191504">
        <ele>89.8</ele>
        <time>2018-01-22T18:32:28Z</time>
      </trkpt>
      <trkpt lat="62.632521226573" lon="17.976019630831">
        <ele>89.8</ele>
        <time>2018-01-22T18:32:29Z</time>
      </trkpt>
      <trkpt lat="62.63250806699" lon="17.976066820928">
        <ele>89.8</ele>
        <time>2018-01-22T18:32:30Z</time>
      </trkpt>
      <trkpt lat="62.632500858556" lon="17.976116860871">
        <ele>89.8</ele>
        <time>2018-01-22T18:32:31Z</time>
      </trkpt>
      <trkpt lat="62.632489291534" lon="17.976178886931">
        <ele>89.8</ele>
        <time>2018-01-22T18:32:32Z</time>
      </trkpt>
      <trkpt lat="62.632481412548" lon="17.97622842396">
        <ele>89.8</ele>
        <time>2018-01-22T18:32:33Z</time>
      </trkpt>
      <trkpt lat="62.632470599897" lon="17.976281984301">
        <ele>90</ele>
        <time>2018-01-22T18:32:34Z</time>
      </trkpt>
      <trkpt lat="62.632455009563" lon="17.976338310669">
        <ele>90</ele>
        <time>2018-01-22T18:32:35Z</time>
      </trkpt>
      <trkpt lat="62.632444532188" lon="17.976388015336">
        <ele>90</ele>
        <time>2018-01-22T18:32:36Z</time>
      </trkpt>
      <trkpt lat="62.632436737021" lon="17.976437300908">
        <ele>90</ele>
        <time>2018-01-22T18:32:37Z</time>
      </trkpt>
      <trkpt lat="62.632421314325" lon="17.97648993924">
        <ele>90</ele>
        <time>2018-01-22T18:32:38Z</time>
      </trkpt>
      <trkpt lat="62.632408825294" lon="17.9765435834">
        <ele>90</ele>
        <time>2018-01-22T18:32:39Z</time>
      </trkpt>
      <trkpt lat="62.63239574953" lon="17.976594629171">
        <ele>90.2</ele>
        <time>2018-01-22T18:32:40Z</time>
      </trkpt>
      <trkpt lat="62.632381919395" lon="17.976649865892">
        <ele>90.2</ele>
        <time>2018-01-22T18:32:41Z</time>
      </trkpt>
      <trkpt lat="62.632371274382" lon="17.976692697401">
        <ele>90.2</ele>
        <time>2018-01-22T18:32:42Z</time>
      </trkpt>
      <trkpt lat="62.632361970473" lon="17.976736199462">
        <ele>90.4</ele>
        <time>2018-01-22T18:32:43Z</time>
      </trkpt>
      <trkpt lat="62.632347805062" lon="17.976796130047">
        <ele>90.4</ele>
        <time>2018-01-22T18:32:44Z</time>
      </trkpt>
      <trkpt lat="62.63233791442" lon="17.976836027891">
        <ele>90.4</ele>
        <time>2018-01-22T18:32:45Z</time>
      </trkpt>
      <trkpt lat="62.632324838656" lon="17.976889336775">
        <ele>90.4</ele>
        <time>2018-01-22T18:32:46Z</time>
      </trkpt>
      <trkpt lat="62.632312181987" lon="17.976936945967">
        <ele>90.6</ele>
        <time>2018-01-22T18:32:47Z</time>
      </trkpt>
      <trkpt lat="62.632303800087" lon="17.976980531847">
        <ele>90.8</ele>
        <time>2018-01-22T18:32:48Z</time>
      </trkpt>
      <trkpt lat="62.632290556685" lon="17.977033421636">
        <ele>90.8</ele>
        <time>2018-01-22T18:32:49Z</time>
      </trkpt>
      <trkpt lat="62.63228007931" lon="17.977087903986">
        <ele>90.8</ele>
        <time>2018-01-22T18:32:50Z</time>
      </trkpt>
      <trkpt lat="62.632268093193" lon="17.977136351368">
        <ele>90.8</ele>
        <time>2018-01-22T18:32:51Z</time>
      </trkpt>
      <trkpt lat="62.632252167583" lon="17.977189241157">
        <ele>90.8</ele>
        <time>2018-01-22T18:32:52Z</time>
      </trkpt>
      <trkpt lat="62.632241187294" lon="17.977225115689">
        <ele>90.8</ele>
        <time>2018-01-22T18:32:53Z</time>
      </trkpt>
      <trkpt lat="62.632224507313" lon="17.977265348809">
        <ele>90.8</ele>
        <time>2018-01-22T18:32:54Z</time>
      </trkpt>
      <trkpt lat="62.632209084617" lon="17.977316478399">
        <ele>90.8</ele>
        <time>2018-01-22T18:32:55Z</time>
      </trkpt>
      <trkpt lat="62.632199445432" lon="17.977366099247">
        <ele>90.8</ele>
        <time>2018-01-22T18:32:56Z</time>
      </trkpt>
      <trkpt lat="62.632184106555" lon="17.977413540801">
        <ele>91</ele>
        <time>2018-01-22T18:32:57Z</time>
      </trkpt>
      <trkpt lat="62.632173796818" lon="17.97746475421">
        <ele>91</ele>
        <time>2018-01-22T18:32:58Z</time>
      </trkpt>
      <trkpt lat="62.632163654719" lon="17.977514123601">
        <ele>91</ele>
        <time>2018-01-22T18:32:59Z</time>
      </trkpt>
      <trkpt lat="62.632147310014" lon="17.977569276503">
        <ele>91</ele>
        <time>2018-01-22T18:33:00Z</time>
      </trkpt>
      <trkpt lat="62.632138173743" lon="17.97761562841">
        <ele>91</ele>
        <time>2018-01-22T18:33:01Z</time>
      </trkpt>
      <trkpt lat="62.632126187626" lon="17.977676564823">
        <ele>91.2</ele>
        <time>2018-01-22T18:33:02Z</time>
      </trkpt>
      <trkpt lat="62.632113447138" lon="17.977725598938">
        <ele>91.2</ele>
        <time>2018-01-22T18:33:03Z</time>
      </trkpt>
      <trkpt lat="62.63210405941" lon="17.977779410736">
        <ele>91.2</ele>
        <time>2018-01-22T18:33:04Z</time>
      </trkpt>
      <trkpt lat="62.632091905655" lon="17.977837664941">
        <ele>91.4</ele>
        <time>2018-01-22T18:33:05Z</time>
      </trkpt>
      <trkpt lat="62.632081176823" lon="17.977890219454">
        <ele>91.4</ele>
        <time>2018-01-22T18:33:06Z</time>
      </trkpt>
      <trkpt lat="62.632072543466" lon="17.977937828646">
        <ele>91.6</ele>
        <time>2018-01-22T18:33:07Z</time>
      </trkpt>
      <trkpt lat="62.632060054435" lon="17.977989209693">
        <ele>91.6</ele>
        <time>2018-01-22T18:33:08Z</time>
      </trkpt>
      <trkpt lat="62.632045302291" lon="17.978038830541">
        <ele>91.8</ele>
        <time>2018-01-22T18:33:09Z</time>
      </trkpt>
      <trkpt lat="62.632038345314" lon="17.978093229072">
        <ele>91.8</ele>
        <time>2018-01-22T18:33:10Z</time>
      </trkpt>
      <trkpt lat="62.632023928446" lon="17.978152237648">
        <ele>91.8</ele>
        <time>2018-01-22T18:33:11Z</time>
      </trkpt>
      <trkpt lat="62.632015546546" lon="17.978196577899">
        <ele>91.8</ele>
        <time>2018-01-22T18:33:12Z</time>
      </trkpt>
      <trkpt lat="62.632002554601" lon="17.978247539851">
        <ele>92</ele>
        <time>2018-01-22T18:33:13Z</time>
      </trkpt>
      <trkpt lat="62.631987886276" lon="17.978308895359">
        <ele>92.2</ele>
        <time>2018-01-22T18:33:14Z</time>
      </trkpt>
      <trkpt lat="62.631976905987" lon="17.978354828171">
        <ele>92</ele>
        <time>2018-01-22T18:33:15Z</time>
      </trkpt>
      <trkpt lat="62.631962572938" lon="17.978409226702">
        <ele>92</ele>
        <time>2018-01-22T18:33:16Z</time>
      </trkpt>
      <trkpt lat="62.631951760287" lon="17.978463792871">
        <ele>92.2</ele>
        <time>2018-01-22T18:33:17Z</time>
      </trkpt>
      <trkpt lat="62.631941031455" lon="17.978506456742">
        <ele>92.2</ele>
        <time>2018-01-22T18:33:18Z</time>
      </trkpt>
      <trkpt lat="62.631926530768" lon="17.978559681807">
        <ele>92.2</ele>
        <time>2018-01-22T18:33:19Z</time>
      </trkpt>
      <trkpt lat="62.631916137212" lon="17.978611649587">
        <ele>92.2</ele>
        <time>2018-01-22T18:33:20Z</time>
      </trkpt>
      <trkpt lat="62.631903312905" lon="17.978668059774">
        <ele>92.4</ele>
        <time>2018-01-22T18:33:21Z</time>
      </trkpt>
      <trkpt lat="62.63189032096" lon="17.978724218504">
        <ele>92.4</ele>
        <time>2018-01-22T18:33:22Z</time>
      </trkpt>
      <trkpt lat="62.631881519965" lon="17.978762523787">
        <ele>92.4</ele>
        <time>2018-01-22T18:33:23Z</time>
      </trkpt>
      <trkpt lat="62.631868947115" lon="17.97882513658">
        <ele>92.6</ele>
        <time>2018-01-22T18:33:24Z</time>
      </trkpt>
      <trkpt lat="62.631858888835" lon="17.978877691093">
        <ele>92.6</ele>
        <time>2018-01-22T18:33:25Z</time>
      </trkpt>
      <trkpt lat="62.631848662917" lon="17.978930580882">
        <ele>92.6</ele>
        <time>2018-01-22T18:33:26Z</time>
      </trkpt>
      <trkpt lat="62.631835251877" lon="17.978984141223">
        <ele>92.8</ele>
        <time>2018-01-22T18:33:27Z</time>
      </trkpt>
      <trkpt lat="62.631825109778" lon="17.97902965494">
        <ele>92.8</ele>
        <time>2018-01-22T18:33:28Z</time>
      </trkpt>
      <trkpt lat="62.631815051498" lon="17.97908413729">
        <ele>92.8</ele>
        <time>2018-01-22T18:33:29Z</time>
      </trkpt>
      <trkpt lat="62.631804071209" lon="17.979143732599">
        <ele>92.8</ele>
        <time>2018-01-22T18:33:30Z</time>
      </trkpt>
      <trkpt lat="62.631793007101" lon="17.979180780597">
        <ele>92.8</ele>
        <time>2018-01-22T18:33:31Z</time>
      </trkpt>
      <trkpt lat="62.631780182794" lon="17.979236101137">
        <ele>93</ele>
        <time>2018-01-22T18:33:32Z</time>
      </trkpt>
      <trkpt lat="62.631767358487" lon="17.979288571831">
        <ele>93</ele>
        <time>2018-01-22T18:33:33Z</time>
      </trkpt>
      <trkpt lat="62.631756881112" lon="17.979343473276">
        <ele>93</ele>
        <time>2018-01-22T18:33:34Z</time>
      </trkpt>
      <trkpt lat="62.631742548063" lon="17.979398207083">
        <ele>93.2</ele>
        <time>2018-01-22T18:33:35Z</time>
      </trkpt>
      <trkpt lat="62.631729975213" lon="17.979451013053">
        <ele>93.2</ele>
        <time>2018-01-22T18:33:36Z</time>
      </trkpt>
      <trkpt lat="62.631718743467" lon="17.979496107675">
        <ele>93.2</ele>
        <time>2018-01-22T18:33:37Z</time>
      </trkpt>
      <trkpt lat="62.631707008807" lon="17.979548243093">
        <ele>93.4</ele>
        <time>2018-01-22T18:33:38Z</time>
      </trkpt>
      <trkpt lat="62.631693849224" lon="17.979607586945">
        <ele>93.4</ele>
        <time>2018-01-22T18:33:39Z</time>
      </trkpt>
      <trkpt lat="62.631681444012" lon="17.979651005187">
        <ele>93.4</ele>
        <time>2018-01-22T18:33:40Z</time>
      </trkpt>
      <trkpt lat="62.631665853678" lon="17.979705990451">
        <ele>93.4</ele>
        <time>2018-01-22T18:33:41Z</time>
      </trkpt>
      <trkpt lat="62.631652945552" lon="17.979756281851">
        <ele>93.4</ele>
        <time>2018-01-22T18:33:42Z</time>
      </trkpt>
      <trkpt lat="62.631641713806" lon="17.9798041425">
        <ele>93.4</ele>
        <time>2018-01-22T18:33:43Z</time>
      </trkpt>
      <trkpt lat="62.631623608902" lon="17.979862145248">
        <ele>93.4</ele>
        <time>2018-01-22T18:33:44Z</time>
      </trkpt>
      <trkpt lat="62.63161120369" lon="17.979908329517">
        <ele>93.6</ele>
        <time>2018-01-22T18:33:45Z</time>
      </trkpt>
      <trkpt lat="62.631596703003" lon="17.979960548754">
        <ele>93.6</ele>
        <time>2018-01-22T18:33:46Z</time>
      </trkpt>
      <trkpt lat="62.631583627239" lon="17.980009415231">
        <ele>93.6</ele>
        <time>2018-01-22T18:33:47Z</time>
      </trkpt>
      <trkpt lat="62.631571976398" lon="17.980055012767">
        <ele>93.6</ele>
        <time>2018-01-22T18:33:48Z</time>
      </trkpt>
      <trkpt lat="62.631552362752" lon="17.98010337633">
        <ele>93.6</ele>
        <time>2018-01-22T18:33:49Z</time>
      </trkpt>
      <trkpt lat="62.631533838753" lon="17.980144363821">
        <ele>93.8</ele>
        <time>2018-01-22T18:33:50Z</time>
      </trkpt>
      <trkpt lat="62.631506932854" lon="17.980175125394">
        <ele>93.8</ele>
        <time>2018-01-22T18:33:51Z</time>
      </trkpt>
      <trkpt lat="62.631473069978" lon="17.98018468076">
        <ele>93.8</ele>
        <time>2018-01-22T18:33:52Z</time>
      </trkpt>
      <trkpt lat="62.631452366685" lon="17.980189961357">
        <ele>94</ele>
        <time>2018-01-22T18:33:53Z</time>
      </trkpt>
      <trkpt lat="62.631417246524" lon="17.980186524778">
        <ele>94</ele>
        <time>2018-01-22T18:33:54Z</time>
      </trkpt>
      <trkpt lat="62.631389837711" lon="17.980182669104">
        <ele>94</ele>
        <time>2018-01-22T18:33:55Z</time>
      </trkpt>
      <trkpt lat="62.631361590708" lon="17.980180070715">
        <ele>94</ele>
        <time>2018-01-22T18:33:56Z</time>
      </trkpt>
      <trkpt lat="62.631336109732" lon="17.980168419874">
        <ele>94</ele>
        <time>2018-01-22T18:33:57Z</time>
      </trkpt>
      <trkpt lat="62.631312724231" lon="17.980155427929">
        <ele>94</ele>
        <time>2018-01-22T18:33:58Z</time>
      </trkpt>
      <trkpt lat="62.631288249083" lon="17.980139083224">
        <ele>94</ele>
        <time>2018-01-22T18:33:59Z</time>
      </trkpt>
      <trkpt lat="62.631260337356" lon="17.980119385759">
        <ele>94</ele>
        <time>2018-01-22T18:34:00Z</time>
      </trkpt>
      <trkpt lat="62.631240388434" lon="17.980100526484">
        <ele>94</ele>
        <time>2018-01-22T18:34:01Z</time>
      </trkpt>
      <trkpt lat="62.631215410372" lon="17.980072447119">
        <ele>94</ele>
        <time>2018-01-22T18:34:02Z</time>
      </trkpt>
      <trkpt lat="62.631191186681" lon="17.980048307247">
        <ele>94.2</ele>
        <time>2018-01-22T18:34:03Z</time>
      </trkpt>
      <trkpt lat="62.631170651026" lon="17.980020730796">
        <ele>94.2</ele>
        <time>2018-01-22T18:34:04Z</time>
      </trkpt>
      <trkpt lat="62.631146762611" lon="17.980001536245">
        <ele>94.4</ele>
        <time>2018-01-22T18:34:05Z</time>
      </trkpt>
      <trkpt lat="62.631122874196" lon="17.979976893459">
        <ele>94.4</ele>
        <time>2018-01-22T18:34:06Z</time>
      </trkpt>
      <trkpt lat="62.631093537546" lon="17.97996926593">
        <ele>94.4</ele>
        <time>2018-01-22T18:34:07Z</time>
      </trkpt>
      <trkpt lat="62.631066631647" lon="17.979951328664">
        <ele>94.6</ele>
        <time>2018-01-22T18:34:08Z</time>
      </trkpt>
      <trkpt lat="62.631038133187" lon="17.979928948991">
        <ele>94.6</ele>
        <time>2018-01-22T18:34:09Z</time>
      </trkpt>
      <trkpt lat="62.631012568392" lon="17.979911095544">
        <ele>94.6</ele>
        <time>2018-01-22T18:34:10Z</time>
      </trkpt>
      <trkpt lat="62.630986584502" lon="17.979884524921">
        <ele>94.6</ele>
        <time>2018-01-22T18:34:11Z</time>
      </trkpt>
      <trkpt lat="62.630964791562" lon="17.97986113942">
        <ele>94.8</ele>
        <time>2018-01-22T18:34:12Z</time>
      </trkpt>
      <trkpt lat="62.630940819328" lon="17.979852589882">
        <ele>95</ele>
        <time>2018-01-22T18:34:13Z</time>
      </trkpt>
      <trkpt lat="62.630911901773" lon="17.979819984291">
        <ele>95</ele>
        <time>2018-01-22T18:34:14Z</time>
      </trkpt>
      <trkpt lat="62.630893796869" lon="17.979802717577">
        <ele>95.2</ele>
        <time>2018-01-22T18:34:15Z</time>
      </trkpt>
      <trkpt lat="62.630871249558" lon="17.979778912981">
        <ele>95.4</ele>
        <time>2018-01-22T18:34:16Z</time>
      </trkpt>
      <trkpt lat="62.630846355315" lon="17.979759969887">
        <ele>95.4</ele>
        <time>2018-01-22T18:34:17Z</time>
      </trkpt>
      <trkpt lat="62.630825987298" lon="17.979741613526">
        <ele>95.4</ele>
        <time>2018-01-22T18:34:18Z</time>
      </trkpt>
      <trkpt lat="62.630804194358" lon="17.979720994052">
        <ele>95.6</ele>
        <time>2018-01-22T18:34:19Z</time>
      </trkpt>
      <trkpt lat="62.630775276803" lon="17.979702386234">
        <ele>95.6</ele>
        <time>2018-01-22T18:34:20Z</time>
      </trkpt>
      <trkpt lat="62.630742335936" lon="17.979685370977">
        <ele>95.8</ele>
        <time>2018-01-22T18:34:21Z</time>
      </trkpt>
      <trkpt lat="62.630716938779" lon="17.979647233332">
        <ele>95.8</ele>
        <time>2018-01-22T18:34:22Z</time>
      </trkpt>
      <trkpt lat="62.630704030653" lon="17.979633403197">
        <ele>96</ele>
        <time>2018-01-22T18:34:23Z</time>
      </trkpt>
      <trkpt lat="62.630676035107" lon="17.979600043235">
        <ele>96</ele>
        <time>2018-01-22T18:34:24Z</time>
      </trkpt>
      <trkpt lat="62.630654996538" lon="17.979573053517">
        <ele>96</ele>
        <time>2018-01-22T18:34:25Z</time>
      </trkpt>
      <trkpt lat="62.630629180286" lon="17.979548746007">
        <ele>96.2</ele>
        <time>2018-01-22T18:34:26Z</time>
      </trkpt>
      <trkpt lat="62.630605794785" lon="17.979510105448">
        <ele>96.2</ele>
        <time>2018-01-22T18:34:27Z</time>
      </trkpt>
      <trkpt lat="62.630585342949" lon="17.979476829305">
        <ele>96.2</ele>
        <time>2018-01-22T18:34:28Z</time>
      </trkpt>
      <trkpt lat="62.630567154226" lon="17.979450510139">
        <ele>96.2</ele>
        <time>2018-01-22T18:34:29Z</time>
      </trkpt>
      <trkpt lat="62.63053580592" lon="17.979403236223">
        <ele>96.4</ele>
        <time>2018-01-22T18:34:30Z</time>
      </trkpt>
      <trkpt lat="62.630523400708" lon="17.979369289528">
        <ele>96.4</ele>
        <time>2018-01-22T18:34:31Z</time>
      </trkpt>
      <trkpt lat="62.630502613596" lon="17.979329643141">
        <ele>96.6</ele>
        <time>2018-01-22T18:34:32Z</time>
      </trkpt>
      <trkpt lat="62.630482916131" lon="17.97928865565">
        <ele>96.6</ele>
        <time>2018-01-22T18:34:33Z</time>
      </trkpt>
      <trkpt lat="62.630466068512" lon="17.97924590796">
        <ele>96.6</ele>
        <time>2018-01-22T18:34:34Z</time>
      </trkpt>
      <trkpt lat="62.630445868133" lon="17.979198550225">
        <ele>96.6</ele>
        <time>2018-01-22T18:34:35Z</time>
      </trkpt>
      <trkpt lat="62.630427008858" lon="17.9791503543">
        <ele>96.4</ele>
        <time>2018-01-22T18:34:36Z</time>
      </trkpt>
      <trkpt lat="62.630410831791" lon="17.9791168267">
        <ele>96.4</ele>
        <time>2018-01-22T18:34:37Z</time>
      </trkpt>
      <trkpt lat="62.630394570905" lon="17.979075084838">
        <ele>96.4</ele>
        <time>2018-01-22T18:34:38Z</time>
      </trkpt>
      <trkpt lat="62.630374621983" lon="17.979016746814">
        <ele>96.4</ele>
        <time>2018-01-22T18:34:39Z</time>
      </trkpt>
      <trkpt lat="62.630355343613" lon="17.978972574201">
        <ele>96.2</ele>
        <time>2018-01-22T18:34:40Z</time>
      </trkpt>
      <trkpt lat="62.63032206747" lon="17.978925048828">
        <ele>96.2</ele>
        <time>2018-01-22T18:34:41Z</time>
      </trkpt>
      <trkpt lat="62.630305136032" lon="17.978870734116">
        <ele>96</ele>
        <time>2018-01-22T18:34:42Z</time>
      </trkpt>
      <trkpt lat="62.630285270929" lon="17.97883351848">
        <ele>95.8</ele>
        <time>2018-01-22T18:34:43Z</time>
      </trkpt>
      <trkpt lat="62.630263813265" lon="17.978769396945">
        <ele>95.8</ele>
        <time>2018-01-22T18:34:44Z</time>
      </trkpt>
      <trkpt lat="62.630247971474" lon="17.97872120102">
        <ele>95.8</ele>
        <time>2018-01-22T18:34:45Z</time>
      </trkpt>
      <trkpt lat="62.630229950389" lon="17.978665209928">
        <ele>95.6</ele>
        <time>2018-01-22T18:34:46Z</time>
      </trkpt>
      <trkpt lat="62.630213018951" lon="17.97860972175">
        <ele>95.6</ele>
        <time>2018-01-22T18:34:47Z</time>
      </trkpt>
      <trkpt lat="62.630196590427" lon="17.978562364015">
        <ele>95.4</ele>
        <time>2018-01-22T18:34:48Z</time>
      </trkpt>
      <trkpt lat="62.63018041336" lon="17.97850075705">
        <ele>95.4</ele>
        <time>2018-01-22T18:34:49Z</time>
      </trkpt>
      <trkpt lat="62.630159710067" lon="17.978439317723">
        <ele>95.4</ele>
        <time>2018-01-22T18:34:50Z</time>
      </trkpt>
      <trkpt lat="62.63015526766" lon="17.978375196188">
        <ele>95.2</ele>
        <time>2018-01-22T18:34:51Z</time>
      </trkpt>
      <trkpt lat="62.630141102249" lon="17.978310404101">
        <ele>95</ele>
        <time>2018-01-22T18:34:52Z</time>
      </trkpt>
      <trkpt lat="62.63013682748" lon="17.978246953118">
        <ele>95</ele>
        <time>2018-01-22T18:34:53Z</time>
      </trkpt>
      <trkpt lat="62.630129786684" lon="17.978178389176">
        <ele>94.6</ele>
        <time>2018-01-22T18:34:54Z</time>
      </trkpt>
      <trkpt lat="62.630128697037" lon="17.978122649541">
        <ele>94.6</ele>
        <time>2018-01-22T18:34:55Z</time>
      </trkpt>
      <trkpt lat="62.630128110304" lon="17.978056348712">
        <ele>94.2</ele>
        <time>2018-01-22T18:34:56Z</time>
      </trkpt>
      <trkpt lat="62.630124589906" lon="17.977998932697">
        <ele>94.2</ele>
        <time>2018-01-22T18:34:57Z</time>
      </trkpt>
      <trkpt lat="62.630123751716" lon="17.977932715687">
        <ele>94</ele>
        <time>2018-01-22T18:34:58Z</time>
      </trkpt>
      <trkpt lat="62.630127942666" lon="17.977860128433">
        <ele>93.8</ele>
        <time>2018-01-22T18:34:59Z</time>
      </trkpt>
      <trkpt lat="62.630129116132" lon="17.977798772925">
        <ele>93.8</ele>
        <time>2018-01-22T18:35:00Z</time>
      </trkpt>
      <trkpt lat="62.630129702865" lon="17.977735573399">
        <ele>93.6</ele>
        <time>2018-01-22T18:35:01Z</time>
      </trkpt>
      <trkpt lat="62.630133307082" lon="17.97767094895">
        <ele>93.4</ele>
        <time>2018-01-22T18:35:02Z</time>
      </trkpt>
      <trkpt lat="62.630134983462" lon="17.97761395203">
        <ele>93.4</ele>
        <time>2018-01-22T18:35:03Z</time>
      </trkpt>
      <trkpt lat="62.630138084765" lon="17.97754354407">
        <ele>93.2</ele>
        <time>2018-01-22T18:35:04Z</time>
      </trkpt>
      <trkpt lat="62.630141688982" lon="17.977466598228">
        <ele>93.2</ele>
        <time>2018-01-22T18:35:05Z</time>
      </trkpt>
      <trkpt lat="62.630143784457" lon="17.977404236892">
        <ele>93.2</ele>
        <time>2018-01-22T18:35:06Z</time>
      </trkpt>
      <trkpt lat="62.630151663443" lon="17.97733315838">
        <ele>93</ele>
        <time>2018-01-22T18:35:07Z</time>
      </trkpt>
      <trkpt lat="62.630153675099" lon="17.97729208707">
        <ele>92.8</ele>
        <time>2018-01-22T18:35:08Z</time>
      </trkpt>
      <trkpt lat="62.630158955696" lon="17.977217739617">
        <ele>92.8</ele>
        <time>2018-01-22T18:35:09Z</time>
      </trkpt>
      <trkpt lat="62.630163314284" lon="17.977143475983">
        <ele>92.6</ele>
        <time>2018-01-22T18:35:10Z</time>
      </trkpt>
      <trkpt lat="62.630170774175" lon="17.977086898158">
        <ele>92.4</ele>
        <time>2018-01-22T18:35:11Z</time>
      </trkpt>
      <trkpt lat="62.630178150247" lon="17.977014143266">
        <ele>92.4</ele>
        <time>2018-01-22T18:35:12Z</time>
      </trkpt>
      <trkpt lat="62.630184688129" lon="17.976958906545">
        <ele>92.2</ele>
        <time>2018-01-22T18:35:13Z</time>
      </trkpt>
      <trkpt lat="62.630187202699" lon="17.976899646512">
        <ele>92.2</ele>
        <time>2018-01-22T18:35:14Z</time>
      </trkpt>
      <trkpt lat="62.630195836056" lon="17.976829070914">
        <ele>92</ele>
        <time>2018-01-22T18:35:15Z</time>
      </trkpt>
      <trkpt lat="62.630206732526" lon="17.976765536112">
        <ele>92</ele>
        <time>2018-01-22T18:35:16Z</time>
      </trkpt>
      <trkpt lat="62.630212348399" lon="17.976701582215">
        <ele>91.8</ele>
        <time>2018-01-22T18:35:17Z</time>
      </trkpt>
      <trkpt lat="62.63022316105" lon="17.97663662249">
        <ele>91.6</ele>
        <time>2018-01-22T18:35:18Z</time>
      </trkpt>
      <trkpt lat="62.630227603457" lon="17.976577362457">
        <ele>91.6</ele>
        <time>2018-01-22T18:35:19Z</time>
      </trkpt>
      <trkpt lat="62.630231794407" lon="17.97651676132">
        <ele>91.6</ele>
        <time>2018-01-22T18:35:20Z</time>
      </trkpt>
      <trkpt lat="62.630240176307" lon="17.97644467698">
        <ele>91.4</ele>
        <time>2018-01-22T18:35:21Z</time>
      </trkpt>
      <trkpt lat="62.630248055293" lon="17.976384997852">
        <ele>91.4</ele>
        <time>2018-01-22T18:35:22Z</time>
      </trkpt>
      <trkpt lat="62.630257191564" lon="17.976328503846">
        <ele>91.4</ele>
        <time>2018-01-22T18:35:23Z</time>
      </trkpt>
      <trkpt lat="62.63026507055" lon="17.976257341515">
        <ele>91.2</ele>
        <time>2018-01-22T18:35:24Z</time>
      </trkpt>
      <trkpt lat="62.630271189337" lon="17.976202607708">
        <ele>91</ele>
        <time>2018-01-22T18:35:25Z</time>
      </trkpt>
      <trkpt lat="62.63028518711" lon="17.97614376677">
        <ele>90.8</ele>
        <time>2018-01-22T18:35:26Z</time>
      </trkpt>
      <trkpt lat="62.630297592322" lon="17.976089871153">
        <ele>90.6</ele>
        <time>2018-01-22T18:35:27Z</time>
      </trkpt>
      <trkpt lat="62.630310500448" lon="17.976031700767">
        <ele>90.4</ele>
        <time>2018-01-22T18:35:28Z</time>
      </trkpt>
      <trkpt lat="62.630324246764" lon="17.975975122942">
        <ele>90.4</ele>
        <time>2018-01-22T18:35:29Z</time>
      </trkpt>
      <trkpt lat="62.630333299216" lon="17.97591829366">
        <ele>90.2</ele>
        <time>2018-01-22T18:35:30Z</time>
      </trkpt>
      <trkpt lat="62.630350649749" lon="17.975863978948">
        <ele>90.2</ele>
        <time>2018-01-22T18:35:31Z</time>
      </trkpt>
      <trkpt lat="62.630364396065" lon="17.975811508254">
        <ele>90.2</ele>
        <time>2018-01-22T18:35:32Z</time>
      </trkpt>
      <trkpt lat="62.630374538164" lon="17.975767587098">
        <ele>90</ele>
        <time>2018-01-22T18:35:33Z</time>
      </trkpt>
      <trkpt lat="62.630390631412" lon="17.975714697309">
        <ele>90</ele>
        <time>2018-01-22T18:35:34Z</time>
      </trkpt>
      <trkpt lat="62.630407814307" lon="17.975655185819">
        <ele>90</ele>
        <time>2018-01-22T18:35:35Z</time>
      </trkpt>
      <trkpt lat="62.630421979718" lon="17.975609588283">
        <ele>90</ele>
        <time>2018-01-22T18:35:36Z</time>
      </trkpt>
      <trkpt lat="62.630438827337" lon="17.975555441209">
        <ele>90</ele>
        <time>2018-01-22T18:35:37Z</time>
      </trkpt>
      <trkpt lat="62.630453747119" lon="17.975500455945">
        <ele>89.8</ele>
        <time>2018-01-22T18:35:38Z</time>
      </trkpt>
      <trkpt lat="62.630467996349" lon="17.975452092382">
        <ele>89.8</ele>
        <time>2018-01-22T18:35:39Z</time>
      </trkpt>
      <trkpt lat="62.630482580855" lon="17.975398364403">
        <ele>89.6</ele>
        <time>2018-01-22T18:35:40Z</time>
      </trkpt>
      <trkpt lat="62.630495153705" lon="17.975346564261">
        <ele>89.6</ele>
        <time>2018-01-22T18:35:41Z</time>
      </trkpt>
      <trkpt lat="62.63050730746" lon="17.975299374164">
        <ele>89.6</ele>
        <time>2018-01-22T18:35:42Z</time>
      </trkpt>
      <trkpt lat="62.630521053776" lon="17.975249837135">
        <ele>89.4</ele>
        <time>2018-01-22T18:35:43Z</time>
      </trkpt>
      <trkpt lat="62.630536476472" lon="17.975199629554">
        <ele>89.2</ele>
        <time>2018-01-22T18:35:44Z</time>
      </trkpt>
      <trkpt lat="62.630550558064" lon="17.975155121665">
        <ele>89.2</ele>
        <time>2018-01-22T18:35:45Z</time>
      </trkpt>
      <trkpt lat="62.630564052923" lon="17.975102567152">
        <ele>89</ele>
        <time>2018-01-22T18:35:46Z</time>
      </trkpt>
      <trkpt lat="62.630576961049" lon="17.97504825244">
        <ele>88.8</ele>
        <time>2018-01-22T18:35:47Z</time>
      </trkpt>
      <trkpt lat="62.630588779528" lon="17.974998463954">
        <ele>88.8</ele>
        <time>2018-01-22T18:35:48Z</time>
      </trkpt>
      <trkpt lat="62.630604034586" lon="17.974936270256">
        <ele>88.6</ele>
        <time>2018-01-22T18:35:49Z</time>
      </trkpt>
      <trkpt lat="62.630617529445" lon="17.974885392123">
        <ele>88.6</ele>
        <time>2018-01-22T18:35:50Z</time>
      </trkpt>
      <trkpt lat="62.63063135958" lon="17.97483619037">
        <ele>88.4</ele>
        <time>2018-01-22T18:35:51Z</time>
      </trkpt>
      <trkpt lat="62.630646027905" lon="17.974786401884">
        <ele>88.4</ele>
        <time>2018-01-22T18:35:52Z</time>
      </trkpt>
      <trkpt lat="62.630656840556" lon="17.974741893995">
        <ele>88.2</ele>
        <time>2018-01-22T18:35:53Z</time>
      </trkpt>
      <trkpt lat="62.630671676519" lon="17.974690010034">
        <ele>88</ele>
        <time>2018-01-22T18:35:54Z</time>
      </trkpt>
      <trkpt lat="62.630687769767" lon="17.974636952607">
        <ele>88</ele>
        <time>2018-01-22T18:35:55Z</time>
      </trkpt>
      <trkpt lat="62.630699504427" lon="17.974591271252">
        <ele>88</ele>
        <time>2018-01-22T18:35:56Z</time>
      </trkpt>
      <trkpt lat="62.630714088933" lon="17.974545003164">
        <ele>88</ele>
        <time>2018-01-22T18:35:57Z</time>
      </trkpt>
      <trkpt lat="62.630726577964" lon="17.974489766443">
        <ele>87.8</ele>
        <time>2018-01-22T18:35:58Z</time>
      </trkpt>
      <trkpt lat="62.630739402271" lon="17.974442073432">
        <ele>88</ele>
        <time>2018-01-22T18:35:59Z</time>
      </trkpt>
      <trkpt lat="62.630761614306" lon="17.974362948296">
        <ele>87.8</ele>
        <time>2018-01-22T18:36:01Z</time>
      </trkpt>
      <trkpt lat="62.630772510776" lon="17.97432154171">
        <ele>87.8</ele>
        <time>2018-01-22T18:36:02Z</time>
      </trkpt>
      <trkpt lat="62.630786005635" lon="17.974266807903">
        <ele>87.8</ele>
        <time>2018-01-22T18:36:03Z</time>
      </trkpt>
      <trkpt lat="62.63080067396" lon="17.974212493191">
        <ele>87.8</ele>
        <time>2018-01-22T18:36:04Z</time>
      </trkpt>
      <trkpt lat="62.630814252638" lon="17.974161363601">
        <ele>87.8</ele>
        <time>2018-01-22T18:36:05Z</time>
      </trkpt>
      <trkpt lat="62.630828837144" lon="17.97411115602">
        <ele>87.8</ele>
        <time>2018-01-22T18:36:06Z</time>
      </trkpt>
      <trkpt lat="62.630843505469" lon="17.974058769145">
        <ele>87.6</ele>
        <time>2018-01-22T18:36:07Z</time>
      </trkpt>
      <trkpt lat="62.630853563749" lon="17.974021804966">
        <ele>87.6</ele>
        <time>2018-01-22T18:36:08Z</time>
      </trkpt>
      <trkpt lat="62.630870495187" lon="17.973965227141">
        <ele>87.6</ele>
        <time>2018-01-22T18:36:09Z</time>
      </trkpt>
      <trkpt lat="62.630884073865" lon="17.973915941569">
        <ele>87.4</ele>
        <time>2018-01-22T18:36:10Z</time>
      </trkpt>
      <trkpt lat="62.630895640887" lon="17.9738697573">
        <ele>87.4</ele>
        <time>2018-01-22T18:36:11Z</time>
      </trkpt>
      <trkpt lat="62.630901005303" lon="17.973816616054">
        <ele>87.4</ele>
        <time>2018-01-22T18:36:12Z</time>
      </trkpt>
      <trkpt lat="62.630891366118" lon="17.973769258319">
        <ele>87.4</ele>
        <time>2018-01-22T18:36:13Z</time>
      </trkpt>
      <trkpt lat="62.630876362517" lon="17.973724163697">
        <ele>87.6</ele>
        <time>2018-01-22T18:36:14Z</time>
      </trkpt>
      <trkpt lat="62.630859011984" lon="17.97367362084">
        <ele>87.4</ele>
        <time>2018-01-22T18:36:15Z</time>
      </trkpt>
      <trkpt lat="62.630842164365" lon="17.973628107123">
        <ele>87.4</ele>
        <time>2018-01-22T18:36:16Z</time>
      </trkpt>
      <trkpt lat="62.630826574031" lon="17.973584102148">
        <ele>87.4</ele>
        <time>2018-01-22T18:36:17Z</time>
      </trkpt>
      <trkpt lat="62.630810983697" lon="17.97353951044">
        <ele>87.2</ele>
        <time>2018-01-22T18:36:18Z</time>
      </trkpt>
      <trkpt lat="62.630794974268" lon="17.97349089542">
        <ele>87.2</ele>
        <time>2018-01-22T18:36:19Z</time>
      </trkpt>
      <trkpt lat="62.630781227952" lon="17.973452171042">
        <ele>87.2</ele>
        <time>2018-01-22T18:36:20Z</time>
      </trkpt>
      <trkpt lat="62.630761530487" lon="17.973394084475">
        <ele>87.2</ele>
        <time>2018-01-22T18:36:21Z</time>
      </trkpt>
      <trkpt lat="62.630745437239" lon="17.97334588855">
        <ele>87</ele>
        <time>2018-01-22T18:36:22Z</time>
      </trkpt>
      <trkpt lat="62.630730266" lon="17.973304649602">
        <ele>87</ele>
        <time>2018-01-22T18:36:23Z</time>
      </trkpt>
      <trkpt lat="62.630712915467" lon="17.97324698213">
        <ele>87</ele>
        <time>2018-01-22T18:36:24Z</time>
      </trkpt>
      <trkpt lat="62.630699588246" lon="17.973203060974">
        <ele>86.8</ele>
        <time>2018-01-22T18:36:25Z</time>
      </trkpt>
      <trkpt lat="62.630684081731" lon="17.973156289972">
        <ele>86.6</ele>
        <time>2018-01-22T18:36:26Z</time>
      </trkpt>
      <trkpt lat="62.630667820845" lon="17.973106250029">
        <ele>86.8</ele>
        <time>2018-01-22T18:36:27Z</time>
      </trkpt>
      <trkpt lat="62.630654242167" lon="17.973060820131">
        <ele>86.6</ele>
        <time>2018-01-22T18:36:28Z</time>
      </trkpt>
      <trkpt lat="62.630636975453" lon="17.973007595066">
        <ele>86.6</ele>
        <time>2018-01-22T18:36:29Z</time>
      </trkpt>
      <trkpt lat="62.630620295472" lon="17.97295864477">
        <ele>86.4</ele>
        <time>2018-01-22T18:36:30Z</time>
      </trkpt>
      <trkpt lat="62.630606632975" lon="17.972916316175">
        <ele>86.4</ele>
        <time>2018-01-22T18:36:31Z</time>
      </trkpt>
      <trkpt lat="62.630589869175" lon="17.972863761662">
        <ele>86.2</ele>
        <time>2018-01-22T18:36:32Z</time>
      </trkpt>
      <trkpt lat="62.630573859746" lon="17.972819840506">
        <ele>86.2</ele>
        <time>2018-01-22T18:36:33Z</time>
      </trkpt>
      <trkpt lat="62.630557263584" lon="17.972776338445">
        <ele>86.2</ele>
        <time>2018-01-22T18:36:34Z</time>
      </trkpt>
      <trkpt lat="62.630539913051" lon="17.972724286846">
        <ele>86.2</ele>
        <time>2018-01-22T18:36:35Z</time>
      </trkpt>
      <trkpt lat="62.630523149251" lon="17.972673408713">
        <ele>86.2</ele>
        <time>2018-01-22T18:36:36Z</time>
      </trkpt>
      <trkpt lat="62.630507726555" lon="17.972627140625">
        <ele>86.2</ele>
        <time>2018-01-22T18:36:37Z</time>
      </trkpt>
      <trkpt lat="62.630495991895" lon="17.972572490637">
        <ele>86</ele>
        <time>2018-01-22T18:36:38Z</time>
      </trkpt>
      <trkpt lat="62.630483419045" lon="17.972510967491">
        <ele>86</ele>
        <time>2018-01-22T18:36:39Z</time>
      </trkpt>
      <trkpt lat="62.630469924186" lon="17.972464531765">
        <ele>86</ele>
        <time>2018-01-22T18:36:40Z</time>
      </trkpt>
      <trkpt lat="62.630458524802" lon="17.972407534845">
        <ele>85.8</ele>
        <time>2018-01-22T18:36:41Z</time>
      </trkpt>
      <trkpt lat="62.630451316368" lon="17.972354728875">
        <ele>85.8</ele>
        <time>2018-01-22T18:36:42Z</time>
      </trkpt>
      <trkpt lat="62.630444024115" lon="17.972306616769">
        <ele>85.6</ele>
        <time>2018-01-22T18:36:43Z</time>
      </trkpt>
      <trkpt lat="62.630433630559" lon="17.972244003976">
        <ele>85.6</ele>
        <time>2018-01-22T18:36:44Z</time>
      </trkpt>
      <trkpt lat="62.630428349962" lon="17.972188599617">
        <ele>85.4</ele>
        <time>2018-01-22T18:36:45Z</time>
      </trkpt>
      <trkpt lat="62.630420638614" lon="17.972127830842">
        <ele>85.4</ele>
        <time>2018-01-22T18:36:46Z</time>
      </trkpt>
      <trkpt lat="62.630412424352" lon="17.972071253017">
        <ele>85.2</ele>
        <time>2018-01-22T18:36:47Z</time>
      </trkpt>
      <trkpt lat="62.630406054108" lon="17.972024565834">
        <ele>85.2</ele>
        <time>2018-01-22T18:36:48Z</time>
      </trkpt>
      <trkpt lat="62.630399851502" lon="17.97196958057">
        <ele>85.2</ele>
        <time>2018-01-22T18:36:49Z</time>
      </trkpt>
      <trkpt lat="62.630392643068" lon="17.971910571994">
        <ele>85</ele>
        <time>2018-01-22T18:36:50Z</time>
      </trkpt>
      <trkpt lat="62.630384344987" lon="17.971861956974">
        <ele>85</ele>
        <time>2018-01-22T18:36:51Z</time>
      </trkpt>
      <trkpt lat="62.630377471829" lon="17.97180529533">
        <ele>85</ele>
        <time>2018-01-22T18:36:52Z</time>
      </trkpt>
      <trkpt lat="62.630371101585" lon="17.971757183224">
        <ele>84.8</ele>
        <time>2018-01-22T18:36:53Z</time>
      </trkpt>
      <trkpt lat="62.630363893151" lon="17.971697085001">
        <ele>84.8</ele>
        <time>2018-01-22T18:36:54Z</time>
      </trkpt>
      <trkpt lat="62.630357774364" lon="17.971642854108">
        <ele>84.6</ele>
        <time>2018-01-22T18:36:55Z</time>
      </trkpt>
      <trkpt lat="62.630348302817" lon="17.971582169152">
        <ele>84.6</ele>
        <time>2018-01-22T18:36:56Z</time>
      </trkpt>
      <trkpt lat="62.630338579813" lon="17.971528441173">
        <ele>84.6</ele>
        <time>2018-01-22T18:36:57Z</time>
      </trkpt>
      <trkpt lat="62.630332880121" lon="17.971471947167">
        <ele>84.6</ele>
        <time>2018-01-22T18:36:58Z</time>
      </trkpt>
      <trkpt lat="62.630325839325" lon="17.971412435677">
        <ele>84.6</ele>
        <time>2018-01-22T18:36:59Z</time>
      </trkpt>
      <trkpt lat="62.630320307271" lon="17.971355354938">
        <ele>84.8</ele>
        <time>2018-01-22T18:37:00Z</time>
      </trkpt>
      <trkpt lat="62.630317205968" lon="17.971297436009">
        <ele>84.8</ele>
        <time>2018-01-22T18:37:01Z</time>
      </trkpt>
      <trkpt lat="62.630314104665" lon="17.971242366926">
        <ele>84.6</ele>
        <time>2018-01-22T18:37:02Z</time>
      </trkpt>
      <trkpt lat="62.630313434113" lon="17.97119174025">
        <ele>84.6</ele>
        <time>2018-01-22T18:37:03Z</time>
      </trkpt>
      <trkpt lat="62.630314188484" lon="17.971128121629">
        <ele>84.6</ele>
        <time>2018-01-22T18:37:04Z</time>
      </trkpt>
      <trkpt lat="62.630312344466" lon="17.971074142193">
        <ele>84.6</ele>
        <time>2018-01-22T18:37:05Z</time>
      </trkpt>
      <trkpt lat="62.630312931199" lon="17.971016055626">
        <ele>84.4</ele>
        <time>2018-01-22T18:37:06Z</time>
      </trkpt>
      <trkpt lat="62.630315278131" lon="17.970962579104">
        <ele>84.4</ele>
        <time>2018-01-22T18:37:07Z</time>
      </trkpt>
      <trkpt lat="62.630316870692" lon="17.970912036247">
        <ele>84.4</ele>
        <time>2018-01-22T18:37:08Z</time>
      </trkpt>
      <trkpt lat="62.630316116321" lon="17.970847411798">
        <ele>84.4</ele>
        <time>2018-01-22T18:37:09Z</time>
      </trkpt>
      <trkpt lat="62.630313853208" lon="17.970790498697">
        <ele>84.4</ele>
        <time>2018-01-22T18:37:10Z</time>
      </trkpt>
      <trkpt lat="62.6303195529" lon="17.970728807913">
        <ele>84.2</ele>
        <time>2018-01-22T18:37:11Z</time>
      </trkpt>
      <trkpt lat="62.630328102438" lon="17.970664267283">
        <ele>84.2</ele>
        <time>2018-01-22T18:37:12Z</time>
      </trkpt>
      <trkpt lat="62.630336149062" lon="17.970610287847">
        <ele>84.2</ele>
        <time>2018-01-22T18:37:13Z</time>
      </trkpt>
      <trkpt lat="62.630352326129" lon="17.970549519072">
        <ele>84</ele>
        <time>2018-01-22T18:37:14Z</time>
      </trkpt>
      <trkpt lat="62.630375292535" lon="17.970497802749">
        <ele>84</ele>
        <time>2018-01-22T18:37:15Z</time>
      </trkpt>
      <trkpt lat="62.630400941149" lon="17.970449020091">
        <ele>83.8</ele>
        <time>2018-01-22T18:37:16Z</time>
      </trkpt>
      <trkpt lat="62.63042600303" lon="17.970404176926">
        <ele>83.6</ele>
        <time>2018-01-22T18:37:17Z</time>
      </trkpt>
      <trkpt lat="62.630453411843" lon="17.970368050937">
        <ele>83.2</ele>
        <time>2018-01-22T18:37:18Z</time>
      </trkpt>
      <trkpt lat="62.630481072113" lon="17.970333601328">
        <ele>83</ele>
        <time>2018-01-22T18:37:19Z</time>
      </trkpt>
      <trkpt lat="62.630513342428" lon="17.970303342669">
        <ele>82.8</ele>
        <time>2018-01-22T18:37:20Z</time>
      </trkpt>
      <trkpt lat="62.630543768725" lon="17.970275682399">
        <ele>82.4</ele>
        <time>2018-01-22T18:37:21Z</time>
      </trkpt>
      <trkpt lat="62.630568746787" lon="17.970251039613">
        <ele>82.2</ele>
        <time>2018-01-22T18:37:22Z</time>
      </trkpt>
      <trkpt lat="62.630593724849" lon="17.970225810094">
        <ele>82.2</ele>
        <time>2018-01-22T18:37:23Z</time>
      </trkpt>
      <trkpt lat="62.630633119779" lon="17.970212482873">
        <ele>82</ele>
        <time>2018-01-22T18:37:24Z</time>
      </trkpt>
      <trkpt lat="62.63065818166" lon="17.97019932329">
        <ele>81.8</ele>
        <time>2018-01-22T18:37:25Z</time>
      </trkpt>
      <trkpt lat="62.630689529966" lon="17.970183230042">
        <ele>81.8</ele>
        <time>2018-01-22T18:37:26Z</time>
      </trkpt>
      <trkpt lat="62.630716771141" lon="17.970168142622">
        <ele>81.8</ele>
        <time>2018-01-22T18:37:27Z</time>
      </trkpt>
      <trkpt lat="62.630742503574" lon="17.970158754894">
        <ele>81.8</ele>
        <time>2018-01-22T18:37:28Z</time>
      </trkpt>
      <trkpt lat="62.630772091681" lon="17.970150792089">
        <ele>81.6</ele>
        <time>2018-01-22T18:37:29Z</time>
      </trkpt>
      <trkpt lat="62.630798829942" lon="17.970145427673">
        <ele>81.4</ele>
        <time>2018-01-22T18:37:30Z</time>
      </trkpt>
      <trkpt lat="62.630826238755" lon="17.970128663873">
        <ele>81.2</ele>
        <time>2018-01-22T18:37:31Z</time>
      </trkpt>
      <trkpt lat="62.630858006156" lon="17.970113157358">
        <ele>81</ele>
        <time>2018-01-22T18:37:32Z</time>
      </trkpt>
      <trkpt lat="62.630884576779" lon="17.970098824309">
        <ele>80.8</ele>
        <time>2018-01-22T18:37:33Z</time>
      </trkpt>
      <trkpt lat="62.630912823782" lon="17.970080635586">
        <ele>80.6</ele>
        <time>2018-01-22T18:37:34Z</time>
      </trkpt>
      <trkpt lat="62.630938388577" lon="17.970069068564">
        <ele>80.6</ele>
        <time>2018-01-22T18:37:35Z</time>
      </trkpt>
      <trkpt lat="62.630963953372" lon="17.970056914809">
        <ele>80.6</ele>
        <time>2018-01-22T18:37:36Z</time>
      </trkpt>
      <trkpt lat="62.630992200375" lon="17.970044761054">
        <ele>80.6</ele>
        <time>2018-01-22T18:37:37Z</time>
      </trkpt>
      <trkpt lat="62.631049700209" lon="17.970025231227">
        <ele>80.4</ele>
        <time>2018-01-22T18:37:39Z</time>
      </trkpt>
      <trkpt lat="62.63107811485" lon="17.970009137979">
        <ele>80.4</ele>
        <time>2018-01-22T18:37:40Z</time>
      </trkpt>
      <trkpt lat="62.631105439844" lon="17.969997906233">
        <ele>80.2</ele>
        <time>2018-01-22T18:37:41Z</time>
      </trkpt>
      <trkpt lat="62.631130753182" lon="17.96998726122">
        <ele>80.2</ele>
        <time>2018-01-22T18:37:42Z</time>
      </trkpt>
      <trkpt lat="62.631155144511" lon="17.96997636475">
        <ele>80</ele>
        <time>2018-01-22T18:37:43Z</time>
      </trkpt>
      <trkpt lat="62.631184816437" lon="17.969958930398">
        <ele>80</ele>
        <time>2018-01-22T18:37:44Z</time>
      </trkpt>
      <trkpt lat="62.631211051784" lon="17.96994367534">
        <ele>80</ele>
        <time>2018-01-22T18:37:45Z</time>
      </trkpt>
      <trkpt lat="62.631239801701" lon="17.969927917368">
        <ele>79.8</ele>
        <time>2018-01-22T18:37:46Z</time>
      </trkpt>
      <trkpt lat="62.631267294333" lon="17.969912746129">
        <ele>79.8</ele>
        <time>2018-01-22T18:37:47Z</time>
      </trkpt>
      <trkpt lat="62.631291350386" lon="17.969901179107">
        <ele>79.8</ele>
        <time>2018-01-22T18:37:48Z</time>
      </trkpt>
      <trkpt lat="62.631319178294" lon="17.969889528266">
        <ele>79.8</ele>
        <time>2018-01-22T18:37:49Z</time>
      </trkpt>
      <trkpt lat="62.631348179668" lon="17.969874692303">
        <ele>79.6</ele>
        <time>2018-01-22T18:37:50Z</time>
      </trkpt>
      <trkpt lat="62.631375923757" lon="17.969858515236">
        <ele>79.6</ele>
        <time>2018-01-22T18:37:51Z</time>
      </trkpt>
      <trkpt lat="62.631403667846" lon="17.969844936558">
        <ele>79.6</ele>
        <time>2018-01-22T18:37:52Z</time>
      </trkpt>
      <trkpt lat="62.631425460786" lon="17.969831609337">
        <ele>79.6</ele>
        <time>2018-01-22T18:37:53Z</time>
      </trkpt>
      <trkpt lat="62.631452869599" lon="17.969813001519">
        <ele>79.6</ele>
        <time>2018-01-22T18:37:54Z</time>
      </trkpt>
      <trkpt lat="62.631477512385" lon="17.969800847764">
        <ele>79.6</ele>
        <time>2018-01-22T18:37:55Z</time>
      </trkpt>
      <trkpt lat="62.631504334465" lon="17.969786598534">
        <ele>79.6</ele>
        <time>2018-01-22T18:37:56Z</time>
      </trkpt>
      <trkpt lat="62.631529731622" lon="17.969768325992">
        <ele>79.4</ele>
        <time>2018-01-22T18:37:57Z</time>
      </trkpt>
      <trkpt lat="62.631555212598" lon="17.969751981287">
        <ele>79.4</ele>
        <time>2018-01-22T18:37:58Z</time>
      </trkpt>
      <trkpt lat="62.631584130153" lon="17.969736307134">
        <ele>79.4</ele>
        <time>2018-01-22T18:37:59Z</time>
      </trkpt>
      <trkpt lat="62.631608772939" lon="17.969724153379">
        <ele>79.4</ele>
        <time>2018-01-22T18:38:00Z</time>
      </trkpt>
      <trkpt lat="62.631650933896" lon="17.969697582756">
        <ele>79.4</ele>
        <time>2018-01-22T18:38:01Z</time>
      </trkpt>
      <trkpt lat="62.631663674384" lon="17.969685009906">
        <ele>79.2</ele>
        <time>2018-01-22T18:38:02Z</time>
      </trkpt>
      <trkpt lat="62.63169586088" lon="17.969653577781">
        <ele>79.2</ele>
        <time>2018-01-22T18:38:03Z</time>
      </trkpt>
      <trkpt lat="62.631723437331" lon="17.969619966362">
        <ele>79.2</ele>
        <time>2018-01-22T18:38:04Z</time>
      </trkpt>
      <trkpt lat="62.631745230271" lon="17.969584594744">
        <ele>79.2</ele>
        <time>2018-01-22T18:38:05Z</time>
      </trkpt>
      <trkpt lat="62.631770040695" lon="17.969556850655">
        <ele>79</ele>
        <time>2018-01-22T18:38:06Z</time>
      </trkpt>
      <trkpt lat="62.63179644368" lon="17.969529358023">
        <ele>78.8</ele>
        <time>2018-01-22T18:38:07Z</time>
      </trkpt>
      <trkpt lat="62.631818571896" lon="17.969512594223">
        <ele>78.8</ele>
        <time>2018-01-22T18:38:08Z</time>
      </trkpt>
      <trkpt lat="62.631850255478" lon="17.969502955038">
        <ele>78.6</ele>
        <time>2018-01-22T18:38:09Z</time>
      </trkpt>
      <trkpt lat="62.631876658463" lon="17.969509995834">
        <ele>78.6</ele>
        <time>2018-01-22T18:38:10Z</time>
      </trkpt>
      <trkpt lat="62.631900043964" lon="17.969515024974">
        <ele>78.4</ele>
        <time>2018-01-22T18:38:11Z</time>
      </trkpt>
      <trkpt lat="62.631930470261" lon="17.969518042458">
        <ele>78.4</ele>
        <time>2018-01-22T18:38:12Z</time>
      </trkpt>
      <trkpt lat="62.631952766115" lon="17.969519215924">
        <ele>78.4</ele>
        <time>2018-01-22T18:38:13Z</time>
      </trkpt>
      <trkpt lat="62.631982018946" lon="17.969518545372">
        <ele>78.6</ele>
        <time>2018-01-22T18:38:14Z</time>
      </trkpt>
      <trkpt lat="62.632011104139" lon="17.969515779345">
        <ele>78.8</ele>
        <time>2018-01-22T18:38:15Z</time>
      </trkpt>
      <trkpt lat="62.632036668934" lon="17.969513600051">
        <ele>78.8</ele>
        <time>2018-01-22T18:38:16Z</time>
      </trkpt>
      <trkpt lat="62.632062820462" lon="17.969510247291">
        <ele>78.8</ele>
        <time>2018-01-22T18:38:17Z</time>
      </trkpt>
      <trkpt lat="62.632087547067" lon="17.969502619762">
        <ele>79</ele>
        <time>2018-01-22T18:38:18Z</time>
      </trkpt>
      <trkpt lat="62.632110345835" lon="17.969490633645">
        <ele>79</ele>
        <time>2018-01-22T18:38:19Z</time>
      </trkpt>
      <trkpt lat="62.632139682485" lon="17.969487951437">
        <ele>79</ele>
        <time>2018-01-22T18:38:20Z</time>
      </trkpt>
      <trkpt lat="62.632167929488" lon="17.969487029428">
        <ele>79.2</ele>
        <time>2018-01-22T18:38:21Z</time>
      </trkpt>
      <trkpt lat="62.632191063532" lon="17.969481329736">
        <ele>79</ele>
        <time>2018-01-22T18:38:22Z</time>
      </trkpt>
      <trkpt lat="62.632214616671" lon="17.96947680351">
        <ele>79</ele>
        <time>2018-01-22T18:38:23Z</time>
      </trkpt>
      <trkpt lat="62.63224236076" lon="17.969473031655">
        <ele>79</ele>
        <time>2018-01-22T18:38:24Z</time>
      </trkpt>
      <trkpt lat="62.632265410985" lon="17.969466577592">
        <ele>79</ele>
        <time>2018-01-22T18:38:25Z</time>
      </trkpt>
      <trkpt lat="62.632295502006" lon="17.969466577592">
        <ele>79</ele>
        <time>2018-01-22T18:38:26Z</time>
      </trkpt>
      <trkpt lat="62.632319809516" lon="17.969460291167">
        <ele>78.8</ele>
        <time>2018-01-22T18:38:27Z</time>
      </trkpt>
      <trkpt lat="62.632342692103" lon="17.969458530968">
        <ele>79</ele>
        <time>2018-01-22T18:38:28Z</time>
      </trkpt>
      <trkpt lat="62.632372447848" lon="17.969454088561">
        <ele>79</ele>
        <time>2018-01-22T18:38:29Z</time>
      </trkpt>
      <trkpt lat="62.632394324607" lon="17.969454591475">
        <ele>79</ele>
        <time>2018-01-22T18:38:30Z</time>
      </trkpt>
      <trkpt lat="62.632422403972" lon="17.969451490172">
        <ele>79</ele>
        <time>2018-01-22T18:38:31Z</time>
      </trkpt>
      <trkpt lat="62.632452327355" lon="17.969457189864">
        <ele>79</ele>
        <time>2018-01-22T18:38:32Z</time>
      </trkpt>
      <trkpt lat="62.632475461399" lon="17.969456770769">
        <ele>79</ele>
        <time>2018-01-22T18:38:33Z</time>
      </trkpt>
      <trkpt lat="62.632505384782" lon="17.969459788253">
        <ele>79</ele>
        <time>2018-01-22T18:38:34Z</time>
      </trkpt>
      <trkpt lat="62.632531368672" lon="17.969464565936">
        <ele>79</ele>
        <time>2018-01-22T18:38:35Z</time>
      </trkpt>
      <trkpt lat="62.632555173268" lon="17.969463224832">
        <ele>79</ele>
        <time>2018-01-22T18:38:36Z</time>
      </trkpt>
      <trkpt lat="62.632582330624" lon="17.969473366931">
        <ele>78.8</ele>
        <time>2018-01-22T18:38:37Z</time>
      </trkpt>
      <trkpt lat="62.632607392505" lon="17.969476384415">
        <ele>78.8</ele>
        <time>2018-01-22T18:38:38Z</time>
      </trkpt>
      <trkpt lat="62.632633208757" lon="17.969479150442">
        <ele>79</ele>
        <time>2018-01-22T18:38:39Z</time>
      </trkpt>
      <trkpt lat="62.632662042493" lon="17.969484514858">
        <ele>79</ele>
        <time>2018-01-22T18:38:40Z</time>
      </trkpt>
      <trkpt lat="62.632686769098" lon="17.96948267084">
        <ele>79</ele>
        <time>2018-01-22T18:38:41Z</time>
      </trkpt>
      <trkpt lat="62.632715519015" lon="17.969481413555">
        <ele>79</ele>
        <time>2018-01-22T18:38:42Z</time>
      </trkpt>
      <trkpt lat="62.632739155973" lon="17.969488957265">
        <ele>79</ele>
        <time>2018-01-22T18:38:43Z</time>
      </trkpt>
      <trkpt lat="62.632764720768" lon="17.969495411328">
        <ele>79</ele>
        <time>2018-01-22T18:38:44Z</time>
      </trkpt>
      <trkpt lat="62.632789782649" lon="17.969496417156">
        <ele>79</ele>
        <time>2018-01-22T18:38:45Z</time>
      </trkpt>
      <trkpt lat="62.63281568272" lon="17.969505385789">
        <ele>79</ele>
        <time>2018-01-22T18:38:46Z</time>
      </trkpt>
      <trkpt lat="62.632835296366" lon="17.969507313626">
        <ele>79</ele>
        <time>2018-01-22T18:38:47Z</time>
      </trkpt>
      <trkpt lat="62.632857676039" lon="17.969515024974">
        <ele>79.2</ele>
        <time>2018-01-22T18:38:48Z</time>
      </trkpt>
      <trkpt lat="62.632884833395" lon="17.969521730494">
        <ele>79.2</ele>
        <time>2018-01-22T18:38:49Z</time>
      </trkpt>
      <trkpt lat="62.632906626335" lon="17.969524831797">
        <ele>79.4</ele>
        <time>2018-01-22T18:38:50Z</time>
      </trkpt>
      <trkpt lat="62.632930933845" lon="17.969523574512">
        <ele>79.2</ele>
        <time>2018-01-22T18:38:51Z</time>
      </trkpt>
      <trkpt lat="62.632955995726" lon="17.969537739923">
        <ele>79.4</ele>
        <time>2018-01-22T18:38:52Z</time>
      </trkpt>
      <trkpt lat="62.632976196105" lon="17.969536901733">
        <ele>79.6</ele>
        <time>2018-01-22T18:38:53Z</time>
      </trkpt>
      <trkpt lat="62.633004610746" lon="17.969545618909">
        <ele>79.6</ele>
        <time>2018-01-22T18:38:54Z</time>
      </trkpt>
      <trkpt lat="62.633030007903" lon="17.9695530788">
        <ele>79.8</ele>
        <time>2018-01-22T18:38:55Z</time>
      </trkpt>
      <trkpt lat="62.633082059502" lon="17.969562215071">
        <ele>80</ele>
        <time>2018-01-22T18:38:57Z</time>
      </trkpt>
      <trkpt lat="62.633105277365" lon="17.969565735469">
        <ele>80</ele>
        <time>2018-01-22T18:38:58Z</time>
      </trkpt>
      <trkpt lat="62.633131847988" lon="17.969565986926">
        <ele>80</ele>
        <time>2018-01-22T18:38:59Z</time>
      </trkpt>
      <trkpt lat="62.633158334792" lon="17.969577889224">
        <ele>80</ele>
        <time>2018-01-22T18:39:00Z</time>
      </trkpt>
      <trkpt lat="62.633165794683" lon="17.969582331631">
        <ele>80</ele>
        <time>2018-01-22T18:39:01Z</time>
      </trkpt>
      <trkpt lat="62.633202423586" lon="17.969600520354">
        <ele>80</ele>
        <time>2018-01-22T18:39:02Z</time>
      </trkpt>
      <trkpt lat="62.633233352797" lon="17.969620804552">
        <ele>80</ele>
        <time>2018-01-22T18:39:03Z</time>
      </trkpt>
      <trkpt lat="62.633257827945" lon="17.969636311067">
        <ele>80</ele>
        <time>2018-01-22T18:39:04Z</time>
      </trkpt>
      <trkpt lat="62.633280710532" lon="17.969651566125">
        <ele>80</ele>
        <time>2018-01-22T18:39:05Z</time>
      </trkpt>
      <trkpt lat="62.633305353318" lon="17.969681740965">
        <ele>80.2</ele>
        <time>2018-01-22T18:39:06Z</time>
      </trkpt>
      <trkpt lat="62.633326894801" lon="17.969714262737">
        <ele>80.2</ele>
        <time>2018-01-22T18:39:07Z</time>
      </trkpt>
      <trkpt lat="62.633345921714" lon="17.96975005345">
        <ele>80.2</ele>
        <time>2018-01-22T18:39:08Z</time>
      </trkpt>
      <trkpt lat="62.633364110437" lon="17.969799758117">
        <ele>80.2</ele>
        <time>2018-01-22T18:39:09Z</time>
      </trkpt>
      <trkpt lat="62.633376850925" lon="17.969847786404">
        <ele>80.2</ele>
        <time>2018-01-22T18:39:10Z</time>
      </trkpt>
      <trkpt lat="62.633384981368" lon="17.969911656482">
        <ele>80.2</ele>
        <time>2018-01-22T18:39:11Z</time>
      </trkpt>
      <trkpt lat="62.63339068106" lon="17.969968485764">
        <ele>80.4</ele>
        <time>2018-01-22T18:39:12Z</time>
      </trkpt>
      <trkpt lat="62.633391938345" lon="17.970019280078">
        <ele>80.4</ele>
        <time>2018-01-22T18:39:13Z</time>
      </trkpt>
      <trkpt lat="62.633394788191" lon="17.970084658898">
        <ele>80.6</ele>
        <time>2018-01-22T18:39:14Z</time>
      </trkpt>
      <trkpt lat="62.633400487883" lon="17.970126652217">
        <ele>80.6</ele>
        <time>2018-01-22T18:39:15Z</time>
      </trkpt>
      <trkpt lat="62.633406690489" lon="17.970187337173">
        <ele>80.8</ele>
        <time>2018-01-22T18:39:16Z</time>
      </trkpt>
      <trkpt lat="62.633408785964" lon="17.970243831179">
        <ele>81</ele>
        <time>2018-01-22T18:39:17Z</time>
      </trkpt>
      <trkpt lat="62.63341163581" lon="17.97029152419">
        <ele>81.2</ele>
        <time>2018-01-22T18:39:18Z</time>
      </trkpt>
      <trkpt lat="62.633415072389" lon="17.970347263825">
        <ele>81.2</ele>
        <time>2018-01-22T18:39:19Z</time>
      </trkpt>
      <trkpt lat="62.633420520624" lon="17.970400069795">
        <ele>81.4</ele>
        <time>2018-01-22T18:39:20Z</time>
      </trkpt>
      <trkpt lat="62.633423035194" lon="17.970454300688">
        <ele>81.6</ele>
        <time>2018-01-22T18:39:21Z</time>
      </trkpt>
      <trkpt lat="62.633423286651" lon="17.970511046151">
        <ele>81.6</ele>
        <time>2018-01-22T18:39:22Z</time>
      </trkpt>
      <trkpt lat="62.633427226144" lon="17.970555470221">
        <ele>81.6</ele>
        <time>2018-01-22T18:39:23Z</time>
      </trkpt>
      <trkpt lat="62.63343426694" lon="17.970614562616">
        <ele>81.8</ele>
        <time>2018-01-22T18:39:24Z</time>
      </trkpt>
      <trkpt lat="62.633434686035" lon="17.970667284767">
        <ele>81.8</ele>
        <time>2018-01-22T18:39:25Z</time>
      </trkpt>
      <trkpt lat="62.6334376197" lon="17.9707181629">
        <ele>82</ele>
        <time>2018-01-22T18:39:26Z</time>
      </trkpt>
      <trkpt lat="62.633437703519" lon="17.970774908363">
        <ele>82.2</ele>
        <time>2018-01-22T18:39:27Z</time>
      </trkpt>
      <trkpt lat="62.633438206433" lon="17.970823858659">
        <ele>82.2</ele>
        <time>2018-01-22T18:39:28Z</time>
      </trkpt>
      <trkpt lat="62.633439631356" lon="17.97087490443">
        <ele>82.2</ele>
        <time>2018-01-22T18:39:29Z</time>
      </trkpt>
      <trkpt lat="62.633439547537" lon="17.970931733712">
        <ele>82.2</ele>
        <time>2018-01-22T18:39:30Z</time>
      </trkpt>
      <trkpt lat="62.633439966632" lon="17.97098135456">
        <ele>82.4</ele>
        <time>2018-01-22T18:39:31Z</time>
      </trkpt>
      <trkpt lat="62.633439463718" lon="17.971038770575">
        <ele>82.4</ele>
        <time>2018-01-22T18:39:32Z</time>
      </trkpt>
      <trkpt lat="62.633438290252" lon="17.971094007296">
        <ele>82.6</ele>
        <time>2018-01-22T18:39:33Z</time>
      </trkpt>
      <trkpt lat="62.6334376197" lon="17.97114647799">
        <ele>82.6</ele>
        <time>2018-01-22T18:39:34Z</time>
      </trkpt>
      <trkpt lat="62.63343845789" lon="17.971204732195">
        <ele>82.8</ele>
        <time>2018-01-22T18:39:35Z</time>
      </trkpt>
      <trkpt lat="62.633435691863" lon="17.971263154038">
        <ele>82.8</ele>
        <time>2018-01-22T18:39:36Z</time>
      </trkpt>
      <trkpt lat="62.63343342875" lon="17.971310595592">
        <ele>83</ele>
        <time>2018-01-22T18:39:37Z</time>
      </trkpt>
      <trkpt lat="62.633431500913" lon="17.971368514521">
        <ele>83</ele>
        <time>2018-01-22T18:39:38Z</time>
      </trkpt>
      <trkpt lat="62.63342672323" lon="17.971428612744">
        <ele>83.2</ele>
        <time>2018-01-22T18:39:39Z</time>
      </trkpt>
      <trkpt lat="62.633427896696" lon="17.97148259218">
        <ele>83.2</ele>
        <time>2018-01-22T18:39:40Z</time>
      </trkpt>
      <trkpt lat="62.63342504685" lon="17.971543947688">
        <ele>83.4</ele>
        <time>2018-01-22T18:39:41Z</time>
      </trkpt>
      <trkpt lat="62.633419850072" lon="17.971595831649">
        <ele>83.4</ele>
        <time>2018-01-22T18:39:42Z</time>
      </trkpt>
      <trkpt lat="62.633417167864" lon="17.971641345366">
        <ele>83.6</ele>
        <time>2018-01-22T18:39:43Z</time>
      </trkpt>
      <trkpt lat="62.633412306362" lon="17.971704293435">
        <ele>83.6</ele>
        <time>2018-01-22T18:39:44Z</time>
      </trkpt>
      <trkpt lat="62.633408534507" lon="17.971753914283">
        <ele>83.6</ele>
        <time>2018-01-22T18:39:45Z</time>
      </trkpt>
      <trkpt lat="62.633403421548" lon="17.971814347782">
        <ele>83.8</ele>
        <time>2018-01-22T18:39:46Z</time>
      </trkpt>
      <trkpt lat="62.633395961657" lon="17.971870003598">
        <ele>83.8</ele>
        <time>2018-01-22T18:39:47Z</time>
      </trkpt>
      <trkpt lat="62.633392860354" lon="17.971923228663">
        <ele>83.8</ele>
        <time>2018-01-22T18:39:48Z</time>
      </trkpt>
      <trkpt lat="62.633387160662" lon="17.971977208099">
        <ele>84</ele>
        <time>2018-01-22T18:39:49Z</time>
      </trkpt>
      <trkpt lat="62.633379868409" lon="17.972030181707">
        <ele>84</ele>
        <time>2018-01-22T18:39:50Z</time>
      </trkpt>
      <trkpt lat="62.633373414346" lon="17.972081814211">
        <ele>84</ele>
        <time>2018-01-22T18:39:51Z</time>
      </trkpt>
      <trkpt lat="62.633365786817" lon="17.972139481683">
        <ele>84</ele>
        <time>2018-01-22T18:39:52Z</time>
      </trkpt>
      <trkpt lat="62.633357069641" lon="17.972184743943">
        <ele>84.2</ele>
        <time>2018-01-22T18:39:53Z</time>
      </trkpt>
      <trkpt lat="62.633350028845" lon="17.972237466094">
        <ele>84.2</ele>
        <time>2018-01-22T18:39:54Z</time>
      </trkpt>
      <trkpt lat="62.633343071868" lon="17.972288679503">
        <ele>84.4</ele>
        <time>2018-01-22T18:39:55Z</time>
      </trkpt>
      <trkpt lat="62.63333536052" lon="17.972341569292">
        <ele>84.4</ele>
        <time>2018-01-22T18:39:56Z</time>
      </trkpt>
      <trkpt lat="62.633327397715" lon="17.972389849036">
        <ele>84.6</ele>
        <time>2018-01-22T18:39:57Z</time>
      </trkpt>
      <trkpt lat="62.633317926168" lon="17.972438547875">
        <ele>84.8</ele>
        <time>2018-01-22T18:39:58Z</time>
      </trkpt>
      <trkpt lat="62.633309963363" lon="17.972483977773">
        <ele>85</ele>
        <time>2018-01-22T18:39:59Z</time>
      </trkpt>
      <trkpt lat="62.633299150712" lon="17.972531000232">
        <ele>85</ele>
        <time>2018-01-22T18:40:00Z</time>
      </trkpt>
      <trkpt lat="62.633290182079" lon="17.972581207813">
        <ele>85.2</ele>
        <time>2018-01-22T18:40:01Z</time>
      </trkpt>
      <trkpt lat="62.633280291437" lon="17.972633846145">
        <ele>85.2</ele>
        <time>2018-01-22T18:40:02Z</time>
      </trkpt>
      <trkpt lat="62.633268808234" lon="17.972682712622">
        <ele>85.2</ele>
        <time>2018-01-22T18:40:03Z</time>
      </trkpt>
      <trkpt lat="62.633260174877" lon="17.972737278791">
        <ele>85.4</ele>
        <time>2018-01-22T18:40:04Z</time>
      </trkpt>
      <trkpt lat="62.633249110769" lon="17.972782960146">
        <ele>85.4</ele>
        <time>2018-01-22T18:40:05Z</time>
      </trkpt>
      <trkpt lat="62.633238465756" lon="17.972836855763">
        <ele>85.4</ele>
        <time>2018-01-22T18:40:06Z</time>
      </trkpt>
      <trkpt lat="62.633229245666" lon="17.972880609281">
        <ele>85.6</ele>
        <time>2018-01-22T18:40:07Z</time>
      </trkpt>
      <trkpt lat="62.633216086083" lon="17.972926961188">
        <ele>85.6</ele>
        <time>2018-01-22T18:40:08Z</time>
      </trkpt>
      <trkpt lat="62.633203010319" lon="17.972979934796">
        <ele>85.6</ele>
        <time>2018-01-22T18:40:09Z</time>
      </trkpt>
      <trkpt lat="62.63319370641" lon="17.973027460169">
        <ele>85.8</ele>
        <time>2018-01-22T18:40:10Z</time>
      </trkpt>
      <trkpt lat="62.633181887931" lon="17.973082277795">
        <ele>85.8</ele>
        <time>2018-01-22T18:40:11Z</time>
      </trkpt>
      <trkpt lat="62.633173422212" lon="17.973129048797">
        <ele>85.8</ele>
        <time>2018-01-22T18:40:12Z</time>
      </trkpt>
      <trkpt lat="62.633164705036" lon="17.973172215582">
        <ele>85.8</ele>
        <time>2018-01-22T18:40:13Z</time>
      </trkpt>
      <trkpt lat="62.633151545453" lon="17.973226195018">
        <ele>86</ele>
        <time>2018-01-22T18:40:14Z</time>
      </trkpt>
      <trkpt lat="62.633142325363" lon="17.973269948536">
        <ele>86.2</ele>
        <time>2018-01-22T18:40:15Z</time>
      </trkpt>
      <trkpt lat="62.633130339246" lon="17.973314456425">
        <ele>86.2</ele>
        <time>2018-01-22T18:40:16Z</time>
      </trkpt>
      <trkpt lat="62.633118101672" lon="17.973366256567">
        <ele>86.2</ele>
        <time>2018-01-22T18:40:17Z</time>
      </trkpt>
      <trkpt lat="62.633109384496" lon="17.9734087528">
        <ele>86.2</ele>
        <time>2018-01-22T18:40:18Z</time>
      </trkpt>
      <trkpt lat="62.633101002596" lon="17.973463989521">
        <ele>86.4</ele>
        <time>2018-01-22T18:40:19Z</time>
      </trkpt>
      <trkpt lat="62.633086837185" lon="17.973515286749">
        <ele>86.4</ele>
        <time>2018-01-22T18:40:20Z</time>
      </trkpt>
      <trkpt lat="62.633077114181" lon="17.97355627424">
        <ele>86.4</ele>
        <time>2018-01-22T18:40:21Z</time>
      </trkpt>
      <trkpt lat="62.633068313186" lon="17.973607236192">
        <ele>86.6</ele>
        <time>2018-01-22T18:40:22Z</time>
      </trkpt>
      <trkpt lat="62.633055740336" lon="17.973651073529">
        <ele>86.8</ele>
        <time>2018-01-22T18:40:23Z</time>
      </trkpt>
      <trkpt lat="62.633045598237" lon="17.973698515083">
        <ele>86.8</ele>
        <time>2018-01-22T18:40:24Z</time>
      </trkpt>
      <trkpt lat="62.633033695939" lon="17.973748638845">
        <ele>86.8</ele>
        <time>2018-01-22T18:40:25Z</time>
      </trkpt>
      <trkpt lat="62.633021793641" lon="17.973797170046">
        <ele>87</ele>
        <time>2018-01-22T18:40:26Z</time>
      </trkpt>
      <trkpt lat="62.633010058981" lon="17.973843521953">
        <ele>87.2</ele>
        <time>2018-01-22T18:40:27Z</time>
      </trkpt>
      <trkpt lat="62.632997821407" lon="17.973894819181">
        <ele>87.2</ele>
        <time>2018-01-22T18:40:28Z</time>
      </trkpt>
      <trkpt lat="62.632988098403" lon="17.97394267983">
        <ele>87.2</ele>
        <time>2018-01-22T18:40:29Z</time>
      </trkpt>
      <trkpt lat="62.632976699019" lon="17.973991462488">
        <ele>87.4</ele>
        <time>2018-01-22T18:40:30Z</time>
      </trkpt>
      <trkpt lat="62.63296404235" lon="17.974042172983">
        <ele>87.4</ele>
        <time>2018-01-22T18:40:31Z</time>
      </trkpt>
      <trkpt lat="62.632952559147" lon="17.9740876867">
        <ele>87.4</ele>
        <time>2018-01-22T18:40:32Z</time>
      </trkpt>
      <trkpt lat="62.632940321573" lon="17.974134960616">
        <ele>87.4</ele>
        <time>2018-01-22T18:40:33Z</time>
      </trkpt>
      <trkpt lat="62.632926910533" lon="17.97418575493">
        <ele>87.4</ele>
        <time>2018-01-22T18:40:34Z</time>
      </trkpt>
      <trkpt lat="62.632915511149" lon="17.97423353176">
        <ele>87.4</ele>
        <time>2018-01-22T18:40:35Z</time>
      </trkpt>
      <trkpt lat="62.632900759005" lon="17.974283487884">
        <ele>87.4</ele>
        <time>2018-01-22T18:40:36Z</time>
      </trkpt>
      <trkpt lat="62.632890030173" lon="17.974326989945">
        <ele>87.4</ele>
        <time>2018-01-22T18:40:37Z</time>
      </trkpt>
      <trkpt lat="62.63287854697" lon="17.974378957725">
        <ele>87.6</ele>
        <time>2018-01-22T18:40:38Z</time>
      </trkpt>
      <trkpt lat="62.632862034627" lon="17.974438720672">
        <ele>87.6</ele>
        <time>2018-01-22T18:40:39Z</time>
      </trkpt>
      <trkpt lat="62.632851473433" lon="17.974486329864">
        <ele>87.8</ele>
        <time>2018-01-22T18:40:40Z</time>
      </trkpt>
      <trkpt lat="62.632839906411" lon="17.974532933228">
        <ele>87.8</ele>
        <time>2018-01-22T18:40:41Z</time>
      </trkpt>
      <trkpt lat="62.632827836475" lon="17.974587667035">
        <ele>87.8</ele>
        <time>2018-01-22T18:40:42Z</time>
      </trkpt>
      <trkpt lat="62.6328173591" lon="17.974628905983">
        <ele>87.8</ele>
        <time>2018-01-22T18:40:43Z</time>
      </trkpt>
      <trkpt lat="62.632802523137" lon="17.974682633962">
        <ele>87.8</ele>
        <time>2018-01-22T18:40:44Z</time>
      </trkpt>
      <trkpt lat="62.632790956115" lon="17.974726303661">
        <ele>87.8</ele>
        <time>2018-01-22T18:40:45Z</time>
      </trkpt>
      <trkpt lat="62.632781903663" lon="17.974779780183">
        <ele>88</ele>
        <time>2018-01-22T18:40:46Z</time>
      </trkpt>
      <trkpt lat="62.632768324985" lon="17.974833591981">
        <ele>88</ele>
        <time>2018-01-22T18:40:47Z</time>
      </trkpt>
      <trkpt lat="62.632757344696" lon="17.97487726168">
        <ele>88</ele>
        <time>2018-01-22T18:40:48Z</time>
      </trkpt>
      <trkpt lat="62.632745358579" lon="17.974922272483">
        <ele>88.2</ele>
        <time>2018-01-22T18:40:49Z</time>
      </trkpt>
      <trkpt lat="62.632732785729" lon="17.97498203543">
        <ele>88.2</ele>
        <time>2018-01-22T18:40:50Z</time>
      </trkpt>
      <trkpt lat="62.632723314182" lon="17.975026962414">
        <ele>88.2</ele>
        <time>2018-01-22T18:40:51Z</time>
      </trkpt>
      <trkpt lat="62.632712082436" lon="17.975074739244">
        <ele>88.2</ele>
        <time>2018-01-22T18:40:52Z</time>
      </trkpt>
      <trkpt lat="62.632699928681" lon="17.975121007332">
        <ele>88.2</ele>
        <time>2018-01-22T18:40:53Z</time>
      </trkpt>
      <trkpt lat="62.632689367487" lon="17.975169370895">
        <ele>88.4</ele>
        <time>2018-01-22T18:40:54Z</time>
      </trkpt>
      <trkpt lat="62.632679393026" lon="17.975219746114">
        <ele>88.4</ele>
        <time>2018-01-22T18:40:55Z</time>
      </trkpt>
      <trkpt lat="62.632665059977" lon="17.975273641731">
        <ele>88.4</ele>
        <time>2018-01-22T18:40:56Z</time>
      </trkpt>
      <trkpt lat="62.632656175163" lon="17.975320412733">
        <ele>88.4</ele>
        <time>2018-01-22T18:40:57Z</time>
      </trkpt>
      <trkpt lat="62.632643686132" lon="17.97536508826">
        <ele>88.4</ele>
        <time>2018-01-22T18:40:58Z</time>
      </trkpt>
      <trkpt lat="62.632629772178" lon="17.975422168999">
        <ele>88.6</ele>
        <time>2018-01-22T18:40:59Z</time>
      </trkpt>
      <trkpt lat="62.632620803545" lon="17.975470951657">
        <ele>88.6</ele>
        <time>2018-01-22T18:41:00Z</time>
      </trkpt>
      <trkpt lat="62.632610158532" lon="17.975520907781">
        <ele>88.6</ele>
        <time>2018-01-22T18:41:01Z</time>
      </trkpt>
      <trkpt lat="62.632594819655" lon="17.975571534457">
        <ele>88.6</ele>
        <time>2018-01-22T18:41:02Z</time>
      </trkpt>
      <trkpt lat="62.632586437755" lon="17.975614114509">
        <ele>88.6</ele>
        <time>2018-01-22T18:41:03Z</time>
      </trkpt>
      <trkpt lat="62.632575289828" lon="17.975669183592">
        <ele>88.8</ele>
        <time>2018-01-22T18:41:04Z</time>
      </trkpt>
      <trkpt lat="62.632563136073" lon="17.975718469164">
        <ele>88.8</ele>
        <time>2018-01-22T18:41:05Z</time>
      </trkpt>
      <trkpt lat="62.632553413069" lon="17.975760630121">
        <ele>88.8</ele>
        <time>2018-01-22T18:41:06Z</time>
      </trkpt>
      <trkpt lat="62.632544863531" lon="17.975812765539">
        <ele>88.8</ele>
        <time>2018-01-22T18:41:07Z</time>
      </trkpt>
      <trkpt lat="62.632535811079" lon="17.975859536541">
        <ele>88.8</ele>
        <time>2018-01-22T18:41:08Z</time>
      </trkpt>
      <trkpt lat="62.632524579333" lon="17.975916365823">
        <ele>88.8</ele>
        <time>2018-01-22T18:41:09Z</time>
      </trkpt>
      <trkpt lat="62.63251141975" lon="17.975958023866">
        <ele>88.8</ele>
        <time>2018-01-22T18:41:10Z</time>
      </trkpt>
      <trkpt lat="62.632493733941" lon="17.975999178995">
        <ele>89</ele>
        <time>2018-01-22T18:41:11Z</time>
      </trkpt>
      <trkpt lat="62.632484513851" lon="17.976054415716">
        <ele>88.8</ele>
        <time>2018-01-22T18:41:12Z</time>
      </trkpt>
      <trkpt lat="62.632474455571" lon="17.976100013252">
        <ele>88.8</ele>
        <time>2018-01-22T18:41:13Z</time>
      </trkpt>
      <trkpt lat="62.632462637092" lon="17.976153908869">
        <ele>89</ele>
        <time>2018-01-22T18:41:14Z</time>
      </trkpt>
      <trkpt lat="62.632451656803" lon="17.976196405102">
        <ele>89</ele>
        <time>2018-01-22T18:41:15Z</time>
      </trkpt>
      <trkpt lat="62.632437826668" lon="17.97624602595">
        <ele>89</ele>
        <time>2018-01-22T18:41:16Z</time>
      </trkpt>
      <trkpt lat="62.632428522759" lon="17.976293299866">
        <ele>89</ele>
        <time>2018-01-22T18:41:17Z</time>
      </trkpt>
      <trkpt lat="62.632419135031" lon="17.976341160515">
        <ele>89</ele>
        <time>2018-01-22T18:41:18Z</time>
      </trkpt>
      <trkpt lat="62.63240496962" lon="17.976394301761">
        <ele>89</ele>
        <time>2018-01-22T18:41:19Z</time>
      </trkpt>
      <trkpt lat="62.632393905512" lon="17.976444425523">
        <ele>89.2</ele>
        <time>2018-01-22T18:41:20Z</time>
      </trkpt>
      <trkpt lat="62.632379572463" lon="17.976499662244">
        <ele>89.2</ele>
        <time>2018-01-22T18:41:21Z</time>
      </trkpt>
      <trkpt lat="62.632365071776" lon="17.976551797662">
        <ele>89</ele>
        <time>2018-01-22T18:41:22Z</time>
      </trkpt>
      <trkpt lat="62.632354342944" lon="17.976597562836">
        <ele>89.2</ele>
        <time>2018-01-22T18:41:23Z</time>
      </trkpt>
      <trkpt lat="62.632340177533" lon="17.976654559756">
        <ele>89.2</ele>
        <time>2018-01-22T18:41:24Z</time>
      </trkpt>
      <trkpt lat="62.632331292719" lon="17.976700827844">
        <ele>89</ele>
        <time>2018-01-22T18:41:25Z</time>
      </trkpt>
      <trkpt lat="62.632318971326" lon="17.976753717633">
        <ele>89.2</ele>
        <time>2018-01-22T18:41:26Z</time>
      </trkpt>
      <trkpt lat="62.632306985209" lon="17.97680509868">
        <ele>89.2</ele>
        <time>2018-01-22T18:41:27Z</time>
      </trkpt>
      <trkpt lat="62.632297765119" lon="17.976846924361">
        <ele>89.2</ele>
        <time>2018-01-22T18:41:28Z</time>
      </trkpt>
      <trkpt lat="62.632285862821" lon="17.976899311236">
        <ele>89.2</ele>
        <time>2018-01-22T18:41:29Z</time>
      </trkpt>
      <trkpt lat="62.632272619419" lon="17.976946333695">
        <ele>89.4</ele>
        <time>2018-01-22T18:41:30Z</time>
      </trkpt>
      <trkpt lat="62.6322641537" lon="17.976989919575">
        <ele>89.4</ele>
        <time>2018-01-22T18:41:31Z</time>
      </trkpt>
      <trkpt lat="62.632249988289" lon="17.977044318106">
        <ele>89.4</ele>
        <time>2018-01-22T18:41:32Z</time>
      </trkpt>
      <trkpt lat="62.632240097647" lon="17.977084970321">
        <ele>89.6</ele>
        <time>2018-01-22T18:41:33Z</time>
      </trkpt>
      <trkpt lat="62.632229955548" lon="17.977137189558">
        <ele>89.6</ele>
        <time>2018-01-22T18:41:34Z</time>
      </trkpt>
      <trkpt lat="62.632215622499" lon="17.977188822062">
        <ele>89.6</ele>
        <time>2018-01-22T18:41:35Z</time>
      </trkpt>
      <trkpt lat="62.632206653866" lon="17.977238862005">
        <ele>89.6</ele>
        <time>2018-01-22T18:41:36Z</time>
      </trkpt>
      <trkpt lat="62.632196930862" lon="17.977281358238">
        <ele>89.6</ele>
        <time>2018-01-22T18:41:37Z</time>
      </trkpt>
      <trkpt lat="62.632184022736" lon="17.977330979086">
        <ele>89.6</ele>
        <time>2018-01-22T18:41:38Z</time>
      </trkpt>
      <trkpt lat="62.632173042447" lon="17.977380264658">
        <ele>89.6</ele>
        <time>2018-01-22T18:41:39Z</time>
      </trkpt>
      <trkpt lat="62.632160888692" lon="17.977431310429">
        <ele>89.8</ele>
        <time>2018-01-22T18:41:40Z</time>
      </trkpt>
      <trkpt lat="62.632149573127" lon="17.977484786951">
        <ele>89.8</ele>
        <time>2018-01-22T18:41:41Z</time>
      </trkpt>
      <trkpt lat="62.632139347209" lon="17.977531306496">
        <ele>90</ele>
        <time>2018-01-22T18:41:42Z</time>
      </trkpt>
      <trkpt lat="62.632127025816" lon="17.977575562928">
        <ele>90</ele>
        <time>2018-01-22T18:41:43Z</time>
      </trkpt>
      <trkpt lat="62.632114704423" lon="17.977632056934">
        <ele>90</ele>
        <time>2018-01-22T18:41:44Z</time>
      </trkpt>
      <trkpt lat="62.632101209564" lon="17.977683186524">
        <ele>90.2</ele>
        <time>2018-01-22T18:41:45Z</time>
      </trkpt>
      <trkpt lat="62.63208645742" lon="17.977737836512">
        <ele>90.2</ele>
        <time>2018-01-22T18:41:46Z</time>
      </trkpt>
      <trkpt lat="62.632077153511" lon="17.977787960274">
        <ele>90.2</ele>
        <time>2018-01-22T18:41:47Z</time>
      </trkpt>
      <trkpt lat="62.632066676136" lon="17.977833306353">
        <ele>90.2</ele>
        <time>2018-01-22T18:41:48Z</time>
      </trkpt>
      <trkpt lat="62.632053348915" lon="17.977886699056">
        <ele>90.4</ele>
        <time>2018-01-22T18:41:49Z</time>
      </trkpt>
      <trkpt lat="62.632041027522" lon="17.977934475886">
        <ele>90.4</ele>
        <time>2018-01-22T18:41:50Z</time>
      </trkpt>
      <trkpt lat="62.632028538491" lon="17.977988874417">
        <ele>90.4</ele>
        <time>2018-01-22T18:41:51Z</time>
      </trkpt>
      <trkpt lat="62.632015546546" lon="17.978043189129">
        <ele>90.6</ele>
        <time>2018-01-22T18:41:52Z</time>
      </trkpt>
      <trkpt lat="62.632005823542" lon="17.978083254611">
        <ele>90.6</ele>
        <time>2018-01-22T18:41:53Z</time>
      </trkpt>
      <trkpt lat="62.631993250692" lon="17.978133797468">
        <ele>90.6</ele>
        <time>2018-01-22T18:41:54Z</time>
      </trkpt>
      <trkpt lat="62.631980258747" lon="17.978183334497">
        <ele>90.8</ele>
        <time>2018-01-22T18:41:55Z</time>
      </trkpt>
      <trkpt lat="62.631969529915" lon="17.978231362784">
        <ele>90.8</ele>
        <time>2018-01-22T18:41:56Z</time>
      </trkpt>
      <trkpt lat="62.631956705608" lon="17.978280983632">
        <ele>90.8</ele>
        <time>2018-01-22T18:41:57Z</time>
      </trkpt>
      <trkpt lat="62.631943210749" lon="17.978327084082">
        <ele>90.8</ele>
        <time>2018-01-22T18:41:58Z</time>
      </trkpt>
      <trkpt lat="62.63193474503" lon="17.978377962215">
        <ele>90.8</ele>
        <time>2018-01-22T18:41:59Z</time>
      </trkpt>
      <trkpt lat="62.631921836904" lon="17.978425487588">
        <ele>91</ele>
        <time>2018-01-22T18:42:00Z</time>
      </trkpt>
      <trkpt lat="62.631910688977" lon="17.978469157287">
        <ele>91</ele>
        <time>2018-01-22T18:42:01Z</time>
      </trkpt>
      <trkpt lat="62.631904821647" lon="17.978505115638">
        <ele>91</ele>
        <time>2018-01-22T18:42:02Z</time>
      </trkpt>
      <trkpt lat="62.631889231313" lon="17.978564040395">
        <ele>91</ele>
        <time>2018-01-22T18:42:03Z</time>
      </trkpt>
      <trkpt lat="62.631877664291" lon="17.978617684555">
        <ele>91</ele>
        <time>2018-01-22T18:42:04Z</time>
      </trkpt>
      <trkpt lat="62.631867186916" lon="17.978663785005">
        <ele>91.2</ele>
        <time>2018-01-22T18:42:05Z</time>
      </trkpt>
      <trkpt lat="62.631855619894" lon="17.978715668966">
        <ele>91.2</ele>
        <time>2018-01-22T18:42:06Z</time>
      </trkpt>
      <trkpt lat="62.631843969053" lon="17.978760176855">
        <ele>91.2</ele>
        <time>2018-01-22T18:42:07Z</time>
      </trkpt>
      <trkpt lat="62.631834497506" lon="17.978808708056">
        <ele>91.4</ele>
        <time>2018-01-22T18:42:08Z</time>
      </trkpt>
      <trkpt lat="62.631817985163" lon="17.978861011112">
        <ele>91.4</ele>
        <time>2018-01-22T18:42:09Z</time>
      </trkpt>
      <trkpt lat="62.631808345978" lon="17.978910129046">
        <ele>91.4</ele>
        <time>2018-01-22T18:42:10Z</time>
      </trkpt>
      <trkpt lat="62.631798539155" lon="17.978958073514">
        <ele>91.6</ele>
        <time>2018-01-22T18:42:11Z</time>
      </trkpt>
      <trkpt lat="62.63178470902" lon="17.979008448733">
        <ele>91.6</ele>
        <time>2018-01-22T18:42:12Z</time>
      </trkpt>
      <trkpt lat="62.631776913853" lon="17.979050190595">
        <ele>91.6</ele>
        <time>2018-01-22T18:42:13Z</time>
      </trkpt>
      <trkpt lat="62.631763167537" lon="17.979108025705">
        <ele>91.8</ele>
        <time>2018-01-22T18:42:14Z</time>
      </trkpt>
      <trkpt lat="62.631751432877" lon="17.979153874698">
        <ele>91.8</ele>
        <time>2018-01-22T18:42:15Z</time>
      </trkpt>
      <trkpt lat="62.631741206959" lon="17.979203244089">
        <ele>91.8</ele>
        <time>2018-01-22T18:42:16Z</time>
      </trkpt>
      <trkpt lat="62.631729639937" lon="17.979251440014">
        <ele>91.8</ele>
        <time>2018-01-22T18:42:17Z</time>
      </trkpt>
      <trkpt lat="62.631717821458" lon="17.979298127197">
        <ele>91.8</ele>
        <time>2018-01-22T18:42:18Z</time>
      </trkpt>
      <trkpt lat="62.631707930816" lon="17.979348334778">
        <ele>92</ele>
        <time>2018-01-22T18:42:19Z</time>
      </trkpt>
      <trkpt lat="62.631694855052" lon="17.979405666974">
        <ele>92</ele>
        <time>2018-01-22T18:42:20Z</time>
      </trkpt>
      <trkpt lat="62.631682366021" lon="17.979458724401">
        <ele>92</ele>
        <time>2018-01-22T18:42:21Z</time>
      </trkpt>
      <trkpt lat="62.631670882818" lon="17.979504573394">
        <ele>92</ele>
        <time>2018-01-22T18:42:22Z</time>
      </trkpt>
      <trkpt lat="62.631658393787" lon="17.979556708812">
        <ele>92</ele>
        <time>2018-01-22T18:42:23Z</time>
      </trkpt>
      <trkpt lat="62.631646156213" lon="17.979606832574">
        <ele>92.2</ele>
        <time>2018-01-22T18:42:24Z</time>
      </trkpt>
      <trkpt lat="62.6316355112" lon="17.979656285784">
        <ele>92.2</ele>
        <time>2018-01-22T18:42:25Z</time>
      </trkpt>
      <trkpt lat="62.631617657753" lon="17.979713282704">
        <ele>92.2</ele>
        <time>2018-01-22T18:42:26Z</time>
      </trkpt>
      <trkpt lat="62.631607180378" lon="17.979758964059">
        <ele>92.2</ele>
        <time>2018-01-22T18:42:27Z</time>
      </trkpt>
      <trkpt lat="62.63159527808" lon="17.979801879387">
        <ele>92.4</ele>
        <time>2018-01-22T18:42:28Z</time>
      </trkpt>
      <trkpt lat="62.631581364126" lon="17.979860636506">
        <ele>92.4</ele>
        <time>2018-01-22T18:42:29Z</time>
      </trkpt>
      <trkpt lat="62.63157013238" lon="17.979900450531">
        <ele>92.6</ele>
        <time>2018-01-22T18:42:30Z</time>
      </trkpt>
      <trkpt lat="62.631556134607" lon="17.979944204049">
        <ele>92.6</ele>
        <time>2018-01-22T18:42:31Z</time>
      </trkpt>
      <trkpt lat="62.631539789902" lon="17.979993321983">
        <ele>92.6</ele>
        <time>2018-01-22T18:42:32Z</time>
      </trkpt>
      <trkpt lat="62.6315265465" lon="17.980031878723">
        <ele>92.6</ele>
        <time>2018-01-22T18:42:33Z</time>
      </trkpt>
      <trkpt lat="62.631506262302" lon="17.980075799879">
        <ele>92.6</ele>
        <time>2018-01-22T18:42:34Z</time>
      </trkpt>
      <trkpt lat="62.631480697507" lon="17.980103711606">
        <ele>92.6</ele>
        <time>2018-01-22T18:42:35Z</time>
      </trkpt>
      <trkpt lat="62.63145865311" lon="17.980129024944">
        <ele>92.6</ele>
        <time>2018-01-22T18:42:36Z</time>
      </trkpt>
      <trkpt lat="62.63143099284" lon="17.980141346337">
        <ele>92.8</ele>
        <time>2018-01-22T18:42:37Z</time>
      </trkpt>
      <trkpt lat="62.63140500895" lon="17.980136736292">
        <ele>92.8</ele>
        <time>2018-01-22T18:42:38Z</time>
      </trkpt>
      <trkpt lat="62.631373828282" lon="17.980141765432">
        <ele>92.6</ele>
        <time>2018-01-22T18:42:39Z</time>
      </trkpt>
      <trkpt lat="62.631344910727" lon="17.980133467351">
        <ele>92.6</ele>
        <time>2018-01-22T18:42:40Z</time>
      </trkpt>
      <trkpt lat="62.631321273769" lon="17.980114105162">
        <ele>92.6</ele>
        <time>2018-01-22T18:42:41Z</time>
      </trkpt>
      <trkpt lat="62.631295960431" lon="17.980098933923">
        <ele>92.6</ele>
        <time>2018-01-22T18:42:42Z</time>
      </trkpt>
      <trkpt lat="62.631276095328" lon="17.980086444892">
        <ele>92.4</ele>
        <time>2018-01-22T18:42:43Z</time>
      </trkpt>
      <trkpt lat="62.631249440886" lon="17.980067417979">
        <ele>92.6</ele>
        <time>2018-01-22T18:42:44Z</time>
      </trkpt>
      <trkpt lat="62.631229072869" lon="17.980047888152">
        <ele>92.6</ele>
        <time>2018-01-22T18:42:45Z</time>
      </trkpt>
      <trkpt lat="62.631200322952" lon="17.980025340841">
        <ele>92.8</ele>
        <time>2018-01-22T18:42:46Z</time>
      </trkpt>
      <trkpt lat="62.631175596347" lon="17.980010840154">
        <ele>92.8</ele>
        <time>2018-01-22T18:42:47Z</time>
      </trkpt>
      <trkpt lat="62.631152965217" lon="17.979993741078">
        <ele>93</ele>
        <time>2018-01-22T18:42:48Z</time>
      </trkpt>
      <trkpt lat="62.631126646051" lon="17.979977396373">
        <ele>93</ele>
        <time>2018-01-22T18:42:49Z</time>
      </trkpt>
      <trkpt lat="62.631104685473" lon="17.979964320609">
        <ele>93.2</ele>
        <time>2018-01-22T18:42:50Z</time>
      </trkpt>
      <trkpt lat="62.631076857565" lon="17.979942946764">
        <ele>93.2</ele>
        <time>2018-01-22T18:42:51Z</time>
      </trkpt>
      <trkpt lat="62.631055818996" lon="17.979920231815">
        <ele>93.4</ele>
        <time>2018-01-22T18:42:52Z</time>
      </trkpt>
      <trkpt lat="62.631037211178" lon="17.979904641481">
        <ele>93.4</ele>
        <time>2018-01-22T18:42:53Z</time>
      </trkpt>
      <trkpt lat="62.631010472917" lon="17.979882177989">
        <ele>93.4</ele>
        <time>2018-01-22T18:42:54Z</time>
      </trkpt>
      <trkpt lat="62.630986584502" lon="17.979864743637">
        <ele>93.6</ele>
        <time>2018-01-22T18:42:55Z</time>
      </trkpt>
      <trkpt lat="62.630962360811" lon="17.979853008977">
        <ele>93.6</ele>
        <time>2018-01-22T18:42:56Z</time>
      </trkpt>
      <trkpt lat="62.630939729681" lon="17.979825264888">
        <ele>93.6</ele>
        <time>2018-01-22T18:42:57Z</time>
      </trkpt>
      <trkpt lat="62.630920618949" lon="17.979806070337">
        <ele>93.8</ele>
        <time>2018-01-22T18:42:58Z</time>
      </trkpt>
      <trkpt lat="62.63089371305" lon="17.979789977089">
        <ele>93.8</ele>
        <time>2018-01-22T18:42:59Z</time>
      </trkpt>
      <trkpt lat="62.630874183223" lon="17.979762819733">
        <ele>94</ele>
        <time>2018-01-22T18:43:00Z</time>
      </trkpt>
      <trkpt lat="62.630852809378" lon="17.97974463101">
        <ele>94</ele>
        <time>2018-01-22T18:43:01Z</time>
      </trkpt>
      <trkpt lat="62.63083001061" lon="17.979730130323">
        <ele>94</ele>
        <time>2018-01-22T18:43:02Z</time>
      </trkpt>
      <trkpt lat="62.630803859082" lon="17.979710600496">
        <ele>94</ele>
        <time>2018-01-22T18:43:03Z</time>
      </trkpt>
      <trkpt lat="62.630779803029" lon="17.979691657402">
        <ele>94</ele>
        <time>2018-01-22T18:43:04Z</time>
      </trkpt>
      <trkpt lat="62.63075876446" lon="17.979669445367">
        <ele>94.2</ele>
        <time>2018-01-22T18:43:05Z</time>
      </trkpt>
      <trkpt lat="62.630732445294" lon="17.979649580264">
        <ele>94.4</ele>
        <time>2018-01-22T18:43:06Z</time>
      </trkpt>
      <trkpt lat="62.630709478888" lon="17.979633906111">
        <ele>94.4</ele>
        <time>2018-01-22T18:43:07Z</time>
      </trkpt>
      <trkpt lat="62.63068500374" lon="17.97960381509">
        <ele>94.6</ele>
        <time>2018-01-22T18:43:08Z</time>
      </trkpt>
      <trkpt lat="62.630660444773" lon="17.979572969698">
        <ele>94.8</ele>
        <time>2018-01-22T18:43:09Z</time>
      </trkpt>
      <trkpt lat="62.630636137263" lon="17.97955100912">
        <ele>94.8</ele>
        <time>2018-01-22T18:43:10Z</time>
      </trkpt>
      <trkpt lat="62.630615182513" lon="17.979513625846">
        <ele>95</ele>
        <time>2018-01-22T18:43:11Z</time>
      </trkpt>
      <trkpt lat="62.630596658514" lon="17.979489150698">
        <ele>95</ele>
        <time>2018-01-22T18:43:12Z</time>
      </trkpt>
      <trkpt lat="62.630571345176" lon="17.979457802392">
        <ele>95</ele>
        <time>2018-01-22T18:43:13Z</time>
      </trkpt>
      <trkpt lat="62.630550641883" lon="17.979419245652">
        <ele>95</ele>
        <time>2018-01-22T18:43:14Z</time>
      </trkpt>
      <trkpt lat="62.630525328545" lon="17.979392926486">
        <ele>95</ele>
        <time>2018-01-22T18:43:15Z</time>
      </trkpt>
      <trkpt lat="62.630503284148" lon="17.979344646742">
        <ele>95</ele>
        <time>2018-01-22T18:43:16Z</time>
      </trkpt>
      <trkpt lat="62.630483502864" lon="17.979298630111">
        <ele>95</ele>
        <time>2018-01-22T18:43:17Z</time>
      </trkpt>
      <trkpt lat="62.63046539796" lon="17.979272897678">
        <ele>95</ele>
        <time>2018-01-22T18:43:18Z</time>
      </trkpt>
      <trkpt lat="62.630450813454" lon="17.979230569083">
        <ele>95</ele>
        <time>2018-01-22T18:43:19Z</time>
      </trkpt>
      <trkpt lat="62.630425667754" lon="17.97919058742">
        <ele>95</ele>
        <time>2018-01-22T18:43:20Z</time>
      </trkpt>
      <trkpt lat="62.630408233402" lon="17.979149935205">
        <ele>94.8</ele>
        <time>2018-01-22T18:43:21Z</time>
      </trkpt>
      <trkpt lat="62.63039331362" lon="17.979099476167">
        <ele>95</ele>
        <time>2018-01-22T18:43:22Z</time>
      </trkpt>
      <trkpt lat="62.630378980571" lon="17.979062428169">
        <ele>94.8</ele>
        <time>2018-01-22T18:43:23Z</time>
      </trkpt>
      <trkpt lat="62.630357355269" lon="17.979004844516">
        <ele>94.8</ele>
        <time>2018-01-22T18:43:24Z</time>
      </trkpt>
      <trkpt lat="62.630341178202" lon="17.978957654419">
        <ele>94.8</ele>
        <time>2018-01-22T18:43:25Z</time>
      </trkpt>
      <trkpt lat="62.630319888176" lon="17.978907027743">
        <ele>94.8</ele>
        <time>2018-01-22T18:43:26Z</time>
      </trkpt>
      <trkpt lat="62.630300358349" lon="17.978857323076">
        <ele>94.8</ele>
        <time>2018-01-22T18:43:27Z</time>
      </trkpt>
      <trkpt lat="62.630283929825" lon="17.978804433287">
        <ele>94.6</ele>
        <time>2018-01-22T18:43:28Z</time>
      </trkpt>
      <trkpt lat="62.630266495473" lon="17.978748358376">
        <ele>94.6</ele>
        <time>2018-01-22T18:43:29Z</time>
      </trkpt>
      <trkpt lat="62.630249647854" lon="17.978705191591">
        <ele>94.4</ele>
        <time>2018-01-22T18:43:30Z</time>
      </trkpt>
      <trkpt lat="62.630236655909" lon="17.978647272662">
        <ele>94.2</ele>
        <time>2018-01-22T18:43:31Z</time>
      </trkpt>
      <trkpt lat="62.63021980829" lon="17.978590024285">
        <ele>94</ele>
        <time>2018-01-22T18:43:32Z</time>
      </trkpt>
      <trkpt lat="62.630209247096" lon="17.978536715401">
        <ele>94</ele>
        <time>2018-01-22T18:43:33Z</time>
      </trkpt>
      <trkpt lat="62.630195081685" lon="17.978473515875">
        <ele>93.6</ele>
        <time>2018-01-22T18:43:34Z</time>
      </trkpt>
      <trkpt lat="62.630190052545" lon="17.978423224475">
        <ele>93.4</ele>
        <time>2018-01-22T18:43:35Z</time>
      </trkpt>
      <trkpt lat="62.630175803315" lon="17.978366981926">
        <ele>93.6</ele>
        <time>2018-01-22T18:43:36Z</time>
      </trkpt>
      <trkpt lat="62.630170941813" lon="17.978310320282">
        <ele>93.4</ele>
        <time>2018-01-22T18:43:37Z</time>
      </trkpt>
      <trkpt lat="62.630166080311" lon="17.978251646982">
        <ele>93.2</ele>
        <time>2018-01-22T18:43:38Z</time>
      </trkpt>
      <trkpt lat="62.630159039515" lon="17.978186938714">
        <ele>93.2</ele>
        <time>2018-01-22T18:43:39Z</time>
      </trkpt>
      <trkpt lat="62.630155519117" lon="17.97811770422">
        <ele>93</ele>
        <time>2018-01-22T18:43:40Z</time>
      </trkpt>
      <trkpt lat="62.630155602936" lon="17.978058444187">
        <ele>92.8</ele>
        <time>2018-01-22T18:43:41Z</time>
      </trkpt>
      <trkpt lat="62.630154010375" lon="17.977995412299">
        <ele>92.6</ele>
        <time>2018-01-22T18:43:42Z</time>
      </trkpt>
      <trkpt lat="62.630154680927" lon="17.977938666836">
        <ele>92.6</ele>
        <time>2018-01-22T18:43:43Z</time>
      </trkpt>
      <trkpt lat="62.630152082538" lon="17.977871779274">
        <ele>92.4</ele>
        <time>2018-01-22T18:43:44Z</time>
      </trkpt>
      <trkpt lat="62.630151244348" lon="17.977804304979">
        <ele>92.4</ele>
        <time>2018-01-22T18:43:45Z</time>
      </trkpt>
      <trkpt lat="62.63015694404" lon="17.977744374394">
        <ele>92.4</ele>
        <time>2018-01-22T18:43:46Z</time>
      </trkpt>
      <trkpt lat="62.630157698411" lon="17.977684192352">
        <ele>92.2</ele>
        <time>2018-01-22T18:43:47Z</time>
      </trkpt>
      <trkpt lat="62.630160212981" lon="17.97762568669">
        <ele>91.8</ele>
        <time>2018-01-22T18:43:48Z</time>
      </trkpt>
      <trkpt lat="62.630163733379" lon="17.977557122748">
        <ele>91.8</ele>
        <time>2018-01-22T18:43:49Z</time>
      </trkpt>
      <trkpt lat="62.630166499406" lon="17.977484619313">
        <ele>91.6</ele>
        <time>2018-01-22T18:43:50Z</time>
      </trkpt>
      <trkpt lat="62.630169433071" lon="17.977425191642">
        <ele>91.4</ele>
        <time>2018-01-22T18:43:51Z</time>
      </trkpt>
      <trkpt lat="62.630171696184" lon="17.977358806994">
        <ele>91.4</ele>
        <time>2018-01-22T18:43:52Z</time>
      </trkpt>
      <trkpt lat="62.630175468039" lon="17.977302480626">
        <ele>91.2</ele>
        <time>2018-01-22T18:43:53Z</time>
      </trkpt>
      <trkpt lat="62.630178401704" lon="17.977234754874">
        <ele>91.2</ele>
        <time>2018-01-22T18:43:54Z</time>
      </trkpt>
      <trkpt lat="62.630182425016" lon="17.977172309719">
        <ele>91</ele>
        <time>2018-01-22T18:43:55Z</time>
      </trkpt>
      <trkpt lat="62.630185777776" lon="17.977105925071">
        <ele>91</ele>
        <time>2018-01-22T18:43:56Z</time>
      </trkpt>
      <trkpt lat="62.630190304002" lon="17.977039121328">
        <ele>90.8</ele>
        <time>2018-01-22T18:43:57Z</time>
      </trkpt>
      <trkpt lat="62.630192399477" lon="17.976971814671">
        <ele>90.8</ele>
        <time>2018-01-22T18:43:58Z</time>
      </trkpt>
      <trkpt lat="62.630196506608" lon="17.97690065234">
        <ele>90.6</ele>
        <time>2018-01-22T18:43:59Z</time>
      </trkpt>
      <trkpt lat="62.630202793033" lon="17.976830747294">
        <ele>90.4</ele>
        <time>2018-01-22T18:44:00Z</time>
      </trkpt>
      <trkpt lat="62.630207905992" lon="17.976769391786">
        <ele>90.2</ele>
        <time>2018-01-22T18:44:01Z</time>
      </trkpt>
      <trkpt lat="62.630215198245" lon="17.976698061817">
        <ele>90.2</ele>
        <time>2018-01-22T18:44:02Z</time>
      </trkpt>
      <trkpt lat="62.630225591801" lon="17.976638885603">
        <ele>90</ele>
        <time>2018-01-22T18:44:03Z</time>
      </trkpt>
      <trkpt lat="62.630236488271" lon="17.976564035236">
        <ele>90</ele>
        <time>2018-01-22T18:44:04Z</time>
      </trkpt>
      <trkpt lat="62.630245289266" lon="17.976502679728">
        <ele>89.8</ele>
        <time>2018-01-22T18:44:05Z</time>
      </trkpt>
      <trkpt lat="62.630255766641" lon="17.976432020311">
        <ele>89.6</ele>
        <time>2018-01-22T18:44:06Z</time>
      </trkpt>
      <trkpt lat="62.630265405826" lon="17.976364546016">
        <ele>89.6</ele>
        <time>2018-01-22T18:44:07Z</time>
      </trkpt>
      <trkpt lat="62.630275464106" lon="17.976302519956">
        <ele>89.4</ele>
        <time>2018-01-22T18:44:08Z</time>
      </trkpt>
      <trkpt lat="62.630290886802" lon="17.976230351797">
        <ele>89.4</ele>
        <time>2018-01-22T18:44:09Z</time>
      </trkpt>
      <trkpt lat="62.630304046385" lon="17.976169247746">
        <ele>89.2</ele>
        <time>2018-01-22T18:44:10Z</time>
      </trkpt>
      <trkpt lat="62.630316283959" lon="17.97610940098">
        <ele>89.2</ele>
        <time>2018-01-22T18:44:11Z</time>
      </trkpt>
      <trkpt lat="62.630331622836" lon="17.976043603065">
        <ele>89</ele>
        <time>2018-01-22T18:44:12Z</time>
      </trkpt>
      <trkpt lat="62.630345620609" lon="17.976002196479">
        <ele>88.8</ele>
        <time>2018-01-22T18:44:13Z</time>
      </trkpt>
      <trkpt lat="62.630362552047" lon="17.975937991125">
        <ele>88.8</ele>
        <time>2018-01-22T18:44:14Z</time>
      </trkpt>
      <trkpt lat="62.630381159865" lon="17.9758814133">
        <ele>88.6</ele>
        <time>2018-01-22T18:44:15Z</time>
      </trkpt>
      <trkpt lat="62.630399767683" lon="17.975816118299">
        <ele>88.6</ele>
        <time>2018-01-22T18:44:16Z</time>
      </trkpt>
      <trkpt lat="62.630416699121" lon="17.975759456655">
        <ele>88.4</ele>
        <time>2018-01-22T18:44:17Z</time>
      </trkpt>
      <trkpt lat="62.63043187036" lon="17.975701873002">
        <ele>88.4</ele>
        <time>2018-01-22T18:44:18Z</time>
      </trkpt>
      <trkpt lat="62.630447293056" lon="17.97564923467">
        <ele>88.2</ele>
        <time>2018-01-22T18:44:19Z</time>
      </trkpt>
      <trkpt lat="62.630464475951" lon="17.975579916357">
        <ele>88</ele>
        <time>2018-01-22T18:44:20Z</time>
      </trkpt>
      <trkpt lat="62.630480820656" lon="17.975518728487">
        <ele>88</ele>
        <time>2018-01-22T18:44:21Z</time>
      </trkpt>
      <trkpt lat="62.630494483153" lon="17.975462905033">
        <ele>87.8</ele>
        <time>2018-01-22T18:44:22Z</time>
      </trkpt>
      <trkpt lat="62.63050814565" lon="17.975404818466">
        <ele>87.6</ele>
        <time>2018-01-22T18:44:23Z</time>
      </trkpt>
      <trkpt lat="62.630524657993" lon="17.975336925076">
        <ele>87.6</ele>
        <time>2018-01-22T18:44:24Z</time>
      </trkpt>
      <trkpt lat="62.630536308834" lon="17.975283616192">
        <ele>87.4</ele>
        <time>2018-01-22T18:44:25Z</time>
      </trkpt>
      <trkpt lat="62.630551396254" lon="17.975217483001">
        <ele>87.2</ele>
        <time>2018-01-22T18:44:26Z</time>
      </trkpt>
      <trkpt lat="62.630564136742" lon="17.975161911004">
        <ele>87.4</ele>
        <time>2018-01-22T18:44:27Z</time>
      </trkpt>
      <trkpt lat="62.630574278841" lon="17.975110194681">
        <ele>87.2</ele>
        <time>2018-01-22T18:44:28Z</time>
      </trkpt>
      <trkpt lat="62.6305877737" lon="17.975042468929">
        <ele>87.2</ele>
        <time>2018-01-22T18:44:29Z</time>
      </trkpt>
      <trkpt lat="62.630597580523" lon="17.975005840026">
        <ele>87.2</ele>
        <time>2018-01-22T18:44:30Z</time>
      </trkpt>
      <trkpt lat="62.630613087038" lon="17.974933252772">
        <ele>87.2</ele>
        <time>2018-01-22T18:44:31Z</time>
      </trkpt>
      <trkpt lat="62.630626665716" lon="17.974867371038">
        <ele>87.2</ele>
        <time>2018-01-22T18:44:32Z</time>
      </trkpt>
      <trkpt lat="62.630639406204" lon="17.974818420742">
        <ele>87</ele>
        <time>2018-01-22T18:44:33Z</time>
      </trkpt>
      <trkpt lat="62.630655080357" lon="17.974758909252">
        <ele>86.8</ele>
        <time>2018-01-22T18:44:34Z</time>
      </trkpt>
      <trkpt lat="62.630670335415" lon="17.974702834341">
        <ele>86.6</ele>
        <time>2018-01-22T18:44:35Z</time>
      </trkpt>
      <trkpt lat="62.630685087559" lon="17.974653548769">
        <ele>86.6</ele>
        <time>2018-01-22T18:44:36Z</time>
      </trkpt>
      <trkpt lat="62.630700845531" lon="17.97460233536">
        <ele>86.4</ele>
        <time>2018-01-22T18:44:37Z</time>
      </trkpt>
      <trkpt lat="62.630712915467" lon="17.974559922946">
        <ele>86.4</ele>
        <time>2018-01-22T18:44:38Z</time>
      </trkpt>
      <trkpt lat="62.630725907412" lon="17.974507116976">
        <ele>86.4</ele>
        <time>2018-01-22T18:44:39Z</time>
      </trkpt>
      <trkpt lat="62.630740491918" lon="17.974452718445">
        <ele>86.4</ele>
        <time>2018-01-22T18:44:40Z</time>
      </trkpt>
      <trkpt lat="62.630754489691" lon="17.974398571371">
        <ele>86.4</ele>
        <time>2018-01-22T18:44:41Z</time>
      </trkpt>
      <trkpt lat="62.630766978722" lon="17.974345430125">
        <ele>86.4</ele>
        <time>2018-01-22T18:44:42Z</time>
      </trkpt>
      <trkpt lat="62.630781898504" lon="17.974300754598">
        <ele>86.2</ele>
        <time>2018-01-22T18:44:43Z</time>
      </trkpt>
      <trkpt lat="62.630796985924" lon="17.974242919488">
        <ele>86.2</ele>
        <time>2018-01-22T18:44:44Z</time>
      </trkpt>
      <trkpt lat="62.630808804403" lon="17.97419162226">
        <ele>86.2</ele>
        <time>2018-01-22T18:44:45Z</time>
      </trkpt>
      <trkpt lat="62.630825484384" lon="17.974135966444">
        <ele>86.2</ele>
        <time>2018-01-22T18:44:46Z</time>
      </trkpt>
      <trkpt lat="62.630839649795" lon="17.974082238465">
        <ele>86.2</ele>
        <time>2018-01-22T18:44:47Z</time>
      </trkpt>
      <trkpt lat="62.630852557921" lon="17.97403571892">
        <ele>86.2</ele>
        <time>2018-01-22T18:44:48Z</time>
      </trkpt>
      <trkpt lat="62.630869656997" lon="17.973982745312">
        <ele>86</ele>
        <time>2018-01-22T18:44:49Z</time>
      </trkpt>
      <trkpt lat="62.630884995874" lon="17.973930358437">
        <ele>86</ele>
        <time>2018-01-22T18:44:50Z</time>
      </trkpt>
      <trkpt lat="62.630893042498" lon="17.973880905227">
        <ele>86</ele>
        <time>2018-01-22T18:44:51Z</time>
      </trkpt>
      <trkpt lat="62.630889773557" lon="17.973826758153">
        <ele>86</ele>
        <time>2018-01-22T18:44:52Z</time>
      </trkpt>
      <trkpt lat="62.630878793268" lon="17.973792057087">
        <ele>86</ele>
        <time>2018-01-22T18:44:53Z</time>
      </trkpt>
      <trkpt lat="62.630860939821" lon="17.973731707407">
        <ele>86</ele>
        <time>2018-01-22T18:44:54Z</time>
      </trkpt>
      <trkpt lat="62.630843505469" lon="17.973684936405">
        <ele>86</ele>
        <time>2018-01-22T18:44:55Z</time>
      </trkpt>
      <trkpt lat="62.630826490212" lon="17.973639087412">
        <ele>85.8</ele>
        <time>2018-01-22T18:44:56Z</time>
      </trkpt>
      <trkpt lat="62.630810145507" lon="17.973590304754">
        <ele>85.8</ele>
        <time>2018-01-22T18:44:57Z</time>
      </trkpt>
      <trkpt lat="62.630794471354" lon="17.973540600087">
        <ele>85.8</ele>
        <time>2018-01-22T18:44:58Z</time>
      </trkpt>
      <trkpt lat="62.6307805574" lon="17.973492236524">
        <ele>85.6</ele>
        <time>2018-01-22T18:44:59Z</time>
      </trkpt>
      <trkpt lat="62.630767230179" lon="17.973450746119">
        <ele>85.4</ele>
        <time>2018-01-22T18:45:00Z</time>
      </trkpt>
      <trkpt lat="62.630748287085" lon="17.973401795823">
        <ele>85.4</ele>
        <time>2018-01-22T18:45:01Z</time>
      </trkpt>
      <trkpt lat="62.630732445294" lon="17.973356952658">
        <ele>85.4</ele>
        <time>2018-01-22T18:45:02Z</time>
      </trkpt>
      <trkpt lat="62.630723895756" lon="17.973328538017">
        <ele>85.2</ele>
        <time>2018-01-22T18:45:03Z</time>
      </trkpt>
      <trkpt lat="62.63070344392" lon="17.973263410654">
        <ele>85.2</ele>
        <time>2018-01-22T18:45:04Z</time>
      </trkpt>
      <trkpt lat="62.630690284337" lon="17.973215047091">
        <ele>85.2</ele>
        <time>2018-01-22T18:45:05Z</time>
      </trkpt>
      <trkpt lat="62.630674526365" lon="17.973175652161">
        <ele>85</ele>
        <time>2018-01-22T18:45:06Z</time>
      </trkpt>
      <trkpt lat="62.630662037334" lon="17.973123852019">
        <ele>85</ele>
        <time>2018-01-22T18:45:07Z</time>
      </trkpt>
      <trkpt lat="62.630647369009" lon="17.973080014682">
        <ele>85</ele>
        <time>2018-01-22T18:45:08Z</time>
      </trkpt>
      <trkpt lat="62.630631611037" lon="17.973033578956">
        <ele>85</ele>
        <time>2018-01-22T18:45:09Z</time>
      </trkpt>
      <trkpt lat="62.630614428142" lon="17.972985047755">
        <ele>84.8</ele>
        <time>2018-01-22T18:45:10Z</time>
      </trkpt>
      <trkpt lat="62.630602777301" lon="17.972937773839">
        <ele>84.8</ele>
        <time>2018-01-22T18:45:11Z</time>
      </trkpt>
      <trkpt lat="62.630586767872" lon="17.972896953986">
        <ele>84.8</ele>
        <time>2018-01-22T18:45:12Z</time>
      </trkpt>
      <trkpt lat="62.630575117031" lon="17.972851272631">
        <ele>84.8</ele>
        <time>2018-01-22T18:45:13Z</time>
      </trkpt>
      <trkpt lat="62.630559023783" lon="17.972795281539">
        <ele>84.6</ele>
        <time>2018-01-22T18:45:14Z</time>
      </trkpt>
      <trkpt lat="62.630544690734" lon="17.972754880781">
        <ele>84.4</ele>
        <time>2018-01-22T18:45:15Z</time>
      </trkpt>
      <trkpt lat="62.63053077678" lon="17.972695201653">
        <ele>84.4</ele>
        <time>2018-01-22T18:45:16Z</time>
      </trkpt>
      <trkpt lat="62.630517701016" lon="17.972644155882">
        <ele>84.4</ele>
        <time>2018-01-22T18:45:17Z</time>
      </trkpt>
      <trkpt lat="62.630506636908" lon="17.972600905278">
        <ele>84.4</ele>
        <time>2018-01-22T18:45:18Z</time>
      </trkpt>
      <trkpt lat="62.630498003551" lon="17.972544411272">
        <ele>84.4</ele>
        <time>2018-01-22T18:45:19Z</time>
      </trkpt>
      <trkpt lat="62.630490208384" lon="17.97248758199">
        <ele>84.2</ele>
        <time>2018-01-22T18:45:20Z</time>
      </trkpt>
      <trkpt lat="62.630485179244" lon="17.972440810988">
        <ele>84.2</ele>
        <time>2018-01-22T18:45:21Z</time>
      </trkpt>
      <trkpt lat="62.630479395733" lon="17.97238951376">
        <ele>84.2</ele>
        <time>2018-01-22T18:45:22Z</time>
      </trkpt>
      <trkpt lat="62.630469756548" lon="17.972337965075">
        <ele>84</ele>
        <time>2018-01-22T18:45:23Z</time>
      </trkpt>
      <trkpt lat="62.63045953063" lon="17.972283566544">
        <ele>83.8</ele>
        <time>2018-01-22T18:45:24Z</time>
      </trkpt>
      <trkpt lat="62.630456429327" lon="17.972229922384">
        <ele>83.8</ele>
        <time>2018-01-22T18:45:25Z</time>
      </trkpt>
      <trkpt lat="62.630450142902" lon="17.972169153609">
        <ele>83.8</ele>
        <time>2018-01-22T18:45:26Z</time>
      </trkpt>
      <trkpt lat="62.630441593364" lon="17.972119868037">
        <ele>83.6</ele>
        <time>2018-01-22T18:45:27Z</time>
      </trkpt>
      <trkpt lat="62.630444694667" lon="17.972064882773">
        <ele>83.6</ele>
        <time>2018-01-22T18:45:28Z</time>
      </trkpt>
      <trkpt lat="62.630434133473" lon="17.972004449274">
        <ele>83.8</ele>
        <time>2018-01-22T18:45:29Z</time>
      </trkpt>
      <trkpt lat="62.630429858704" lon="17.971957175358">
        <ele>83.6</ele>
        <time>2018-01-22T18:45:30Z</time>
      </trkpt>
      <trkpt lat="62.630421895899" lon="17.971899424067">
        <ele>83.6</ele>
        <time>2018-01-22T18:45:31Z</time>
      </trkpt>
      <trkpt lat="62.630415525655" lon="17.971845109355">
        <ele>83.6</ele>
        <time>2018-01-22T18:45:32Z</time>
      </trkpt>
      <trkpt lat="62.630410328877" lon="17.971798757448">
        <ele>83.6</ele>
        <time>2018-01-22T18:45:33Z</time>
      </trkpt>
      <trkpt lat="62.630401444063" lon="17.971741425252">
        <ele>83.6</ele>
        <time>2018-01-22T18:45:34Z</time>
      </trkpt>
      <trkpt lat="62.630395660552" lon="17.971694905707">
        <ele>83.6</ele>
        <time>2018-01-22T18:45:35Z</time>
      </trkpt>
      <trkpt lat="62.630388033023" lon="17.971647464153">
        <ele>83.4</ele>
        <time>2018-01-22T18:45:36Z</time>
      </trkpt>
      <trkpt lat="62.630384764082" lon="17.971596921296">
        <ele>83.4</ele>
        <time>2018-01-22T18:45:37Z</time>
      </trkpt>
      <trkpt lat="62.630374957259" lon="17.971542522765">
        <ele>83.2</ele>
        <time>2018-01-22T18:45:38Z</time>
      </trkpt>
      <trkpt lat="62.63036481516" lon="17.971485861121">
        <ele>83.2</ele>
        <time>2018-01-22T18:45:39Z</time>
      </trkpt>
      <trkpt lat="62.630351907034" lon="17.971427187821">
        <ele>83.2</ele>
        <time>2018-01-22T18:45:40Z</time>
      </trkpt>
      <trkpt lat="62.63034805136" lon="17.971372118738">
        <ele>83.2</ele>
        <time>2018-01-22T18:45:41Z</time>
      </trkpt>
      <trkpt lat="62.630345201514" lon="17.971321072967">
        <ele>83</ele>
        <time>2018-01-22T18:45:42Z</time>
      </trkpt>
      <trkpt lat="62.630342854582" lon="17.971265836246">
        <ele>83</ele>
        <time>2018-01-22T18:45:43Z</time>
      </trkpt>
      <trkpt lat="62.630344782419" lon="17.971198781046">
        <ele>83</ele>
        <time>2018-01-22T18:45:44Z</time>
      </trkpt>
      <trkpt lat="62.630345452971" lon="17.971153015872">
        <ele>83</ele>
        <time>2018-01-22T18:45:45Z</time>
      </trkpt>
      <trkpt lat="62.630347967541" lon="17.971087469414">
        <ele>82.8</ele>
        <time>2018-01-22T18:45:46Z</time>
      </trkpt>
      <trkpt lat="62.630352745224" lon="17.971034411987">
        <ele>83</ele>
        <time>2018-01-22T18:45:47Z</time>
      </trkpt>
      <trkpt lat="62.630350230654" lon="17.970983198578">
        <ele>82.8</ele>
        <time>2018-01-22T18:45:48Z</time>
      </trkpt>
      <trkpt lat="62.63035475688" lon="17.970919915233">
        <ele>82.8</ele>
        <time>2018-01-22T18:45:49Z</time>
      </trkpt>
      <trkpt lat="62.630357942002" lon="17.970858224449">
        <ele>82.8</ele>
        <time>2018-01-22T18:45:50Z</time>
      </trkpt>
      <trkpt lat="62.630359534563" lon="17.970798126226">
        <ele>82.8</ele>
        <time>2018-01-22T18:45:51Z</time>
      </trkpt>
      <trkpt lat="62.630366575359" lon="17.970734339967">
        <ele>82.6</ele>
        <time>2018-01-22T18:45:52Z</time>
      </trkpt>
      <trkpt lat="62.630377052734" lon="17.970684467662">
        <ele>82.6</ele>
        <time>2018-01-22T18:45:53Z</time>
      </trkpt>
      <trkpt lat="62.630386691919" lon="17.970624537077">
        <ele>82.6</ele>
        <time>2018-01-22T18:45:54Z</time>
      </trkpt>
      <trkpt lat="62.630406892298" lon="17.970572485478">
        <ele>82.4</ele>
        <time>2018-01-22T18:45:55Z</time>
      </trkpt>
      <trkpt lat="62.630426422125" lon="17.970520433879">
        <ele>82.4</ele>
        <time>2018-01-22T18:45:56Z</time>
      </trkpt>
      <trkpt lat="62.630448215065" lon="17.970476345085">
        <ele>82.2</ele>
        <time>2018-01-22T18:45:57Z</time>
      </trkpt>
      <trkpt lat="62.630473025489" lon="17.97043904563">
        <ele>82</ele>
        <time>2018-01-22T18:45:58Z</time>
      </trkpt>
      <trkpt lat="62.63049808737" lon="17.970397806682">
        <ele>81.8</ele>
        <time>2018-01-22T18:45:59Z</time>
      </trkpt>
      <trkpt lat="62.630522981613" lon="17.97036947586">
        <ele>81.6</ele>
        <time>2018-01-22T18:46:00Z</time>
      </trkpt>
      <trkpt lat="62.630553156453" lon="17.970342486142">
        <ele>81.4</ele>
        <time>2018-01-22T18:46:01Z</time>
      </trkpt>
      <trkpt lat="62.630582325465" lon="17.970327231084">
        <ele>81</ele>
        <time>2018-01-22T18:46:02Z</time>
      </trkpt>
      <trkpt lat="62.630610656287" lon="17.970308790904">
        <ele>80.8</ele>
        <time>2018-01-22T18:46:03Z</time>
      </trkpt>
      <trkpt lat="62.630642842783" lon="17.970289596353">
        <ele>80.6</ele>
        <time>2018-01-22T18:46:04Z</time>
      </trkpt>
      <trkpt lat="62.630667317931" lon="17.9702739222">
        <ele>80.6</ele>
        <time>2018-01-22T18:46:05Z</time>
      </trkpt>
      <trkpt lat="62.630698666237" lon="17.970251961622">
        <ele>80.4</ele>
        <time>2018-01-22T18:46:06Z</time>
      </trkpt>
      <trkpt lat="62.630726577964" lon="17.970240143143">
        <ele>80.2</ele>
        <time>2018-01-22T18:46:07Z</time>
      </trkpt>
      <trkpt lat="62.630754070596" lon="17.970223295524">
        <ele>80.2</ele>
        <time>2018-01-22T18:46:08Z</time>
      </trkpt>
      <trkpt lat="62.630786508549" lon="17.970211141769">
        <ele>80</ele>
        <time>2018-01-22T18:46:09Z</time>
      </trkpt>
      <trkpt lat="62.63081659957" lon="17.97020435243">
        <ele>80</ele>
        <time>2018-01-22T18:46:10Z</time>
      </trkpt>
      <trkpt lat="62.630841158537" lon="17.970194797064">
        <ele>79.8</ele>
        <time>2018-01-22T18:46:11Z</time>
      </trkpt>
      <trkpt lat="62.630886336978" lon="17.970166214785">
        <ele>79.6</ele>
        <time>2018-01-22T18:46:13Z</time>
      </trkpt>
      <trkpt lat="62.630921540958" lon="17.970142158732">
        <ele>79.6</ele>
        <time>2018-01-22T18:46:14Z</time>
      </trkpt>
      <trkpt lat="62.6309481954" lon="17.970126484579">
        <ele>79.6</ele>
        <time>2018-01-22T18:46:15Z</time>
      </trkpt>
      <trkpt lat="62.630973257281" lon="17.970110810426">
        <ele>73.4</ele>
        <time>2018-01-22T18:46:16Z</time>
      </trkpt>
      <trkpt lat="62.631003180664" lon="17.970094298083">
        <ele>73.2</ele>
        <time>2018-01-22T18:46:17Z</time>
      </trkpt>
      <trkpt lat="62.631028829278" lon="17.970082479604">
        <ele>73.4</ele>
        <time>2018-01-22T18:46:18Z</time>
      </trkpt>
      <trkpt lat="62.63105799829" lon="17.970076863731">
        <ele>73.2</ele>
        <time>2018-01-22T18:46:19Z</time>
      </trkpt>
      <trkpt lat="62.63109152589" lon="17.970058926465">
        <ele>73.2</ele>
        <time>2018-01-22T18:46:20Z</time>
      </trkpt>
      <trkpt lat="62.631117761237" lon="17.970047862357">
        <ele>73</ele>
        <time>2018-01-22T18:46:21Z</time>
      </trkpt>
      <trkpt lat="62.631146092059" lon="17.970029673634">
        <ele>79.2</ele>
        <time>2018-01-22T18:46:22Z</time>
      </trkpt>
      <trkpt lat="62.631171489216" lon="17.970016849327">
        <ele>79</ele>
        <time>2018-01-22T18:46:23Z</time>
      </trkpt>
      <trkpt lat="62.63119881421" lon="17.969997235681">
        <ele>78.8</ele>
        <time>2018-01-22T18:46:24Z</time>
      </trkpt>
      <trkpt lat="62.631224965738" lon="17.969987428858">
        <ele>78.6</ele>
        <time>2018-01-22T18:46:25Z</time>
      </trkpt>
      <trkpt lat="62.631256984596" lon="17.969973766361">
        <ele>78.8</ele>
        <time>2018-01-22T18:46:26Z</time>
      </trkpt>
      <trkpt lat="62.631281292106" lon="17.969960774416">
        <ele>78.6</ele>
        <time>2018-01-22T18:46:27Z</time>
      </trkpt>
      <trkpt lat="62.631305683435" lon="17.969952560154">
        <ele>78.6</ele>
        <time>2018-01-22T18:46:28Z</time>
      </trkpt>
      <trkpt lat="62.631332840791" lon="17.969939065295">
        <ele>78.6</ele>
        <time>2018-01-22T18:46:29Z</time>
      </trkpt>
      <trkpt lat="62.63135807031" lon="17.96992355878">
        <ele>78.6</ele>
        <time>2018-01-22T18:46:30Z</time>
      </trkpt>
      <trkpt lat="62.631388915702" lon="17.96991014774">
        <ele>78.6</ele>
        <time>2018-01-22T18:46:31Z</time>
      </trkpt>
      <trkpt lat="62.631408864624" lon="17.969889695904">
        <ele>78.6</ele>
        <time>2018-01-22T18:46:32Z</time>
      </trkpt>
      <trkpt lat="62.6314343456" lon="17.969877793606">
        <ele>78.6</ele>
        <time>2018-01-22T18:46:33Z</time>
      </trkpt>
      <trkpt lat="62.631465526268" lon="17.969858766693">
        <ele>78.4</ele>
        <time>2018-01-22T18:46:34Z</time>
      </trkpt>
      <trkpt lat="62.631492348348" lon="17.969845523291">
        <ele>78.4</ele>
        <time>2018-01-22T18:46:35Z</time>
      </trkpt>
      <trkpt lat="62.631516152944" lon="17.969831106423">
        <ele>78.4</ele>
        <time>2018-01-22T18:46:36Z</time>
      </trkpt>
      <trkpt lat="62.63154414849" lon="17.969820629048">
        <ele>78.4</ele>
        <time>2018-01-22T18:46:37Z</time>
      </trkpt>
      <trkpt lat="62.631572814588" lon="17.969809062026">
        <ele>78.2</ele>
        <time>2018-01-22T18:46:38Z</time>
      </trkpt>
      <trkpt lat="62.631601564505" lon="17.969790035113">
        <ele>78.2</ele>
        <time>2018-01-22T18:46:39Z</time>
      </trkpt>
      <trkpt lat="62.631625955834" lon="17.969773438951">
        <ele>78.2</ele>
        <time>2018-01-22T18:46:40Z</time>
      </trkpt>
      <trkpt lat="62.631653532285" lon="17.969748628527">
        <ele>78</ele>
        <time>2018-01-22T18:46:41Z</time>
      </trkpt>
      <trkpt lat="62.63167574432" lon="17.969727506139">
        <ele>78</ele>
        <time>2018-01-22T18:46:42Z</time>
      </trkpt>
      <trkpt lat="62.631699800373" lon="17.969711999624">
        <ele>78</ele>
        <time>2018-01-22T18:46:43Z</time>
      </trkpt>
      <trkpt lat="62.631719665476" lon="17.969681740965">
        <ele>78</ele>
        <time>2018-01-22T18:46:44Z</time>
      </trkpt>
      <trkpt lat="62.63173777038" lon="17.969648800098">
        <ele>78</ele>
        <time>2018-01-22T18:46:45Z</time>
      </trkpt>
      <trkpt lat="62.631766855573" lon="17.969604878942">
        <ele>77.8</ele>
        <time>2018-01-22T18:46:46Z</time>
      </trkpt>
      <trkpt lat="62.631792588006" lon="17.969572021894">
        <ele>77.6</ele>
        <time>2018-01-22T18:46:47Z</time>
      </trkpt>
      <trkpt lat="62.631810189996" lon="17.969553497895">
        <ele>77.6</ele>
        <time>2018-01-22T18:46:48Z</time>
      </trkpt>
      <trkpt lat="62.631843466139" lon="17.96955726975">
        <ele>77.4</ele>
        <time>2018-01-22T18:46:49Z</time>
      </trkpt>
      <trkpt lat="62.631865259079" lon="17.969565567831">
        <ele>77.2</ele>
        <time>2018-01-22T18:46:50Z</time>
      </trkpt>
      <trkpt lat="62.6318953501" lon="17.96957487174">
        <ele>77.2</ele>
        <time>2018-01-22T18:46:51Z</time>
      </trkpt>
      <trkpt lat="62.631921585447" lon="17.969579481785">
        <ele>77.2</ele>
        <time>2018-01-22T18:46:52Z</time>
      </trkpt>
      <trkpt lat="62.631941618188" lon="17.969582080174">
        <ele>77.2</ele>
        <time>2018-01-22T18:46:53Z</time>
      </trkpt>
      <trkpt lat="62.631970368105" lon="17.969576799577">
        <ele>77.2</ele>
        <time>2018-01-22T18:46:54Z</time>
      </trkpt>
      <trkpt lat="62.632000626764" lon="17.969571686618">
        <ele>77.6</ele>
        <time>2018-01-22T18:46:55Z</time>
      </trkpt>
      <trkpt lat="62.632019737496" lon="17.969565400193">
        <ele>77.6</ele>
        <time>2018-01-22T18:46:56Z</time>
      </trkpt>
      <trkpt lat="62.6320546062" lon="17.969557521207">
        <ele>77.6</ele>
        <time>2018-01-22T18:46:57Z</time>
      </trkpt>
      <trkpt lat="62.632073968389" lon="17.969557940302">
        <ele>77.8</ele>
        <time>2018-01-22T18:46:58Z</time>
      </trkpt>
      <trkpt lat="62.632103053582" lon="17.969550899506">
        <ele>77.8</ele>
        <time>2018-01-22T18:46:59Z</time>
      </trkpt>
      <trkpt lat="62.632125684712" lon="17.969546876194">
        <ele>77.8</ele>
        <time>2018-01-22T18:47:00Z</time>
      </trkpt>
      <trkpt lat="62.632157535932" lon="17.969539332484">
        <ele>77.8</ele>
        <time>2018-01-22T18:47:01Z</time>
      </trkpt>
      <trkpt lat="62.63218452565" lon="17.969534722439">
        <ele>77.8</ele>
        <time>2018-01-22T18:47:02Z</time>
      </trkpt>
      <trkpt lat="62.632201121812" lon="17.969524328883">
        <ele>77.8</ele>
        <time>2018-01-22T18:47:03Z</time>
      </trkpt>
      <trkpt lat="62.632238337448" lon="17.969510750205">
        <ele>78</ele>
        <time>2018-01-22T18:47:04Z</time>
      </trkpt>
      <trkpt lat="62.632262980234" lon="17.969503793228">
        <ele>77.8</ele>
        <time>2018-01-22T18:47:05Z</time>
      </trkpt>
      <trkpt lat="62.632290472866" lon="17.969496333337">
        <ele>78</ele>
        <time>2018-01-22T18:47:06Z</time>
      </trkpt>
      <trkpt lat="62.632318049317" lon="17.969491471835">
        <ele>78</ele>
        <time>2018-01-22T18:47:07Z</time>
      </trkpt>
      <trkpt lat="62.632339758438" lon="17.969489041084">
        <ele>77.8</ele>
        <time>2018-01-22T18:47:08Z</time>
      </trkpt>
      <trkpt lat="62.632371777296" lon="17.96949021455">
        <ele>77.8</ele>
        <time>2018-01-22T18:47:09Z</time>
      </trkpt>
      <trkpt lat="62.632396420082" lon="17.969489208722">
        <ele>77.6</ele>
        <time>2018-01-22T18:47:10Z</time>
      </trkpt>
      <trkpt lat="62.632419554126" lon="17.969490382188">
        <ele>77.6</ele>
        <time>2018-01-22T18:47:11Z</time>
      </trkpt>
      <trkpt lat="62.632446962939" lon="17.969491723292">
        <ele>77.6</ele>
        <time>2018-01-22T18:47:12Z</time>
      </trkpt>
      <trkpt lat="62.632471018992" lon="17.969490885102">
        <ele>77.8</ele>
        <time>2018-01-22T18:47:13Z</time>
      </trkpt>
      <trkpt lat="62.632494572131" lon="17.969491807111">
        <ele>77.8</ele>
        <time>2018-01-22T18:47:14Z</time>
      </trkpt>
      <trkpt lat="62.632528099731" lon="17.969497674441">
        <ele>77.8</ele>
        <time>2018-01-22T18:47:15Z</time>
      </trkpt>
      <trkpt lat="62.632555927639" lon="17.969501027201">
        <ele>77.8</ele>
        <time>2018-01-22T18:47:16Z</time>
      </trkpt>
      <trkpt lat="62.632582498262" lon="17.969504044685">
        <ele>78</ele>
        <time>2018-01-22T18:47:17Z</time>
      </trkpt>
      <trkpt lat="62.632609404161" lon="17.969512929499">
        <ele>77.8</ele>
        <time>2018-01-22T18:47:18Z</time>
      </trkpt>
      <trkpt lat="62.632635974784" lon="17.969515695526">
        <ele>77.8</ele>
        <time>2018-01-22T18:47:19Z</time>
      </trkpt>
      <trkpt lat="62.632664054149" lon="17.969515108793">
        <ele>78</ele>
        <time>2018-01-22T18:47:20Z</time>
      </trkpt>
      <trkpt lat="62.632694564265" lon="17.969519802657">
        <ele>78</ele>
        <time>2018-01-22T18:47:21Z</time>
      </trkpt>
      <trkpt lat="62.632719039413" lon="17.969518629191">
        <ele>78</ele>
        <time>2018-01-22T18:47:22Z</time>
      </trkpt>
      <trkpt lat="62.63274611295" lon="17.969522987779">
        <ele>78</ele>
        <time>2018-01-22T18:47:23Z</time>
      </trkpt>
      <trkpt lat="62.632772683573" lon="17.969528603652">
        <ele>78</ele>
        <time>2018-01-22T18:47:24Z</time>
      </trkpt>
      <trkpt lat="62.632797326359" lon="17.969528352195">
        <ele>78</ele>
        <time>2018-01-22T18:47:25Z</time>
      </trkpt>
      <trkpt lat="62.632821801507" lon="17.96954134414">
        <ele>78.2</ele>
        <time>2018-01-22T18:47:26Z</time>
      </trkpt>
      <trkpt lat="62.632848875044" lon="17.969550815687">
        <ele>78.2</ele>
        <time>2018-01-22T18:47:27Z</time>
      </trkpt>
      <trkpt lat="62.632870416527" lon="17.969547714384">
        <ele>78.2</ele>
        <time>2018-01-22T18:47:28Z</time>
      </trkpt>
      <trkpt lat="62.632898160616" lon="17.969554922818">
        <ele>78.2</ele>
        <time>2018-01-22T18:47:29Z</time>
      </trkpt>
      <trkpt lat="62.632921210841" lon="17.969559616682">
        <ele>78.4</ele>
        <time>2018-01-22T18:47:30Z</time>
      </trkpt>
      <trkpt lat="62.63294644036" lon="17.96956397527">
        <ele>78.6</ele>
        <time>2018-01-22T18:47:31Z</time>
      </trkpt>
      <trkpt lat="62.63297242425" lon="17.969569926419">
        <ele>78.6</ele>
        <time>2018-01-22T18:47:32Z</time>
      </trkpt>
      <trkpt lat="62.632995977389" lon="17.969570513152">
        <ele>78.6</ele>
        <time>2018-01-22T18:47:33Z</time>
      </trkpt>
      <trkpt lat="62.633023805297" lon="17.96957570993">
        <ele>78.6</ele>
        <time>2018-01-22T18:47:34Z</time>
      </trkpt>
      <trkpt lat="62.633051465567" lon="17.969582163993">
        <ele>78.8</ele>
        <time>2018-01-22T18:47:35Z</time>
      </trkpt>
      <trkpt lat="62.63307803619" lon="17.969587360771">
        <ele>78.8</ele>
        <time>2018-01-22T18:47:36Z</time>
      </trkpt>
      <trkpt lat="62.633103014252" lon="17.969591551721">
        <ele>78.8</ele>
        <time>2018-01-22T18:47:37Z</time>
      </trkpt>
      <trkpt lat="62.633125896839" lon="17.969603454019">
        <ele>78.8</ele>
        <time>2018-01-22T18:47:38Z</time>
      </trkpt>
      <trkpt lat="62.633153054195" lon="17.969612422652">
        <ele>78.8</ele>
        <time>2018-01-22T18:47:39Z</time>
      </trkpt>
      <trkpt lat="62.633176858791" lon="17.96962264857">
        <ele>79</ele>
        <time>2018-01-22T18:47:40Z</time>
      </trkpt>
      <trkpt lat="62.63320125012" lon="17.96963857418">
        <ele>79</ele>
        <time>2018-01-22T18:47:41Z</time>
      </trkpt>
      <trkpt lat="62.633225306173" lon="17.969650644116">
        <ele>79</ele>
        <time>2018-01-22T18:47:42Z</time>
      </trkpt>
      <trkpt lat="62.633247853484" lon="17.96966455807">
        <ele>79</ele>
        <time>2018-01-22T18:47:43Z</time>
      </trkpt>
      <trkpt lat="62.633272244813" lon="17.969683249707">
        <ele>79</ele>
        <time>2018-01-22T18:47:44Z</time>
      </trkpt>
      <trkpt lat="62.633296300866" lon="17.969708479226">
        <ele>79</ele>
        <time>2018-01-22T18:47:45Z</time>
      </trkpt>
      <trkpt lat="62.633323122946" lon="17.969749131441">
        <ele>79</ele>
        <time>2018-01-22T18:47:46Z</time>
      </trkpt>
      <trkpt lat="62.633342233678" lon="17.969785005973">
        <ele>79</ele>
        <time>2018-01-22T18:47:47Z</time>
      </trkpt>
      <trkpt lat="62.63335463889" lon="17.969828424215">
        <ele>79</ele>
        <time>2018-01-22T18:47:48Z</time>
      </trkpt>
      <trkpt lat="62.633368385206" lon="17.969888690076">
        <ele>79.2</ele>
        <time>2018-01-22T18:47:49Z</time>
      </trkpt>
      <trkpt lat="62.633377102382" lon="17.969924648427">
        <ele>79.2</ele>
        <time>2018-01-22T18:47:50Z</time>
      </trkpt>
      <trkpt lat="62.633384646092" lon="17.969991033075">
        <ele>79.4</ele>
        <time>2018-01-22T18:47:51Z</time>
      </trkpt>
      <trkpt lat="62.633386406291" lon="17.970046185977">
        <ele>79.4</ele>
        <time>2018-01-22T18:47:52Z</time>
      </trkpt>
      <trkpt lat="62.633387747395" lon="17.970095555368">
        <ele>79.6</ele>
        <time>2018-01-22T18:47:53Z</time>
      </trkpt>
      <trkpt lat="62.633392608897" lon="17.970154144849">
        <ele>79.8</ele>
        <time>2018-01-22T18:47:54Z</time>
      </trkpt>
      <trkpt lat="62.633395374924" lon="17.970207789009">
        <ele>80</ele>
        <time>2018-01-22T18:47:55Z</time>
      </trkpt>
      <trkpt lat="62.633398643865" lon="17.970256487848">
        <ele>80</ele>
        <time>2018-01-22T18:47:56Z</time>
      </trkpt>
      <trkpt lat="62.633397889494" lon="17.97031164075">
        <ele>80.2</ele>
        <time>2018-01-22T18:47:57Z</time>
      </trkpt>
      <trkpt lat="62.633400236426" lon="17.970356735372">
        <ele>80.4</ele>
        <time>2018-01-22T18:47:58Z</time>
      </trkpt>
      <trkpt lat="62.63340325391" lon="17.970410798627">
        <ele>80.4</ele>
        <time>2018-01-22T18:47:59Z</time>
      </trkpt>
      <trkpt lat="62.633407277222" lon="17.970470477755">
        <ele>80.6</ele>
        <time>2018-01-22T18:48:00Z</time>
      </trkpt>
      <trkpt lat="62.633409875611" lon="17.970522948449">
        <ele>80.6</ele>
        <time>2018-01-22T18:48:01Z</time>
      </trkpt>
      <trkpt lat="62.633412893095" lon="17.970577766075">
        <ele>80.8</ele>
        <time>2018-01-22T18:48:02Z</time>
      </trkpt>
      <trkpt lat="62.633414569475" lon="17.970632835158">
        <ele>80.8</ele>
        <time>2018-01-22T18:48:03Z</time>
      </trkpt>
      <trkpt lat="62.633417586959" lon="17.970670134613">
        <ele>80.8</ele>
        <time>2018-01-22T18:48:04Z</time>
      </trkpt>
      <trkpt lat="62.633420688262" lon="17.970737608908">
        <ele>81</ele>
        <time>2018-01-22T18:48:05Z</time>
      </trkpt>
      <trkpt lat="62.633425717402" lon="17.970797623312">
        <ele>81</ele>
        <time>2018-01-22T18:48:06Z</time>
      </trkpt>
      <trkpt lat="62.633428567248" lon="17.970848249988">
        <ele>81</ele>
        <time>2018-01-22T18:48:07Z</time>
      </trkpt>
      <trkpt lat="62.633428818705" lon="17.97090172651">
        <ele>81.2</ele>
        <time>2018-01-22T18:48:08Z</time>
      </trkpt>
      <trkpt lat="62.633429740714" lon="17.970965177493">
        <ele>81.2</ele>
        <time>2018-01-22T18:48:09Z</time>
      </trkpt>
      <trkpt lat="62.63343091418" lon="17.97101572035">
        <ele>81.4</ele>
        <time>2018-01-22T18:48:10Z</time>
      </trkpt>
      <trkpt lat="62.633432003827" lon="17.971075483297">
        <ele>81.6</ele>
        <time>2018-01-22T18:48:11Z</time>
      </trkpt>
      <trkpt lat="62.633433177293" lon="17.971130636199">
        <ele>81.6</ele>
        <time>2018-01-22T18:48:12Z</time>
      </trkpt>
      <trkpt lat="62.633434434578" lon="17.971178580667">
        <ele>81.8</ele>
        <time>2018-01-22T18:48:13Z</time>
      </trkpt>
      <trkpt lat="62.633434015483" lon="17.971241696374">
        <ele>82</ele>
        <time>2018-01-22T18:48:14Z</time>
      </trkpt>
      <trkpt lat="62.633434769854" lon="17.971291736317">
        <ele>82</ele>
        <time>2018-01-22T18:48:15Z</time>
      </trkpt>
      <trkpt lat="62.633436446234" lon="17.971349822884">
        <ele>82.2</ele>
        <time>2018-01-22T18:48:16Z</time>
      </trkpt>
      <trkpt lat="62.633434434578" lon="17.971408747641">
        <ele>82.2</ele>
        <time>2018-01-22T18:48:17Z</time>
      </trkpt>
      <trkpt lat="62.633432506741" lon="17.971455351005">
        <ele>82.2</ele>
        <time>2018-01-22T18:48:18Z</time>
      </trkpt>
      <trkpt lat="62.63342588504" lon="17.971516203599">
        <ele>82.4</ele>
        <time>2018-01-22T18:48:19Z</time>
      </trkpt>
      <trkpt lat="62.63342253228" lon="17.971568841931">
        <ele>82.6</ele>
        <time>2018-01-22T18:48:20Z</time>
      </trkpt>
      <trkpt lat="62.633421191176" lon="17.97162256991">
        <ele>82.6</ele>
        <time>2018-01-22T18:48:21Z</time>
      </trkpt>
      <trkpt lat="62.633417922235" lon="17.971676297889">
        <ele>82.6</ele>
        <time>2018-01-22T18:48:22Z</time>
      </trkpt>
      <trkpt lat="62.633415156208" lon="17.971728349488">
        <ele>82.8</ele>
        <time>2018-01-22T18:48:23Z</time>
      </trkpt>
      <trkpt lat="62.633409707973" lon="17.971788028616">
        <ele>82.8</ele>
        <time>2018-01-22T18:48:24Z</time>
      </trkpt>
      <trkpt lat="62.633403756824" lon="17.971844857898">
        <ele>82.8</ele>
        <time>2018-01-22T18:48:25Z</time>
      </trkpt>
      <trkpt lat="62.63340073934" lon="17.971896322764">
        <ele>82.8</ele>
        <time>2018-01-22T18:48:26Z</time>
      </trkpt>
      <trkpt lat="62.63339403382" lon="17.971956420987">
        <ele>82.8</ele>
        <time>2018-01-22T18:48:27Z</time>
      </trkpt>
      <trkpt lat="62.633388417947" lon="17.972008388767">
        <ele>83</ele>
        <time>2018-01-22T18:48:28Z</time>
      </trkpt>
      <trkpt lat="62.633383388807" lon="17.972064547497">
        <ele>83</ele>
        <time>2018-01-22T18:48:29Z</time>
      </trkpt>
      <trkpt lat="62.63337643183" lon="17.97211542563">
        <ele>83.2</ele>
        <time>2018-01-22T18:48:30Z</time>
      </trkpt>
      <trkpt lat="62.633368301387" lon="17.972173176921">
        <ele>83.4</ele>
        <time>2018-01-22T18:48:31Z</time>
      </trkpt>
      <trkpt lat="62.633360422401" lon="17.972216343706">
        <ele>83.6</ele>
        <time>2018-01-22T18:48:32Z</time>
      </trkpt>
      <trkpt lat="62.633354722709" lon="17.972272837712">
        <ele>83.6</ele>
        <time>2018-01-22T18:48:33Z</time>
      </trkpt>
      <trkpt lat="62.633344832067" lon="17.972325978958">
        <ele>83.8</ele>
        <time>2018-01-22T18:48:34Z</time>
      </trkpt>
      <trkpt lat="62.633336701624" lon="17.972376186539">
        <ele>83.8</ele>
        <time>2018-01-22T18:48:35Z</time>
      </trkpt>
      <trkpt lat="62.633325553697" lon="17.972431171803">
        <ele>83.8</ele>
        <time>2018-01-22T18:48:36Z</time>
      </trkpt>
      <trkpt lat="62.633318345263" lon="17.972477775167">
        <ele>84</ele>
        <time>2018-01-22T18:48:37Z</time>
      </trkpt>
      <trkpt lat="62.633311472105" lon="17.972522534513">
        <ele>84</ele>
        <time>2018-01-22T18:48:38Z</time>
      </trkpt>
      <trkpt lat="62.633302168196" lon="17.972582968012">
        <ele>84.2</ele>
        <time>2018-01-22T18:48:39Z</time>
      </trkpt>
      <trkpt lat="62.633293786296" lon="17.972627811177">
        <ele>84.2</ele>
        <time>2018-01-22T18:48:40Z</time>
      </trkpt>
      <trkpt lat="62.633283895654" lon="17.972683047898">
        <ele>84.4</ele>
        <time>2018-01-22T18:48:41Z</time>
      </trkpt>
      <trkpt lat="62.633271406623" lon="17.97273149528">
        <ele>84.6</ele>
        <time>2018-01-22T18:48:42Z</time>
      </trkpt>
      <trkpt lat="62.633262605628" lon="17.972776506083">
        <ele>84.6</ele>
        <time>2018-01-22T18:48:43Z</time>
      </trkpt>
      <trkpt lat="62.633254139909" lon="17.972827216578">
        <ele>84.6</ele>
        <time>2018-01-22T18:48:44Z</time>
      </trkpt>
      <trkpt lat="62.633243494896" lon="17.972874239037">
        <ele>84.8</ele>
        <time>2018-01-22T18:48:45Z</time>
      </trkpt>
      <trkpt lat="62.633231341141" lon="17.97292092622">
        <ele>84.8</ele>
        <time>2018-01-22T18:48:46Z</time>
      </trkpt>
      <trkpt lat="62.633217846282" lon="17.97296954124">
        <ele>84.8</ele>
        <time>2018-01-22T18:48:47Z</time>
      </trkpt>
      <trkpt lat="62.63320711745" lon="17.973009522903">
        <ele>84.8</ele>
        <time>2018-01-22T18:48:48Z</time>
      </trkpt>
      <trkpt lat="62.633199825197" lon="17.973053527878">
        <ele>84.8</ele>
        <time>2018-01-22T18:48:49Z</time>
      </trkpt>
      <trkpt lat="62.633188509632" lon="17.973099963604">
        <ele>85</ele>
        <time>2018-01-22T18:48:50Z</time>
      </trkpt>
      <trkpt lat="62.633179708637" lon="17.973147069882">
        <ele>85</ele>
        <time>2018-01-22T18:48:51Z</time>
      </trkpt>
      <trkpt lat="62.633167554882" lon="17.97319585254">
        <ele>85</ele>
        <time>2018-01-22T18:48:52Z</time>
      </trkpt>
      <trkpt lat="62.633155401127" lon="17.973241869171">
        <ele>85.2</ele>
        <time>2018-01-22T18:48:53Z</time>
      </trkpt>
      <trkpt lat="62.633146935408" lon="17.973291909114">
        <ele>85.2</ele>
        <time>2018-01-22T18:48:54Z</time>
      </trkpt>
      <trkpt lat="62.633134614015" lon="17.973341278505">
        <ele>85.4</ele>
        <time>2018-01-22T18:48:55Z</time>
      </trkpt>
      <trkpt lat="62.633122795536" lon="17.973386289308">
        <ele>85.4</ele>
        <time>2018-01-22T18:48:56Z</time>
      </trkpt>
      <trkpt lat="62.633114413636" lon="17.973440184925">
        <ele>85.6</ele>
        <time>2018-01-22T18:48:57Z</time>
      </trkpt>
      <trkpt lat="62.633100415863" lon="17.973484357538">
        <ele>85.8</ele>
        <time>2018-01-22T18:48:58Z</time>
      </trkpt>
      <trkpt lat="62.633088513565" lon="17.973533056377">
        <ele>85.8</ele>
        <time>2018-01-22T18:48:59Z</time>
      </trkpt>
      <trkpt lat="62.633077784733" lon="17.97357303804">
        <ele>85.8</ele>
        <time>2018-01-22T18:49:00Z</time>
      </trkpt>
      <trkpt lat="62.633062529675" lon="17.973622239793">
        <ele>86</ele>
        <time>2018-01-22T18:49:01Z</time>
      </trkpt>
      <trkpt lat="62.633052303757" lon="17.973662137637">
        <ele>86</ele>
        <time>2018-01-22T18:49:02Z</time>
      </trkpt>
      <trkpt lat="62.633040485278" lon="17.973711507028">
        <ele>86.2</ele>
        <time>2018-01-22T18:49:03Z</time>
      </trkpt>
      <trkpt lat="62.633027577152" lon="17.973764648274">
        <ele>86.2</ele>
        <time>2018-01-22T18:49:04Z</time>
      </trkpt>
      <trkpt lat="62.633017267415" lon="17.973811754552">
        <ele>86.4</ele>
        <time>2018-01-22T18:49:05Z</time>
      </trkpt>
      <trkpt lat="62.63300259909" lon="17.973865985445">
        <ele>86.4</ele>
        <time>2018-01-22T18:49:06Z</time>
      </trkpt>
      <trkpt lat="62.632986170566" lon="17.973908984592">
        <ele>86.4</ele>
        <time>2018-01-22T18:49:07Z</time>
      </trkpt>
      <trkpt lat="62.632975106458" lon="17.97394603259">
        <ele>86.4</ele>
        <time>2018-01-22T18:49:08Z</time>
      </trkpt>
      <trkpt lat="62.632960019038" lon="17.97400219132">
        <ele>86.4</ele>
        <time>2018-01-22T18:49:09Z</time>
      </trkpt>
      <trkpt lat="62.632948703473" lon="17.974056170756">
        <ele>86.6</ele>
        <time>2018-01-22T18:49:10Z</time>
      </trkpt>
      <trkpt lat="62.63293638208" lon="17.974103947586">
        <ele>86.6</ele>
        <time>2018-01-22T18:49:11Z</time>
      </trkpt>
      <trkpt lat="62.632924312144" lon="17.974159519583">
        <ele>86.6</ele>
        <time>2018-01-22T18:49:12Z</time>
      </trkpt>
      <trkpt lat="62.632913667131" lon="17.974202937825">
        <ele>86.8</ele>
        <time>2018-01-22T18:49:13Z</time>
      </trkpt>
      <trkpt lat="62.632902183928" lon="17.974251720483">
        <ele>86.8</ele>
        <time>2018-01-22T18:49:14Z</time>
      </trkpt>
      <trkpt lat="62.632888772888" lon="17.974302011883">
        <ele>87</ele>
        <time>2018-01-22T18:49:15Z</time>
      </trkpt>
      <trkpt lat="62.632875613305" lon="17.974353895844">
        <ele>87.2</ele>
        <time>2018-01-22T18:49:16Z</time>
      </trkpt>
      <trkpt lat="62.632866225577" lon="17.974406366538">
        <ele>87.2</ele>
        <time>2018-01-22T18:49:17Z</time>
      </trkpt>
      <trkpt lat="62.632857340763" lon="17.974455400653">
        <ele>87.4</ele>
        <time>2018-01-22T18:49:18Z</time>
      </trkpt>
      <trkpt lat="62.632857173125" lon="17.974516923799">
        <ele>87.4</ele>
        <time>2018-01-22T18:49:19Z</time>
      </trkpt>
      <trkpt lat="62.632852060166" lon="17.97457886604">
        <ele>87.4</ele>
        <time>2018-01-22T18:49:20Z</time>
      </trkpt>
      <trkpt lat="62.63283999023" lon="17.974639299539">
        <ele>87.4</ele>
        <time>2018-01-22T18:49:21Z</time>
      </trkpt>
      <trkpt lat="62.632828758484" lon="17.974681879591">
        <ele>87.4</ele>
        <time>2018-01-22T18:49:22Z</time>
      </trkpt>
      <trkpt lat="62.632813251969" lon="17.974731165163">
        <ele>87.2</ele>
        <time>2018-01-22T18:49:23Z</time>
      </trkpt>
      <trkpt lat="62.632797577816" lon="17.97478254621">
        <ele>87.4</ele>
        <time>2018-01-22T18:49:24Z</time>
      </trkpt>
      <trkpt lat="62.632781987482" lon="17.97482194114">
        <ele>87.2</ele>
        <time>2018-01-22T18:49:25Z</time>
      </trkpt>
      <trkpt lat="62.632766900062" lon="17.974861922803">
        <ele>87.4</ele>
        <time>2018-01-22T18:49:26Z</time>
      </trkpt>
      <trkpt lat="62.632749130434" lon="17.974906430692">
        <ele>87.4</ele>
        <time>2018-01-22T18:49:27Z</time>
      </trkpt>
      <trkpt lat="62.632737228136" lon="17.974951609133">
        <ele>87.4</ele>
        <time>2018-01-22T18:49:28Z</time>
      </trkpt>
      <trkpt lat="62.632720464336" lon="17.975005253293">
        <ele>87.4</ele>
        <time>2018-01-22T18:49:29Z</time>
      </trkpt>
      <trkpt lat="62.63271090897" lon="17.975049425906">
        <ele>87.6</ele>
        <time>2018-01-22T18:49:30Z</time>
      </trkpt>
      <trkpt lat="62.632701605061" lon="17.975105500817">
        <ele>87.6</ele>
        <time>2018-01-22T18:49:31Z</time>
      </trkpt>
      <trkpt lat="62.632690121858" lon="17.975153529104">
        <ele>87.6</ele>
        <time>2018-01-22T18:49:32Z</time>
      </trkpt>
      <trkpt lat="62.632679141569" lon="17.975199294278">
        <ele>87.6</ele>
        <time>2018-01-22T18:49:33Z</time>
      </trkpt>
      <trkpt lat="62.632666065805" lon="17.975252184067">
        <ele>87.6</ele>
        <time>2018-01-22T18:49:34Z</time>
      </trkpt>
      <trkpt lat="62.632654079688" lon="17.975301972553">
        <ele>87.8</ele>
        <time>2018-01-22T18:49:35Z</time>
      </trkpt>
      <trkpt lat="62.632644524322" lon="17.975344636424">
        <ele>87.8</ele>
        <time>2018-01-22T18:49:36Z</time>
      </trkpt>
      <trkpt lat="62.632630610368" lon="17.975395682195">
        <ele>87.8</ele>
        <time>2018-01-22T18:49:37Z</time>
      </trkpt>
      <trkpt lat="62.632619797717" lon="17.975438681342">
        <ele>88</ele>
        <time>2018-01-22T18:49:38Z</time>
      </trkpt>
      <trkpt lat="62.63260948798" lon="17.975484027421">
        <ele>87.8</ele>
        <time>2018-01-22T18:49:39Z</time>
      </trkpt>
      <trkpt lat="62.632597669501" lon="17.975541611074">
        <ele>87.8</ele>
        <time>2018-01-22T18:49:40Z</time>
      </trkpt>
      <trkpt lat="62.632586353936" lon="17.975588801171">
        <ele>88</ele>
        <time>2018-01-22T18:49:41Z</time>
      </trkpt>
      <trkpt lat="62.632576714751" lon="17.975633057603">
        <ele>88</ele>
        <time>2018-01-22T18:49:42Z</time>
      </trkpt>
      <trkpt lat="62.632565315367" lon="17.975681002071">
        <ele>88</ele>
        <time>2018-01-22T18:49:43Z</time>
      </trkpt>
      <trkpt lat="62.63255416744" lon="17.975728275987">
        <ele>88</ele>
        <time>2018-01-22T18:49:44Z</time>
      </trkpt>
      <trkpt lat="62.632543103332" lon="17.975776304274">
        <ele>88</ele>
        <time>2018-01-22T18:49:45Z</time>
      </trkpt>
      <trkpt lat="62.632529357016" lon="17.97583447466">
        <ele>88</ele>
        <time>2018-01-22T18:49:46Z</time>
      </trkpt>
      <trkpt lat="62.632518879641" lon="17.97588560425">
        <ele>88</ele>
        <time>2018-01-22T18:49:47Z</time>
      </trkpt>
      <trkpt lat="62.632507983171" lon="17.975933883994">
        <ele>88</ele>
        <time>2018-01-22T18:49:48Z</time>
      </trkpt>
      <trkpt lat="62.632490800276" lon="17.975988953077">
        <ele>88.2</ele>
        <time>2018-01-22T18:49:49Z</time>
      </trkpt>
      <trkpt lat="62.632481161091" lon="17.976033041871">
        <ele>88.2</ele>
        <time>2018-01-22T18:49:50Z</time>
      </trkpt>
      <trkpt lat="62.632469091155" lon="17.976081573072">
        <ele>88.2</ele>
        <time>2018-01-22T18:49:51Z</time>
      </trkpt>
      <trkpt lat="62.632454003735" lon="17.976138318535">
        <ele>88.2</ele>
        <time>2018-01-22T18:49:52Z</time>
      </trkpt>
      <trkpt lat="62.63244436455" lon="17.9761831617">
        <ele>88.2</ele>
        <time>2018-01-22T18:49:53Z</time>
      </trkpt>
      <trkpt lat="62.632430534415" lon="17.97623429129">
        <ele>88.4</ele>
        <time>2018-01-22T18:49:54Z</time>
      </trkpt>
      <trkpt lat="62.632418632117" lon="17.976286761984">
        <ele>88.4</ele>
        <time>2018-01-22T18:49:55Z</time>
      </trkpt>
      <trkpt lat="62.632408909113" lon="17.976332443339">
        <ele>88.4</ele>
        <time>2018-01-22T18:49:56Z</time>
      </trkpt>
      <trkpt lat="62.632396503901" lon="17.976397570702">
        <ele>88.6</ele>
        <time>2018-01-22T18:49:57Z</time>
      </trkpt>
      <trkpt lat="62.632387116173" lon="17.976445934265">
        <ele>88.6</ele>
        <time>2018-01-22T18:49:58Z</time>
      </trkpt>
      <trkpt lat="62.632374878599" lon="17.976497818226">
        <ele>88.6</ele>
        <time>2018-01-22T18:49:59Z</time>
      </trkpt>
      <trkpt lat="62.632362976301" lon="17.976548528721">
        <ele>88.6</ele>
        <time>2018-01-22T18:50:00Z</time>
      </trkpt>
      <trkpt lat="62.632350235813" lon="17.976607369659">
        <ele>88.8</ele>
        <time>2018-01-22T18:50:01Z</time>
      </trkpt>
      <trkpt lat="62.632340261352" lon="17.976650117349">
        <ele>88.8</ele>
        <time>2018-01-22T18:50:02Z</time>
      </trkpt>
      <trkpt lat="62.632327604683" lon="17.976702336586">
        <ele>88.8</ele>
        <time>2018-01-22T18:50:03Z</time>
      </trkpt>
      <trkpt lat="62.632316792032" lon="17.976752041253">
        <ele>88.8</ele>
        <time>2018-01-22T18:50:04Z</time>
      </trkpt>
      <trkpt lat="62.632306649933" lon="17.976801243006">
        <ele>89</ele>
        <time>2018-01-22T18:50:05Z</time>
      </trkpt>
      <trkpt lat="62.632292233065" lon="17.976851450587">
        <ele>89</ele>
        <time>2018-01-22T18:50:06Z</time>
      </trkpt>
      <trkpt lat="62.632280246948" lon="17.976898640684">
        <ele>89</ele>
        <time>2018-01-22T18:50:07Z</time>
      </trkpt>
      <trkpt lat="62.632270272487" lon="17.976940634003">
        <ele>89</ele>
        <time>2018-01-22T18:50:08Z</time>
      </trkpt>
      <trkpt lat="62.632256358533" lon="17.976997295647">
        <ele>89.2</ele>
        <time>2018-01-22T18:50:09Z</time>
      </trkpt>
      <trkpt lat="62.632246719348" lon="17.977046581219">
        <ele>89.2</ele>
        <time>2018-01-22T18:50:10Z</time>
      </trkpt>
      <trkpt lat="62.632236325792" lon="17.97709595061">
        <ele>89.2</ele>
        <time>2018-01-22T18:50:11Z</time>
      </trkpt>
      <trkpt lat="62.632224088218" lon="17.977148253666">
        <ele>89.2</ele>
        <time>2018-01-22T18:50:12Z</time>
      </trkpt>
      <trkpt lat="62.632216544508" lon="17.97718982789">
        <ele>89.2</ele>
        <time>2018-01-22T18:50:13Z</time>
      </trkpt>
      <trkpt lat="62.632206402409" lon="17.977236431254">
        <ele>89.4</ele>
        <time>2018-01-22T18:50:14Z</time>
      </trkpt>
      <trkpt lat="62.632194667749" lon="17.977281609695">
        <ele>89.4</ele>
        <time>2018-01-22T18:50:15Z</time>
      </trkpt>
      <trkpt lat="62.632184441831" lon="17.977326201403">
        <ele>89.4</ele>
        <time>2018-01-22T18:50:16Z</time>
      </trkpt>
      <trkpt lat="62.63217446737" lon="17.977378085364">
        <ele>89.6</ele>
        <time>2018-01-22T18:50:17Z</time>
      </trkpt>
      <trkpt lat="62.632165498737" lon="17.977432148619">
        <ele>89.6</ele>
        <time>2018-01-22T18:50:18Z</time>
      </trkpt>
      <trkpt lat="62.632155524276" lon="17.97748067982">
        <ele>89.6</ele>
        <time>2018-01-22T18:50:19Z</time>
      </trkpt>
      <trkpt lat="62.632150411317" lon="17.977501299294">
        <ele>89.6</ele>
        <time>2018-01-22T18:50:20Z</time>
      </trkpt>
      <trkpt lat="62.632134485707" lon="17.977581094982">
        <ele>89.6</ele>
        <time>2018-01-22T18:50:21Z</time>
      </trkpt>
      <trkpt lat="62.632122248133" lon="17.977643037223">
        <ele>89.8</ele>
        <time>2018-01-22T18:50:22Z</time>
      </trkpt>
      <trkpt lat="62.632109591464" lon="17.977698190125">
        <ele>89.8</ele>
        <time>2018-01-22T18:50:23Z</time>
      </trkpt>
      <trkpt lat="62.632096934795" lon="17.97775141519">
        <ele>89.8</ele>
        <time>2018-01-22T18:50:24Z</time>
      </trkpt>
      <trkpt lat="62.632086541239" lon="17.977801287495">
        <ele>89.8</ele>
        <time>2018-01-22T18:50:25Z</time>
      </trkpt>
      <trkpt lat="62.632075225674" lon="17.977854177284">
        <ele>90</ele>
        <time>2018-01-22T18:50:26Z</time>
      </trkpt>
      <trkpt lat="62.632063574833" lon="17.977905893607">
        <ele>90</ele>
        <time>2018-01-22T18:50:27Z</time>
      </trkpt>
      <trkpt lat="62.632053265096" lon="17.977952329333">
        <ele>90.2</ele>
        <time>2018-01-22T18:50:28Z</time>
      </trkpt>
      <trkpt lat="62.632037339486" lon="17.978006560226">
        <ele>90.2</ele>
        <time>2018-01-22T18:50:29Z</time>
      </trkpt>
      <trkpt lat="62.632028454672" lon="17.978051990124">
        <ele>90.2</ele>
        <time>2018-01-22T18:50:30Z</time>
      </trkpt>
      <trkpt lat="62.63201688765" lon="17.978104712275">
        <ele>90.4</ele>
        <time>2018-01-22T18:50:31Z</time>
      </trkpt>
      <trkpt lat="62.6320043148" lon="17.978155171313">
        <ele>90.2</ele>
        <time>2018-01-22T18:50:32Z</time>
      </trkpt>
      <trkpt lat="62.631991406674" lon="17.978197835184">
        <ele>90.4</ele>
        <time>2018-01-22T18:50:33Z</time>
      </trkpt>
      <trkpt lat="62.631975397245" lon="17.97824678548">
        <ele>90.4</ele>
        <time>2018-01-22T18:50:34Z</time>
      </trkpt>
      <trkpt lat="62.631960226006" lon="17.978295903414">
        <ele>90.4</ele>
        <time>2018-01-22T18:50:35Z</time>
      </trkpt>
      <trkpt lat="62.631952430839" lon="17.97834820647">
        <ele>90.4</ele>
        <time>2018-01-22T18:50:36Z</time>
      </trkpt>
      <trkpt lat="62.631938768342" lon="17.978394642196">
        <ele>90.4</ele>
        <time>2018-01-22T18:50:37Z</time>
      </trkpt>
      <trkpt lat="62.63192803951" lon="17.978439401542">
        <ele>90.4</ele>
        <time>2018-01-22T18:50:38Z</time>
      </trkpt>
      <trkpt lat="62.631915801936" lon="17.978492710426">
        <ele>90.6</ele>
        <time>2018-01-22T18:50:39Z</time>
      </trkpt>
      <trkpt lat="62.631902558534" lon="17.978545097301">
        <ele>90.6</ele>
        <time>2018-01-22T18:50:40Z</time>
      </trkpt>
      <trkpt lat="62.631891326788" lon="17.978591449208">
        <ele>90.8</ele>
        <time>2018-01-22T18:50:41Z</time>
      </trkpt>
      <trkpt lat="62.631881771422" lon="17.978641153875">
        <ele>90.8</ele>
        <time>2018-01-22T18:50:42Z</time>
      </trkpt>
      <trkpt lat="62.631869785305" lon="17.978689601257">
        <ele>90.8</ele>
        <time>2018-01-22T18:50:43Z</time>
      </trkpt>
      <trkpt lat="62.631858050645" lon="17.978734109146">
        <ele>90.8</ele>
        <time>2018-01-22T18:50:44Z</time>
      </trkpt>
      <trkpt lat="62.631850171659" lon="17.978782053614">
        <ele>90.8</ele>
        <time>2018-01-22T18:50:45Z</time>
      </trkpt>
      <trkpt lat="62.631837179714" lon="17.97883770943">
        <ele>91</ele>
        <time>2018-01-22T18:50:46Z</time>
      </trkpt>
      <trkpt lat="62.631827791986" lon="17.978884983346">
        <ele>91</ele>
        <time>2018-01-22T18:50:47Z</time>
      </trkpt>
      <trkpt lat="62.631815470593" lon="17.978935526203">
        <ele>91</ele>
        <time>2018-01-22T18:50:48Z</time>
      </trkpt>
      <trkpt lat="62.631803735933" lon="17.978989505639">
        <ele>91.2</ele>
        <time>2018-01-22T18:50:49Z</time>
      </trkpt>
      <trkpt lat="62.631795521671" lon="17.979035103175">
        <ele>91.2</ele>
        <time>2018-01-22T18:50:50Z</time>
      </trkpt>
      <trkpt lat="62.631783116459" lon="17.979089334068">
        <ele>91.2</ele>
        <time>2018-01-22T18:50:51Z</time>
      </trkpt>
      <trkpt lat="62.631772052351" lon="17.979141050391">
        <ele>91.2</ele>
        <time>2018-01-22T18:50:52Z</time>
      </trkpt>
      <trkpt lat="62.631763335175" lon="17.979185474461">
        <ele>91.2</ele>
        <time>2018-01-22T18:50:53Z</time>
      </trkpt>
      <trkpt lat="62.631750427049" lon="17.979240292087">
        <ele>91.4</ele>
        <time>2018-01-22T18:50:54Z</time>
      </trkpt>
      <trkpt lat="62.631738189475" lon="17.979284967614">
        <ele>91.4</ele>
        <time>2018-01-22T18:50:55Z</time>
      </trkpt>
      <trkpt lat="62.631729807575" lon="17.979326458019">
        <ele>91.4</ele>
        <time>2018-01-22T18:50:56Z</time>
      </trkpt>
      <trkpt lat="62.631717067087" lon="17.97938420931">
        <ele>91.4</ele>
        <time>2018-01-22T18:50:57Z</time>
      </trkpt>
      <trkpt lat="62.631706924988" lon="17.979428298104">
        <ele>91.4</ele>
        <time>2018-01-22T18:50:58Z</time>
      </trkpt>
      <trkpt lat="62.631695190328" lon="17.97947389564">
        <ele>91.4</ele>
        <time>2018-01-22T18:50:59Z</time>
      </trkpt>
      <trkpt lat="62.631683455668" lon="17.979523600307">
        <ele>91.6</ele>
        <time>2018-01-22T18:51:00Z</time>
      </trkpt>
      <trkpt lat="62.631672140103" lon="17.979574729897">
        <ele>91.8</ele>
        <time>2018-01-22T18:51:01Z</time>
      </trkpt>
      <trkpt lat="62.631660824538" lon="17.979623428736">
        <ele>91.8</ele>
        <time>2018-01-22T18:51:02Z</time>
      </trkpt>
      <trkpt lat="62.631647413498" lon="17.979681012389">
        <ele>92</ele>
        <time>2018-01-22T18:51:03Z</time>
      </trkpt>
      <trkpt lat="62.631637522856" lon="17.979732644893">
        <ele>92</ele>
        <time>2018-01-22T18:51:04Z</time>
      </trkpt>
      <trkpt lat="62.631624363273" lon="17.979779415895">
        <ele>92</ele>
        <time>2018-01-22T18:51:05Z</time>
      </trkpt>
      <trkpt lat="62.631609611129" lon="17.979826354535">
        <ele>92</ele>
        <time>2018-01-22T18:51:06Z</time>
      </trkpt>
      <trkpt lat="62.631601061591" lon="17.979874885736">
        <ele>92</ele>
        <time>2018-01-22T18:51:07Z</time>
      </trkpt>
      <trkpt lat="62.631588991655" lon="17.979920986186">
        <ele>92</ele>
        <time>2018-01-22T18:51:08Z</time>
      </trkpt>
      <trkpt lat="62.63157013238" lon="17.979977228735">
        <ele>92.2</ele>
        <time>2018-01-22T18:51:09Z</time>
      </trkpt>
      <trkpt lat="62.631553200942" lon="17.980017210398">
        <ele>92.2</ele>
        <time>2018-01-22T18:51:10Z</time>
      </trkpt>
      <trkpt lat="62.631531827097" lon="17.980061131554">
        <ele>92.2</ele>
        <time>2018-01-22T18:51:11Z</time>
      </trkpt>
      <trkpt lat="62.63150475356" lon="17.980088540367">
        <ele>92.2</ele>
        <time>2018-01-22T18:51:12Z</time>
      </trkpt>
      <trkpt lat="62.631481787154" lon="17.980110584764">
        <ele>92.2</ele>
        <time>2018-01-22T18:51:13Z</time>
      </trkpt>
      <trkpt lat="62.631453959246" lon="17.980127767659">
        <ele>92.2</ele>
        <time>2018-01-22T18:51:14Z</time>
      </trkpt>
      <trkpt lat="62.631429987012" lon="17.980129024944">
        <ele>92.2</ele>
        <time>2018-01-22T18:51:15Z</time>
      </trkpt>
      <trkpt lat="62.631407439701" lon="17.98012516927">
        <ele>92.2</ele>
        <time>2018-01-22T18:51:16Z</time>
      </trkpt>
      <trkpt lat="62.631383383648" lon="17.980105639443">
        <ele>92.2</ele>
        <time>2018-01-22T18:51:17Z</time>
      </trkpt>
      <trkpt lat="62.631360081966" lon="17.980101364674">
        <ele>92.2</ele>
        <time>2018-01-22T18:51:18Z</time>
      </trkpt>
      <trkpt lat="62.631335020085" lon="17.980094323878">
        <ele>92.2</ele>
        <time>2018-01-22T18:51:19Z</time>
      </trkpt>
      <trkpt lat="62.631307192177" lon="17.980075045508">
        <ele>92.2</ele>
        <time>2018-01-22T18:51:20Z</time>
      </trkpt>
      <trkpt lat="62.631283806676" lon="17.980057359699">
        <ele>92.2</ele>
        <time>2018-01-22T18:51:21Z</time>
      </trkpt>
      <trkpt lat="62.631257990424" lon="17.980040847356">
        <ele>92.2</ele>
        <time>2018-01-22T18:51:22Z</time>
      </trkpt>
      <trkpt lat="62.631235778389" lon="17.980019389692">
        <ele>92.2</ele>
        <time>2018-01-22T18:51:23Z</time>
      </trkpt>
      <trkpt lat="62.63121306344" lon="17.980004972824">
        <ele>92.2</ele>
        <time>2018-01-22T18:51:24Z</time>
      </trkpt>
      <trkpt lat="62.631190851405" lon="17.979984437169">
        <ele>92.4</ele>
        <time>2018-01-22T18:51:25Z</time>
      </trkpt>
      <trkpt lat="62.631168890827" lon="17.979961303125">
        <ele>92.6</ele>
        <time>2018-01-22T18:51:26Z</time>
      </trkpt>
      <trkpt lat="62.631142906937" lon="17.979945964248">
        <ele>92.8</ele>
        <time>2018-01-22T18:51:27Z</time>
      </trkpt>
      <trkpt lat="62.631116503952" lon="17.979926350602">
        <ele>92.8</ele>
        <time>2018-01-22T18:51:28Z</time>
      </trkpt>
      <trkpt lat="62.631092615537" lon="17.979902629825">
        <ele>93</ele>
        <time>2018-01-22T18:51:29Z</time>
      </trkpt>
      <trkpt lat="62.631065793457" lon="17.979899947617">
        <ele>93</ele>
        <time>2018-01-22T18:51:30Z</time>
      </trkpt>
      <trkpt lat="62.631039809567" lon="17.979877651763">
        <ele>93</ele>
        <time>2018-01-22T18:51:31Z</time>
      </trkpt>
      <trkpt lat="62.631017597532" lon="17.979859714497">
        <ele>93.2</ele>
        <time>2018-01-22T18:51:32Z</time>
      </trkpt>
      <trkpt lat="62.630992032737" lon="17.979836412815">
        <ele>93.2</ele>
        <time>2018-01-22T18:51:33Z</time>
      </trkpt>
      <trkpt lat="62.630968563417" lon="17.979816044798">
        <ele>93.4</ele>
        <time>2018-01-22T18:51:34Z</time>
      </trkpt>
      <trkpt lat="62.630948698314" lon="17.979794587134">
        <ele>93.4</ele>
        <time>2018-01-22T18:51:35Z</time>
      </trkpt>
      <trkpt lat="62.63092137332" lon="17.979788468347">
        <ele>93.4</ele>
        <time>2018-01-22T18:51:36Z</time>
      </trkpt>
      <trkpt lat="62.630896311439" lon="17.979770531081">
        <ele>93.4</ele>
        <time>2018-01-22T18:51:37Z</time>
      </trkpt>
      <trkpt lat="62.630875440508" lon="17.979753432005">
        <ele>93.6</ele>
        <time>2018-01-22T18:51:38Z</time>
      </trkpt>
      <trkpt lat="62.630846858229" lon="17.979737171119">
        <ele>93.6</ele>
        <time>2018-01-22T18:51:39Z</time>
      </trkpt>
      <trkpt lat="62.630819617054" lon="17.979715126722">
        <ele>93.6</ele>
        <time>2018-01-22T18:51:40Z</time>
      </trkpt>
      <trkpt lat="62.630796231553" lon="17.979696435085">
        <ele>93.6</ele>
        <time>2018-01-22T18:51:41Z</time>
      </trkpt>
      <trkpt lat="62.630770750577" lon="17.979673803955">
        <ele>93.8</ele>
        <time>2018-01-22T18:51:42Z</time>
      </trkpt>
      <trkpt lat="62.63075122075" lon="17.979636001586">
        <ele>93.8</ele>
        <time>2018-01-22T18:51:43Z</time>
      </trkpt>
      <trkpt lat="62.630724231032" lon="17.979620997985">
        <ele>94</ele>
        <time>2018-01-22T18:51:44Z</time>
      </trkpt>
      <trkpt lat="62.630701516083" lon="17.979592499525">
        <ele>94.2</ele>
        <time>2018-01-22T18:51:45Z</time>
      </trkpt>
      <trkpt lat="62.630677040935" lon="17.979565677445">
        <ele>94.2</ele>
        <time>2018-01-22T18:51:46Z</time>
      </trkpt>
      <trkpt lat="62.630654661262" lon="17.979536508433">
        <ele>94.4</ele>
        <time>2018-01-22T18:51:47Z</time>
      </trkpt>
      <trkpt lat="62.630633957969" lon="17.979500298625">
        <ele>94.4</ele>
        <time>2018-01-22T18:51:48Z</time>
      </trkpt>
      <trkpt lat="62.630610237192" lon="17.97946802831">
        <ele>94.6</ele>
        <time>2018-01-22T18:51:49Z</time>
      </trkpt>
      <trkpt lat="62.630591210279" lon="17.979444642809">
        <ele>94.6</ele>
        <time>2018-01-22T18:51:50Z</time>
      </trkpt>
      <trkpt lat="62.630566986588" lon="17.979405750793">
        <ele>94.6</ele>
        <time>2018-01-22T18:51:51Z</time>
      </trkpt>
      <trkpt lat="62.630549803693" lon="17.979371552641">
        <ele>94.4</ele>
        <time>2018-01-22T18:51:52Z</time>
      </trkpt>
      <trkpt lat="62.630527759296" lon="17.97933056515">
        <ele>94.6</ele>
        <time>2018-01-22T18:51:53Z</time>
      </trkpt>
      <trkpt lat="62.63050144013" lon="17.979296953731">
        <ele>94.6</ele>
        <time>2018-01-22T18:51:54Z</time>
      </trkpt>
      <trkpt lat="62.630484424873" lon="17.979260660104">
        <ele>94.4</ele>
        <time>2018-01-22T18:51:55Z</time>
      </trkpt>
      <trkpt lat="62.630468666901" lon="17.979222019545">
        <ele>94.4</ele>
        <time>2018-01-22T18:51:56Z</time>
      </trkpt>
      <trkpt lat="62.630446706323" lon="17.979178098389">
        <ele>94.6</ele>
        <time>2018-01-22T18:51:57Z</time>
      </trkpt>
      <trkpt lat="62.630429774885" lon="17.979147085359">
        <ele>94.6</ele>
        <time>2018-01-22T18:51:58Z</time>
      </trkpt>
      <trkpt lat="62.630409909782" lon="17.97909587195">
        <ele>94.4</ele>
        <time>2018-01-22T18:51:59Z</time>
      </trkpt>
      <trkpt lat="62.630392559249" lon="17.979048430396">
        <ele>94.4</ele>
        <time>2018-01-22T18:52:00Z</time>
      </trkpt>
      <trkpt lat="62.630372945603" lon="17.978997133168">
        <ele>94.4</ele>
        <time>2018-01-22T18:52:01Z</time>
      </trkpt>
      <trkpt lat="62.630360456572" lon="17.978950194528">
        <ele>94.4</ele>
        <time>2018-01-22T18:52:02Z</time>
      </trkpt>
      <trkpt lat="62.630335227053" lon="17.978901495689">
        <ele>94.4</ele>
        <time>2018-01-22T18:52:03Z</time>
      </trkpt>
      <trkpt lat="62.630319636719" lon="17.978855143782">
        <ele>94.2</ele>
        <time>2018-01-22T18:52:04Z</time>
      </trkpt>
      <trkpt lat="62.630302621462" lon="17.978794710283">
        <ele>94.2</ele>
        <time>2018-01-22T18:52:05Z</time>
      </trkpt>
      <trkpt lat="62.630282756359" lon="17.978748609833">
        <ele>94</ele>
        <time>2018-01-22T18:52:06Z</time>
      </trkpt>
      <trkpt lat="62.630268590948" lon="17.97870108446">
        <ele>94</ele>
        <time>2018-01-22T18:52:07Z</time>
      </trkpt>
      <trkpt lat="62.630254676994" lon="17.978650290146">
        <ele>93.8</ele>
        <time>2018-01-22T18:52:08Z</time>
      </trkpt>
      <trkpt lat="62.630236069176" lon="17.978590527199">
        <ele>93.6</ele>
        <time>2018-01-22T18:52:09Z</time>
      </trkpt>
      <trkpt lat="62.630219892109" lon="17.978542918007">
        <ele>93.4</ele>
        <time>2018-01-22T18:52:10Z</time>
      </trkpt>
      <trkpt lat="62.63020723544" lon="17.978480975766">
        <ele>93.2</ele>
        <time>2018-01-22T18:52:11Z</time>
      </trkpt>
      <trkpt lat="62.630193405305" lon="17.978424817036">
        <ele>93.2</ele>
        <time>2018-01-22T18:52:12Z</time>
      </trkpt>
      <trkpt lat="62.630184855767" lon="17.978370669962">
        <ele>93</ele>
        <time>2018-01-22T18:52:13Z</time>
      </trkpt>
      <trkpt lat="62.630176390048" lon="17.978305123504">
        <ele>93</ele>
        <time>2018-01-22T18:52:14Z</time>
      </trkpt>
      <trkpt lat="62.630169013976" lon="17.978244941462">
        <ele>92.8</ele>
        <time>2018-01-22T18:52:15Z</time>
      </trkpt>
      <trkpt lat="62.630162056999" lon="17.978181155203">
        <ele>92.8</ele>
        <time>2018-01-22T18:52:16Z</time>
      </trkpt>
      <trkpt lat="62.630157279316" lon="17.97811435146">
        <ele>92.6</ele>
        <time>2018-01-22T18:52:17Z</time>
      </trkpt>
      <trkpt lat="62.630157446954" lon="17.978055845798">
        <ele>92.6</ele>
        <time>2018-01-22T18:52:18Z</time>
      </trkpt>
      <trkpt lat="62.63014940033" lon="17.978001614905">
        <ele>92.4</ele>
        <time>2018-01-22T18:52:19Z</time>
      </trkpt>
      <trkpt lat="62.630151328167" lon="17.977933470058">
        <ele>92.4</ele>
        <time>2018-01-22T18:52:20Z</time>
      </trkpt>
      <trkpt lat="62.630153172185" lon="17.977859793157">
        <ele>92.2</ele>
        <time>2018-01-22T18:52:21Z</time>
      </trkpt>
      <trkpt lat="62.630148897416" lon="17.977794833432">
        <ele>92</ele>
        <time>2018-01-22T18:52:22Z</time>
      </trkpt>
      <trkpt lat="62.630151160529" lon="17.977730544259">
        <ele>92</ele>
        <time>2018-01-22T18:52:23Z</time>
      </trkpt>
      <trkpt lat="62.63015694404" lon="17.977665584534">
        <ele>91.8</ele>
        <time>2018-01-22T18:52:24Z</time>
      </trkpt>
      <trkpt lat="62.630157530773" lon="17.977604396664">
        <ele>91.4</ele>
        <time>2018-01-22T18:52:25Z</time>
      </trkpt>
      <trkpt lat="62.630159710067" lon="17.977540694224">
        <ele>91.4</ele>
        <time>2018-01-22T18:52:26Z</time>
      </trkpt>
      <trkpt lat="62.630163481922" lon="17.977469699531">
        <ele>91.2</ele>
        <time>2018-01-22T18:52:27Z</time>
      </trkpt>
      <trkpt lat="62.630166331768" lon="17.977417396475">
        <ele>91.2</ele>
        <time>2018-01-22T18:52:28Z</time>
      </trkpt>
      <trkpt lat="62.63016532594" lon="17.977347826705">
        <ele>90.8</ele>
        <time>2018-01-22T18:52:29Z</time>
      </trkpt>
      <trkpt lat="62.630168594881" lon="17.977282364066">
        <ele>90.8</ele>
        <time>2018-01-22T18:52:30Z</time>
      </trkpt>
      <trkpt lat="62.630168846338" lon="17.977216817608">
        <ele>90.4</ele>
        <time>2018-01-22T18:52:31Z</time>
      </trkpt>
      <trkpt lat="62.63017035508" lon="17.977154037177">
        <ele>90.2</ele>
        <time>2018-01-22T18:52:32Z</time>
      </trkpt>
      <trkpt lat="62.630172953469" lon="17.977086981977">
        <ele>90.2</ele>
        <time>2018-01-22T18:52:33Z</time>
      </trkpt>
      <trkpt lat="62.630173624021" lon="17.977027302849">
        <ele>90</ele>
        <time>2018-01-22T18:52:34Z</time>
      </trkpt>
      <trkpt lat="62.630182592654" lon="17.976957397803">
        <ele>90</ele>
        <time>2018-01-22T18:52:35Z</time>
      </trkpt>
      <trkpt lat="62.630188040889" lon="17.976886822205">
        <ele>90</ele>
        <time>2018-01-22T18:52:36Z</time>
      </trkpt>
      <trkpt lat="62.630191812744" lon="17.976828735638">
        <ele>89.8</ele>
        <time>2018-01-22T18:52:37Z</time>
      </trkpt>
      <trkpt lat="62.630196758065" lon="17.976765368474">
        <ele>89.8</ele>
        <time>2018-01-22T18:52:38Z</time>
      </trkpt>
      <trkpt lat="62.630203715042" lon="17.976702168948">
        <ele>89.6</ele>
        <time>2018-01-22T18:52:39Z</time>
      </trkpt>
      <trkpt lat="62.630210085286" lon="17.976645255847">
        <ele>89.4</ele>
        <time>2018-01-22T18:52:40Z</time>
      </trkpt>
      <trkpt lat="62.630220814118" lon="17.976583313606">
        <ele>89.4</ele>
        <time>2018-01-22T18:52:41Z</time>
      </trkpt>
      <trkpt lat="62.630232800235" lon="17.97653184874">
        <ele>89.4</ele>
        <time>2018-01-22T18:52:42Z</time>
      </trkpt>
      <trkpt lat="62.630236320633" lon="17.976472588707">
        <ele>89.2</ele>
        <time>2018-01-22T18:52:43Z</time>
      </trkpt>
      <trkpt lat="62.630243445248" lon="17.976400504367">
        <ele>89.2</ele>
        <time>2018-01-22T18:52:44Z</time>
      </trkpt>
      <trkpt lat="62.63025417408" lon="17.976340322325">
        <ele>89.2</ele>
        <time>2018-01-22T18:52:45Z</time>
      </trkpt>
      <trkpt lat="62.630266076378" lon="17.976283157767">
        <ele>89</ele>
        <time>2018-01-22T18:52:46Z</time>
      </trkpt>
      <trkpt lat="62.630279235961" lon="17.976217778947">
        <ele>89</ele>
        <time>2018-01-22T18:52:47Z</time>
      </trkpt>
      <trkpt lat="62.630290300069" lon="17.976167487547">
        <ele>88.8</ele>
        <time>2018-01-22T18:52:48Z</time>
      </trkpt>
      <trkpt lat="62.630303375833" lon="17.97610688641">
        <ele>88.8</ele>
        <time>2018-01-22T18:52:49Z</time>
      </trkpt>
      <trkpt lat="62.630315948683" lon="17.976049386576">
        <ele>88.6</ele>
        <time>2018-01-22T18:52:50Z</time>
      </trkpt>
      <trkpt lat="62.630328856809" lon="17.975987779611">
        <ele>88.4</ele>
        <time>2018-01-22T18:52:51Z</time>
      </trkpt>
      <trkpt lat="62.630342267849" lon="17.975926256465">
        <ele>88.4</ele>
        <time>2018-01-22T18:52:52Z</time>
      </trkpt>
      <trkpt lat="62.630358361097" lon="17.97586716407">
        <ele>88.4</ele>
        <time>2018-01-22T18:52:53Z</time>
      </trkpt>
      <trkpt lat="62.630373113241" lon="17.975807568761">
        <ele>88.2</ele>
        <time>2018-01-22T18:52:54Z</time>
      </trkpt>
      <trkpt lat="62.630386775738" lon="17.975754427515">
        <ele>88.2</ele>
        <time>2018-01-22T18:52:55Z</time>
      </trkpt>
      <trkpt lat="62.630401863158" lon="17.975703046468">
        <ele>88</ele>
        <time>2018-01-22T18:52:56Z</time>
      </trkpt>
      <trkpt lat="62.630417704949" lon="17.975651246326">
        <ele>87.8</ele>
        <time>2018-01-22T18:52:57Z</time>
      </trkpt>
      <trkpt lat="62.630430277799" lon="17.975599613822">
        <ele>87.8</ele>
        <time>2018-01-22T18:52:58Z</time>
      </trkpt>
      <trkpt lat="62.63044695778" lon="17.975536833391">
        <ele>87.6</ele>
        <time>2018-01-22T18:52:59Z</time>
      </trkpt>
      <trkpt lat="62.630459614449" lon="17.975488134552">
        <ele>87.6</ele>
        <time>2018-01-22T18:53:00Z</time>
      </trkpt>
      <trkpt lat="62.630474366593" lon="17.97542962889">
        <ele>87.4</ele>
        <time>2018-01-22T18:53:01Z</time>
      </trkpt>
      <trkpt lat="62.630489370194" lon="17.975371542323">
        <ele>87.4</ele>
        <time>2018-01-22T18:53:02Z</time>
      </trkpt>
      <trkpt lat="62.630503284148" lon="17.975314210127">
        <ele>87.2</ele>
        <time>2018-01-22T18:53:03Z</time>
      </trkpt>
      <trkpt lat="62.63051568936" lon="17.975252854619">
        <ele>87.2</ele>
        <time>2018-01-22T18:53:04Z</time>
      </trkpt>
      <trkpt lat="62.630533039893" lon="17.975198959002">
        <ele>87.2</ele>
        <time>2018-01-22T18:53:05Z</time>
      </trkpt>
      <trkpt lat="62.630547205304" lon="17.975153612923">
        <ele>87.2</ele>
        <time>2018-01-22T18:53:06Z</time>
      </trkpt>
      <trkpt lat="62.630564136742" lon="17.975099884944">
        <ele>87</ele>
        <time>2018-01-22T18:53:07Z</time>
      </trkpt>
      <trkpt lat="62.630578050696" lon="17.975044648223">
        <ele>87</ele>
        <time>2018-01-22T18:53:08Z</time>
      </trkpt>
      <trkpt lat="62.630593389573" lon="17.974986142561">
        <ele>87</ele>
        <time>2018-01-22T18:53:09Z</time>
      </trkpt>
      <trkpt lat="62.630605124233" lon="17.974929480917">
        <ele>86.8</ele>
        <time>2018-01-22T18:53:10Z</time>
      </trkpt>
      <trkpt lat="62.630618199997" lon="17.974870891436">
        <ele>86.6</ele>
        <time>2018-01-22T18:53:11Z</time>
      </trkpt>
      <trkpt lat="62.630630018476" lon="17.974816744362">
        <ele>86.4</ele>
        <time>2018-01-22T18:53:12Z</time>
      </trkpt>
      <trkpt lat="62.630644435344" lon="17.974766285324">
        <ele>86.4</ele>
        <time>2018-01-22T18:53:13Z</time>
      </trkpt>
      <trkpt lat="62.630658684574" lon="17.974705768006">
        <ele>86.4</ele>
        <time>2018-01-22T18:53:14Z</time>
      </trkpt>
      <trkpt lat="62.630672263252" lon="17.97465681771">
        <ele>86.2</ele>
        <time>2018-01-22T18:53:15Z</time>
      </trkpt>
      <trkpt lat="62.6306883565" lon="17.97459311527">
        <ele>86.2</ele>
        <time>2018-01-22T18:53:16Z</time>
      </trkpt>
      <trkpt lat="62.630702186635" lon="17.974546679544">
        <ele>86.2</ele>
        <time>2018-01-22T18:53:17Z</time>
      </trkpt>
      <trkpt lat="62.630712999286" lon="17.974500830551">
        <ele>86</ele>
        <time>2018-01-22T18:53:18Z</time>
      </trkpt>
      <trkpt lat="62.630732026199" lon="17.974439391224">
        <ele>86</ele>
        <time>2018-01-22T18:53:19Z</time>
      </trkpt>
      <trkpt lat="62.630742671212" lon="17.97440368433">
        <ele>86</ele>
        <time>2018-01-22T18:53:20Z</time>
      </trkpt>
      <trkpt lat="62.63076127903" lon="17.974337970234">
        <ele>86</ele>
        <time>2018-01-22T18:53:21Z</time>
      </trkpt>
      <trkpt lat="62.630776198812" lon="17.974285248083">
        <ele>86</ele>
        <time>2018-01-22T18:53:22Z</time>
      </trkpt>
      <trkpt lat="62.630789693671" lon="17.97423688452">
        <ele>86</ele>
        <time>2018-01-22T18:53:23Z</time>
      </trkpt>
      <trkpt lat="62.630803523806" lon="17.974184162369">
        <ele>86</ele>
        <time>2018-01-22T18:53:24Z</time>
      </trkpt>
      <trkpt lat="62.630820036149" lon="17.974133870969">
        <ele>86</ele>
        <time>2018-01-22T18:53:25Z</time>
      </trkpt>
      <trkpt lat="62.630832357542" lon="17.974084669216">
        <ele>86</ele>
        <time>2018-01-22T18:53:26Z</time>
      </trkpt>
      <trkpt lat="62.630847444962" lon="17.974036138015">
        <ele>86</ele>
        <time>2018-01-22T18:53:27Z</time>
      </trkpt>
      <trkpt lat="62.63086353821" lon="17.97398794209">
        <ele>85.8</ele>
        <time>2018-01-22T18:53:28Z</time>
      </trkpt>
      <trkpt lat="62.630878541811" lon="17.973942344554">
        <ele>85.8</ele>
        <time>2018-01-22T18:53:29Z</time>
      </trkpt>
      <trkpt lat="62.630884409141" lon="17.973901776158">
        <ele>85.8</ele>
        <time>2018-01-22T18:53:30Z</time>
      </trkpt>
      <trkpt lat="62.630878709449" lon="17.973838408994">
        <ele>85.6</ele>
        <time>2018-01-22T18:53:31Z</time>
      </trkpt>
      <trkpt lat="62.630861778011" lon="17.97380018753">
        <ele>85.4</ele>
        <time>2018-01-22T18:53:32Z</time>
      </trkpt>
      <trkpt lat="62.63083839251" lon="17.973756266374">
        <ele>85.4</ele>
        <time>2018-01-22T18:53:33Z</time>
      </trkpt>
      <trkpt lat="62.630826154936" lon="17.973711674666">
        <ele>85.4</ele>
        <time>2018-01-22T18:53:34Z</time>
      </trkpt>
      <trkpt lat="62.63080905586" lon="17.973658868696">
        <ele>85.4</ele>
        <time>2018-01-22T18:53:35Z</time>
      </trkpt>
      <trkpt lat="62.630793884621" lon="17.973618887033">
        <ele>85.2</ele>
        <time>2018-01-22T18:53:36Z</time>
      </trkpt>
      <trkpt lat="62.630778378106" lon="17.97357303804">
        <ele>85.2</ele>
        <time>2018-01-22T18:53:37Z</time>
      </trkpt>
      <trkpt lat="62.630765134704" lon="17.973526602314">
        <ele>85.2</ele>
        <time>2018-01-22T18:53:38Z</time>
      </trkpt>
      <trkpt lat="62.630747700352" lon="17.973478574027">
        <ele>85.2</ele>
        <time>2018-01-22T18:53:39Z</time>
      </trkpt>
      <trkpt lat="62.630728002887" lon="17.973428701722">
        <ele>85</ele>
        <time>2018-01-22T18:53:40Z</time>
      </trkpt>
      <trkpt lat="62.630711658182" lon="17.973371956259">
        <ele>85</ele>
        <time>2018-01-22T18:53:41Z</time>
      </trkpt>
      <trkpt lat="62.630697408952" lon="17.973327532189">
        <ele>85</ele>
        <time>2018-01-22T18:53:42Z</time>
      </trkpt>
      <trkpt lat="62.630683494998" lon="17.973283946309">
        <ele>85</ele>
        <time>2018-01-22T18:53:43Z</time>
      </trkpt>
      <trkpt lat="62.6306632108" lon="17.973236588574">
        <ele>85</ele>
        <time>2018-01-22T18:53:44Z</time>
      </trkpt>
      <trkpt lat="62.630650554131" lon="17.973191996866">
        <ele>84.8</ele>
        <time>2018-01-22T18:53:45Z</time>
      </trkpt>
      <trkpt lat="62.63063303596" lon="17.973142543656">
        <ele>84.8</ele>
        <time>2018-01-22T18:53:46Z</time>
      </trkpt>
      <trkpt lat="62.630618870549" lon="17.973085127641">
        <ele>84.8</ele>
        <time>2018-01-22T18:53:47Z</time>
      </trkpt>
      <trkpt lat="62.630610069554" lon="17.973036847897">
        <ele>84.8</ele>
        <time>2018-01-22T18:53:48Z</time>
      </trkpt>
      <trkpt lat="62.630599424541" lon="17.972987310868">
        <ele>84.6</ele>
        <time>2018-01-22T18:53:49Z</time>
      </trkpt>
      <trkpt lat="62.630582576922" lon="17.972929727215">
        <ele>84.4</ele>
        <time>2018-01-22T18:53:50Z</time>
      </trkpt>
      <trkpt lat="62.630569249701" lon="17.972875747779">
        <ele>84.2</ele>
        <time>2018-01-22T18:53:51Z</time>
      </trkpt>
      <trkpt lat="62.630554413738" lon="17.972823863818">
        <ele>84.2</ele>
        <time>2018-01-22T18:53:52Z</time>
      </trkpt>
      <trkpt lat="62.630542846716" lon="17.972773907694">
        <ele>84</ele>
        <time>2018-01-22T18:53:53Z</time>
      </trkpt>
      <trkpt lat="62.63053077678" lon="17.972721101724">
        <ele>84</ele>
        <time>2018-01-22T18:53:54Z</time>
      </trkpt>
      <trkpt lat="62.630516695188" lon="17.972669972134">
        <ele>84</ele>
        <time>2018-01-22T18:53:55Z</time>
      </trkpt>
      <trkpt lat="62.630501691587" lon="17.972615322146">
        <ele>84</ele>
        <time>2018-01-22T18:53:56Z</time>
      </trkpt>
      <trkpt lat="62.630491465669" lon="17.972561175072">
        <ele>83.8</ele>
        <time>2018-01-22T18:53:57Z</time>
      </trkpt>
      <trkpt lat="62.630481407389" lon="17.972507363274">
        <ele>83.8</ele>
        <time>2018-01-22T18:53:58Z</time>
      </trkpt>
      <trkpt lat="62.630464811227" lon="17.972451456001">
        <ele>83.8</ele>
        <time>2018-01-22T18:53:59Z</time>
      </trkpt>
      <trkpt lat="62.630459111535" lon="17.972401835153">
        <ele>83.6</ele>
        <time>2018-01-22T18:54:00Z</time>
      </trkpt>
      <trkpt lat="62.630450478178" lon="17.972344167681">
        <ele>83.6</ele>
        <time>2018-01-22T18:54:01Z</time>
      </trkpt>
      <trkpt lat="62.63044025226" lon="17.972279878508">
        <ele>83.6</ele>
        <time>2018-01-22T18:54:02Z</time>
      </trkpt>
      <trkpt lat="62.630431199808" lon="17.972226234348">
        <ele>83.6</ele>
        <time>2018-01-22T18:54:03Z</time>
      </trkpt>
      <trkpt lat="62.630418124044" lon="17.97216571703">
        <ele>83.6</ele>
        <time>2018-01-22T18:54:04Z</time>
      </trkpt>
      <trkpt lat="62.630410831791" lon="17.972109055386">
        <ele>83.6</ele>
        <time>2018-01-22T18:54:05Z</time>
      </trkpt>
      <trkpt lat="62.630406054108" lon="17.972054573036">
        <ele>83.6</ele>
        <time>2018-01-22T18:54:06Z</time>
      </trkpt>
      <trkpt lat="62.63039331362" lon="17.972000342143">
        <ele>83.6</ele>
        <time>2018-01-22T18:54:07Z</time>
      </trkpt>
      <trkpt lat="62.630387781566" lon="17.971939321911">
        <ele>83.4</ele>
        <time>2018-01-22T18:54:08Z</time>
      </trkpt>
      <trkpt lat="62.63037906439" lon="17.97187737967">
        <ele>83.4</ele>
        <time>2018-01-22T18:54:09Z</time>
      </trkpt>
      <trkpt lat="62.630367581187" lon="17.971826417718">
        <ele>83.4</ele>
        <time>2018-01-22T18:54:10Z</time>
      </trkpt>
      <trkpt lat="62.630363557875" lon="17.971762463821">
        <ele>83.2</ele>
        <time>2018-01-22T18:54:11Z</time>
      </trkpt>
      <trkpt lat="62.630355427432" lon="17.971701024494">
        <ele>83.2</ele>
        <time>2018-01-22T18:54:12Z</time>
      </trkpt>
      <trkpt lat="62.630347045532" lon="17.971655929872">
        <ele>83.2</ele>
        <time>2018-01-22T18:54:13Z</time>
      </trkpt>
      <trkpt lat="62.630333299216" lon="17.971593652355">
        <ele>83</ele>
        <time>2018-01-22T18:54:14Z</time>
      </trkpt>
      <trkpt lat="62.630329192085" lon="17.971539002367">
        <ele>83</ele>
        <time>2018-01-22T18:54:15Z</time>
      </trkpt>
      <trkpt lat="62.63032039109" lon="17.971477395402">
        <ele>83</ele>
        <time>2018-01-22T18:54:16Z</time>
      </trkpt>
      <trkpt lat="62.630315529588" lon="17.971419560292">
        <ele>83</ele>
        <time>2018-01-22T18:54:17Z</time>
      </trkpt>
      <trkpt lat="62.630309326982" lon="17.97136859834">
        <ele>82.8</ele>
        <time>2018-01-22T18:54:18Z</time>
      </trkpt>
      <trkpt lat="62.630302537643" lon="17.97130321952">
        <ele>82.8</ele>
        <time>2018-01-22T18:54:19Z</time>
      </trkpt>
      <trkpt lat="62.630305890403" lon="17.971239852356">
        <ele>82.8</ele>
        <time>2018-01-22T18:54:20Z</time>
      </trkpt>
      <trkpt lat="62.630302118548" lon="17.971180676142">
        <ele>82.6</ele>
        <time>2018-01-22T18:54:21Z</time>
      </trkpt>
      <trkpt lat="62.630305219851" lon="17.971118063349">
        <ele>82.6</ele>
        <time>2018-01-22T18:54:22Z</time>
      </trkpt>
      <trkpt lat="62.63031536195" lon="17.971062156076">
        <ele>82.6</ele>
        <time>2018-01-22T18:54:23Z</time>
      </trkpt>
      <trkpt lat="62.630316703054" lon="17.971000716749">
        <ele>82.6</ele>
        <time>2018-01-22T18:54:24Z</time>
      </trkpt>
      <trkpt lat="62.630318547072" lon="17.970943049277">
        <ele>82.6</ele>
        <time>2018-01-22T18:54:25Z</time>
      </trkpt>
      <trkpt lat="62.630319049986" lon="17.970878592466">
        <ele>82.6</ele>
        <time>2018-01-22T18:54:26Z</time>
      </trkpt>
      <trkpt lat="62.63032206747" lon="17.970808603601">
        <ele>82.6</ele>
        <time>2018-01-22T18:54:27Z</time>
      </trkpt>
      <trkpt lat="62.630325755506" lon="17.970743643876">
        <ele>82.6</ele>
        <time>2018-01-22T18:54:28Z</time>
      </trkpt>
      <trkpt lat="62.63033464032" lon="17.970677762142">
        <ele>82.6</ele>
        <time>2018-01-22T18:54:29Z</time>
      </trkpt>
      <trkpt lat="62.630344782419" lon="17.970617077186">
        <ele>82.4</ele>
        <time>2018-01-22T18:54:30Z</time>
      </trkpt>
      <trkpt lat="62.630359534563" lon="17.9705589068">
        <ele>82.4</ele>
        <time>2018-01-22T18:54:31Z</time>
      </trkpt>
      <trkpt lat="62.630377136553" lon="17.970512219617">
        <ele>82.2</ele>
        <time>2018-01-22T18:54:32Z</time>
      </trkpt>
      <trkpt lat="62.630403288081" lon="17.970460335656">
        <ele>82</ele>
        <time>2018-01-22T18:54:33Z</time>
      </trkpt>
      <trkpt lat="62.630431451265" lon="17.970414151387">
        <ele>81.8</ele>
        <time>2018-01-22T18:54:34Z</time>
      </trkpt>
      <trkpt lat="62.630462296657" lon="17.970375427009">
        <ele>81.4</ele>
        <time>2018-01-22T18:54:35Z</time>
      </trkpt>
      <trkpt lat="62.630486687986" lon="17.970346677092">
        <ele>81</ele>
        <time>2018-01-22T18:54:36Z</time>
      </trkpt>
      <trkpt lat="62.630517281921" lon="17.970325973799">
        <ele>80.6</ele>
        <time>2018-01-22T18:54:37Z</time>
      </trkpt>
      <trkpt lat="62.630542679078" lon="17.970310383465">
        <ele>80.6</ele>
        <time>2018-01-22T18:54:38Z</time>
      </trkpt>
      <trkpt lat="62.630573273013" lon="17.970284734851">
        <ele>80.4</ele>
        <time>2018-01-22T18:54:39Z</time>
      </trkpt>
      <trkpt lat="62.630603447853" lon="17.970270904716">
        <ele>80.4</ele>
        <time>2018-01-22T18:54:40Z</time>
      </trkpt>
      <trkpt lat="62.630636807815" lon="17.970252548355">
        <ele>80.2</ele>
        <time>2018-01-22T18:54:41Z</time>
      </trkpt>
      <trkpt lat="62.630665473913" lon="17.970231677424">
        <ele>80.2</ele>
        <time>2018-01-22T18:54:42Z</time>
      </trkpt>
      <trkpt lat="62.630696067848" lon="17.970212315235">
        <ele>80</ele>
        <time>2018-01-22T18:54:43Z</time>
      </trkpt>
      <trkpt lat="62.630729763086" lon="17.970194545607">
        <ele>80</ele>
        <time>2018-01-22T18:54:44Z</time>
      </trkpt>
      <trkpt lat="62.630758848279" lon="17.970182308033">
        <ele>79.8</ele>
        <time>2018-01-22T18:54:45Z</time>
      </trkpt>
      <trkpt lat="62.630791705327" lon="17.970171830658">
        <ele>79.6</ele>
        <time>2018-01-22T18:54:46Z</time>
      </trkpt>
      <trkpt lat="62.630846103858" lon="17.970154228668">
        <ele>79.6</ele>
        <time>2018-01-22T18:54:48Z</time>
      </trkpt>
      <trkpt lat="62.630879631458" lon="17.97015154646">
        <ele>79.4</ele>
        <time>2018-01-22T18:54:49Z</time>
      </trkpt>
      <trkpt lat="62.63090712409" lon="17.970133609194">
        <ele>79.4</ele>
        <time>2018-01-22T18:54:50Z</time>
      </trkpt>
      <trkpt lat="62.63093897531" lon="17.970116929213">
        <ele>79.4</ele>
        <time>2018-01-22T18:54:51Z</time>
      </trkpt>
      <trkpt lat="62.630965294476" lon="17.970098572852">
        <ele>79.2</ele>
        <time>2018-01-22T18:54:52Z</time>
      </trkpt>
      <trkpt lat="62.630992032737" lon="17.970078875387">
        <ele>79.2</ele>
        <time>2018-01-22T18:54:53Z</time>
      </trkpt>
      <trkpt lat="62.63102866164" lon="17.970061776311">
        <ele>79</ele>
        <time>2018-01-22T18:54:54Z</time>
      </trkpt>
      <trkpt lat="62.631062105421" lon="17.970051298936">
        <ele>79</ele>
        <time>2018-01-22T18:54:55Z</time>
      </trkpt>
      <trkpt lat="62.631089095139" lon="17.970031517652">
        <ele>79</ele>
        <time>2018-01-22T18:54:56Z</time>
      </trkpt>
      <trkpt lat="62.631121281635" lon="17.970007461599">
        <ele>78.8</ele>
        <time>2018-01-22T18:54:57Z</time>
      </trkpt>
      <trkpt lat="62.631145924421" lon="17.969999917889">
        <ele>78.8</ele>
        <time>2018-01-22T18:54:58Z</time>
      </trkpt>
      <trkpt lat="62.631177608003" lon="17.969989021419">
        <ele>78.6</ele>
        <time>2018-01-22T18:54:59Z</time>
      </trkpt>
      <trkpt lat="62.631205268273" lon="17.969970665058">
        <ele>78.6</ele>
        <time>2018-01-22T18:55:00Z</time>
      </trkpt>
      <trkpt lat="62.631233682914" lon="17.969955577638">
        <ele>78.4</ele>
        <time>2018-01-22T18:55:01Z</time>
      </trkpt>
      <trkpt lat="62.631256565501" lon="17.969947195738">
        <ele>78.2</ele>
        <time>2018-01-22T18:55:02Z</time>
      </trkpt>
      <trkpt lat="62.631284225771" lon="17.969937472734">
        <ele>78.2</ele>
        <time>2018-01-22T18:55:03Z</time>
      </trkpt>
      <trkpt lat="62.63131113167" lon="17.969920708934">
        <ele>78.2</ele>
        <time>2018-01-22T18:55:04Z</time>
      </trkpt>
      <trkpt lat="62.631336780284" lon="17.969906208247">
        <ele>78</ele>
        <time>2018-01-22T18:55:05Z</time>
      </trkpt>
      <trkpt lat="62.631368044771" lon="17.969883577117">
        <ele>78</ele>
        <time>2018-01-22T18:55:06Z</time>
      </trkpt>
      <trkpt lat="62.631392771376" lon="17.969872848285">
        <ele>78</ele>
        <time>2018-01-22T18:55:07Z</time>
      </trkpt>
      <trkpt lat="62.631412385022" lon="17.969860191616">
        <ele>78</ele>
        <time>2018-01-22T18:55:08Z</time>
      </trkpt>
      <trkpt lat="62.631446415536" lon="17.969841583798">
        <ele>78</ele>
        <time>2018-01-22T18:55:09Z</time>
      </trkpt>
      <trkpt lat="62.631474494901" lon="17.96982046141">
        <ele>78</ele>
        <time>2018-01-22T18:55:10Z</time>
      </trkpt>
      <trkpt lat="62.631501065524" lon="17.969802188868">
        <ele>78</ele>
        <time>2018-01-22T18:55:11Z</time>
      </trkpt>
      <trkpt lat="62.631528558156" lon="17.96978525743">
        <ele>78</ele>
        <time>2018-01-22T18:55:12Z</time>
      </trkpt>
      <trkpt lat="62.631541550101" lon="17.969777546082">
        <ele>78</ele>
        <time>2018-01-22T18:55:13Z</time>
      </trkpt>
      <trkpt lat="62.631576167348" lon="17.96975340621">
        <ele>77.8</ele>
        <time>2018-01-22T18:55:14Z</time>
      </trkpt>
      <trkpt lat="62.631604246713" lon="17.969731864727">
        <ele>78</ele>
        <time>2018-01-22T18:55:15Z</time>
      </trkpt>
      <trkpt lat="62.631629727689" lon="17.969711077615">
        <ele>77.8</ele>
        <time>2018-01-22T18:55:16Z</time>
      </trkpt>
      <trkpt lat="62.631659399615" lon="17.969683584983">
        <ele>77.8</ele>
        <time>2018-01-22T18:55:17Z</time>
      </trkpt>
      <trkpt lat="62.631683874763" lon="17.969667575554">
        <ele>77.8</ele>
        <time>2018-01-22T18:55:18Z</time>
      </trkpt>
      <trkpt lat="62.631708098454" lon="17.969632455393">
        <ele>77.6</ele>
        <time>2018-01-22T18:55:19Z</time>
      </trkpt>
      <trkpt lat="62.631734082344" lon="17.969604376028">
        <ele>77.4</ele>
        <time>2018-01-22T18:55:20Z</time>
      </trkpt>
      <trkpt lat="62.631765179193" lon="17.969571099885">
        <ele>77.4</ele>
        <time>2018-01-22T18:55:21Z</time>
      </trkpt>
      <trkpt lat="62.631792168911" lon="17.969557018293">
        <ele>77.2</ele>
        <time>2018-01-22T18:55:22Z</time>
      </trkpt>
      <trkpt lat="62.631820080638" lon="17.969550312773">
        <ele>77</ele>
        <time>2018-01-22T18:55:23Z</time>
      </trkpt>
      <trkpt lat="62.631849082012" lon="17.969552994981">
        <ele>77</ele>
        <time>2018-01-22T18:55:24Z</time>
      </trkpt>
      <trkpt lat="62.631875987911" lon="17.969556012465">
        <ele>77</ele>
        <time>2018-01-22T18:55:25Z</time>
      </trkpt>
      <trkpt lat="62.631900714516" lon="17.969561963614">
        <ele>77</ele>
        <time>2018-01-22T18:55:26Z</time>
      </trkpt>
      <trkpt lat="62.631925608759" lon="17.969568501496">
        <ele>77</ele>
        <time>2018-01-22T18:55:27Z</time>
      </trkpt>
      <trkpt lat="62.631951173554" lon="17.969562634166">
        <ele>77</ele>
        <time>2018-01-22T18:55:28Z</time>
      </trkpt>
      <trkpt lat="62.631982773317" lon="17.969563556175">
        <ele>77.2</ele>
        <time>2018-01-22T18:55:29Z</time>
      </trkpt>
      <trkpt lat="62.632008924845" lon="17.969559951958">
        <ele>77.2</ele>
        <time>2018-01-22T18:55:30Z</time>
      </trkpt>
      <trkpt lat="62.632036333658" lon="17.969549977497">
        <ele>77.2</ele>
        <time>2018-01-22T18:55:31Z</time>
      </trkpt>
      <trkpt lat="62.6320629881" lon="17.969545702728">
        <ele>77.2</ele>
        <time>2018-01-22T18:55:32Z</time>
      </trkpt>
      <trkpt lat="62.632084445764" lon="17.969531202041">
        <ele>77.2</ele>
        <time>2018-01-22T18:55:33Z</time>
      </trkpt>
      <trkpt lat="62.632111770758" lon="17.969525250892">
        <ele>77.4</ele>
        <time>2018-01-22T18:55:34Z</time>
      </trkpt>
      <trkpt lat="62.632139347209" lon="17.969519970295">
        <ele>77.4</ele>
        <time>2018-01-22T18:55:35Z</time>
      </trkpt>
      <trkpt lat="62.632163151805" lon="17.969510582567">
        <ele>77.6</ele>
        <time>2018-01-22T18:55:36Z</time>
      </trkpt>
      <trkpt lat="62.632191398808" lon="17.969498344993">
        <ele>77.6</ele>
        <time>2018-01-22T18:55:37Z</time>
      </trkpt>
      <trkpt lat="62.632214784309" lon="17.969498680269">
        <ele>77.6</ele>
        <time>2018-01-22T18:55:38Z</time>
      </trkpt>
      <trkpt lat="62.632242696036" lon="17.96949021455">
        <ele>77.6</ele>
        <time>2018-01-22T18:55:39Z</time>
      </trkpt>
      <trkpt lat="62.632269685754" lon="17.96948183265">
        <ele>77.4</ele>
        <time>2018-01-22T18:55:40Z</time>
      </trkpt>
      <trkpt lat="62.632297178386" lon="17.969479820994">
        <ele>77.4</ele>
        <time>2018-01-22T18:55:41Z</time>
      </trkpt>
      <trkpt lat="62.632323162276" lon="17.969474875673">
        <ele>77.4</ele>
        <time>2018-01-22T18:55:42Z</time>
      </trkpt>
      <trkpt lat="62.632348978528" lon="17.969475881501">
        <ele>77.4</ele>
        <time>2018-01-22T18:55:43Z</time>
      </trkpt>
      <trkpt lat="62.632377728445" lon="17.969474875673">
        <ele>77.4</ele>
        <time>2018-01-22T18:55:44Z</time>
      </trkpt>
      <trkpt lat="62.632402874145" lon="17.969470265628">
        <ele>77.4</ele>
        <time>2018-01-22T18:55:45Z</time>
      </trkpt>
      <trkpt lat="62.632430869691" lon="17.969466074678">
        <ele>77.4</ele>
        <time>2018-01-22T18:55:46Z</time>
      </trkpt>
      <trkpt lat="62.632460793074" lon="17.969464649755">
        <ele>77.4</ele>
        <time>2018-01-22T18:55:47Z</time>
      </trkpt>
      <trkpt lat="62.632483256566" lon="17.969465655583">
        <ele>77.4</ele>
        <time>2018-01-22T18:55:48Z</time>
      </trkpt>
      <trkpt lat="62.632508486085" lon="17.969467331963">
        <ele>77.6</ele>
        <time>2018-01-22T18:55:49Z</time>
      </trkpt>
      <trkpt lat="62.632533715604" lon="17.969474037483">
        <ele>77.6</ele>
        <time>2018-01-22T18:55:50Z</time>
      </trkpt>
      <trkpt lat="62.632559615675" lon="17.969482587021">
        <ele>77.6</ele>
        <time>2018-01-22T18:55:51Z</time>
      </trkpt>
      <trkpt lat="62.63258601866" lon="17.969486191238">
        <ele>77.6</ele>
        <time>2018-01-22T18:55:52Z</time>
      </trkpt>
      <trkpt lat="62.632612505464" lon="17.969490382188">
        <ele>77.6</ele>
        <time>2018-01-22T18:55:53Z</time>
      </trkpt>
      <trkpt lat="62.632641087743" lon="17.969491555654">
        <ele>77.6</ele>
        <time>2018-01-22T18:55:54Z</time>
      </trkpt>
      <trkpt lat="62.632667574547" lon="17.969497339165">
        <ele>77.6</ele>
        <time>2018-01-22T18:55:55Z</time>
      </trkpt>
      <trkpt lat="62.632695150998" lon="17.969502200667">
        <ele>77.6</ele>
        <time>2018-01-22T18:55:56Z</time>
      </trkpt>
      <trkpt lat="62.632721889259" lon="17.969508235635">
        <ele>77.4</ele>
        <time>2018-01-22T18:55:57Z</time>
      </trkpt>
      <trkpt lat="62.632746280588" lon="17.969514857336">
        <ele>77.6</ele>
        <time>2018-01-22T18:55:58Z</time>
      </trkpt>
      <trkpt lat="62.632774192315" lon="17.969524831797">
        <ele>77.6</ele>
        <time>2018-01-22T18:55:59Z</time>
      </trkpt>
      <trkpt lat="62.632797577816" lon="17.969526927272">
        <ele>77.8</ele>
        <time>2018-01-22T18:56:00Z</time>
      </trkpt>
      <trkpt lat="62.632822723516" lon="17.969531118222">
        <ele>77.8</ele>
        <time>2018-01-22T18:56:01Z</time>
      </trkpt>
      <trkpt lat="62.63284753394" lon="17.969535225353">
        <ele>78</ele>
        <time>2018-01-22T18:56:02Z</time>
      </trkpt>
      <trkpt lat="62.632868823966" lon="17.969535392991">
        <ele>78</ele>
        <time>2018-01-22T18:56:03Z</time>
      </trkpt>
      <trkpt lat="62.632897154788" lon="17.969550899506">
        <ele>78</ele>
        <time>2018-01-22T18:56:04Z</time>
      </trkpt>
      <trkpt lat="62.632925820886" lon="17.969559029949">
        <ele>78.2</ele>
        <time>2018-01-22T18:56:05Z</time>
      </trkpt>
      <trkpt lat="62.632949374025" lon="17.96956397527">
        <ele>78.2</ele>
        <time>2018-01-22T18:56:06Z</time>
      </trkpt>
      <trkpt lat="62.632977285752" lon="17.969566657478">
        <ele>78.4</ele>
        <time>2018-01-22T18:56:07Z</time>
      </trkpt>
      <trkpt lat="62.633001677081" lon="17.969573782093">
        <ele>78.4</ele>
        <time>2018-01-22T18:56:08Z</time>
      </trkpt>
      <trkpt lat="62.633028918256" lon="17.969584678563">
        <ele>78.4</ele>
        <time>2018-01-22T18:56:09Z</time>
      </trkpt>
      <trkpt lat="62.633056829983" lon="17.96958828278">
        <ele>78.6</ele>
        <time>2018-01-22T18:56:10Z</time>
      </trkpt>
      <trkpt lat="62.633083987339" lon="17.969594736843">
        <ele>78.6</ele>
        <time>2018-01-22T18:56:11Z</time>
      </trkpt>
      <trkpt lat="62.633109216858" lon="17.969599933621">
        <ele>78.6</ele>
        <time>2018-01-22T18:56:12Z</time>
      </trkpt>
      <trkpt lat="62.633134697834" lon="17.969607477331">
        <ele>78.6</ele>
        <time>2018-01-22T18:56:13Z</time>
      </trkpt>
      <trkpt lat="62.633161352276" lon="17.969620385457">
        <ele>78.8</ele>
        <time>2018-01-22T18:56:14Z</time>
      </trkpt>
      <trkpt lat="62.633185492148" lon="17.969628599719">
        <ele>78.8</ele>
        <time>2018-01-22T18:56:15Z</time>
      </trkpt>
      <trkpt lat="62.633212900961" lon="17.969646369347">
        <ele>78.6</ele>
        <time>2018-01-22T18:56:16Z</time>
      </trkpt>
      <trkpt lat="62.633241064145" lon="17.969663133147">
        <ele>78.6</ele>
        <time>2018-01-22T18:56:17Z</time>
      </trkpt>
      <trkpt lat="62.633263108542" lon="17.969680316042">
        <ele>78.6</ele>
        <time>2018-01-22T18:56:18Z</time>
      </trkpt>
      <trkpt lat="62.633288840975" lon="17.969715436203">
        <ele>78.8</ele>
        <time>2018-01-22T18:56:19Z</time>
      </trkpt>
      <trkpt lat="62.633309292811" lon="17.969747622699">
        <ele>78.8</ele>
        <time>2018-01-22T18:56:20Z</time>
      </trkpt>
      <trkpt lat="62.633324883145" lon="17.969781317937">
        <ele>78.8</ele>
        <time>2018-01-22T18:56:21Z</time>
      </trkpt>
      <trkpt lat="62.633343239506" lon="17.969838650133">
        <ele>78.8</ele>
        <time>2018-01-22T18:56:22Z</time>
      </trkpt>
      <trkpt lat="62.633354387433" lon="17.969886510782">
        <ele>79</ele>
        <time>2018-01-22T18:56:23Z</time>
      </trkpt>
      <trkpt lat="62.633365283903" lon="17.969942753331">
        <ele>79</ele>
        <time>2018-01-22T18:56:24Z</time>
      </trkpt>
      <trkpt lat="62.633373581984" lon="17.970008467427">
        <ele>79.2</ele>
        <time>2018-01-22T18:56:25Z</time>
      </trkpt>
      <trkpt lat="62.633374084898" lon="17.97005515461">
        <ele>79.2</ele>
        <time>2018-01-22T18:56:26Z</time>
      </trkpt>
      <trkpt lat="62.633376515649" lon="17.970115001376">
        <ele>79.4</ele>
        <time>2018-01-22T18:56:27Z</time>
      </trkpt>
      <trkpt lat="62.633376850925" lon="17.970173590857">
        <ele>79.4</ele>
        <time>2018-01-22T18:56:28Z</time>
      </trkpt>
      <trkpt lat="62.633381712427" lon="17.970225558637">
        <ele>79.6</ele>
        <time>2018-01-22T18:56:29Z</time>
      </trkpt>
      <trkpt lat="62.633385149006" lon="17.970283896661">
        <ele>79.6</ele>
        <time>2018-01-22T18:56:30Z</time>
      </trkpt>
      <trkpt lat="62.633389339956" lon="17.970352292965">
        <ele>79.6</ele>
        <time>2018-01-22T18:56:31Z</time>
      </trkpt>
      <trkpt lat="62.633392022164" lon="17.970394286284">
        <ele>79.8</ele>
        <time>2018-01-22T18:56:32Z</time>
      </trkpt>
      <trkpt lat="62.633394452915" lon="17.970457904905">
        <ele>80</ele>
        <time>2018-01-22T18:56:33Z</time>
      </trkpt>
      <trkpt lat="62.633396716028" lon="17.97051867368">
        <ele>80</ele>
        <time>2018-01-22T18:56:34Z</time>
      </trkpt>
      <trkpt lat="62.633399398236" lon="17.970573826582">
        <ele>80</ele>
        <time>2018-01-22T18:56:35Z</time>
      </trkpt>
      <trkpt lat="62.633400823159" lon="17.970629230941">
        <ele>80.2</ele>
        <time>2018-01-22T18:56:36Z</time>
      </trkpt>
      <trkpt lat="62.633403756824" lon="17.970681785454">
        <ele>80.2</ele>
        <time>2018-01-22T18:56:37Z</time>
      </trkpt>
      <trkpt lat="62.633404846471" lon="17.970729394646">
        <ele>80.4</ele>
        <time>2018-01-22T18:56:38Z</time>
      </trkpt>
      <trkpt lat="62.633407947774" lon="17.970798042407">
        <ele>80.4</ele>
        <time>2018-01-22T18:56:39Z</time>
      </trkpt>
      <trkpt lat="62.633409372697" lon="17.970852524757">
        <ele>80.6</ele>
        <time>2018-01-22T18:56:40Z</time>
      </trkpt>
      <trkpt lat="62.633412138724" lon="17.970908767306">
        <ele>80.8</ele>
        <time>2018-01-22T18:56:41Z</time>
      </trkpt>
      <trkpt lat="62.63341331219" lon="17.970969116986">
        <ele>81</ele>
        <time>2018-01-22T18:56:42Z</time>
      </trkpt>
      <trkpt lat="62.633414737113" lon="17.971015971807">
        <ele>81.2</ele>
        <time>2018-01-22T18:56:43Z</time>
      </trkpt>
      <trkpt lat="62.633414485656" lon="17.971069280691">
        <ele>81.2</ele>
        <time>2018-01-22T18:56:44Z</time>
      </trkpt>
      <trkpt lat="62.633418592787" lon="17.971133318407">
        <ele>81.4</ele>
        <time>2018-01-22T18:56:45Z</time>
      </trkpt>
      <trkpt lat="62.633421358814" lon="17.971188722766">
        <ele>81.4</ele>
        <time>2018-01-22T18:56:46Z</time>
      </trkpt>
      <trkpt lat="62.633420269167" lon="17.971255945604">
        <ele>81.6</ele>
        <time>2018-01-22T18:56:47Z</time>
      </trkpt>
      <trkpt lat="62.633418257511" lon="17.971316127646">
        <ele>81.6</ele>
        <time>2018-01-22T18:56:48Z</time>
      </trkpt>
      <trkpt lat="62.633416748769" lon="17.971374381851">
        <ele>81.6</ele>
        <time>2018-01-22T18:56:49Z</time>
      </trkpt>
      <trkpt lat="62.633415323846" lon="17.971432803694">
        <ele>81.8</ele>
        <time>2018-01-22T18:56:50Z</time>
      </trkpt>
      <trkpt lat="62.633414318018" lon="17.971494075383">
        <ele>81.8</ele>
        <time>2018-01-22T18:56:51Z</time>
      </trkpt>
      <trkpt lat="62.633409791792" lon="17.97154294186">
        <ele>82</ele>
        <time>2018-01-22T18:56:52Z</time>
      </trkpt>
      <trkpt lat="62.633405517023" lon="17.971601196065">
        <ele>82</ele>
        <time>2018-01-22T18:56:53Z</time>
      </trkpt>
      <trkpt lat="62.633399314417" lon="17.971655007863">
        <ele>82.2</ele>
        <time>2018-01-22T18:56:54Z</time>
      </trkpt>
      <trkpt lat="62.633395291105" lon="17.971707897652">
        <ele>82.2</ele>
        <time>2018-01-22T18:56:55Z</time>
      </trkpt>
      <trkpt lat="62.63338900468" lon="17.971767912056">
        <ele>82.4</ele>
        <time>2018-01-22T18:56:56Z</time>
      </trkpt>
      <trkpt lat="62.633383640264" lon="17.971825998623">
        <ele>82.4</ele>
        <time>2018-01-22T18:56:57Z</time>
      </trkpt>
      <trkpt lat="62.633379281676" lon="17.971882744086">
        <ele>82.4</ele>
        <time>2018-01-22T18:56:58Z</time>
      </trkpt>
      <trkpt lat="62.633373246708" lon="17.971948458182">
        <ele>82.6</ele>
        <time>2018-01-22T18:56:59Z</time>
      </trkpt>
      <trkpt lat="62.633366457369" lon="17.972000090686">
        <ele>82.6</ele>
        <time>2018-01-22T18:57:00Z</time>
      </trkpt>
      <trkpt lat="62.633357404917" lon="17.972061613832">
        <ele>82.8</ele>
        <time>2018-01-22T18:57:01Z</time>
      </trkpt>
      <trkpt lat="62.63335212432" lon="17.972116850553">
        <ele>82.8</ele>
        <time>2018-01-22T18:57:02Z</time>
      </trkpt>
      <trkpt lat="62.633344748248" lon="17.972173093102">
        <ele>83</ele>
        <time>2018-01-22T18:57:03Z</time>
      </trkpt>
      <trkpt lat="62.633335109063" lon="17.972238807198">
        <ele>83</ele>
        <time>2018-01-22T18:57:04Z</time>
      </trkpt>
      <trkpt lat="62.63332781681" lon="17.972294546833">
        <ele>83.2</ele>
        <time>2018-01-22T18:57:05Z</time>
      </trkpt>
      <trkpt lat="62.633319518729" lon="17.972350873201">
        <ele>83.2</ele>
        <time>2018-01-22T18:57:06Z</time>
      </trkpt>
      <trkpt lat="62.633311723562" lon="17.972408959768">
        <ele>83.4</ele>
        <time>2018-01-22T18:57:07Z</time>
      </trkpt>
      <trkpt lat="62.633302754929" lon="17.972458832073">
        <ele>83.6</ele>
        <time>2018-01-22T18:57:08Z</time>
      </trkpt>
      <trkpt lat="62.633287499871" lon="17.972521696323">
        <ele>83.6</ele>
        <time>2018-01-22T18:57:09Z</time>
      </trkpt>
      <trkpt lat="62.63327501084" lon="17.972579028519">
        <ele>83.6</ele>
        <time>2018-01-22T18:57:10Z</time>
      </trkpt>
      <trkpt lat="62.633266293664" lon="17.972628314091">
        <ele>83.8</ele>
        <time>2018-01-22T18:57:11Z</time>
      </trkpt>
      <trkpt lat="62.633254726642" lon="17.972688831409">
        <ele>84</ele>
        <time>2018-01-22T18:57:12Z</time>
      </trkpt>
      <trkpt lat="62.633246093285" lon="17.972745325415">
        <ele>84</ele>
        <time>2018-01-22T18:57:13Z</time>
      </trkpt>
      <trkpt lat="62.633236035005" lon="17.972798634299">
        <ele>84</ele>
        <time>2018-01-22T18:57:14Z</time>
      </trkpt>
      <trkpt lat="62.633223294517" lon="17.972859570712">
        <ele>84.2</ele>
        <time>2018-01-22T18:57:15Z</time>
      </trkpt>
      <trkpt lat="62.633209715839" lon="17.972910197388">
        <ele>84.2</ele>
        <time>2018-01-22T18:57:16Z</time>
      </trkpt>
      <trkpt lat="62.633197394446" lon="17.972957219847">
        <ele>84.4</ele>
        <time>2018-01-22T18:57:17Z</time>
      </trkpt>
      <trkpt lat="62.633185408329" lon="17.97300809798">
        <ele>84.4</ele>
        <time>2018-01-22T18:57:18Z</time>
      </trkpt>
      <trkpt lat="62.63317107528" lon="17.973057635009">
        <ele>84.4</ele>
        <time>2018-01-22T18:57:19Z</time>
      </trkpt>
      <trkpt lat="62.633160011172" lon="17.973113374644">
        <ele>84.6</ele>
        <time>2018-01-22T18:57:20Z</time>
      </trkpt>
      <trkpt lat="62.633146600132" lon="17.973175316885">
        <ele>84.6</ele>
        <time>2018-01-22T18:57:21Z</time>
      </trkpt>
      <trkpt lat="62.633136541852" lon="17.973217896937">
        <ele>84.8</ele>
        <time>2018-01-22T18:57:22Z</time>
      </trkpt>
      <trkpt lat="62.633124555735" lon="17.973268607432">
        <ele>85</ele>
        <time>2018-01-22T18:57:23Z</time>
      </trkpt>
      <trkpt lat="62.633109635953" lon="17.973327616008">
        <ele>85</ele>
        <time>2018-01-22T18:57:24Z</time>
      </trkpt>
      <trkpt lat="62.63309731456" lon="17.973378745598">
        <ele>85.2</ele>
        <time>2018-01-22T18:57:25Z</time>
      </trkpt>
      <trkpt lat="62.633085160805" lon="17.973430210464">
        <ele>85.2</ele>
        <time>2018-01-22T18:57:26Z</time>
      </trkpt>
      <trkpt lat="62.633072252679" lon="17.973487626479">
        <ele>85.2</ele>
        <time>2018-01-22T18:57:27Z</time>
      </trkpt>
      <trkpt lat="62.633061523847" lon="17.973532385825">
        <ele>85.4</ele>
        <time>2018-01-22T18:57:28Z</time>
      </trkpt>
      <trkpt lat="62.63304869954" lon="17.973583347777">
        <ele>85.4</ele>
        <time>2018-01-22T18:57:29Z</time>
      </trkpt>
      <trkpt lat="62.633035539957" lon="17.973633136263">
        <ele>85.4</ele>
        <time>2018-01-22T18:57:30Z</time>
      </trkpt>
      <trkpt lat="62.633023889116" lon="17.973684014396">
        <ele>85.6</ele>
        <time>2018-01-22T18:57:31Z</time>
      </trkpt>
      <trkpt lat="62.633012489732" lon="17.97373061776">
        <ele>85.8</ele>
        <time>2018-01-22T18:57:32Z</time>
      </trkpt>
      <trkpt lat="62.633000252158" lon="17.973784597196">
        <ele>85.8</ele>
        <time>2018-01-22T18:57:33Z</time>
      </trkpt>
      <trkpt lat="62.632990696792" lon="17.973845198333">
        <ele>86</ele>
        <time>2018-01-22T18:57:34Z</time>
      </trkpt>
      <trkpt lat="62.632976112286" lon="17.973894986819">
        <ele>86</ele>
        <time>2018-01-22T18:57:35Z</time>
      </trkpt>
      <trkpt lat="62.632961946875" lon="17.973941925459">
        <ele>86.2</ele>
        <time>2018-01-22T18:57:36Z</time>
      </trkpt>
      <trkpt lat="62.632950128396" lon="17.97398961847">
        <ele>86.2</ele>
        <time>2018-01-22T18:57:37Z</time>
      </trkpt>
      <trkpt lat="62.632936214442" lon="17.97404410082">
        <ele>86.2</ele>
        <time>2018-01-22T18:57:38Z</time>
      </trkpt>
      <trkpt lat="62.632920791746" lon="17.974103863767">
        <ele>86.2</ele>
        <time>2018-01-22T18:57:39Z</time>
      </trkpt>
      <trkpt lat="62.632907967439" lon="17.974158429936">
        <ele>86.2</ele>
        <time>2018-01-22T18:57:40Z</time>
      </trkpt>
      <trkpt lat="62.6328927962" lon="17.974221042729">
        <ele>86.4</ele>
        <time>2018-01-22T18:57:41Z</time>
      </trkpt>
      <trkpt lat="62.632880893902" lon="17.974269154835">
        <ele>86.4</ele>
        <time>2018-01-22T18:57:42Z</time>
      </trkpt>
      <trkpt lat="62.632868237233" lon="17.974322463719">
        <ele>86.6</ele>
        <time>2018-01-22T18:57:43Z</time>
      </trkpt>
      <trkpt lat="62.632849461777" lon="17.974376359336">
        <ele>86.6</ele>
        <time>2018-01-22T18:57:44Z</time>
      </trkpt>
      <trkpt lat="62.632832027425" lon="17.974425225813">
        <ele>86.6</ele>
        <time>2018-01-22T18:57:45Z</time>
      </trkpt>
      <trkpt lat="62.632808641924" lon="17.97446235763">
        <ele>86.8</ele>
        <time>2018-01-22T18:57:46Z</time>
      </trkpt>
      <trkpt lat="62.632781149292" lon="17.974480294896">
        <ele>86.8</ele>
        <time>2018-01-22T18:57:47Z</time>
      </trkpt>
      <trkpt lat="62.632752986108" lon="17.974486246045">
        <ele>87</ele>
        <time>2018-01-22T18:57:48Z</time>
      </trkpt>
      <trkpt lat="62.632728762417" lon="17.97449169428">
        <ele>87</ele>
        <time>2018-01-22T18:57:49Z</time>
      </trkpt>
      <trkpt lat="62.632706550382" lon="17.974476858317">
        <ele>87</ele>
        <time>2018-01-22T18:57:50Z</time>
      </trkpt>
      <trkpt lat="62.632678554836" lon="17.974466800037">
        <ele>87</ele>
        <time>2018-01-22T18:57:51Z</time>
      </trkpt>
      <trkpt lat="62.632657767724" lon="17.974450874427">
        <ele>87</ele>
        <time>2018-01-22T18:57:52Z</time>
      </trkpt>
      <trkpt lat="62.632634298404" lon="17.974420364311">
        <ele>87</ele>
        <time>2018-01-22T18:57:53Z</time>
      </trkpt>
      <trkpt lat="62.63261284074" lon="17.974393206955">
        <ele>87</ele>
        <time>2018-01-22T18:57:54Z</time>
      </trkpt>
      <trkpt lat="62.632589958153" lon="17.974376443155">
        <ele>87</ele>
        <time>2018-01-22T18:57:55Z</time>
      </trkpt>
      <trkpt lat="62.632564560996" lon="17.974364792314">
        <ele>87</ele>
        <time>2018-01-22T18:57:56Z</time>
      </trkpt>
      <trkpt lat="62.632535894898" lon="17.974344759573">
        <ele>87</ele>
        <time>2018-01-22T18:57:57Z</time>
      </trkpt>
      <trkpt lat="62.632516281252" lon="17.974324223918">
        <ele>87</ele>
        <time>2018-01-22T18:57:58Z</time>
      </trkpt>
      <trkpt lat="62.632492560475" lon="17.974294803449">
        <ele>87</ele>
        <time>2018-01-22T18:57:59Z</time>
      </trkpt>
      <trkpt lat="62.632473030648" lon="17.974273094328">
        <ele>87</ele>
        <time>2018-01-22T18:58:00Z</time>
      </trkpt>
      <trkpt lat="62.632454087554" lon="17.974251636664">
        <ele>87</ele>
        <time>2018-01-22T18:58:01Z</time>
      </trkpt>
      <trkpt lat="62.632434893003" lon="17.974228837896">
        <ele>87</ele>
        <time>2018-01-22T18:58:02Z</time>
      </trkpt>
      <trkpt lat="62.632406897457" lon="17.974201596721">
        <ele>87</ele>
        <time>2018-01-22T18:58:03Z</time>
      </trkpt>
      <trkpt lat="62.63238066211" lon="17.974181647799">
        <ele>87.2</ele>
        <time>2018-01-22T18:58:04Z</time>
      </trkpt>
      <trkpt lat="62.632350738727" lon="17.974167817664">
        <ele>87</ele>
        <time>2018-01-22T18:58:05Z</time>
      </trkpt>
      <trkpt lat="62.632325257751" lon="17.97414384543">
        <ele>87</ele>
        <time>2018-01-22T18:58:06Z</time>
      </trkpt>
      <trkpt lat="62.632301117879" lon="17.974134709159">
        <ele>87</ele>
        <time>2018-01-22T18:58:07Z</time>
      </trkpt>
      <trkpt lat="62.632276558912" lon="17.974122136309">
        <ele>87</ele>
        <time>2018-01-22T18:58:08Z</time>
      </trkpt>
      <trkpt lat="62.632248144271" lon="17.974099002265">
        <ele>87</ele>
        <time>2018-01-22T18:58:09Z</time>
      </trkpt>
      <trkpt lat="62.632223166209" lon="17.974084501578">
        <ele>87</ele>
        <time>2018-01-22T18:58:10Z</time>
      </trkpt>
      <trkpt lat="62.632193410464" lon="17.974060361706">
        <ele>87</ele>
        <time>2018-01-22T18:58:11Z</time>
      </trkpt>
      <trkpt lat="62.632169522049" lon="17.974034210178">
        <ele>86.8</ele>
        <time>2018-01-22T18:58:12Z</time>
      </trkpt>
      <trkpt lat="62.632158709398" lon="17.974018536025">
        <ele>86.8</ele>
        <time>2018-01-22T18:58:13Z</time>
      </trkpt>
      <trkpt lat="62.63212417597" lon="17.973984086416">
        <ele>86.8</ele>
        <time>2018-01-22T18:58:14Z</time>
      </trkpt>
      <trkpt lat="62.632098359718" lon="17.973958773078">
        <ele>86.8</ele>
        <time>2018-01-22T18:58:15Z</time>
      </trkpt>
      <trkpt lat="62.63207304638" lon="17.973934130292">
        <ele>86.8</ele>
        <time>2018-01-22T18:58:16Z</time>
      </trkpt>
      <trkpt lat="62.632049744698" lon="17.973909822782">
        <ele>86.8</ele>
        <time>2018-01-22T18:58:17Z</time>
      </trkpt>
      <trkpt lat="62.632024263722" lon="17.973867997101">
        <ele>86.8</ele>
        <time>2018-01-22T18:58:18Z</time>
      </trkpt>
      <trkpt lat="62.632002470782" lon="17.973839750098">
        <ele>86.8</ele>
        <time>2018-01-22T18:58:19Z</time>
      </trkpt>
      <trkpt lat="62.631974391417" lon="17.973805468127">
        <ele>86.6</ele>
        <time>2018-01-22T18:58:20Z</time>
      </trkpt>
      <trkpt lat="62.63194731788" lon="17.973772862536">
        <ele>86.6</ele>
        <time>2018-01-22T18:58:21Z</time>
      </trkpt>
      <trkpt lat="62.631924351474" lon="17.973745788999">
        <ele>86.6</ele>
        <time>2018-01-22T18:58:22Z</time>
      </trkpt>
      <trkpt lat="62.631895936833" lon="17.973717709634">
        <ele>86.6</ele>
        <time>2018-01-22T18:58:23Z</time>
      </trkpt>
      <trkpt lat="62.631872048418" lon="17.973686109871">
        <ele>86.4</ele>
        <time>2018-01-22T18:58:24Z</time>
      </trkpt>
      <trkpt lat="62.631848076184" lon="17.97365853342">
        <ele>86.4</ele>
        <time>2018-01-22T18:58:25Z</time>
      </trkpt>
      <trkpt lat="62.631819577724" lon="17.973620311956">
        <ele>86.6</ele>
        <time>2018-01-22T18:58:26Z</time>
      </trkpt>
      <trkpt lat="62.631794180567" lon="17.97358644908">
        <ele>86.4</ele>
        <time>2018-01-22T18:58:27Z</time>
      </trkpt>
      <trkpt lat="62.631769202505" lon="17.973561051923">
        <ele>86.4</ele>
        <time>2018-01-22T18:58:28Z</time>
      </trkpt>
      <trkpt lat="62.631744811176" lon="17.973529033065">
        <ele>86.6</ele>
        <time>2018-01-22T18:58:29Z</time>
      </trkpt>
      <trkpt lat="62.631720000752" lon="17.973497433302">
        <ele>86.4</ele>
        <time>2018-01-22T18:58:30Z</time>
      </trkpt>
      <trkpt lat="62.631696950527" lon="17.973472203783">
        <ele>86.4</ele>
        <time>2018-01-22T18:58:31Z</time>
      </trkpt>
      <trkpt lat="62.631671050456" lon="17.973431216292">
        <ele>86.4</ele>
        <time>2018-01-22T18:58:32Z</time>
      </trkpt>
      <trkpt lat="62.63164808405" lon="17.973385032023">
        <ele>86.4</ele>
        <time>2018-01-22T18:58:33Z</time>
      </trkpt>
      <trkpt lat="62.631625536739" lon="17.973349660405">
        <ele>86.4</ele>
        <time>2018-01-22T18:58:34Z</time>
      </trkpt>
      <trkpt lat="62.631601480686" lon="17.973305320154">
        <ele>86.4</ele>
        <time>2018-01-22T18:58:35Z</time>
      </trkpt>
      <trkpt lat="62.6315768379" lon="17.973264081206">
        <ele>86.4</ele>
        <time>2018-01-22T18:58:36Z</time>
      </trkpt>
      <trkpt lat="62.631558565358" lon="17.973222423163">
        <ele>86.4</ele>
        <time>2018-01-22T18:58:37Z</time>
      </trkpt>
      <trkpt lat="62.631533671115" lon="17.973175233066">
        <ele>86.4</ele>
        <time>2018-01-22T18:58:38Z</time>
      </trkpt>
      <trkpt lat="62.631508609234" lon="17.973125193123">
        <ele>86.4</ele>
        <time>2018-01-22T18:58:39Z</time>
      </trkpt>
      <trkpt lat="62.631486229561" lon="17.973075404637">
        <ele>86.2</ele>
        <time>2018-01-22T18:58:40Z</time>
      </trkpt>
      <trkpt lat="62.631465861544" lon="17.973023436857">
        <ele>86.2</ele>
        <time>2018-01-22T18:58:41Z</time>
      </trkpt>
      <trkpt lat="62.63144524207" lon="17.972970044154">
        <ele>86</ele>
        <time>2018-01-22T18:58:42Z</time>
      </trkpt>
      <trkpt lat="62.631422275664" lon="17.972916483813">
        <ele>85.8</ele>
        <time>2018-01-22T18:58:43Z</time>
      </trkpt>
      <trkpt lat="62.631397297602" lon="17.972851188812">
        <ele>85.6</ele>
        <time>2018-01-22T18:58:44Z</time>
      </trkpt>
      <trkpt lat="62.631377181042" lon="17.972790420037">
        <ele>85.4</ele>
        <time>2018-01-22T18:58:45Z</time>
      </trkpt>
      <trkpt lat="62.631356058654" lon="17.972735518592">
        <ele>85.2</ele>
        <time>2018-01-22T18:58:46Z</time>
      </trkpt>
      <trkpt lat="62.631334433352" lon="17.972686568296">
        <ele>85</ele>
        <time>2018-01-22T18:58:47Z</time>
      </trkpt>
      <trkpt lat="62.63131364624" lon="17.972618591087">
        <ele>84.8</ele>
        <time>2018-01-22T18:58:48Z</time>
      </trkpt>
      <trkpt lat="62.631294619327" lon="17.972565030746">
        <ele>84.6</ele>
        <time>2018-01-22T18:58:49Z</time>
      </trkpt>
      <trkpt lat="62.631272994025" lon="17.972501328306">
        <ele>84.4</ele>
        <time>2018-01-22T18:58:50Z</time>
      </trkpt>
      <trkpt lat="62.631252206913" lon="17.97244064335">
        <ele>84.2</ele>
        <time>2018-01-22T18:58:51Z</time>
      </trkpt>
      <trkpt lat="62.631231168344" lon="17.972387921199">
        <ele>84</ele>
        <time>2018-01-22T18:58:52Z</time>
      </trkpt>
      <trkpt lat="62.631214572182" lon="17.972321033637">
        <ele>83.8</ele>
        <time>2018-01-22T18:58:53Z</time>
      </trkpt>
      <trkpt lat="62.631196718735" lon="17.972260516319">
        <ele>83.4</ele>
        <time>2018-01-22T18:58:54Z</time>
      </trkpt>
      <trkpt lat="62.63117953584" lon="17.972208045625">
        <ele>83.4</ele>
        <time>2018-01-22T18:58:55Z</time>
      </trkpt>
      <trkpt lat="62.631162688221" lon="17.972138643493">
        <ele>83.2</ele>
        <time>2018-01-22T18:58:56Z</time>
      </trkpt>
      <trkpt lat="62.631147349344" lon="17.97207770708">
        <ele>83.2</ele>
        <time>2018-01-22T18:58:57Z</time>
      </trkpt>
      <trkpt lat="62.63112840625" lon="17.97201232826">
        <ele>83</ele>
        <time>2018-01-22T18:58:58Z</time>
      </trkpt>
      <trkpt lat="62.631111307174" lon="17.971952984408">
        <ele>82.8</ele>
        <time>2018-01-22T18:58:59Z</time>
      </trkpt>
      <trkpt lat="62.631094375736" lon="17.971894897841">
        <ele>82.8</ele>
        <time>2018-01-22T18:59:00Z</time>
      </trkpt>
      <trkpt lat="62.631078617764" lon="17.97184217569">
        <ele>82.6</ele>
        <time>2018-01-22T18:59:01Z</time>
      </trkpt>
      <trkpt lat="62.631061183412" lon="17.971783670028">
        <ele>82.6</ele>
        <time>2018-01-22T18:59:02Z</time>
      </trkpt>
      <trkpt lat="62.631045760716" lon="17.97171812357">
        <ele>82.4</ele>
        <time>2018-01-22T18:59:03Z</time>
      </trkpt>
      <trkpt lat="62.631028745459" lon="17.971663725039">
        <ele>82.2</ele>
        <time>2018-01-22T18:59:04Z</time>
      </trkpt>
      <trkpt lat="62.631014580048" lon="17.971603542997">
        <ele>82.2</ele>
        <time>2018-01-22T18:59:05Z</time>
      </trkpt>
      <trkpt lat="62.631002091017" lon="17.971542774222">
        <ele>82.2</ele>
        <time>2018-01-22T18:59:06Z</time>
      </trkpt>
      <trkpt lat="62.630991529823" lon="17.971478233592">
        <ele>82</ele>
        <time>2018-01-22T18:59:07Z</time>
      </trkpt>
      <trkpt lat="62.630982645009" lon="17.971405227243">
        <ele>81.8</ele>
        <time>2018-01-22T18:59:08Z</time>
      </trkpt>
      <trkpt lat="62.630975688032" lon="17.971341273346">
        <ele>81.6</ele>
        <time>2018-01-22T18:59:09Z</time>
      </trkpt>
      <trkpt lat="62.630967641408" lon="17.971281091304">
        <ele>81.4</ele>
        <time>2018-01-22T18:59:10Z</time>
      </trkpt>
      <trkpt lat="62.630957666947" lon="17.97121772414">
        <ele>81</ele>
        <time>2018-01-22T18:59:11Z</time>
      </trkpt>
      <trkpt lat="62.630946267563" lon="17.971152429139">
        <ele>81</ele>
        <time>2018-01-22T18:59:12Z</time>
      </trkpt>
      <trkpt lat="62.630936628378" lon="17.971103478843">
        <ele>80.8</ele>
        <time>2018-01-22T18:59:13Z</time>
      </trkpt>
      <trkpt lat="62.630925648089" lon="17.971031729779">
        <ele>80.8</ele>
        <time>2018-01-22T18:59:14Z</time>
      </trkpt>
      <trkpt lat="62.630918355836" lon="17.970968530253">
        <ele>80.8</ele>
        <time>2018-01-22T18:59:15Z</time>
      </trkpt>
      <trkpt lat="62.630912404687" lon="17.970901055958">
        <ele>80.8</ele>
        <time>2018-01-22T18:59:16Z</time>
      </trkpt>
      <trkpt lat="62.630905950624" lon="17.970829893627">
        <ele>80.8</ele>
        <time>2018-01-22T18:59:17Z</time>
      </trkpt>
      <trkpt lat="62.630900670027" lon="17.970771723241">
        <ele>80.6</ele>
        <time>2018-01-22T18:59:18Z</time>
      </trkpt>
      <trkpt lat="62.630891701394" lon="17.970721431841">
        <ele>80.6</ele>
        <time>2018-01-22T18:59:19Z</time>
      </trkpt>
      <trkpt lat="62.630893210136" lon="17.970654292822">
        <ele>80.4</ele>
        <time>2018-01-22T18:59:20Z</time>
      </trkpt>
      <trkpt lat="62.630889354462" lon="17.970593691685">
        <ele>80.4</ele>
        <time>2018-01-22T18:59:21Z</time>
      </trkpt>
      <trkpt lat="62.630884325322" lon="17.970533090548">
        <ele>80.2</ele>
        <time>2018-01-22T18:59:22Z</time>
      </trkpt>
      <trkpt lat="62.630880050553" lon="17.970468633737">
        <ele>80.2</ele>
        <time>2018-01-22T18:59:23Z</time>
      </trkpt>
      <trkpt lat="62.630877033069" lon="17.970352963517">
        <ele>80.2</ele>
        <time>2018-01-22T18:59:25Z</time>
      </trkpt>
      <trkpt lat="62.630885247331" lon="17.970291188914">
        <ele>80</ele>
        <time>2018-01-22T18:59:26Z</time>
      </trkpt>
      <trkpt lat="62.630897484905" lon="17.970236287469">
        <ele>80</ele>
        <time>2018-01-22T18:59:27Z</time>
      </trkpt>
      <trkpt lat="62.630917517646" lon="17.970181302205">
        <ele>80</ele>
        <time>2018-01-22T18:59:28Z</time>
      </trkpt>
      <trkpt lat="62.630937047473" lon="17.970139057429">
        <ele>80</ele>
        <time>2018-01-22T18:59:29Z</time>
      </trkpt>
      <trkpt lat="62.630969066331" lon="17.970119527602">
        <ele>79.6</ele>
        <time>2018-01-22T18:59:30Z</time>
      </trkpt>
      <trkpt lat="62.631002845388" lon="17.97010041687">
        <ele>79.6</ele>
        <time>2018-01-22T18:59:31Z</time>
      </trkpt>
      <trkpt lat="62.631034696608" lon="17.970094214264">
        <ele>79.4</ele>
        <time>2018-01-22T18:59:32Z</time>
      </trkpt>
      <trkpt lat="62.631062021602" lon="17.97007527117">
        <ele>79.2</ele>
        <time>2018-01-22T18:59:33Z</time>
      </trkpt>
      <trkpt lat="62.631096722668" lon="17.970060519026">
        <ele>79</ele>
        <time>2018-01-22T18:59:34Z</time>
      </trkpt>
      <trkpt lat="62.631128909164" lon="17.970027159064">
        <ele>78.8</ele>
        <time>2018-01-22T18:59:35Z</time>
      </trkpt>
      <trkpt lat="62.631155144511" lon="17.970001091355">
        <ele>78.8</ele>
        <time>2018-01-22T18:59:36Z</time>
      </trkpt>
      <trkpt lat="62.631185822265" lon="17.969983824641">
        <ele>78.6</ele>
        <time>2018-01-22T18:59:37Z</time>
      </trkpt>
      <trkpt lat="62.631216500019" lon="17.969959852407">
        <ele>78.4</ele>
        <time>2018-01-22T18:59:38Z</time>
      </trkpt>
      <trkpt lat="62.631246339583" lon="17.969942250417">
        <ele>78.4</ele>
        <time>2018-01-22T18:59:39Z</time>
      </trkpt>
      <trkpt lat="62.631275508595" lon="17.969925486617">
        <ele>78.2</ele>
        <time>2018-01-22T18:59:40Z</time>
      </trkpt>
      <trkpt lat="62.631302498313" lon="17.969910483016">
        <ele>78.2</ele>
        <time>2018-01-22T18:59:41Z</time>
      </trkpt>
      <trkpt lat="62.631330745316" lon="17.969892713388">
        <ele>78.2</ele>
        <time>2018-01-22T18:59:42Z</time>
      </trkpt>
      <trkpt lat="62.631361506889" lon="17.969880559633">
        <ele>78.2</ele>
        <time>2018-01-22T18:59:43Z</time>
      </trkpt>
      <trkpt lat="62.631392603738" lon="17.969859940159">
        <ele>78.2</ele>
        <time>2018-01-22T18:59:44Z</time>
      </trkpt>
      <trkpt lat="62.631423281492" lon="17.969844936558">
        <ele>78</ele>
        <time>2018-01-22T18:59:45Z</time>
      </trkpt>
      <trkpt lat="62.631453707789" lon="17.969827083111">
        <ele>78</ele>
        <time>2018-01-22T18:59:46Z</time>
      </trkpt>
      <trkpt lat="62.631481451878" lon="17.96981207951">
        <ele>78</ele>
        <time>2018-01-22T18:59:47Z</time>
      </trkpt>
      <trkpt lat="62.631513303098" lon="17.969785927982">
        <ele>77.8</ele>
        <time>2018-01-22T18:59:48Z</time>
      </trkpt>
      <trkpt lat="62.631542891205" lon="17.969770756743">
        <ele>77.8</ele>
        <time>2018-01-22T18:59:49Z</time>
      </trkpt>
      <trkpt lat="62.63157013238" lon="17.969752400382">
        <ele>77.8</ele>
        <time>2018-01-22T18:59:50Z</time>
      </trkpt>
      <trkpt lat="62.631596367727" lon="17.969731948546">
        <ele>77.8</ele>
        <time>2018-01-22T18:59:51Z</time>
      </trkpt>
      <trkpt lat="62.63162545292" lon="17.969711329072">
        <ele>77.8</ele>
        <time>2018-01-22T18:59:52Z</time>
      </trkpt>
      <trkpt lat="62.631652526457" lon="17.969683668802">
        <ele>77.6</ele>
        <time>2018-01-22T18:59:53Z</time>
      </trkpt>
      <trkpt lat="62.631678510347" lon="17.969652907229">
        <ele>77.6</ele>
        <time>2018-01-22T18:59:54Z</time>
      </trkpt>
      <trkpt lat="62.631706170617" lon="17.969620217819">
        <ele>77.6</ele>
        <time>2018-01-22T18:59:55Z</time>
      </trkpt>
      <trkpt lat="62.631731567774" lon="17.96957990088">
        <ele>77.4</ele>
        <time>2018-01-22T18:59:56Z</time>
      </trkpt>
      <trkpt lat="62.631758306035" lon="17.969543523434">
        <ele>77.2</ele>
        <time>2018-01-22T18:59:57Z</time>
      </trkpt>
      <trkpt lat="62.631787642685" lon="17.969523323055">
        <ele>77</ele>
        <time>2018-01-22T18:59:58Z</time>
      </trkpt>
      <trkpt lat="62.631816476421" lon="17.969516030802">
        <ele>77</ele>
        <time>2018-01-22T18:59:59Z</time>
      </trkpt>
      <trkpt lat="62.631845310157" lon="17.969519635019">
        <ele>76.8</ele>
        <time>2018-01-22T19:00:00Z</time>
      </trkpt>
      <trkpt lat="62.631871126409" lon="17.969525083254">
        <ele>76.8</ele>
        <time>2018-01-22T19:00:01Z</time>
      </trkpt>
      <trkpt lat="62.631892332616" lon="17.969529190385">
        <ele>76.6</ele>
        <time>2018-01-22T19:00:02Z</time>
      </trkpt>
      <trkpt lat="62.631923429465" lon="17.969536985552">
        <ele>76.8</ele>
        <time>2018-01-22T19:00:03Z</time>
      </trkpt>
      <trkpt lat="62.631950419183" lon="17.96954050595">
        <ele>76.8</ele>
        <time>2018-01-22T19:00:04Z</time>
      </trkpt>
      <trkpt lat="62.631977911815" lon="17.969540170674">
        <ele>76.8</ele>
        <time>2018-01-22T19:00:05Z</time>
      </trkpt>
      <trkpt lat="62.632005655904" lon="17.969540003036">
        <ele>76.8</ele>
        <time>2018-01-22T19:00:06Z</time>
      </trkpt>
      <trkpt lat="62.632029879595" lon="17.969537237009">
        <ele>77</ele>
        <time>2018-01-22T19:00:07Z</time>
      </trkpt>
      <trkpt lat="62.632058042779" lon="17.969531704955">
        <ele>77.2</ele>
        <time>2018-01-22T19:00:08Z</time>
      </trkpt>
      <trkpt lat="62.632085116316" lon="17.969529022747">
        <ele>77.2</ele>
        <time>2018-01-22T19:00:09Z</time>
      </trkpt>
      <trkpt lat="62.632111854577" lon="17.969524161245">
        <ele>77.4</ele>
        <time>2018-01-22T19:00:10Z</time>
      </trkpt>
      <trkpt lat="62.632138676657" lon="17.969514354422">
        <ele>77.2</ele>
        <time>2018-01-22T19:00:11Z</time>
      </trkpt>
      <trkpt lat="62.632167007479" lon="17.969505637246">
        <ele>77.4</ele>
        <time>2018-01-22T19:00:12Z</time>
      </trkpt>
      <trkpt lat="62.632194248654" lon="17.969496249518">
        <ele>77.4</ele>
        <time>2018-01-22T19:00:13Z</time>
      </trkpt>
      <trkpt lat="62.632222830933" lon="17.969487867618">
        <ele>77.2</ele>
        <time>2018-01-22T19:00:14Z</time>
      </trkpt>
      <trkpt lat="62.632250323565" lon="17.969484598677">
        <ele>77.2</ele>
        <time>2018-01-22T19:00:15Z</time>
      </trkpt>
      <trkpt lat="62.632277983835" lon="17.969479401899">
        <ele>77.4</ele>
        <time>2018-01-22T19:00:16Z</time>
      </trkpt>
      <trkpt lat="62.632305476467" lon="17.969472277284">
        <ele>77.4</ele>
        <time>2018-01-22T19:00:17Z</time>
      </trkpt>
      <trkpt lat="62.632334226384" lon="17.969466912868">
        <ele>77.4</ele>
        <time>2018-01-22T19:00:18Z</time>
      </trkpt>
      <trkpt lat="62.632362557206" lon="17.969463895384">
        <ele>77.4</ele>
        <time>2018-01-22T19:00:19Z</time>
      </trkpt>
      <trkpt lat="62.632388708734" lon="17.969462721918">
        <ele>77.4</ele>
        <time>2018-01-22T19:00:20Z</time>
      </trkpt>
      <trkpt lat="62.632415530814" lon="17.969460458805">
        <ele>77.4</ele>
        <time>2018-01-22T19:00:21Z</time>
      </trkpt>
      <trkpt lat="62.632443023446" lon="17.969461380814">
        <ele>77.6</ele>
        <time>2018-01-22T19:00:22Z</time>
      </trkpt>
      <trkpt lat="62.632471270449" lon="17.969463141013">
        <ele>77.4</ele>
        <time>2018-01-22T19:00:23Z</time>
      </trkpt>
      <trkpt lat="62.632501026194" lon="17.969462302823">
        <ele>77.4</ele>
        <time>2018-01-22T19:00:24Z</time>
      </trkpt>
      <trkpt lat="62.632532206862" lon="17.969463727746">
        <ele>77.4</ele>
        <time>2018-01-22T19:00:25Z</time>
      </trkpt>
      <trkpt lat="62.632558609847" lon="17.969464901212">
        <ele>77.4</ele>
        <time>2018-01-22T19:00:26Z</time>
      </trkpt>
      <trkpt lat="62.632586353936" lon="17.969466661411">
        <ele>77.4</ele>
        <time>2018-01-22T19:00:27Z</time>
      </trkpt>
      <trkpt lat="62.632615439129" lon="17.969475210949">
        <ele>77.4</ele>
        <time>2018-01-22T19:00:28Z</time>
      </trkpt>
      <trkpt lat="62.632643267037" lon="17.969480240089">
        <ele>77.6</ele>
        <time>2018-01-22T19:00:29Z</time>
      </trkpt>
      <trkpt lat="62.632671430221" lon="17.969488035256">
        <ele>77.6</ele>
        <time>2018-01-22T19:00:30Z</time>
      </trkpt>
      <trkpt lat="62.632700599233" lon="17.969496668613">
        <ele>77.6</ele>
        <time>2018-01-22T19:00:31Z</time>
      </trkpt>
      <trkpt lat="62.632699593405" lon="17.969494237862">
        <ele>77.6</ele>
        <time>2018-01-22T19:00:32Z</time>
      </trkpt>
      <trkpt lat="62.63273521648" lon="17.969501530115">
        <ele>77.6</ele>
        <time>2018-01-22T19:00:33Z</time>
      </trkpt>
      <trkpt lat="62.632782658034" lon="17.969505972522">
        <ele>77.6</ele>
        <time>2018-01-22T19:00:34Z</time>
      </trkpt>
      <trkpt lat="62.632810150666" lon="17.969503374133">
        <ele>77.6</ele>
        <time>2018-01-22T19:00:35Z</time>
      </trkpt>
      <trkpt lat="62.63283747566" lon="17.969500105192">
        <ele>77.6</ele>
        <time>2018-01-22T19:00:36Z</time>
      </trkpt>
      <trkpt lat="62.632864046283" lon="17.96950614016">
        <ele>77.6</ele>
        <time>2018-01-22T19:00:37Z</time>
      </trkpt>
      <trkpt lat="62.632890365449" lon="17.969511336938">
        <ele>77.6</ele>
        <time>2018-01-22T19:00:38Z</time>
      </trkpt>
      <trkpt lat="62.632916852253" lon="17.969517623363">
        <ele>78</ele>
        <time>2018-01-22T19:00:39Z</time>
      </trkpt>
      <trkpt lat="62.632943255238" lon="17.969522484865">
        <ele>78</ele>
        <time>2018-01-22T19:00:40Z</time>
      </trkpt>
      <trkpt lat="62.632969322947" lon="17.969525669987">
        <ele>78</ele>
        <time>2018-01-22T19:00:41Z</time>
      </trkpt>
      <trkpt lat="62.632996564122" lon="17.969529693299">
        <ele>78.2</ele>
        <time>2018-01-22T19:00:42Z</time>
      </trkpt>
      <trkpt lat="62.633023721478" lon="17.969541847054">
        <ele>78.2</ele>
        <time>2018-01-22T19:00:43Z</time>
      </trkpt>
      <trkpt lat="62.633051381748" lon="17.969546792375">
        <ele>78.2</ele>
        <time>2018-01-22T19:00:44Z</time>
      </trkpt>
      <trkpt lat="62.633079125837" lon="17.969559113768">
        <ele>78.4</ele>
        <time>2018-01-22T19:00:45Z</time>
      </trkpt>
      <trkpt lat="62.633106450831" lon="17.969570094057">
        <ele>78.4</ele>
        <time>2018-01-22T19:00:46Z</time>
      </trkpt>
      <trkpt lat="62.633132434721" lon="17.969578643595">
        <ele>78.4</ele>
        <time>2018-01-22T19:00:47Z</time>
      </trkpt>
      <trkpt lat="62.633163028656" lon="17.969584510925">
        <ele>78.4</ele>
        <time>2018-01-22T19:00:48Z</time>
      </trkpt>
      <trkpt lat="62.633189599279" lon="17.969592976644">
        <ele>78.4</ele>
        <time>2018-01-22T19:00:49Z</time>
      </trkpt>
      <trkpt lat="62.633217427187" lon="17.969596077947">
        <ele>78.4</ele>
        <time>2018-01-22T19:00:50Z</time>
      </trkpt>
      <trkpt lat="62.633245590371" lon="17.969603789295">
        <ele>78.4</ele>
        <time>2018-01-22T19:00:51Z</time>
      </trkpt>
      <trkpt lat="62.633272412451" lon="17.969593647196">
        <ele>78.4</ele>
        <time>2018-01-22T19:00:52Z</time>
      </trkpt>
      <trkpt lat="62.633299569807" lon="17.969566322202">
        <ele>78.4</ele>
        <time>2018-01-22T19:00:53Z</time>
      </trkpt>
      <trkpt lat="62.633323961136" lon="17.969542685244">
        <ele>78.6</ele>
        <time>2018-01-22T19:00:54Z</time>
      </trkpt>
      <trkpt lat="62.633346759904" lon="17.969516617535">
        <ele>78.6</ele>
        <time>2018-01-22T19:00:55Z</time>
      </trkpt>
      <trkpt lat="62.633345334981" lon="17.969495746604">
        <ele>78.6</ele>
        <time>2018-01-22T19:00:56Z</time>
      </trkpt>
      <trkpt lat="62.633352375777" lon="17.969417208201">
        <ele>78.6</ele>
        <time>2018-01-22T19:00:57Z</time>
      </trkpt>
      <trkpt lat="62.633352291958" lon="17.969349314811">
        <ele>78.8</ele>
        <time>2018-01-22T19:00:58Z</time>
      </trkpt>
      <trkpt lat="62.633353884519" lon="17.969295670651">
        <ele>78.8</ele>
        <time>2018-01-22T19:00:59Z</time>
      </trkpt>
      <trkpt lat="62.633357237279" lon="17.969235991523">
        <ele>78.6</ele>
        <time>2018-01-22T19:01:00Z</time>
      </trkpt>
      <trkpt lat="62.633362266419" lon="17.969174384558">
        <ele>78.6</ele>
        <time>2018-01-22T19:01:01Z</time>
      </trkpt>
      <trkpt lat="62.63336134441" lon="17.969157872215">
        <ele>78.6</ele>
        <time>2018-01-22T19:01:02Z</time>
      </trkpt>
      <trkpt lat="62.633364948627" lon="17.969064078754">
        <ele>78.4</ele>
        <time>2018-01-22T19:01:03Z</time>
      </trkpt>
      <trkpt lat="62.633369810129" lon="17.969006830377">
        <ele>78.2</ele>
        <time>2018-01-22T19:01:04Z</time>
      </trkpt>
      <trkpt lat="62.633374671631" lon="17.968955952244">
        <ele>78</ele>
        <time>2018-01-22T19:01:05Z</time>
      </trkpt>
      <trkpt lat="62.633380538961" lon="17.968907337224">
        <ele>77.8</ele>
        <time>2018-01-22T19:01:06Z</time>
      </trkpt>
      <trkpt lat="62.633388082671" lon="17.968852938693">
        <ele>77.8</ele>
        <time>2018-01-22T19:01:07Z</time>
      </trkpt>
      <trkpt lat="62.63340241572" lon="17.968792086099">
        <ele>77.6</ele>
        <time>2018-01-22T19:01:08Z</time>
      </trkpt>
      <trkpt lat="62.633419263339" lon="17.968737687568">
        <ele>77.4</ele>
        <time>2018-01-22T19:01:09Z</time>
      </trkpt>
      <trkpt lat="62.633437954976" lon="17.968686138883">
        <ele>77.2</ele>
        <time>2018-01-22T19:01:10Z</time>
      </trkpt>
      <trkpt lat="62.63345522169" lon="17.968634338741">
        <ele>77</ele>
        <time>2018-01-22T19:01:11Z</time>
      </trkpt>
      <trkpt lat="62.6334711473" lon="17.968582706237">
        <ele>77</ele>
        <time>2018-01-22T19:01:12Z</time>
      </trkpt>
      <trkpt lat="62.633477685182" lon="17.968532247199">
        <ele>76.8</ele>
        <time>2018-01-22T19:01:13Z</time>
      </trkpt>
      <trkpt lat="62.633483971607" lon="17.968464940542">
        <ele>76.6</ele>
        <time>2018-01-22T19:01:14Z</time>
      </trkpt>
      <trkpt lat="62.633489838937" lon="17.968403585034">
        <ele>76.4</ele>
        <time>2018-01-22T19:01:15Z</time>
      </trkpt>
      <trkpt lat="62.633496712095" lon="17.968344576458">
        <ele>76</ele>
        <time>2018-01-22T19:01:16Z</time>
      </trkpt>
      <trkpt lat="62.633505932185" lon="17.968283472407">
        <ele>76</ele>
        <time>2018-01-22T19:01:17Z</time>
      </trkpt>
      <trkpt lat="62.633510961325" lon="17.968226726944">
        <ele>75.6</ele>
        <time>2018-01-22T19:01:18Z</time>
      </trkpt>
      <trkpt lat="62.633517499207" lon="17.968168221282">
        <ele>75.4</ele>
        <time>2018-01-22T19:01:19Z</time>
      </trkpt>
      <trkpt lat="62.633527725125" lon="17.968107871602">
        <ele>75.2</ele>
        <time>2018-01-22T19:01:20Z</time>
      </trkpt>
      <trkpt lat="62.633537448129" lon="17.96805104232">
        <ele>75</ele>
        <time>2018-01-22T19:01:21Z</time>
      </trkpt>
      <trkpt lat="62.633545159477" lon="17.968001253834">
        <ele>74.8</ele>
        <time>2018-01-22T19:01:22Z</time>
      </trkpt>
      <trkpt lat="62.63355580449" lon="17.967937551394">
        <ele>74.4</ele>
        <time>2018-01-22T19:01:23Z</time>
      </trkpt>
      <trkpt lat="62.633563012924" lon="17.967876279705">
        <ele>74.2</ele>
        <time>2018-01-22T19:01:24Z</time>
      </trkpt>
      <trkpt lat="62.633569131711" lon="17.96781634912">
        <ele>74</ele>
        <time>2018-01-22T19:01:25Z</time>
      </trkpt>
      <trkpt lat="62.633581536923" lon="17.967755831802">
        <ele>73.8</ele>
        <time>2018-01-22T19:01:26Z</time>
      </trkpt>
      <trkpt lat="62.633593690678" lon="17.967701600909">
        <ele>73.6</ele>
        <time>2018-01-22T19:01:27Z</time>
      </trkpt>
      <trkpt lat="62.633610538297" lon="17.967614764425">
        <ele>73.4</ele>
        <time>2018-01-22T19:01:28Z</time>
      </trkpt>
      <trkpt lat="62.633625290441" lon="17.967544691741">
        <ele>73</ele>
        <time>2018-01-22T19:01:29Z</time>
      </trkpt>
      <trkpt lat="62.633637192739" lon="17.967474032324">
        <ele>72.6</ele>
        <time>2018-01-22T19:01:30Z</time>
      </trkpt>
      <trkpt lat="62.633649597951" lon="17.96740312145">
        <ele>72.6</ele>
        <time>2018-01-22T19:01:31Z</time>
      </trkpt>
      <trkpt lat="62.633655716738" lon="17.967344531969">
        <ele>72.2</ele>
        <time>2018-01-22T19:01:32Z</time>
      </trkpt>
      <trkpt lat="62.633662338439" lon="17.967275968027">
        <ele>72</ele>
        <time>2018-01-22T19:01:33Z</time>
      </trkpt>
      <trkpt lat="62.633671139434" lon="17.967212768501">
        <ele>71.8</ele>
        <time>2018-01-22T19:01:34Z</time>
      </trkpt>
      <trkpt lat="62.633680778619" lon="17.967152418821">
        <ele>71.6</ele>
        <time>2018-01-22T19:01:35Z</time>
      </trkpt>
      <trkpt lat="62.633686478311" lon="17.967103300887">
        <ele>71.4</ele>
        <time>2018-01-22T19:01:36Z</time>
      </trkpt>
      <trkpt lat="62.633695614582" lon="17.967033312022">
        <ele>71.2</ele>
        <time>2018-01-22T19:01:37Z</time>
      </trkpt>
      <trkpt lat="62.633686310673" lon="17.966955695628">
        <ele>71</ele>
        <time>2018-01-22T19:01:38Z</time>
      </trkpt>
      <trkpt lat="62.633683544646" lon="17.966887131686">
        <ele>70.6</ele>
        <time>2018-01-22T19:01:39Z</time>
      </trkpt>
      <trkpt lat="62.633688406148" lon="17.966820663219">
        <ele>70.2</ele>
        <time>2018-01-22T19:01:40Z</time>
      </trkpt>
      <trkpt lat="62.633695949858" lon="17.966759810625">
        <ele>70</ele>
        <time>2018-01-22T19:01:41Z</time>
      </trkpt>
      <trkpt lat="62.63370332593" lon="17.966699796221">
        <ele>69.8</ele>
        <time>2018-01-22T19:01:42Z</time>
      </trkpt>
      <trkpt lat="62.633711875468" lon="17.966630477908">
        <ele>69.4</ele>
        <time>2018-01-22T19:01:43Z</time>
      </trkpt>
      <trkpt lat="62.633721347015" lon="17.966571385513">
        <ele>69</ele>
        <time>2018-01-22T19:01:44Z</time>
      </trkpt>
      <trkpt lat="62.633727884897" lon="17.966512209299">
        <ele>68.8</ele>
        <time>2018-01-22T19:01:45Z</time>
      </trkpt>
      <trkpt lat="62.633735009512" lon="17.966447417212">
        <ele>68.6</ele>
        <time>2018-01-22T19:01:46Z</time>
      </trkpt>
      <trkpt lat="62.633742469403" lon="17.966380697288">
        <ele>68.2</ele>
        <time>2018-01-22T19:01:47Z</time>
      </trkpt>
      <trkpt lat="62.633747498543" lon="17.966328058956">
        <ele>68</ele>
        <time>2018-01-22T19:01:48Z</time>
      </trkpt>
      <trkpt lat="62.633753868787" lon="17.966269218018">
        <ele>67.8</ele>
        <time>2018-01-22T19:01:49Z</time>
      </trkpt>
      <trkpt lat="62.633761831592" lon="17.96620786251">
        <ele>67.6</ele>
        <time>2018-01-22T19:01:50Z</time>
      </trkpt>
      <trkpt lat="62.633770213492" lon="17.966153547798">
        <ele>67.4</ele>
        <time>2018-01-22T19:01:51Z</time>
      </trkpt>
      <trkpt lat="62.633774320623" lon="17.966101496199">
        <ele>67.4</ele>
        <time>2018-01-22T19:01:52Z</time>
      </trkpt>
      <trkpt lat="62.633780690867" lon="17.966033602809">
        <ele>67.2</ele>
        <time>2018-01-22T19:01:53Z</time>
      </trkpt>
      <trkpt lat="62.633784714179" lon="17.965976102975">
        <ele>67.2</ele>
        <time>2018-01-22T19:01:54Z</time>
      </trkpt>
      <trkpt lat="62.633787564025" lon="17.965919441331">
        <ele>67</ele>
        <time>2018-01-22T19:01:55Z</time>
      </trkpt>
      <trkpt lat="62.633788653672" lon="17.965854481606">
        <ele>66.8</ele>
        <time>2018-01-22T19:01:56Z</time>
      </trkpt>
      <trkpt lat="62.633788737491" lon="17.965793126098">
        <ele>66.8</ele>
        <time>2018-01-22T19:01:57Z</time>
      </trkpt>
      <trkpt lat="62.633789575681" lon="17.965739649576">
        <ele>66.4</ele>
        <time>2018-01-22T19:01:58Z</time>
      </trkpt>
      <trkpt lat="62.633790581509" lon="17.965680808638">
        <ele>66.2</ele>
        <time>2018-01-22T19:01:59Z</time>
      </trkpt>
      <trkpt lat="62.633790749147" lon="17.965622973528">
        <ele>66</ele>
        <time>2018-01-22T19:02:00Z</time>
      </trkpt>
      <trkpt lat="62.63379133588" lon="17.965568239721">
        <ele>65.6</ele>
        <time>2018-01-22T19:02:01Z</time>
      </trkpt>
      <trkpt lat="62.633788905129" lon="17.965510991344">
        <ele>65.4</ele>
        <time>2018-01-22T19:02:02Z</time>
      </trkpt>
      <trkpt lat="62.633782199609" lon="17.965441505393">
        <ele>65</ele>
        <time>2018-01-22T19:02:03Z</time>
      </trkpt>
      <trkpt lat="62.633779098306" lon="17.965382077722">
        <ele>64.8</ele>
        <time>2018-01-22T19:02:04Z</time>
      </trkpt>
      <trkpt lat="62.633778511573" lon="17.965320386938">
        <ele>64.4</ele>
        <time>2018-01-22T19:02:05Z</time>
      </trkpt>
      <trkpt lat="62.63377960122" lon="17.965257690326">
        <ele>64.2</ele>
        <time>2018-01-22T19:02:06Z</time>
      </trkpt>
      <trkpt lat="62.633773398614" lon="17.965198178836">
        <ele>64</ele>
        <time>2018-01-22T19:02:07Z</time>
      </trkpt>
      <trkpt lat="62.633777757202" lon="17.965134644034">
        <ele>63.8</ele>
        <time>2018-01-22T19:02:08Z</time>
      </trkpt>
      <trkpt lat="62.633780187953" lon="17.965074294354">
        <ele>63.6</ele>
        <time>2018-01-22T19:02:09Z</time>
      </trkpt>
      <trkpt lat="62.633782031971" lon="17.965020063461">
        <ele>63.4</ele>
        <time>2018-01-22T19:02:10Z</time>
      </trkpt>
      <trkpt lat="62.633785636188" lon="17.964964910559">
        <ele>63</ele>
        <time>2018-01-22T19:02:11Z</time>
      </trkpt>
      <trkpt lat="62.633791587337" lon="17.964908584191">
        <ele>63</ele>
        <time>2018-01-22T19:02:12Z</time>
      </trkpt>
      <trkpt lat="62.633808686413" lon="17.96487011127">
        <ele>62.8</ele>
        <time>2018-01-22T19:02:13Z</time>
      </trkpt>
      <trkpt lat="62.633836011407" lon="17.9648340691">
        <ele>62.6</ele>
        <time>2018-01-22T19:02:14Z</time>
      </trkpt>
      <trkpt lat="62.633865515695" lon="17.964812946712">
        <ele>62.4</ele>
        <time>2018-01-22T19:02:15Z</time>
      </trkpt>
      <trkpt lat="62.633895187621" lon="17.964798948939">
        <ele>62.2</ele>
        <time>2018-01-22T19:02:16Z</time>
      </trkpt>
      <trkpt lat="62.633924272814" lon="17.964785956994">
        <ele>62.2</ele>
        <time>2018-01-22T19:02:17Z</time>
      </trkpt>
      <trkpt lat="62.633950340523" lon="17.964793249247">
        <ele>62</ele>
        <time>2018-01-22T19:02:18Z</time>
      </trkpt>
      <trkpt lat="62.633972217282" lon="17.964790650858">
        <ele>61.6</ele>
        <time>2018-01-22T19:02:19Z</time>
      </trkpt>
      <trkpt lat="62.634005996339" lon="17.964790315582">
        <ele>61.4</ele>
        <time>2018-01-22T19:02:20Z</time>
      </trkpt>
      <trkpt lat="62.63403608736" lon="17.964788303926">
        <ele>61.2</ele>
        <time>2018-01-22T19:02:21Z</time>
      </trkpt>
      <trkpt lat="62.634060813965" lon="17.964781514587">
        <ele>61.2</ele>
        <time>2018-01-22T19:02:22Z</time>
      </trkpt>
      <trkpt lat="62.634093587194" lon="17.964778664741">
        <ele>61</ele>
        <time>2018-01-22T19:02:23Z</time>
      </trkpt>
      <trkpt lat="62.634122504749" lon="17.964774809067">
        <ele>60.8</ele>
        <time>2018-01-22T19:02:24Z</time>
      </trkpt>
      <trkpt lat="62.634150165019" lon="17.964770282841">
        <ele>60.8</ele>
        <time>2018-01-22T19:02:25Z</time>
      </trkpt>
      <trkpt lat="62.63416097767" lon="17.96477455761">
        <ele>60.8</ele>
        <time>2018-01-22T19:02:26Z</time>
      </trkpt>
      <trkpt lat="62.634204479731" lon="17.964771037212">
        <ele>60.8</ele>
        <time>2018-01-22T19:02:27Z</time>
      </trkpt>
      <trkpt lat="62.634242365919" lon="17.964770199022">
        <ele>60.6</ele>
        <time>2018-01-22T19:02:28Z</time>
      </trkpt>
      <trkpt lat="62.63427245694" lon="17.96477371942">
        <ele>60.4</ele>
        <time>2018-01-22T19:02:29Z</time>
      </trkpt>
      <trkpt lat="62.634301039219" lon="17.964771288669">
        <ele>60.4</ele>
        <time>2018-01-22T19:02:30Z</time>
      </trkpt>
      <trkpt lat="62.634327945118" lon="17.964766091891">
        <ele>60.2</ele>
        <time>2018-01-22T19:02:31Z</time>
      </trkpt>
      <trkpt lat="62.634359377243" lon="17.9647670139">
        <ele>60.2</ele>
        <time>2018-01-22T19:02:32Z</time>
      </trkpt>
      <trkpt lat="62.634388378617" lon="17.964765924253">
        <ele>60.2</ele>
        <time>2018-01-22T19:02:33Z</time>
      </trkpt>
      <trkpt lat="62.634417296172" lon="17.96476449933">
        <ele>60.2</ele>
        <time>2018-01-22T19:02:34Z</time>
      </trkpt>
      <trkpt lat="62.634448057745" lon="17.964765002244">
        <ele>60.2</ele>
        <time>2018-01-22T19:02:35Z</time>
      </trkpt>
      <trkpt lat="62.634477981128" lon="17.964765421339">
        <ele>60.2</ele>
        <time>2018-01-22T19:02:36Z</time>
      </trkpt>
      <trkpt lat="62.634500360801" lon="17.964760476018">
        <ele>60.2</ele>
        <time>2018-01-22T19:02:37Z</time>
      </trkpt>
      <trkpt lat="62.634534558953" lon="17.964760727475">
        <ele>60.2</ele>
        <time>2018-01-22T19:02:38Z</time>
      </trkpt>
      <trkpt lat="62.634561464852" lon="17.964758212905">
        <ele>60.2</ele>
        <time>2018-01-22T19:02:39Z</time>
      </trkpt>
      <trkpt lat="62.634590298588" lon="17.964755949792">
        <ele>60</ele>
        <time>2018-01-22T19:02:40Z</time>
      </trkpt>
      <trkpt lat="62.634617958858" lon="17.964756201249">
        <ele>60.2</ele>
        <time>2018-01-22T19:02:41Z</time>
      </trkpt>
      <trkpt lat="62.634644780938" lon="17.964759386371">
        <ele>60</ele>
        <time>2018-01-22T19:02:42Z</time>
      </trkpt>
      <trkpt lat="62.63467143538" lon="17.964754608688">
        <ele>60</ele>
        <time>2018-01-22T19:02:43Z</time>
      </trkpt>
      <trkpt lat="62.634698592736" lon="17.964753016127">
        <ele>60</ele>
        <time>2018-01-22T19:02:44Z</time>
      </trkpt>
      <trkpt lat="62.634735892191" lon="17.964757542353">
        <ele>60</ele>
        <time>2018-01-22T19:02:45Z</time>
      </trkpt>
      <trkpt lat="62.634765396479" lon="17.964758045267">
        <ele>59.8</ele>
        <time>2018-01-22T19:02:46Z</time>
      </trkpt>
      <trkpt lat="62.634795152224" lon="17.964760224561">
        <ele>59.8</ele>
        <time>2018-01-22T19:02:47Z</time>
      </trkpt>
      <trkpt lat="62.634822225761" lon="17.964757039439">
        <ele>59.6</ele>
        <time>2018-01-22T19:02:48Z</time>
      </trkpt>
      <trkpt lat="62.634848461108" lon="17.964750082462">
        <ele>59.4</ele>
        <time>2018-01-22T19:02:49Z</time>
      </trkpt>
      <trkpt lat="62.634881569613" lon="17.964743209304">
        <ele>59.2</ele>
        <time>2018-01-22T19:02:50Z</time>
      </trkpt>
      <trkpt lat="62.634909229883" lon="17.964739437449">
        <ele>59.2</ele>
        <time>2018-01-22T19:02:51Z</time>
      </trkpt>
      <trkpt lat="62.634932363927" lon="17.964733234843">
        <ele>59.2</ele>
        <time>2018-01-22T19:02:52Z</time>
      </trkpt>
      <trkpt lat="62.63496480188" lon="17.964724014753">
        <ele>59.2</ele>
        <time>2018-01-22T19:02:53Z</time>
      </trkpt>
      <trkpt lat="62.63499162396" lon="17.964715716672">
        <ele>59.2</ele>
        <time>2018-01-22T19:02:54Z</time>
      </trkpt>
      <trkpt lat="62.635017356393" lon="17.964705574573">
        <ele>59.2</ele>
        <time>2018-01-22T19:02:55Z</time>
      </trkpt>
      <trkpt lat="62.635031437985" lon="17.964708172962">
        <ele>59.2</ele>
        <time>2018-01-22T19:02:56Z</time>
      </trkpt>
      <trkpt lat="62.635071838743" lon="17.964702808546">
        <ele>59.2</ele>
        <time>2018-01-22T19:02:57Z</time>
      </trkpt>
      <trkpt lat="62.635103522325" lon="17.96469660594">
        <ele>59.2</ele>
        <time>2018-01-22T19:02:58Z</time>
      </trkpt>
      <trkpt lat="62.635130428224" lon="17.964690487153">
        <ele>59</ele>
        <time>2018-01-22T19:02:59Z</time>
      </trkpt>
      <trkpt lat="62.635157082666" lon="17.9646831949">
        <ele>59</ele>
        <time>2018-01-22T19:03:00Z</time>
      </trkpt>
      <trkpt lat="62.635182982737" lon="17.96467816576">
        <ele>59</ele>
        <time>2018-01-22T19:03:01Z</time>
      </trkpt>
      <trkpt lat="62.635210978283" lon="17.96467062205">
        <ele>59</ele>
        <time>2018-01-22T19:03:02Z</time>
      </trkpt>
      <trkpt lat="62.635237716544" lon="17.964669867679">
        <ele>58.8</ele>
        <time>2018-01-22T19:03:03Z</time>
      </trkpt>
      <trkpt lat="62.635263700434" lon="17.964667185471">
        <ele>58.8</ele>
        <time>2018-01-22T19:03:04Z</time>
      </trkpt>
      <trkpt lat="62.635288678496" lon="17.964662659245">
        <ele>58.6</ele>
        <time>2018-01-22T19:03:05Z</time>
      </trkpt>
      <trkpt lat="62.635312986006" lon="17.964657378648">
        <ele>58.6</ele>
        <time>2018-01-22T19:03:06Z</time>
      </trkpt>
      <trkpt lat="62.635337880249" lon="17.964639860477">
        <ele>58.4</ele>
        <time>2018-01-22T19:03:07Z</time>
      </trkpt>
      <trkpt lat="62.635365875795" lon="17.964628209636">
        <ele>58.4</ele>
        <time>2018-01-22T19:03:08Z</time>
      </trkpt>
      <trkpt lat="62.635392446418" lon="17.964611864931">
        <ele>58.4</ele>
        <time>2018-01-22T19:03:09Z</time>
      </trkpt>
      <trkpt lat="62.635420358145" lon="17.964594430579">
        <ele>58.4</ele>
        <time>2018-01-22T19:03:10Z</time>
      </trkpt>
      <trkpt lat="62.635447347863" lon="17.964577331503">
        <ele>58.2</ele>
        <time>2018-01-22T19:03:11Z</time>
      </trkpt>
      <trkpt lat="62.635473918486" lon="17.964559897151">
        <ele>58.2</ele>
        <time>2018-01-22T19:03:12Z</time>
      </trkpt>
      <trkpt lat="62.635501578756" lon="17.964548413948">
        <ele>58.2</ele>
        <time>2018-01-22T19:03:13Z</time>
      </trkpt>
      <trkpt lat="62.635529574302" lon="17.96453399708">
        <ele>58.2</ele>
        <time>2018-01-22T19:03:14Z</time>
      </trkpt>
      <trkpt lat="62.635555474373" lon="17.964524860809">
        <ele>58.2</ele>
        <time>2018-01-22T19:03:15Z</time>
      </trkpt>
      <trkpt lat="62.635579949521" lon="17.964515137805">
        <ele>58.2</ele>
        <time>2018-01-22T19:03:16Z</time>
      </trkpt>
      <trkpt lat="62.635603335022" lon="17.964507175">
        <ele>58</ele>
        <time>2018-01-22T19:03:17Z</time>
      </trkpt>
      <trkpt lat="62.635628899817" lon="17.964483454223">
        <ele>57.8</ele>
        <time>2018-01-22T19:03:18Z</time>
      </trkpt>
      <trkpt lat="62.635654548431" lon="17.964467444794">
        <ele>58</ele>
        <time>2018-01-22T19:03:19Z</time>
      </trkpt>
      <trkpt lat="62.635684220357" lon="17.964438108144">
        <ele>57.8</ele>
        <time>2018-01-22T19:03:20Z</time>
      </trkpt>
      <trkpt lat="62.635713473188" lon="17.964413549177">
        <ele>57.8</ele>
        <time>2018-01-22T19:03:21Z</time>
      </trkpt>
      <trkpt lat="62.635738115974" lon="17.964393851712">
        <ele>57.8</ele>
        <time>2018-01-22T19:03:22Z</time>
      </trkpt>
      <trkpt lat="62.635766027701" lon="17.964364515062">
        <ele>57.6</ele>
        <time>2018-01-22T19:03:23Z</time>
      </trkpt>
      <trkpt lat="62.635793436514" lon="17.964342805941">
        <ele>57.6</ele>
        <time>2018-01-22T19:03:24Z</time>
      </trkpt>
      <trkpt lat="62.635820510051" lon="17.964322270286">
        <ele>57.8</ele>
        <time>2018-01-22T19:03:25Z</time>
      </trkpt>
      <trkpt lat="62.63584825414" lon="17.964297459862">
        <ele>57.6</ele>
        <time>2018-01-22T19:03:26Z</time>
      </trkpt>
      <trkpt lat="62.635875243858" lon="17.964273152352">
        <ele>57.6</ele>
        <time>2018-01-22T19:03:27Z</time>
      </trkpt>
      <trkpt lat="62.635901479205" lon="17.964247168462">
        <ele>57.6</ele>
        <time>2018-01-22T19:03:28Z</time>
      </trkpt>
      <trkpt lat="62.635927798371" lon="17.964222609495">
        <ele>57.4</ele>
        <time>2018-01-22T19:03:29Z</time>
      </trkpt>
      <trkpt lat="62.635954536632" lon="17.964201068012">
        <ele>57.4</ele>
        <time>2018-01-22T19:03:30Z</time>
      </trkpt>
      <trkpt lat="62.635981358712" lon="17.964183382203">
        <ele>57.2</ele>
        <time>2018-01-22T19:03:31Z</time>
      </trkpt>
      <trkpt lat="62.636005079489" lon="17.96415764977">
        <ele>57.2</ele>
        <time>2018-01-22T19:03:32Z</time>
      </trkpt>
      <trkpt lat="62.636033913225" lon="17.964125966188">
        <ele>57.2</ele>
        <time>2018-01-22T19:03:33Z</time>
      </trkpt>
      <trkpt lat="62.63606031621" lon="17.964096797176">
        <ele>57</ele>
        <time>2018-01-22T19:03:34Z</time>
      </trkpt>
      <trkpt lat="62.636086719195" lon="17.964068214897">
        <ele>57</ele>
        <time>2018-01-22T19:03:35Z</time>
      </trkpt>
      <trkpt lat="62.636112451628" lon="17.964042147188">
        <ele>57</ele>
        <time>2018-01-22T19:03:36Z</time>
      </trkpt>
      <trkpt lat="62.636131478541" lon="17.964013061995">
        <ele>57</ele>
        <time>2018-01-22T19:03:37Z</time>
      </trkpt>
      <trkpt lat="62.636159641725" lon="17.963982719517">
        <ele>57</ele>
        <time>2018-01-22T19:03:38Z</time>
      </trkpt>
      <trkpt lat="62.636183362502" lon="17.96395480779">
        <ele>57</ele>
        <time>2018-01-22T19:03:39Z</time>
      </trkpt>
      <trkpt lat="62.636208005288" lon="17.96392463295">
        <ele>56.8</ele>
        <time>2018-01-22T19:03:40Z</time>
      </trkpt>
      <trkpt lat="62.636231977522" lon="17.963895631576">
        <ele>56.8</ele>
        <time>2018-01-22T19:03:41Z</time>
      </trkpt>
      <trkpt lat="62.636254189557" lon="17.963866043469">
        <ele>56.8</ele>
        <time>2018-01-22T19:03:42Z</time>
      </trkpt>
      <trkpt lat="62.636273635565" lon="17.963837796466">
        <ele>56.8</ele>
        <time>2018-01-22T19:03:43Z</time>
      </trkpt>
      <trkpt lat="62.636301882568" lon="17.963805777608">
        <ele>56.6</ele>
        <time>2018-01-22T19:03:44Z</time>
      </trkpt>
      <trkpt lat="62.636323424051" lon="17.963775183673">
        <ele>56.6</ele>
        <time>2018-01-22T19:03:45Z</time>
      </trkpt>
      <trkpt lat="62.636347228647" lon="17.963742913358">
        <ele>56.4</ele>
        <time>2018-01-22T19:03:46Z</time>
      </trkpt>
      <trkpt lat="62.63637212289" lon="17.963710810681">
        <ele>56.4</ele>
        <time>2018-01-22T19:03:47Z</time>
      </trkpt>
      <trkpt lat="62.636392071812" lon="17.963682982773">
        <ele>56.2</ele>
        <time>2018-01-22T19:03:48Z</time>
      </trkpt>
      <trkpt lat="62.636413948571" lon="17.963651215372">
        <ele>56.2</ele>
        <time>2018-01-22T19:03:49Z</time>
      </trkpt>
      <trkpt lat="62.636440770651" lon="17.963628919518">
        <ele>56</ele>
        <time>2018-01-22T19:03:50Z</time>
      </trkpt>
      <trkpt lat="62.63646600017" lon="17.963604779646">
        <ele>56</ele>
        <time>2018-01-22T19:03:51Z</time>
      </trkpt>
    </trkseg>
  </trk>
</gpx>